<?xml version="1.0" encoding="UTF-8" standalone="no" ?>
<gpx xmlns="http://www.topografix.com/GPX/1/1" xmlns:xsi="http://www.w3.org/2001/XMLSchema-instance" xsi:schemaLocation="http://www.topografix.com/GPX/1/1 http://www.topografix.com/GPX/1/1/gpx.xsd" version="1.1" creator="VisuGPX - https://www.visugpx.com">
  <metadata>
    <name>Entraînement Raid</name>
    <desc><![CDATA[Entraînement pour le raid de l\'insa-inp Toulouse 2012.
Entraînement en Tarn et Garonne (Belvèze).]]></desc>
  </metadata>
  <trk>
    <name><![CDATA[Entraînement Raid_1]]></name>
    <trkseg>
      <trkpt lat="44.32507" lon="1.12294">
        <ele>226</ele>
        <time>2012-03-11 08:14:50 +0000</time>
      </trkpt>
      <trkpt lat="44.32507" lon="1.12294">
        <ele>224</ele>
        <time>2012-03-11 08:14:53 +0000</time>
      </trkpt>
      <trkpt lat="44.32507" lon="1.12294">
        <ele>225</ele>
        <time>2012-03-11 08:14:57 +0000</time>
      </trkpt>
      <trkpt lat="44.32507" lon="1.12298">
        <ele>226</ele>
        <time>2012-03-11 08:15:00 +0000</time>
      </trkpt>
      <trkpt lat="44.32507" lon="1.12298">
        <ele>228</ele>
        <time>2012-03-11 08:15:04 +0000</time>
      </trkpt>
      <trkpt lat="44.32507" lon="1.12298">
        <ele>228</ele>
        <time>2012-03-11 08:15:07 +0000</time>
      </trkpt>
      <trkpt lat="44.32507" lon="1.12298">
        <ele>230</ele>
        <time>2012-03-11 08:15:10 +0000</time>
      </trkpt>
      <trkpt lat="44.32507" lon="1.12298">
        <ele>235</ele>
        <time>2012-03-11 08:15:13 +0000</time>
      </trkpt>
      <trkpt lat="44.32507" lon="1.12298">
        <ele>230</ele>
        <time>2012-03-11 08:15:17 +0000</time>
      </trkpt>
      <trkpt lat="44.32507" lon="1.12298">
        <ele>231</ele>
        <time>2012-03-11 08:15:20 +0000</time>
      </trkpt>
      <trkpt lat="44.32507" lon="1.12298">
        <ele>232</ele>
        <time>2012-03-11 08:15:24 +0000</time>
      </trkpt>
      <trkpt lat="44.32507" lon="1.12298">
        <ele>231</ele>
        <time>2012-03-11 08:15:27 +0000</time>
      </trkpt>
      <trkpt lat="44.32507" lon="1.12298">
        <ele>233</ele>
        <time>2012-03-11 08:15:31 +0000</time>
      </trkpt>
      <trkpt lat="44.32507" lon="1.12298">
        <ele>229</ele>
        <time>2012-03-11 08:15:35 +0000</time>
      </trkpt>
      <trkpt lat="44.32507" lon="1.12298">
        <ele>225</ele>
        <time>2012-03-11 08:15:38 +0000</time>
      </trkpt>
      <trkpt lat="44.32507" lon="1.12298">
        <ele>229</ele>
        <time>2012-03-11 08:15:42 +0000</time>
      </trkpt>
      <trkpt lat="44.32507" lon="1.12298">
        <ele>228</ele>
        <time>2012-03-11 08:15:45 +0000</time>
      </trkpt>
      <trkpt lat="44.32507" lon="1.12298">
        <ele>225</ele>
        <time>2012-03-11 08:15:49 +0000</time>
      </trkpt>
      <trkpt lat="44.32507" lon="1.12298">
        <ele>231</ele>
        <time>2012-03-11 08:15:52 +0000</time>
      </trkpt>
      <trkpt lat="44.32507" lon="1.12298">
        <ele>230</ele>
        <time>2012-03-11 08:15:56 +0000</time>
      </trkpt>
      <trkpt lat="44.32507" lon="1.12298">
        <ele>227</ele>
        <time>2012-03-11 08:16:00 +0000</time>
      </trkpt>
      <trkpt lat="44.32507" lon="1.12298">
        <ele>224</ele>
        <time>2012-03-11 08:16:03 +0000</time>
      </trkpt>
      <trkpt lat="44.32507" lon="1.12298">
        <ele>230</ele>
        <time>2012-03-11 08:16:07 +0000</time>
      </trkpt>
      <trkpt lat="44.32507" lon="1.12298">
        <ele>234</ele>
        <time>2012-03-11 08:16:10 +0000</time>
      </trkpt>
      <trkpt lat="44.32507" lon="1.12298">
        <ele>232</ele>
        <time>2012-03-11 08:16:14 +0000</time>
      </trkpt>
      <trkpt lat="44.32507" lon="1.12298">
        <ele>232</ele>
        <time>2012-03-11 08:16:18 +0000</time>
      </trkpt>
      <trkpt lat="44.32507" lon="1.12298">
        <ele>234</ele>
        <time>2012-03-11 08:16:21 +0000</time>
      </trkpt>
      <trkpt lat="44.32507" lon="1.12298">
        <ele>233</ele>
        <time>2012-03-11 08:16:24 +0000</time>
      </trkpt>
      <trkpt lat="44.32507" lon="1.12297">
        <ele>243</ele>
        <time>2012-03-11 08:16:28 +0000</time>
      </trkpt>
      <trkpt lat="44.32507" lon="1.12297">
        <ele>232</ele>
        <time>2012-03-11 08:16:31 +0000</time>
      </trkpt>
      <trkpt lat="44.32507" lon="1.12297">
        <ele>236</ele>
        <time>2012-03-11 08:16:34 +0000</time>
      </trkpt>
      <trkpt lat="44.32507" lon="1.12297">
        <ele>232</ele>
        <time>2012-03-11 08:16:38 +0000</time>
      </trkpt>
      <trkpt lat="44.32506" lon="1.12296">
        <ele>230</ele>
        <time>2012-03-11 08:16:41 +0000</time>
      </trkpt>
      <trkpt lat="44.32506" lon="1.12296">
        <ele>234</ele>
        <time>2012-03-11 08:16:45 +0000</time>
      </trkpt>
      <trkpt lat="44.32507" lon="1.12296">
        <ele>233</ele>
        <time>2012-03-11 08:16:48 +0000</time>
      </trkpt>
      <trkpt lat="44.32501" lon="1.12291">
        <ele>231</ele>
        <time>2012-03-11 08:16:52 +0000</time>
      </trkpt>
      <trkpt lat="44.32501" lon="1.12284">
        <ele>230</ele>
        <time>2012-03-11 08:16:55 +0000</time>
      </trkpt>
      <trkpt lat="44.32503" lon="1.12273">
        <ele>229</ele>
        <time>2012-03-11 08:16:59 +0000</time>
      </trkpt>
      <trkpt lat="44.32507" lon="1.12258">
        <ele>226</ele>
        <time>2012-03-11 08:17:02 +0000</time>
      </trkpt>
      <trkpt lat="44.32515" lon="1.12221">
        <ele>223</ele>
        <time>2012-03-11 08:17:06 +0000</time>
      </trkpt>
      <trkpt lat="44.32515" lon="1.12172">
        <ele>217</ele>
        <time>2012-03-11 08:17:10 +0000</time>
      </trkpt>
      <trkpt lat="44.32497" lon="1.1214">
        <ele>214</ele>
        <time>2012-03-11 08:17:13 +0000</time>
      </trkpt>
      <trkpt lat="44.32468" lon="1.12097">
        <ele>214</ele>
        <time>2012-03-11 08:17:17 +0000</time>
      </trkpt>
      <trkpt lat="44.32444" lon="1.12051">
        <ele>211</ele>
        <time>2012-03-11 08:17:21 +0000</time>
      </trkpt>
      <trkpt lat="44.32441" lon="1.12011">
        <ele>202</ele>
        <time>2012-03-11 08:17:24 +0000</time>
      </trkpt>
      <trkpt lat="44.32451" lon="1.11961">
        <ele>198</ele>
        <time>2012-03-11 08:17:28 +0000</time>
      </trkpt>
      <trkpt lat="44.32467" lon="1.11908">
        <ele>191</ele>
        <time>2012-03-11 08:17:32 +0000</time>
      </trkpt>
      <trkpt lat="44.32479" lon="1.11865">
        <ele>187</ele>
        <time>2012-03-11 08:17:35 +0000</time>
      </trkpt>
      <trkpt lat="44.32479" lon="1.11808">
        <ele>187</ele>
        <time>2012-03-11 08:17:39 +0000</time>
      </trkpt>
      <trkpt lat="44.32481" lon="1.11771">
        <ele>185</ele>
        <time>2012-03-11 08:17:42 +0000</time>
      </trkpt>
      <trkpt lat="44.32486" lon="1.11738">
        <ele>187</ele>
        <time>2012-03-11 08:17:45 +0000</time>
      </trkpt>
      <trkpt lat="44.32491" lon="1.11712">
        <ele>177</ele>
        <time>2012-03-11 08:17:48 +0000</time>
      </trkpt>
      <trkpt lat="44.32495" lon="1.11692">
        <ele>180</ele>
        <time>2012-03-11 08:17:51 +0000</time>
      </trkpt>
      <trkpt lat="44.32499" lon="1.11673">
        <ele>175</ele>
        <time>2012-03-11 08:17:55 +0000</time>
      </trkpt>
      <trkpt lat="44.32502" lon="1.11656">
        <ele>180</ele>
        <time>2012-03-11 08:17:59 +0000</time>
      </trkpt>
      <trkpt lat="44.32505" lon="1.11643">
        <ele>177</ele>
        <time>2012-03-11 08:18:02 +0000</time>
      </trkpt>
      <trkpt lat="44.32509" lon="1.11628">
        <ele>177</ele>
        <time>2012-03-11 08:18:06 +0000</time>
      </trkpt>
      <trkpt lat="44.32516" lon="1.11611">
        <ele>178</ele>
        <time>2012-03-11 08:18:10 +0000</time>
      </trkpt>
      <trkpt lat="44.32526" lon="1.11589">
        <ele>178</ele>
        <time>2012-03-11 08:18:14 +0000</time>
      </trkpt>
      <trkpt lat="44.32533" lon="1.11574">
        <ele>181</ele>
        <time>2012-03-11 08:18:17 +0000</time>
      </trkpt>
      <trkpt lat="44.32526" lon="1.1156">
        <ele>172</ele>
        <time>2012-03-11 08:18:20 +0000</time>
      </trkpt>
      <trkpt lat="44.3251" lon="1.11554">
        <ele>169</ele>
        <time>2012-03-11 08:18:24 +0000</time>
      </trkpt>
      <trkpt lat="44.32492" lon="1.1155">
        <ele>172</ele>
        <time>2012-03-11 08:18:28 +0000</time>
      </trkpt>
      <trkpt lat="44.32478" lon="1.11546">
        <ele>171</ele>
        <time>2012-03-11 08:18:31 +0000</time>
      </trkpt>
      <trkpt lat="44.32461" lon="1.11542">
        <ele>169</ele>
        <time>2012-03-11 08:18:35 +0000</time>
      </trkpt>
      <trkpt lat="44.3245" lon="1.11542">
        <ele>170</ele>
        <time>2012-03-11 08:18:38 +0000</time>
      </trkpt>
      <trkpt lat="44.3244" lon="1.11542">
        <ele>172</ele>
        <time>2012-03-11 08:18:41 +0000</time>
      </trkpt>
      <trkpt lat="44.32427" lon="1.11542">
        <ele>172</ele>
        <time>2012-03-11 08:18:45 +0000</time>
      </trkpt>
      <trkpt lat="44.32423" lon="1.1154">
        <ele>173</ele>
        <time>2012-03-11 08:18:48 +0000</time>
      </trkpt>
      <trkpt lat="44.32424" lon="1.11531">
        <ele>176</ele>
        <time>2012-03-11 08:18:52 +0000</time>
      </trkpt>
      <trkpt lat="44.32426" lon="1.11518">
        <ele>178</ele>
        <time>2012-03-11 08:18:56 +0000</time>
      </trkpt>
      <trkpt lat="44.32427" lon="1.11505">
        <ele>174</ele>
        <time>2012-03-11 08:19:00 +0000</time>
      </trkpt>
      <trkpt lat="44.32427" lon="1.11489">
        <ele>175</ele>
        <time>2012-03-11 08:19:04 +0000</time>
      </trkpt>
      <trkpt lat="44.32428" lon="1.11477">
        <ele>167</ele>
        <time>2012-03-11 08:19:07 +0000</time>
      </trkpt>
      <trkpt lat="44.3243" lon="1.11466">
        <ele>173</ele>
        <time>2012-03-11 08:19:10 +0000</time>
      </trkpt>
      <trkpt lat="44.32433" lon="1.11452">
        <ele>176</ele>
        <time>2012-03-11 08:19:14 +0000</time>
      </trkpt>
      <trkpt lat="44.32434" lon="1.11441">
        <ele>170</ele>
        <time>2012-03-11 08:19:17 +0000</time>
      </trkpt>
      <trkpt lat="44.32436" lon="1.11425">
        <ele>169</ele>
        <time>2012-03-11 08:19:21 +0000</time>
      </trkpt>
      <trkpt lat="44.32439" lon="1.11412">
        <ele>165</ele>
        <time>2012-03-11 08:19:24 +0000</time>
      </trkpt>
      <trkpt lat="44.32443" lon="1.11398">
        <ele>167</ele>
        <time>2012-03-11 08:19:28 +0000</time>
      </trkpt>
      <trkpt lat="44.32441" lon="1.11385">
        <ele>170</ele>
        <time>2012-03-11 08:19:32 +0000</time>
      </trkpt>
      <trkpt lat="44.32436" lon="1.11375">
        <ele>177</ele>
        <time>2012-03-11 08:19:36 +0000</time>
      </trkpt>
      <trkpt lat="44.32428" lon="1.11375">
        <ele>175</ele>
        <time>2012-03-11 08:19:40 +0000</time>
      </trkpt>
      <trkpt lat="44.32422" lon="1.11375">
        <ele>175</ele>
        <time>2012-03-11 08:19:43 +0000</time>
      </trkpt>
      <trkpt lat="44.32416" lon="1.11375">
        <ele>178</ele>
        <time>2012-03-11 08:19:46 +0000</time>
      </trkpt>
      <trkpt lat="44.32407" lon="1.11374">
        <ele>176</ele>
        <time>2012-03-11 08:19:50 +0000</time>
      </trkpt>
      <trkpt lat="44.32398" lon="1.11371">
        <ele>172</ele>
        <time>2012-03-11 08:19:54 +0000</time>
      </trkpt>
      <trkpt lat="44.3239" lon="1.1137">
        <ele>170</ele>
        <time>2012-03-11 08:19:57 +0000</time>
      </trkpt>
      <trkpt lat="44.32384" lon="1.11373">
        <ele>175</ele>
        <time>2012-03-11 08:20:00 +0000</time>
      </trkpt>
      <trkpt lat="44.32381" lon="1.11376">
        <ele>172</ele>
        <time>2012-03-11 08:20:03 +0000</time>
      </trkpt>
      <trkpt lat="44.32379" lon="1.11385">
        <ele>180</ele>
        <time>2012-03-11 08:20:07 +0000</time>
      </trkpt>
      <trkpt lat="44.32379" lon="1.11387">
        <ele>181</ele>
        <time>2012-03-11 08:20:11 +0000</time>
      </trkpt>
      <trkpt lat="44.32372" lon="1.11398">
        <ele>184</ele>
        <time>2012-03-11 08:20:15 +0000</time>
      </trkpt>
      <trkpt lat="44.32364" lon="1.11398">
        <ele>184</ele>
        <time>2012-03-11 08:20:18 +0000</time>
      </trkpt>
      <trkpt lat="44.32358" lon="1.11396">
        <ele>178</ele>
        <time>2012-03-11 08:20:22 +0000</time>
      </trkpt>
      <trkpt lat="44.3235" lon="1.11396">
        <ele>179</ele>
        <time>2012-03-11 08:20:26 +0000</time>
      </trkpt>
      <trkpt lat="44.32343" lon="1.11397">
        <ele>184</ele>
        <time>2012-03-11 08:20:30 +0000</time>
      </trkpt>
      <trkpt lat="44.32336" lon="1.114">
        <ele>183</ele>
        <time>2012-03-11 08:20:34 +0000</time>
      </trkpt>
      <trkpt lat="44.3233" lon="1.11403">
        <ele>183</ele>
        <time>2012-03-11 08:20:38 +0000</time>
      </trkpt>
      <trkpt lat="44.32323" lon="1.11407">
        <ele>186</ele>
        <time>2012-03-11 08:20:42 +0000</time>
      </trkpt>
      <trkpt lat="44.32319" lon="1.11412">
        <ele>185</ele>
        <time>2012-03-11 08:20:45 +0000</time>
      </trkpt>
      <trkpt lat="44.32317" lon="1.11413">
        <ele>187</ele>
        <time>2012-03-11 08:20:48 +0000</time>
      </trkpt>
      <trkpt lat="44.32312" lon="1.11417">
        <ele>187</ele>
        <time>2012-03-11 08:20:52 +0000</time>
      </trkpt>
      <trkpt lat="44.32305" lon="1.11421">
        <ele>187</ele>
        <time>2012-03-11 08:20:56 +0000</time>
      </trkpt>
      <trkpt lat="44.32298" lon="1.11423">
        <ele>187</ele>
        <time>2012-03-11 08:21:00 +0000</time>
      </trkpt>
      <trkpt lat="44.32293" lon="1.11425">
        <ele>187</ele>
        <time>2012-03-11 08:21:03 +0000</time>
      </trkpt>
      <trkpt lat="44.32284" lon="1.11428">
        <ele>187</ele>
        <time>2012-03-11 08:21:07 +0000</time>
      </trkpt>
      <trkpt lat="44.32277" lon="1.11429">
        <ele>186</ele>
        <time>2012-03-11 08:21:10 +0000</time>
      </trkpt>
      <trkpt lat="44.32269" lon="1.11432">
        <ele>188</ele>
        <time>2012-03-11 08:21:14 +0000</time>
      </trkpt>
      <trkpt lat="44.32259" lon="1.11435">
        <ele>186</ele>
        <time>2012-03-11 08:21:18 +0000</time>
      </trkpt>
      <trkpt lat="44.32254" lon="1.11438">
        <ele>189</ele>
        <time>2012-03-11 08:21:21 +0000</time>
      </trkpt>
      <trkpt lat="44.32248" lon="1.11441">
        <ele>190</ele>
        <time>2012-03-11 08:21:24 +0000</time>
      </trkpt>
      <trkpt lat="44.32241" lon="1.11447">
        <ele>184</ele>
        <time>2012-03-11 08:21:28 +0000</time>
      </trkpt>
      <trkpt lat="44.32233" lon="1.11453">
        <ele>187</ele>
        <time>2012-03-11 08:21:32 +0000</time>
      </trkpt>
      <trkpt lat="44.32225" lon="1.11464">
        <ele>193</ele>
        <time>2012-03-11 08:21:36 +0000</time>
      </trkpt>
      <trkpt lat="44.32222" lon="1.11471">
        <ele>191</ele>
        <time>2012-03-11 08:21:39 +0000</time>
      </trkpt>
      <trkpt lat="44.32217" lon="1.11476">
        <ele>196</ele>
        <time>2012-03-11 08:21:43 +0000</time>
      </trkpt>
      <trkpt lat="44.32213" lon="1.11481">
        <ele>193</ele>
        <time>2012-03-11 08:21:46 +0000</time>
      </trkpt>
      <trkpt lat="44.32208" lon="1.11487">
        <ele>189</ele>
        <time>2012-03-11 08:21:50 +0000</time>
      </trkpt>
      <trkpt lat="44.32205" lon="1.11493">
        <ele>197</ele>
        <time>2012-03-11 08:21:53 +0000</time>
      </trkpt>
      <trkpt lat="44.32203" lon="1.11496">
        <ele>191</ele>
        <time>2012-03-11 08:21:56 +0000</time>
      </trkpt>
      <trkpt lat="44.32198" lon="1.11503">
        <ele>196</ele>
        <time>2012-03-11 08:22:00 +0000</time>
      </trkpt>
      <trkpt lat="44.32193" lon="1.11508">
        <ele>196</ele>
        <time>2012-03-11 08:22:03 +0000</time>
      </trkpt>
      <trkpt lat="44.32188" lon="1.11516">
        <ele>197</ele>
        <time>2012-03-11 08:22:06 +0000</time>
      </trkpt>
      <trkpt lat="44.32183" lon="1.11526">
        <ele>196</ele>
        <time>2012-03-11 08:22:10 +0000</time>
      </trkpt>
      <trkpt lat="44.32178" lon="1.11533">
        <ele>194</ele>
        <time>2012-03-11 08:22:13 +0000</time>
      </trkpt>
      <trkpt lat="44.32173" lon="1.11543">
        <ele>193</ele>
        <time>2012-03-11 08:22:17 +0000</time>
      </trkpt>
      <trkpt lat="44.32169" lon="1.1155">
        <ele>196</ele>
        <time>2012-03-11 08:22:20 +0000</time>
      </trkpt>
      <trkpt lat="44.32166" lon="1.11559">
        <ele>199</ele>
        <time>2012-03-11 08:22:24 +0000</time>
      </trkpt>
      <trkpt lat="44.32161" lon="1.11566">
        <ele>199</ele>
        <time>2012-03-11 08:22:28 +0000</time>
      </trkpt>
      <trkpt lat="44.32157" lon="1.11572">
        <ele>203</ele>
        <time>2012-03-11 08:22:31 +0000</time>
      </trkpt>
      <trkpt lat="44.3215" lon="1.1158">
        <ele>199</ele>
        <time>2012-03-11 08:22:35 +0000</time>
      </trkpt>
      <trkpt lat="44.32142" lon="1.11583">
        <ele>197</ele>
        <time>2012-03-11 08:22:39 +0000</time>
      </trkpt>
      <trkpt lat="44.32138" lon="1.11586">
        <ele>199</ele>
        <time>2012-03-11 08:22:42 +0000</time>
      </trkpt>
      <trkpt lat="44.32133" lon="1.11588">
        <ele>197</ele>
        <time>2012-03-11 08:22:46 +0000</time>
      </trkpt>
      <trkpt lat="44.32125" lon="1.11594">
        <ele>198</ele>
        <time>2012-03-11 08:22:50 +0000</time>
      </trkpt>
      <trkpt lat="44.32121" lon="1.11597">
        <ele>198</ele>
        <time>2012-03-11 08:22:53 +0000</time>
      </trkpt>
      <trkpt lat="44.32116" lon="1.116">
        <ele>200</ele>
        <time>2012-03-11 08:22:57 +0000</time>
      </trkpt>
      <trkpt lat="44.32113" lon="1.11604">
        <ele>200</ele>
        <time>2012-03-11 08:23:00 +0000</time>
      </trkpt>
      <trkpt lat="44.32108" lon="1.11605">
        <ele>201</ele>
        <time>2012-03-11 08:23:04 +0000</time>
      </trkpt>
      <trkpt lat="44.32102" lon="1.11607">
        <ele>199</ele>
        <time>2012-03-11 08:23:08 +0000</time>
      </trkpt>
      <trkpt lat="44.32099" lon="1.11608">
        <ele>199</ele>
        <time>2012-03-11 08:23:11 +0000</time>
      </trkpt>
      <trkpt lat="44.32096" lon="1.11608">
        <ele>198</ele>
        <time>2012-03-11 08:23:15 +0000</time>
      </trkpt>
      <trkpt lat="44.32094" lon="1.11605">
        <ele>200</ele>
        <time>2012-03-11 08:23:18 +0000</time>
      </trkpt>
      <trkpt lat="44.32092" lon="1.116">
        <ele>205</ele>
        <time>2012-03-11 08:23:21 +0000</time>
      </trkpt>
      <trkpt lat="44.3209" lon="1.11593">
        <ele>207</ele>
        <time>2012-03-11 08:23:25 +0000</time>
      </trkpt>
      <trkpt lat="44.32091" lon="1.11588">
        <ele>204</ele>
        <time>2012-03-11 08:23:28 +0000</time>
      </trkpt>
      <trkpt lat="44.32091" lon="1.11581">
        <ele>201</ele>
        <time>2012-03-11 08:23:31 +0000</time>
      </trkpt>
      <trkpt lat="44.32094" lon="1.11574">
        <ele>201</ele>
        <time>2012-03-11 08:23:35 +0000</time>
      </trkpt>
      <trkpt lat="44.32097" lon="1.11566">
        <ele>199</ele>
        <time>2012-03-11 08:23:39 +0000</time>
      </trkpt>
      <trkpt lat="44.321" lon="1.11562">
        <ele>201</ele>
        <time>2012-03-11 08:23:42 +0000</time>
      </trkpt>
      <trkpt lat="44.32103" lon="1.11554">
        <ele>201</ele>
        <time>2012-03-11 08:23:46 +0000</time>
      </trkpt>
      <trkpt lat="44.32106" lon="1.11544">
        <ele>199</ele>
        <time>2012-03-11 08:23:50 +0000</time>
      </trkpt>
      <trkpt lat="44.3211" lon="1.11535">
        <ele>200</ele>
        <time>2012-03-11 08:23:54 +0000</time>
      </trkpt>
      <trkpt lat="44.32113" lon="1.11528">
        <ele>203</ele>
        <time>2012-03-11 08:23:57 +0000</time>
      </trkpt>
      <trkpt lat="44.32113" lon="1.11519">
        <ele>202</ele>
        <time>2012-03-11 08:24:00 +0000</time>
      </trkpt>
      <trkpt lat="44.32115" lon="1.1151">
        <ele>204</ele>
        <time>2012-03-11 08:24:04 +0000</time>
      </trkpt>
      <trkpt lat="44.32119" lon="1.115">
        <ele>199</ele>
        <time>2012-03-11 08:24:08 +0000</time>
      </trkpt>
      <trkpt lat="44.3212" lon="1.11494">
        <ele>206</ele>
        <time>2012-03-11 08:24:11 +0000</time>
      </trkpt>
      <trkpt lat="44.3212" lon="1.11486">
        <ele>206</ele>
        <time>2012-03-11 08:24:15 +0000</time>
      </trkpt>
      <trkpt lat="44.32123" lon="1.11476">
        <ele>210</ele>
        <time>2012-03-11 08:24:19 +0000</time>
      </trkpt>
      <trkpt lat="44.32123" lon="1.11468">
        <ele>206</ele>
        <time>2012-03-11 08:24:22 +0000</time>
      </trkpt>
      <trkpt lat="44.32125" lon="1.11458">
        <ele>206</ele>
        <time>2012-03-11 08:24:26 +0000</time>
      </trkpt>
      <trkpt lat="44.32128" lon="1.11448">
        <ele>203</ele>
        <time>2012-03-11 08:24:30 +0000</time>
      </trkpt>
      <trkpt lat="44.32128" lon="1.11438">
        <ele>201</ele>
        <time>2012-03-11 08:24:33 +0000</time>
      </trkpt>
      <trkpt lat="44.3213" lon="1.11425">
        <ele>200</ele>
        <time>2012-03-11 08:24:37 +0000</time>
      </trkpt>
      <trkpt lat="44.32132" lon="1.11414">
        <ele>202</ele>
        <time>2012-03-11 08:24:40 +0000</time>
      </trkpt>
      <trkpt lat="44.32134" lon="1.11404">
        <ele>201</ele>
        <time>2012-03-11 08:24:44 +0000</time>
      </trkpt>
      <trkpt lat="44.32137" lon="1.11395">
        <ele>200</ele>
        <time>2012-03-11 08:24:48 +0000</time>
      </trkpt>
      <trkpt lat="44.3214" lon="1.11386">
        <ele>208</ele>
        <time>2012-03-11 08:24:52 +0000</time>
      </trkpt>
      <trkpt lat="44.32143" lon="1.11381">
        <ele>212</ele>
        <time>2012-03-11 08:24:56 +0000</time>
      </trkpt>
      <trkpt lat="44.32146" lon="1.11374">
        <ele>213</ele>
        <time>2012-03-11 08:25:00 +0000</time>
      </trkpt>
      <trkpt lat="44.32146" lon="1.11364">
        <ele>212</ele>
        <time>2012-03-11 08:25:04 +0000</time>
      </trkpt>
      <trkpt lat="44.32149" lon="1.11355">
        <ele>213</ele>
        <time>2012-03-11 08:25:08 +0000</time>
      </trkpt>
      <trkpt lat="44.32151" lon="1.11348">
        <ele>216</ele>
        <time>2012-03-11 08:25:11 +0000</time>
      </trkpt>
      <trkpt lat="44.32151" lon="1.11343">
        <ele>217</ele>
        <time>2012-03-11 08:25:14 +0000</time>
      </trkpt>
      <trkpt lat="44.3215" lon="1.11336">
        <ele>215</ele>
        <time>2012-03-11 08:25:18 +0000</time>
      </trkpt>
      <trkpt lat="44.32148" lon="1.11329">
        <ele>212</ele>
        <time>2012-03-11 08:25:22 +0000</time>
      </trkpt>
      <trkpt lat="44.32147" lon="1.11324">
        <ele>220</ele>
        <time>2012-03-11 08:25:26 +0000</time>
      </trkpt>
      <trkpt lat="44.32146" lon="1.1132">
        <ele>219</ele>
        <time>2012-03-11 08:25:29 +0000</time>
      </trkpt>
      <trkpt lat="44.32146" lon="1.11313">
        <ele>222</ele>
        <time>2012-03-11 08:25:32 +0000</time>
      </trkpt>
      <trkpt lat="44.32145" lon="1.11307">
        <ele>221</ele>
        <time>2012-03-11 08:25:36 +0000</time>
      </trkpt>
      <trkpt lat="44.32145" lon="1.11302">
        <ele>219</ele>
        <time>2012-03-11 08:25:40 +0000</time>
      </trkpt>
      <trkpt lat="44.32146" lon="1.11298">
        <ele>225</ele>
        <time>2012-03-11 08:25:43 +0000</time>
      </trkpt>
      <trkpt lat="44.32148" lon="1.11295">
        <ele>219</ele>
        <time>2012-03-11 08:25:46 +0000</time>
      </trkpt>
      <trkpt lat="44.32149" lon="1.11293">
        <ele>223</ele>
        <time>2012-03-11 08:25:49 +0000</time>
      </trkpt>
      <trkpt lat="44.3215" lon="1.11287">
        <ele>221</ele>
        <time>2012-03-11 08:25:53 +0000</time>
      </trkpt>
      <trkpt lat="44.32152" lon="1.1128">
        <ele>221</ele>
        <time>2012-03-11 08:25:57 +0000</time>
      </trkpt>
      <trkpt lat="44.32153" lon="1.11277">
        <ele>219</ele>
        <time>2012-03-11 08:26:00 +0000</time>
      </trkpt>
      <trkpt lat="44.32155" lon="1.11271">
        <ele>220</ele>
        <time>2012-03-11 08:26:04 +0000</time>
      </trkpt>
      <trkpt lat="44.32156" lon="1.11267">
        <ele>223</ele>
        <time>2012-03-11 08:26:07 +0000</time>
      </trkpt>
      <trkpt lat="44.32158" lon="1.11262">
        <ele>223</ele>
        <time>2012-03-11 08:26:10 +0000</time>
      </trkpt>
      <trkpt lat="44.32159" lon="1.11254">
        <ele>224</ele>
        <time>2012-03-11 08:26:14 +0000</time>
      </trkpt>
      <trkpt lat="44.32157" lon="1.11245">
        <ele>226</ele>
        <time>2012-03-11 08:26:18 +0000</time>
      </trkpt>
      <trkpt lat="44.32152" lon="1.11241">
        <ele>225</ele>
        <time>2012-03-11 08:26:22 +0000</time>
      </trkpt>
      <trkpt lat="44.32147" lon="1.11237">
        <ele>226</ele>
        <time>2012-03-11 08:26:26 +0000</time>
      </trkpt>
      <trkpt lat="44.32145" lon="1.11235">
        <ele>225</ele>
        <time>2012-03-11 08:26:29 +0000</time>
      </trkpt>
      <trkpt lat="44.32141" lon="1.11232">
        <ele>226</ele>
        <time>2012-03-11 08:26:32 +0000</time>
      </trkpt>
      <trkpt lat="44.32138" lon="1.1123">
        <ele>227</ele>
        <time>2012-03-11 08:26:36 +0000</time>
      </trkpt>
      <trkpt lat="44.32137" lon="1.1123">
        <ele>225</ele>
        <time>2012-03-11 08:26:39 +0000</time>
      </trkpt>
      <trkpt lat="44.32132" lon="1.11226">
        <ele>226</ele>
        <time>2012-03-11 08:26:43 +0000</time>
      </trkpt>
      <trkpt lat="44.3213" lon="1.11224">
        <ele>224</ele>
        <time>2012-03-11 08:26:46 +0000</time>
      </trkpt>
      <trkpt lat="44.32127" lon="1.11219">
        <ele>225</ele>
        <time>2012-03-11 08:26:50 +0000</time>
      </trkpt>
      <trkpt lat="44.32123" lon="1.11214">
        <ele>226</ele>
        <time>2012-03-11 08:26:54 +0000</time>
      </trkpt>
      <trkpt lat="44.3212" lon="1.11211">
        <ele>226</ele>
        <time>2012-03-11 08:26:58 +0000</time>
      </trkpt>
      <trkpt lat="44.32117" lon="1.11205">
        <ele>225</ele>
        <time>2012-03-11 08:27:02 +0000</time>
      </trkpt>
      <trkpt lat="44.32115" lon="1.11202">
        <ele>226</ele>
        <time>2012-03-11 08:27:05 +0000</time>
      </trkpt>
      <trkpt lat="44.32111" lon="1.11197">
        <ele>226</ele>
        <time>2012-03-11 08:27:09 +0000</time>
      </trkpt>
      <trkpt lat="44.32106" lon="1.11197">
        <ele>225</ele>
        <time>2012-03-11 08:27:13 +0000</time>
      </trkpt>
      <trkpt lat="44.32103" lon="1.11201">
        <ele>228</ele>
        <time>2012-03-11 08:27:16 +0000</time>
      </trkpt>
      <trkpt lat="44.321" lon="1.11204">
        <ele>230</ele>
        <time>2012-03-11 08:27:20 +0000</time>
      </trkpt>
      <trkpt lat="44.32097" lon="1.11207">
        <ele>228</ele>
        <time>2012-03-11 08:27:23 +0000</time>
      </trkpt>
      <trkpt lat="44.32094" lon="1.11211">
        <ele>228</ele>
        <time>2012-03-11 08:27:26 +0000</time>
      </trkpt>
      <trkpt lat="44.32089" lon="1.11218">
        <ele>228</ele>
        <time>2012-03-11 08:27:30 +0000</time>
      </trkpt>
      <trkpt lat="44.32085" lon="1.11224">
        <ele>228</ele>
        <time>2012-03-11 08:27:33 +0000</time>
      </trkpt>
      <trkpt lat="44.32082" lon="1.11229">
        <ele>228</ele>
        <time>2012-03-11 08:27:36 +0000</time>
      </trkpt>
      <trkpt lat="44.32077" lon="1.11236">
        <ele>229</ele>
        <time>2012-03-11 08:27:40 +0000</time>
      </trkpt>
      <trkpt lat="44.32073" lon="1.11241">
        <ele>228</ele>
        <time>2012-03-11 08:27:43 +0000</time>
      </trkpt>
      <trkpt lat="44.3207" lon="1.11245">
        <ele>228</ele>
        <time>2012-03-11 08:27:46 +0000</time>
      </trkpt>
      <trkpt lat="44.32064" lon="1.11251">
        <ele>229</ele>
        <time>2012-03-11 08:27:50 +0000</time>
      </trkpt>
      <trkpt lat="44.32061" lon="1.11256">
        <ele>228</ele>
        <time>2012-03-11 08:27:53 +0000</time>
      </trkpt>
      <trkpt lat="44.32055" lon="1.11261">
        <ele>230</ele>
        <time>2012-03-11 08:27:57 +0000</time>
      </trkpt>
      <trkpt lat="44.32051" lon="1.11264">
        <ele>229</ele>
        <time>2012-03-11 08:28:00 +0000</time>
      </trkpt>
      <trkpt lat="44.32047" lon="1.11265">
        <ele>229</ele>
        <time>2012-03-11 08:28:03 +0000</time>
      </trkpt>
      <trkpt lat="44.32043" lon="1.11267">
        <ele>229</ele>
        <time>2012-03-11 08:28:06 +0000</time>
      </trkpt>
      <trkpt lat="44.32035" lon="1.11271">
        <ele>231</ele>
        <time>2012-03-11 08:28:10 +0000</time>
      </trkpt>
      <trkpt lat="44.32031" lon="1.11274">
        <ele>229</ele>
        <time>2012-03-11 08:28:13 +0000</time>
      </trkpt>
      <trkpt lat="44.32025" lon="1.11278">
        <ele>231</ele>
        <time>2012-03-11 08:28:16 +0000</time>
      </trkpt>
      <trkpt lat="44.32017" lon="1.11284">
        <ele>232</ele>
        <time>2012-03-11 08:28:20 +0000</time>
      </trkpt>
      <trkpt lat="44.3201" lon="1.11289">
        <ele>234</ele>
        <time>2012-03-11 08:28:24 +0000</time>
      </trkpt>
      <trkpt lat="44.32004" lon="1.11293">
        <ele>233</ele>
        <time>2012-03-11 08:28:27 +0000</time>
      </trkpt>
      <trkpt lat="44.32" lon="1.11297">
        <ele>233</ele>
        <time>2012-03-11 08:28:30 +0000</time>
      </trkpt>
      <trkpt lat="44.31992" lon="1.11303">
        <ele>234</ele>
        <time>2012-03-11 08:28:34 +0000</time>
      </trkpt>
      <trkpt lat="44.31987" lon="1.11307">
        <ele>233</ele>
        <time>2012-03-11 08:28:37 +0000</time>
      </trkpt>
      <trkpt lat="44.31981" lon="1.11314">
        <ele>228</ele>
        <time>2012-03-11 08:28:41 +0000</time>
      </trkpt>
      <trkpt lat="44.31976" lon="1.1132">
        <ele>228</ele>
        <time>2012-03-11 08:28:44 +0000</time>
      </trkpt>
      <trkpt lat="44.31968" lon="1.11328">
        <ele>228</ele>
        <time>2012-03-11 08:28:48 +0000</time>
      </trkpt>
      <trkpt lat="44.31962" lon="1.11334">
        <ele>229</ele>
        <time>2012-03-11 08:28:51 +0000</time>
      </trkpt>
      <trkpt lat="44.31956" lon="1.11341">
        <ele>229</ele>
        <time>2012-03-11 08:28:54 +0000</time>
      </trkpt>
      <trkpt lat="44.31951" lon="1.11348">
        <ele>228</ele>
        <time>2012-03-11 08:28:57 +0000</time>
      </trkpt>
      <trkpt lat="44.31944" lon="1.11357">
        <ele>229</ele>
        <time>2012-03-11 08:29:01 +0000</time>
      </trkpt>
      <trkpt lat="44.31936" lon="1.11365">
        <ele>229</ele>
        <time>2012-03-11 08:29:05 +0000</time>
      </trkpt>
      <trkpt lat="44.31929" lon="1.11371">
        <ele>229</ele>
        <time>2012-03-11 08:29:08 +0000</time>
      </trkpt>
      <trkpt lat="44.31921" lon="1.1138">
        <ele>230</ele>
        <time>2012-03-11 08:29:12 +0000</time>
      </trkpt>
      <trkpt lat="44.31913" lon="1.11389">
        <ele>230</ele>
        <time>2012-03-11 08:29:16 +0000</time>
      </trkpt>
      <trkpt lat="44.31908" lon="1.11395">
        <ele>230</ele>
        <time>2012-03-11 08:29:19 +0000</time>
      </trkpt>
      <trkpt lat="44.31902" lon="1.11401">
        <ele>229</ele>
        <time>2012-03-11 08:29:22 +0000</time>
      </trkpt>
      <trkpt lat="44.31894" lon="1.11411">
        <ele>230</ele>
        <time>2012-03-11 08:29:26 +0000</time>
      </trkpt>
      <trkpt lat="44.31888" lon="1.11417">
        <ele>230</ele>
        <time>2012-03-11 08:29:29 +0000</time>
      </trkpt>
      <trkpt lat="44.31883" lon="1.11424">
        <ele>229</ele>
        <time>2012-03-11 08:29:32 +0000</time>
      </trkpt>
      <trkpt lat="44.31876" lon="1.11433">
        <ele>228</ele>
        <time>2012-03-11 08:29:36 +0000</time>
      </trkpt>
      <trkpt lat="44.3187" lon="1.11441">
        <ele>228</ele>
        <time>2012-03-11 08:29:39 +0000</time>
      </trkpt>
      <trkpt lat="44.31865" lon="1.11449">
        <ele>228</ele>
        <time>2012-03-11 08:29:42 +0000</time>
      </trkpt>
      <trkpt lat="44.31858" lon="1.11459">
        <ele>229</ele>
        <time>2012-03-11 08:29:46 +0000</time>
      </trkpt>
      <trkpt lat="44.31849" lon="1.11471">
        <ele>232</ele>
        <time>2012-03-11 08:29:50 +0000</time>
      </trkpt>
      <trkpt lat="44.31843" lon="1.1148">
        <ele>231</ele>
        <time>2012-03-11 08:29:53 +0000</time>
      </trkpt>
      <trkpt lat="44.31837" lon="1.11488">
        <ele>230</ele>
        <time>2012-03-11 08:29:56 +0000</time>
      </trkpt>
      <trkpt lat="44.31828" lon="1.11501">
        <ele>230</ele>
        <time>2012-03-11 08:30:00 +0000</time>
      </trkpt>
      <trkpt lat="44.31821" lon="1.11511">
        <ele>232</ele>
        <time>2012-03-11 08:30:03 +0000</time>
      </trkpt>
      <trkpt lat="44.31815" lon="1.11522">
        <ele>233</ele>
        <time>2012-03-11 08:30:06 +0000</time>
      </trkpt>
      <trkpt lat="44.31807" lon="1.11537">
        <ele>233</ele>
        <time>2012-03-11 08:30:10 +0000</time>
      </trkpt>
      <trkpt lat="44.31802" lon="1.11547">
        <ele>234</ele>
        <time>2012-03-11 08:30:13 +0000</time>
      </trkpt>
      <trkpt lat="44.31798" lon="1.11558">
        <ele>234</ele>
        <time>2012-03-11 08:30:16 +0000</time>
      </trkpt>
      <trkpt lat="44.31793" lon="1.11568">
        <ele>234</ele>
        <time>2012-03-11 08:30:19 +0000</time>
      </trkpt>
      <trkpt lat="44.31789" lon="1.11579">
        <ele>234</ele>
        <time>2012-03-11 08:30:22 +0000</time>
      </trkpt>
      <trkpt lat="44.31783" lon="1.11592">
        <ele>234</ele>
        <time>2012-03-11 08:30:26 +0000</time>
      </trkpt>
      <trkpt lat="44.31777" lon="1.11606">
        <ele>234</ele>
        <time>2012-03-11 08:30:30 +0000</time>
      </trkpt>
      <trkpt lat="44.31773" lon="1.11616">
        <ele>234</ele>
        <time>2012-03-11 08:30:33 +0000</time>
      </trkpt>
      <trkpt lat="44.31767" lon="1.11626">
        <ele>232</ele>
        <time>2012-03-11 08:30:36 +0000</time>
      </trkpt>
      <trkpt lat="44.31762" lon="1.11638">
        <ele>235</ele>
        <time>2012-03-11 08:30:40 +0000</time>
      </trkpt>
      <trkpt lat="44.31754" lon="1.1165">
        <ele>235</ele>
        <time>2012-03-11 08:30:44 +0000</time>
      </trkpt>
      <trkpt lat="44.31749" lon="1.11659">
        <ele>234</ele>
        <time>2012-03-11 08:30:47 +0000</time>
      </trkpt>
      <trkpt lat="44.31741" lon="1.11672">
        <ele>236</ele>
        <time>2012-03-11 08:30:51 +0000</time>
      </trkpt>
      <trkpt lat="44.31736" lon="1.11682">
        <ele>238</ele>
        <time>2012-03-11 08:30:54 +0000</time>
      </trkpt>
      <trkpt lat="44.31729" lon="1.11692">
        <ele>235</ele>
        <time>2012-03-11 08:30:58 +0000</time>
      </trkpt>
      <trkpt lat="44.31724" lon="1.11705">
        <ele>235</ele>
        <time>2012-03-11 08:31:01 +0000</time>
      </trkpt>
      <trkpt lat="44.31718" lon="1.11717">
        <ele>235</ele>
        <time>2012-03-11 08:31:05 +0000</time>
      </trkpt>
      <trkpt lat="44.31713" lon="1.11728">
        <ele>236</ele>
        <time>2012-03-11 08:31:08 +0000</time>
      </trkpt>
      <trkpt lat="44.31708" lon="1.11739">
        <ele>239</ele>
        <time>2012-03-11 08:31:12 +0000</time>
      </trkpt>
      <trkpt lat="44.31702" lon="1.1175">
        <ele>238</ele>
        <time>2012-03-11 08:31:16 +0000</time>
      </trkpt>
      <trkpt lat="44.31697" lon="1.11759">
        <ele>241</ele>
        <time>2012-03-11 08:31:19 +0000</time>
      </trkpt>
      <trkpt lat="44.31691" lon="1.11767">
        <ele>241</ele>
        <time>2012-03-11 08:31:23 +0000</time>
      </trkpt>
      <trkpt lat="44.31687" lon="1.11775">
        <ele>240</ele>
        <time>2012-03-11 08:31:26 +0000</time>
      </trkpt>
      <trkpt lat="44.31684" lon="1.11784">
        <ele>237</ele>
        <time>2012-03-11 08:31:29 +0000</time>
      </trkpt>
      <trkpt lat="44.31681" lon="1.11793">
        <ele>240</ele>
        <time>2012-03-11 08:31:33 +0000</time>
      </trkpt>
      <trkpt lat="44.31678" lon="1.11802">
        <ele>242</ele>
        <time>2012-03-11 08:31:37 +0000</time>
      </trkpt>
      <trkpt lat="44.31676" lon="1.11812">
        <ele>239</ele>
        <time>2012-03-11 08:31:41 +0000</time>
      </trkpt>
      <trkpt lat="44.31675" lon="1.11817">
        <ele>243</ele>
        <time>2012-03-11 08:31:44 +0000</time>
      </trkpt>
      <trkpt lat="44.31671" lon="1.11825">
        <ele>243</ele>
        <time>2012-03-11 08:31:48 +0000</time>
      </trkpt>
      <trkpt lat="44.31667" lon="1.11831">
        <ele>239</ele>
        <time>2012-03-11 08:31:51 +0000</time>
      </trkpt>
      <trkpt lat="44.3166" lon="1.11836">
        <ele>242</ele>
        <time>2012-03-11 08:31:55 +0000</time>
      </trkpt>
      <trkpt lat="44.31654" lon="1.1184">
        <ele>243</ele>
        <time>2012-03-11 08:31:58 +0000</time>
      </trkpt>
      <trkpt lat="44.31647" lon="1.11846">
        <ele>242</ele>
        <time>2012-03-11 08:32:02 +0000</time>
      </trkpt>
      <trkpt lat="44.31639" lon="1.11853">
        <ele>241</ele>
        <time>2012-03-11 08:32:06 +0000</time>
      </trkpt>
      <trkpt lat="44.31636" lon="1.11859">
        <ele>238</ele>
        <time>2012-03-11 08:32:09 +0000</time>
      </trkpt>
      <trkpt lat="44.31629" lon="1.11867">
        <ele>240</ele>
        <time>2012-03-11 08:32:13 +0000</time>
      </trkpt>
      <trkpt lat="44.31623" lon="1.11873">
        <ele>241</ele>
        <time>2012-03-11 08:32:16 +0000</time>
      </trkpt>
      <trkpt lat="44.31617" lon="1.1188">
        <ele>240</ele>
        <time>2012-03-11 08:32:20 +0000</time>
      </trkpt>
      <trkpt lat="44.31612" lon="1.11889">
        <ele>242</ele>
        <time>2012-03-11 08:32:23 +0000</time>
      </trkpt>
      <trkpt lat="44.31606" lon="1.11898">
        <ele>244</ele>
        <time>2012-03-11 08:32:27 +0000</time>
      </trkpt>
      <trkpt lat="44.31602" lon="1.11904">
        <ele>243</ele>
        <time>2012-03-11 08:32:30 +0000</time>
      </trkpt>
      <trkpt lat="44.31596" lon="1.11914">
        <ele>244</ele>
        <time>2012-03-11 08:32:34 +0000</time>
      </trkpt>
      <trkpt lat="44.31593" lon="1.11921">
        <ele>246</ele>
        <time>2012-03-11 08:32:37 +0000</time>
      </trkpt>
      <trkpt lat="44.31588" lon="1.11932">
        <ele>245</ele>
        <time>2012-03-11 08:32:41 +0000</time>
      </trkpt>
      <trkpt lat="44.31584" lon="1.11941">
        <ele>242</ele>
        <time>2012-03-11 08:32:45 +0000</time>
      </trkpt>
      <trkpt lat="44.31581" lon="1.1195">
        <ele>241</ele>
        <time>2012-03-11 08:32:48 +0000</time>
      </trkpt>
      <trkpt lat="44.31578" lon="1.11956">
        <ele>245</ele>
        <time>2012-03-11 08:32:51 +0000</time>
      </trkpt>
      <trkpt lat="44.31572" lon="1.11962">
        <ele>246</ele>
        <time>2012-03-11 08:32:55 +0000</time>
      </trkpt>
      <trkpt lat="44.31567" lon="1.11966">
        <ele>245</ele>
        <time>2012-03-11 08:32:58 +0000</time>
      </trkpt>
      <trkpt lat="44.31561" lon="1.11972">
        <ele>246</ele>
        <time>2012-03-11 08:33:02 +0000</time>
      </trkpt>
      <trkpt lat="44.31556" lon="1.11977">
        <ele>244</ele>
        <time>2012-03-11 08:33:05 +0000</time>
      </trkpt>
      <trkpt lat="44.31549" lon="1.11984">
        <ele>246</ele>
        <time>2012-03-11 08:33:09 +0000</time>
      </trkpt>
      <trkpt lat="44.31544" lon="1.1199">
        <ele>246</ele>
        <time>2012-03-11 08:33:12 +0000</time>
      </trkpt>
      <trkpt lat="44.31541" lon="1.11994">
        <ele>246</ele>
        <time>2012-03-11 08:33:15 +0000</time>
      </trkpt>
      <trkpt lat="44.31535" lon="1.12">
        <ele>245</ele>
        <time>2012-03-11 08:33:18 +0000</time>
      </trkpt>
      <trkpt lat="44.31532" lon="1.12008">
        <ele>248</ele>
        <time>2012-03-11 08:33:22 +0000</time>
      </trkpt>
      <trkpt lat="44.3153" lon="1.12014">
        <ele>249</ele>
        <time>2012-03-11 08:33:25 +0000</time>
      </trkpt>
      <trkpt lat="44.31528" lon="1.12022">
        <ele>248</ele>
        <time>2012-03-11 08:33:29 +0000</time>
      </trkpt>
      <trkpt lat="44.31525" lon="1.12032">
        <ele>249</ele>
        <time>2012-03-11 08:33:33 +0000</time>
      </trkpt>
      <trkpt lat="44.31522" lon="1.12039">
        <ele>249</ele>
        <time>2012-03-11 08:33:36 +0000</time>
      </trkpt>
      <trkpt lat="44.3152" lon="1.12049">
        <ele>250</ele>
        <time>2012-03-11 08:33:40 +0000</time>
      </trkpt>
      <trkpt lat="44.31517" lon="1.12058">
        <ele>250</ele>
        <time>2012-03-11 08:33:44 +0000</time>
      </trkpt>
      <trkpt lat="44.31514" lon="1.12068">
        <ele>250</ele>
        <time>2012-03-11 08:33:48 +0000</time>
      </trkpt>
      <trkpt lat="44.31511" lon="1.12075">
        <ele>248</ele>
        <time>2012-03-11 08:33:51 +0000</time>
      </trkpt>
      <trkpt lat="44.31509" lon="1.12082">
        <ele>249</ele>
        <time>2012-03-11 08:33:54 +0000</time>
      </trkpt>
      <trkpt lat="44.31506" lon="1.12092">
        <ele>251</ele>
        <time>2012-03-11 08:33:58 +0000</time>
      </trkpt>
      <trkpt lat="44.31502" lon="1.12103">
        <ele>251</ele>
        <time>2012-03-11 08:34:02 +0000</time>
      </trkpt>
      <trkpt lat="44.31498" lon="1.1211">
        <ele>249</ele>
        <time>2012-03-11 08:34:05 +0000</time>
      </trkpt>
      <trkpt lat="44.31494" lon="1.12118">
        <ele>249</ele>
        <time>2012-03-11 08:34:09 +0000</time>
      </trkpt>
      <trkpt lat="44.3149" lon="1.12124">
        <ele>249</ele>
        <time>2012-03-11 08:34:12 +0000</time>
      </trkpt>
      <trkpt lat="44.31487" lon="1.12129">
        <ele>249</ele>
        <time>2012-03-11 08:34:15 +0000</time>
      </trkpt>
      <trkpt lat="44.31482" lon="1.12135">
        <ele>249</ele>
        <time>2012-03-11 08:34:19 +0000</time>
      </trkpt>
      <trkpt lat="44.3148" lon="1.12142">
        <ele>250</ele>
        <time>2012-03-11 08:34:22 +0000</time>
      </trkpt>
      <trkpt lat="44.31475" lon="1.1215">
        <ele>250</ele>
        <time>2012-03-11 08:34:26 +0000</time>
      </trkpt>
      <trkpt lat="44.31472" lon="1.12158">
        <ele>250</ele>
        <time>2012-03-11 08:34:29 +0000</time>
      </trkpt>
      <trkpt lat="44.31469" lon="1.12165">
        <ele>248</ele>
        <time>2012-03-11 08:34:32 +0000</time>
      </trkpt>
      <trkpt lat="44.31464" lon="1.12176">
        <ele>251</ele>
        <time>2012-03-11 08:34:36 +0000</time>
      </trkpt>
      <trkpt lat="44.31461" lon="1.12186">
        <ele>250</ele>
        <time>2012-03-11 08:34:40 +0000</time>
      </trkpt>
      <trkpt lat="44.31457" lon="1.12195">
        <ele>251</ele>
        <time>2012-03-11 08:34:44 +0000</time>
      </trkpt>
      <trkpt lat="44.31454" lon="1.12205">
        <ele>247</ele>
        <time>2012-03-11 08:34:47 +0000</time>
      </trkpt>
      <trkpt lat="44.31453" lon="1.12215">
        <ele>249</ele>
        <time>2012-03-11 08:34:50 +0000</time>
      </trkpt>
      <trkpt lat="44.31451" lon="1.1223">
        <ele>246</ele>
        <time>2012-03-11 08:34:54 +0000</time>
      </trkpt>
      <trkpt lat="44.3145" lon="1.12248">
        <ele>246</ele>
        <time>2012-03-11 08:34:58 +0000</time>
      </trkpt>
      <trkpt lat="44.31449" lon="1.12267">
        <ele>246</ele>
        <time>2012-03-11 08:35:02 +0000</time>
      </trkpt>
      <trkpt lat="44.31447" lon="1.12281">
        <ele>246</ele>
        <time>2012-03-11 08:35:05 +0000</time>
      </trkpt>
      <trkpt lat="44.31442" lon="1.12298">
        <ele>249</ele>
        <time>2012-03-11 08:35:09 +0000</time>
      </trkpt>
      <trkpt lat="44.31438" lon="1.12321">
        <ele>245</ele>
        <time>2012-03-11 08:35:13 +0000</time>
      </trkpt>
      <trkpt lat="44.31437" lon="1.12341">
        <ele>244</ele>
        <time>2012-03-11 08:35:17 +0000</time>
      </trkpt>
      <trkpt lat="44.31437" lon="1.12354">
        <ele>243</ele>
        <time>2012-03-11 08:35:20 +0000</time>
      </trkpt>
      <trkpt lat="44.31435" lon="1.12372">
        <ele>242</ele>
        <time>2012-03-11 08:35:24 +0000</time>
      </trkpt>
      <trkpt lat="44.31432" lon="1.1239">
        <ele>243</ele>
        <time>2012-03-11 08:35:28 +0000</time>
      </trkpt>
      <trkpt lat="44.3143" lon="1.12401">
        <ele>243</ele>
        <time>2012-03-11 08:35:31 +0000</time>
      </trkpt>
      <trkpt lat="44.3143" lon="1.12416">
        <ele>243</ele>
        <time>2012-03-11 08:35:35 +0000</time>
      </trkpt>
      <trkpt lat="44.3143" lon="1.12424">
        <ele>242</ele>
        <time>2012-03-11 08:35:39 +0000</time>
      </trkpt>
      <trkpt lat="44.31431" lon="1.12434">
        <ele>241</ele>
        <time>2012-03-11 08:35:42 +0000</time>
      </trkpt>
      <trkpt lat="44.31432" lon="1.12447">
        <ele>243</ele>
        <time>2012-03-11 08:35:45 +0000</time>
      </trkpt>
      <trkpt lat="44.31435" lon="1.12464">
        <ele>244</ele>
        <time>2012-03-11 08:35:49 +0000</time>
      </trkpt>
      <trkpt lat="44.31435" lon="1.12482">
        <ele>242</ele>
        <time>2012-03-11 08:35:53 +0000</time>
      </trkpt>
      <trkpt lat="44.31435" lon="1.12499">
        <ele>240</ele>
        <time>2012-03-11 08:35:56 +0000</time>
      </trkpt>
      <trkpt lat="44.31437" lon="1.12521">
        <ele>241</ele>
        <time>2012-03-11 08:36:00 +0000</time>
      </trkpt>
      <trkpt lat="44.31437" lon="1.12542">
        <ele>240</ele>
        <time>2012-03-11 08:36:04 +0000</time>
      </trkpt>
      <trkpt lat="44.31433" lon="1.12559">
        <ele>240</ele>
        <time>2012-03-11 08:36:08 +0000</time>
      </trkpt>
      <trkpt lat="44.31429" lon="1.1257">
        <ele>242</ele>
        <time>2012-03-11 08:36:11 +0000</time>
      </trkpt>
      <trkpt lat="44.31424" lon="1.12581">
        <ele>239</ele>
        <time>2012-03-11 08:36:14 +0000</time>
      </trkpt>
      <trkpt lat="44.31419" lon="1.12595">
        <ele>240</ele>
        <time>2012-03-11 08:36:17 +0000</time>
      </trkpt>
      <trkpt lat="44.31413" lon="1.12614">
        <ele>240</ele>
        <time>2012-03-11 08:36:21 +0000</time>
      </trkpt>
      <trkpt lat="44.31408" lon="1.12626">
        <ele>240</ele>
        <time>2012-03-11 08:36:24 +0000</time>
      </trkpt>
      <trkpt lat="44.31403" lon="1.12638">
        <ele>240</ele>
        <time>2012-03-11 08:36:27 +0000</time>
      </trkpt>
      <trkpt lat="44.31397" lon="1.12652">
        <ele>241</ele>
        <time>2012-03-11 08:36:31 +0000</time>
      </trkpt>
      <trkpt lat="44.31392" lon="1.12663">
        <ele>241</ele>
        <time>2012-03-11 08:36:34 +0000</time>
      </trkpt>
      <trkpt lat="44.31387" lon="1.12677">
        <ele>240</ele>
        <time>2012-03-11 08:36:38 +0000</time>
      </trkpt>
      <trkpt lat="44.31383" lon="1.12687">
        <ele>241</ele>
        <time>2012-03-11 08:36:41 +0000</time>
      </trkpt>
      <trkpt lat="44.31377" lon="1.127">
        <ele>243</ele>
        <time>2012-03-11 08:36:45 +0000</time>
      </trkpt>
      <trkpt lat="44.31371" lon="1.12705">
        <ele>243</ele>
        <time>2012-03-11 08:36:48 +0000</time>
      </trkpt>
      <trkpt lat="44.31364" lon="1.12705">
        <ele>243</ele>
        <time>2012-03-11 08:36:52 +0000</time>
      </trkpt>
      <trkpt lat="44.3136" lon="1.127">
        <ele>244</ele>
        <time>2012-03-11 08:36:55 +0000</time>
      </trkpt>
      <trkpt lat="44.31358" lon="1.12691">
        <ele>245</ele>
        <time>2012-03-11 08:36:59 +0000</time>
      </trkpt>
      <trkpt lat="44.31355" lon="1.12684">
        <ele>245</ele>
        <time>2012-03-11 08:37:02 +0000</time>
      </trkpt>
      <trkpt lat="44.3135" lon="1.12674">
        <ele>245</ele>
        <time>2012-03-11 08:37:06 +0000</time>
      </trkpt>
      <trkpt lat="44.31345" lon="1.12666">
        <ele>243</ele>
        <time>2012-03-11 08:37:09 +0000</time>
      </trkpt>
      <trkpt lat="44.31339" lon="1.12654">
        <ele>245</ele>
        <time>2012-03-11 08:37:13 +0000</time>
      </trkpt>
      <trkpt lat="44.31335" lon="1.12646">
        <ele>244</ele>
        <time>2012-03-11 08:37:16 +0000</time>
      </trkpt>
      <trkpt lat="44.3133" lon="1.12637">
        <ele>247</ele>
        <time>2012-03-11 08:37:19 +0000</time>
      </trkpt>
      <trkpt lat="44.31325" lon="1.12626">
        <ele>246</ele>
        <time>2012-03-11 08:37:23 +0000</time>
      </trkpt>
      <trkpt lat="44.31319" lon="1.12617">
        <ele>248</ele>
        <time>2012-03-11 08:37:26 +0000</time>
      </trkpt>
      <trkpt lat="44.31315" lon="1.12611">
        <ele>246</ele>
        <time>2012-03-11 08:37:29 +0000</time>
      </trkpt>
      <trkpt lat="44.31306" lon="1.12601">
        <ele>247</ele>
        <time>2012-03-11 08:37:33 +0000</time>
      </trkpt>
      <trkpt lat="44.31301" lon="1.12595">
        <ele>247</ele>
        <time>2012-03-11 08:37:36 +0000</time>
      </trkpt>
      <trkpt lat="44.31295" lon="1.12588">
        <ele>247</ele>
        <time>2012-03-11 08:37:39 +0000</time>
      </trkpt>
      <trkpt lat="44.31286" lon="1.12581">
        <ele>246</ele>
        <time>2012-03-11 08:37:43 +0000</time>
      </trkpt>
      <trkpt lat="44.3128" lon="1.12574">
        <ele>249</ele>
        <time>2012-03-11 08:37:46 +0000</time>
      </trkpt>
      <trkpt lat="44.31273" lon="1.1257">
        <ele>247</ele>
        <time>2012-03-11 08:37:50 +0000</time>
      </trkpt>
      <trkpt lat="44.31267" lon="1.12566">
        <ele>248</ele>
        <time>2012-03-11 08:37:53 +0000</time>
      </trkpt>
      <trkpt lat="44.31262" lon="1.12561">
        <ele>248</ele>
        <time>2012-03-11 08:37:56 +0000</time>
      </trkpt>
      <trkpt lat="44.31255" lon="1.12554">
        <ele>247</ele>
        <time>2012-03-11 08:38:00 +0000</time>
      </trkpt>
      <trkpt lat="44.31246" lon="1.12546">
        <ele>250</ele>
        <time>2012-03-11 08:38:04 +0000</time>
      </trkpt>
      <trkpt lat="44.31239" lon="1.12539">
        <ele>253</ele>
        <time>2012-03-11 08:38:08 +0000</time>
      </trkpt>
      <trkpt lat="44.31233" lon="1.12531">
        <ele>255</ele>
        <time>2012-03-11 08:38:12 +0000</time>
      </trkpt>
      <trkpt lat="44.31226" lon="1.12524">
        <ele>253</ele>
        <time>2012-03-11 08:38:16 +0000</time>
      </trkpt>
      <trkpt lat="44.31218" lon="1.12515">
        <ele>254</ele>
        <time>2012-03-11 08:38:20 +0000</time>
      </trkpt>
      <trkpt lat="44.31213" lon="1.1251">
        <ele>255</ele>
        <time>2012-03-11 08:38:23 +0000</time>
      </trkpt>
      <trkpt lat="44.31207" lon="1.12505">
        <ele>253</ele>
        <time>2012-03-11 08:38:26 +0000</time>
      </trkpt>
      <trkpt lat="44.31198" lon="1.12497">
        <ele>255</ele>
        <time>2012-03-11 08:38:30 +0000</time>
      </trkpt>
      <trkpt lat="44.31192" lon="1.12492">
        <ele>255</ele>
        <time>2012-03-11 08:38:33 +0000</time>
      </trkpt>
      <trkpt lat="44.31186" lon="1.12485">
        <ele>255</ele>
        <time>2012-03-11 08:38:36 +0000</time>
      </trkpt>
      <trkpt lat="44.31178" lon="1.12479">
        <ele>253</ele>
        <time>2012-03-11 08:38:40 +0000</time>
      </trkpt>
      <trkpt lat="44.31172" lon="1.12473">
        <ele>254</ele>
        <time>2012-03-11 08:38:43 +0000</time>
      </trkpt>
      <trkpt lat="44.31164" lon="1.12467">
        <ele>254</ele>
        <time>2012-03-11 08:38:46 +0000</time>
      </trkpt>
      <trkpt lat="44.31155" lon="1.1246">
        <ele>253</ele>
        <time>2012-03-11 08:38:50 +0000</time>
      </trkpt>
      <trkpt lat="44.31146" lon="1.12456">
        <ele>253</ele>
        <time>2012-03-11 08:38:53 +0000</time>
      </trkpt>
      <trkpt lat="44.31132" lon="1.12453">
        <ele>252</ele>
        <time>2012-03-11 08:38:57 +0000</time>
      </trkpt>
      <trkpt lat="44.31121" lon="1.12453">
        <ele>253</ele>
        <time>2012-03-11 08:39:00 +0000</time>
      </trkpt>
      <trkpt lat="44.31108" lon="1.12455">
        <ele>255</ele>
        <time>2012-03-11 08:39:03 +0000</time>
      </trkpt>
      <trkpt lat="44.31094" lon="1.12461">
        <ele>253</ele>
        <time>2012-03-11 08:39:07 +0000</time>
      </trkpt>
      <trkpt lat="44.31083" lon="1.1247">
        <ele>254</ele>
        <time>2012-03-11 08:39:10 +0000</time>
      </trkpt>
      <trkpt lat="44.31071" lon="1.12483">
        <ele>251</ele>
        <time>2012-03-11 08:39:14 +0000</time>
      </trkpt>
      <trkpt lat="44.31064" lon="1.12494">
        <ele>251</ele>
        <time>2012-03-11 08:39:17 +0000</time>
      </trkpt>
      <trkpt lat="44.31053" lon="1.12506">
        <ele>253</ele>
        <time>2012-03-11 08:39:21 +0000</time>
      </trkpt>
      <trkpt lat="44.31046" lon="1.12516">
        <ele>250</ele>
        <time>2012-03-11 08:39:24 +0000</time>
      </trkpt>
      <trkpt lat="44.31035" lon="1.12525">
        <ele>252</ele>
        <time>2012-03-11 08:39:28 +0000</time>
      </trkpt>
      <trkpt lat="44.31023" lon="1.12533">
        <ele>253</ele>
        <time>2012-03-11 08:39:32 +0000</time>
      </trkpt>
      <trkpt lat="44.31013" lon="1.12542">
        <ele>253</ele>
        <time>2012-03-11 08:39:35 +0000</time>
      </trkpt>
      <trkpt lat="44.31007" lon="1.12556">
        <ele>250</ele>
        <time>2012-03-11 08:39:39 +0000</time>
      </trkpt>
      <trkpt lat="44.31" lon="1.1257">
        <ele>251</ele>
        <time>2012-03-11 08:39:43 +0000</time>
      </trkpt>
      <trkpt lat="44.30991" lon="1.12581">
        <ele>249</ele>
        <time>2012-03-11 08:39:46 +0000</time>
      </trkpt>
      <trkpt lat="44.30981" lon="1.12592">
        <ele>249</ele>
        <time>2012-03-11 08:39:50 +0000</time>
      </trkpt>
      <trkpt lat="44.30972" lon="1.12601">
        <ele>249</ele>
        <time>2012-03-11 08:39:53 +0000</time>
      </trkpt>
      <trkpt lat="44.30965" lon="1.12605">
        <ele>249</ele>
        <time>2012-03-11 08:39:56 +0000</time>
      </trkpt>
      <trkpt lat="44.30955" lon="1.12611">
        <ele>250</ele>
        <time>2012-03-11 08:39:59 +0000</time>
      </trkpt>
      <trkpt lat="44.30946" lon="1.12617">
        <ele>249</ele>
        <time>2012-03-11 08:40:02 +0000</time>
      </trkpt>
      <trkpt lat="44.30935" lon="1.12626">
        <ele>250</ele>
        <time>2012-03-11 08:40:06 +0000</time>
      </trkpt>
      <trkpt lat="44.30923" lon="1.12632">
        <ele>251</ele>
        <time>2012-03-11 08:40:10 +0000</time>
      </trkpt>
      <trkpt lat="44.30913" lon="1.12633">
        <ele>247</ele>
        <time>2012-03-11 08:40:13 +0000</time>
      </trkpt>
      <trkpt lat="44.30901" lon="1.12633">
        <ele>250</ele>
        <time>2012-03-11 08:40:17 +0000</time>
      </trkpt>
      <trkpt lat="44.30886" lon="1.12631">
        <ele>251</ele>
        <time>2012-03-11 08:40:21 +0000</time>
      </trkpt>
      <trkpt lat="44.30876" lon="1.1263">
        <ele>251</ele>
        <time>2012-03-11 08:40:24 +0000</time>
      </trkpt>
      <trkpt lat="44.30865" lon="1.12629">
        <ele>251</ele>
        <time>2012-03-11 08:40:27 +0000</time>
      </trkpt>
      <trkpt lat="44.3085" lon="1.12627">
        <ele>249</ele>
        <time>2012-03-11 08:40:31 +0000</time>
      </trkpt>
      <trkpt lat="44.30839" lon="1.12625">
        <ele>250</ele>
        <time>2012-03-11 08:40:34 +0000</time>
      </trkpt>
      <trkpt lat="44.30824" lon="1.12622">
        <ele>249</ele>
        <time>2012-03-11 08:40:38 +0000</time>
      </trkpt>
      <trkpt lat="44.30811" lon="1.12619">
        <ele>251</ele>
        <time>2012-03-11 08:40:42 +0000</time>
      </trkpt>
      <trkpt lat="44.308" lon="1.12616">
        <ele>253</ele>
        <time>2012-03-11 08:40:45 +0000</time>
      </trkpt>
      <trkpt lat="44.30784" lon="1.12611">
        <ele>252</ele>
        <time>2012-03-11 08:40:49 +0000</time>
      </trkpt>
      <trkpt lat="44.3077" lon="1.12608">
        <ele>250</ele>
        <time>2012-03-11 08:40:52 +0000</time>
      </trkpt>
      <trkpt lat="44.30753" lon="1.12606">
        <ele>251</ele>
        <time>2012-03-11 08:40:56 +0000</time>
      </trkpt>
      <trkpt lat="44.30737" lon="1.12605">
        <ele>246</ele>
        <time>2012-03-11 08:40:59 +0000</time>
      </trkpt>
      <trkpt lat="44.30722" lon="1.12603">
        <ele>249</ele>
        <time>2012-03-11 08:41:02 +0000</time>
      </trkpt>
      <trkpt lat="44.307" lon="1.12601">
        <ele>244</ele>
        <time>2012-03-11 08:41:06 +0000</time>
      </trkpt>
      <trkpt lat="44.3068" lon="1.126">
        <ele>244</ele>
        <time>2012-03-11 08:41:10 +0000</time>
      </trkpt>
      <trkpt lat="44.30658" lon="1.12599">
        <ele>244</ele>
        <time>2012-03-11 08:41:14 +0000</time>
      </trkpt>
      <trkpt lat="44.30639" lon="1.12599">
        <ele>243</ele>
        <time>2012-03-11 08:41:18 +0000</time>
      </trkpt>
      <trkpt lat="44.30621" lon="1.12598">
        <ele>246</ele>
        <time>2012-03-11 08:41:22 +0000</time>
      </trkpt>
      <trkpt lat="44.30607" lon="1.12597">
        <ele>246</ele>
        <time>2012-03-11 08:41:26 +0000</time>
      </trkpt>
      <trkpt lat="44.30593" lon="1.12596">
        <ele>246</ele>
        <time>2012-03-11 08:41:30 +0000</time>
      </trkpt>
      <trkpt lat="44.30584" lon="1.12596">
        <ele>245</ele>
        <time>2012-03-11 08:41:33 +0000</time>
      </trkpt>
      <trkpt lat="44.30577" lon="1.12595">
        <ele>244</ele>
        <time>2012-03-11 08:41:36 +0000</time>
      </trkpt>
      <trkpt lat="44.30568" lon="1.12594">
        <ele>245</ele>
        <time>2012-03-11 08:41:39 +0000</time>
      </trkpt>
      <trkpt lat="44.30556" lon="1.12593">
        <ele>244</ele>
        <time>2012-03-11 08:41:43 +0000</time>
      </trkpt>
      <trkpt lat="44.30547" lon="1.12592">
        <ele>243</ele>
        <time>2012-03-11 08:41:46 +0000</time>
      </trkpt>
      <trkpt lat="44.30534" lon="1.12591">
        <ele>244</ele>
        <time>2012-03-11 08:41:50 +0000</time>
      </trkpt>
      <trkpt lat="44.30524" lon="1.12591">
        <ele>245</ele>
        <time>2012-03-11 08:41:53 +0000</time>
      </trkpt>
      <trkpt lat="44.30512" lon="1.12588">
        <ele>245</ele>
        <time>2012-03-11 08:41:57 +0000</time>
      </trkpt>
      <trkpt lat="44.30503" lon="1.12587">
        <ele>244</ele>
        <time>2012-03-11 08:42:01 +0000</time>
      </trkpt>
      <trkpt lat="44.30496" lon="1.12586">
        <ele>246</ele>
        <time>2012-03-11 08:42:04 +0000</time>
      </trkpt>
      <trkpt lat="44.30486" lon="1.12585">
        <ele>249</ele>
        <time>2012-03-11 08:42:08 +0000</time>
      </trkpt>
      <trkpt lat="44.30475" lon="1.12584">
        <ele>247</ele>
        <time>2012-03-11 08:42:11 +0000</time>
      </trkpt>
      <trkpt lat="44.30458" lon="1.12579">
        <ele>246</ele>
        <time>2012-03-11 08:42:15 +0000</time>
      </trkpt>
      <trkpt lat="44.30447" lon="1.12574">
        <ele>243</ele>
        <time>2012-03-11 08:42:18 +0000</time>
      </trkpt>
      <trkpt lat="44.30424" lon="1.12563">
        <ele>239</ele>
        <time>2012-03-11 08:42:22 +0000</time>
      </trkpt>
      <trkpt lat="44.30392" lon="1.12543">
        <ele>235</ele>
        <time>2012-03-11 08:42:26 +0000</time>
      </trkpt>
      <trkpt lat="44.30364" lon="1.12526">
        <ele>231</ele>
        <time>2012-03-11 08:42:29 +0000</time>
      </trkpt>
      <trkpt lat="44.30338" lon="1.12511">
        <ele>231</ele>
        <time>2012-03-11 08:42:32 +0000</time>
      </trkpt>
      <trkpt lat="44.30315" lon="1.12498">
        <ele>229</ele>
        <time>2012-03-11 08:42:35 +0000</time>
      </trkpt>
      <trkpt lat="44.30297" lon="1.12486">
        <ele>232</ele>
        <time>2012-03-11 08:42:38 +0000</time>
      </trkpt>
      <trkpt lat="44.30282" lon="1.12476">
        <ele>234</ele>
        <time>2012-03-11 08:42:41 +0000</time>
      </trkpt>
      <trkpt lat="44.30266" lon="1.12466">
        <ele>232</ele>
        <time>2012-03-11 08:42:45 +0000</time>
      </trkpt>
      <trkpt lat="44.30255" lon="1.12456">
        <ele>237</ele>
        <time>2012-03-11 08:42:49 +0000</time>
      </trkpt>
      <trkpt lat="44.30249" lon="1.12449">
        <ele>237</ele>
        <time>2012-03-11 08:42:53 +0000</time>
      </trkpt>
      <trkpt lat="44.30245" lon="1.12448">
        <ele>230</ele>
        <time>2012-03-11 08:42:56 +0000</time>
      </trkpt>
      <trkpt lat="44.30239" lon="1.1245">
        <ele>232</ele>
        <time>2012-03-11 08:43:00 +0000</time>
      </trkpt>
      <trkpt lat="44.30235" lon="1.12449">
        <ele>234</ele>
        <time>2012-03-11 08:43:04 +0000</time>
      </trkpt>
      <trkpt lat="44.3023" lon="1.12446">
        <ele>231</ele>
        <time>2012-03-11 08:43:08 +0000</time>
      </trkpt>
      <trkpt lat="44.30226" lon="1.12445">
        <ele>233</ele>
        <time>2012-03-11 08:43:11 +0000</time>
      </trkpt>
      <trkpt lat="44.30226" lon="1.12445">
        <ele>233</ele>
        <time>2012-03-11 08:43:14 +0000</time>
      </trkpt>
      <trkpt lat="44.30222" lon="1.1244">
        <ele>229</ele>
        <time>2012-03-11 08:43:17 +0000</time>
      </trkpt>
      <trkpt lat="44.30217" lon="1.12437">
        <ele>234</ele>
        <time>2012-03-11 08:43:21 +0000</time>
      </trkpt>
      <trkpt lat="44.3021" lon="1.12433">
        <ele>233</ele>
        <time>2012-03-11 08:43:24 +0000</time>
      </trkpt>
      <trkpt lat="44.30196" lon="1.12425">
        <ele>237</ele>
        <time>2012-03-11 08:43:28 +0000</time>
      </trkpt>
      <trkpt lat="44.30185" lon="1.12418">
        <ele>242</ele>
        <time>2012-03-11 08:43:31 +0000</time>
      </trkpt>
      <trkpt lat="44.30173" lon="1.12411">
        <ele>237</ele>
        <time>2012-03-11 08:43:34 +0000</time>
      </trkpt>
      <trkpt lat="44.3016" lon="1.12403">
        <ele>241</ele>
        <time>2012-03-11 08:43:38 +0000</time>
      </trkpt>
      <trkpt lat="44.30154" lon="1.124">
        <ele>242</ele>
        <time>2012-03-11 08:43:41 +0000</time>
      </trkpt>
      <trkpt lat="44.30145" lon="1.12396">
        <ele>245</ele>
        <time>2012-03-11 08:43:45 +0000</time>
      </trkpt>
      <trkpt lat="44.30136" lon="1.12391">
        <ele>243</ele>
        <time>2012-03-11 08:43:48 +0000</time>
      </trkpt>
      <trkpt lat="44.30128" lon="1.12387">
        <ele>238</ele>
        <time>2012-03-11 08:43:52 +0000</time>
      </trkpt>
      <trkpt lat="44.30122" lon="1.12389">
        <ele>245</ele>
        <time>2012-03-11 08:43:55 +0000</time>
      </trkpt>
      <trkpt lat="44.30115" lon="1.12392">
        <ele>242</ele>
        <time>2012-03-11 08:43:59 +0000</time>
      </trkpt>
      <trkpt lat="44.30109" lon="1.12396">
        <ele>238</ele>
        <time>2012-03-11 08:44:02 +0000</time>
      </trkpt>
      <trkpt lat="44.30105" lon="1.12404">
        <ele>240</ele>
        <time>2012-03-11 08:44:06 +0000</time>
      </trkpt>
      <trkpt lat="44.30102" lon="1.12409">
        <ele>241</ele>
        <time>2012-03-11 08:44:09 +0000</time>
      </trkpt>
      <trkpt lat="44.30098" lon="1.12413">
        <ele>240</ele>
        <time>2012-03-11 08:44:12 +0000</time>
      </trkpt>
      <trkpt lat="44.30092" lon="1.12418">
        <ele>247</ele>
        <time>2012-03-11 08:44:16 +0000</time>
      </trkpt>
      <trkpt lat="44.30087" lon="1.12423">
        <ele>244</ele>
        <time>2012-03-11 08:44:19 +0000</time>
      </trkpt>
      <trkpt lat="44.30079" lon="1.1243">
        <ele>241</ele>
        <time>2012-03-11 08:44:23 +0000</time>
      </trkpt>
      <trkpt lat="44.30072" lon="1.12437">
        <ele>245</ele>
        <time>2012-03-11 08:44:27 +0000</time>
      </trkpt>
      <trkpt lat="44.30066" lon="1.12445">
        <ele>241</ele>
        <time>2012-03-11 08:44:31 +0000</time>
      </trkpt>
      <trkpt lat="44.30059" lon="1.12451">
        <ele>242</ele>
        <time>2012-03-11 08:44:35 +0000</time>
      </trkpt>
      <trkpt lat="44.30053" lon="1.12457">
        <ele>246</ele>
        <time>2012-03-11 08:44:38 +0000</time>
      </trkpt>
      <trkpt lat="44.30046" lon="1.12464">
        <ele>245</ele>
        <time>2012-03-11 08:44:41 +0000</time>
      </trkpt>
      <trkpt lat="44.30039" lon="1.12472">
        <ele>241</ele>
        <time>2012-03-11 08:44:45 +0000</time>
      </trkpt>
      <trkpt lat="44.30031" lon="1.1248">
        <ele>240</ele>
        <time>2012-03-11 08:44:49 +0000</time>
      </trkpt>
      <trkpt lat="44.30023" lon="1.12491">
        <ele>241</ele>
        <time>2012-03-11 08:44:53 +0000</time>
      </trkpt>
      <trkpt lat="44.30016" lon="1.12498">
        <ele>241</ele>
        <time>2012-03-11 08:44:56 +0000</time>
      </trkpt>
      <trkpt lat="44.30009" lon="1.12507">
        <ele>245</ele>
        <time>2012-03-11 08:45:00 +0000</time>
      </trkpt>
      <trkpt lat="44.3" lon="1.12514">
        <ele>247</ele>
        <time>2012-03-11 08:45:04 +0000</time>
      </trkpt>
      <trkpt lat="44.29995" lon="1.12521">
        <ele>244</ele>
        <time>2012-03-11 08:45:07 +0000</time>
      </trkpt>
      <trkpt lat="44.29987" lon="1.12531">
        <ele>247</ele>
        <time>2012-03-11 08:45:11 +0000</time>
      </trkpt>
      <trkpt lat="44.2998" lon="1.12537">
        <ele>246</ele>
        <time>2012-03-11 08:45:14 +0000</time>
      </trkpt>
      <trkpt lat="44.29972" lon="1.12548">
        <ele>242</ele>
        <time>2012-03-11 08:45:18 +0000</time>
      </trkpt>
      <trkpt lat="44.29965" lon="1.12562">
        <ele>244</ele>
        <time>2012-03-11 08:45:22 +0000</time>
      </trkpt>
      <trkpt lat="44.29959" lon="1.12575">
        <ele>247</ele>
        <time>2012-03-11 08:45:26 +0000</time>
      </trkpt>
      <trkpt lat="44.29953" lon="1.12582">
        <ele>248</ele>
        <time>2012-03-11 08:45:30 +0000</time>
      </trkpt>
      <trkpt lat="44.29946" lon="1.12581">
        <ele>248</ele>
        <time>2012-03-11 08:45:33 +0000</time>
      </trkpt>
      <trkpt lat="44.29941" lon="1.12581">
        <ele>249</ele>
        <time>2012-03-11 08:45:36 +0000</time>
      </trkpt>
      <trkpt lat="44.29934" lon="1.1259">
        <ele>247</ele>
        <time>2012-03-11 08:45:40 +0000</time>
      </trkpt>
      <trkpt lat="44.29929" lon="1.12593">
        <ele>249</ele>
        <time>2012-03-11 08:45:43 +0000</time>
      </trkpt>
      <trkpt lat="44.29921" lon="1.12596">
        <ele>247</ele>
        <time>2012-03-11 08:45:47 +0000</time>
      </trkpt>
      <trkpt lat="44.29912" lon="1.12603">
        <ele>247</ele>
        <time>2012-03-11 08:45:50 +0000</time>
      </trkpt>
      <trkpt lat="44.29898" lon="1.12613">
        <ele>246</ele>
        <time>2012-03-11 08:45:54 +0000</time>
      </trkpt>
      <trkpt lat="44.29892" lon="1.12617">
        <ele>246</ele>
        <time>2012-03-11 08:45:58 +0000</time>
      </trkpt>
      <trkpt lat="44.29887" lon="1.12616">
        <ele>242</ele>
        <time>2012-03-11 08:46:01 +0000</time>
      </trkpt>
      <trkpt lat="44.29877" lon="1.12618">
        <ele>240</ele>
        <time>2012-03-11 08:46:05 +0000</time>
      </trkpt>
      <trkpt lat="44.29869" lon="1.12621">
        <ele>243</ele>
        <time>2012-03-11 08:46:08 +0000</time>
      </trkpt>
      <trkpt lat="44.29859" lon="1.12625">
        <ele>244</ele>
        <time>2012-03-11 08:46:11 +0000</time>
      </trkpt>
      <trkpt lat="44.29848" lon="1.12628">
        <ele>242</ele>
        <time>2012-03-11 08:46:14 +0000</time>
      </trkpt>
      <trkpt lat="44.29833" lon="1.12635">
        <ele>239</ele>
        <time>2012-03-11 08:46:18 +0000</time>
      </trkpt>
      <trkpt lat="44.29812" lon="1.12639">
        <ele>244</ele>
        <time>2012-03-11 08:46:22 +0000</time>
      </trkpt>
      <trkpt lat="44.29801" lon="1.12645">
        <ele>237</ele>
        <time>2012-03-11 08:46:25 +0000</time>
      </trkpt>
      <trkpt lat="44.29788" lon="1.12663">
        <ele>237</ele>
        <time>2012-03-11 08:46:29 +0000</time>
      </trkpt>
      <trkpt lat="44.2978" lon="1.12676">
        <ele>238</ele>
        <time>2012-03-11 08:46:32 +0000</time>
      </trkpt>
      <trkpt lat="44.2977" lon="1.12691">
        <ele>235</ele>
        <time>2012-03-11 08:46:35 +0000</time>
      </trkpt>
      <trkpt lat="44.29754" lon="1.1271">
        <ele>237</ele>
        <time>2012-03-11 08:46:39 +0000</time>
      </trkpt>
      <trkpt lat="44.29744" lon="1.12719">
        <ele>232</ele>
        <time>2012-03-11 08:46:42 +0000</time>
      </trkpt>
      <trkpt lat="44.29733" lon="1.12727">
        <ele>232</ele>
        <time>2012-03-11 08:46:45 +0000</time>
      </trkpt>
      <trkpt lat="44.29715" lon="1.1274">
        <ele>233</ele>
        <time>2012-03-11 08:46:49 +0000</time>
      </trkpt>
      <trkpt lat="44.29698" lon="1.1275">
        <ele>227</ele>
        <time>2012-03-11 08:46:53 +0000</time>
      </trkpt>
      <trkpt lat="44.29675" lon="1.12753">
        <ele>227</ele>
        <time>2012-03-11 08:46:57 +0000</time>
      </trkpt>
      <trkpt lat="44.29644" lon="1.12747">
        <ele>226</ele>
        <time>2012-03-11 08:47:01 +0000</time>
      </trkpt>
      <trkpt lat="44.29613" lon="1.12748">
        <ele>225</ele>
        <time>2012-03-11 08:47:05 +0000</time>
      </trkpt>
      <trkpt lat="44.29592" lon="1.1275">
        <ele>222</ele>
        <time>2012-03-11 08:47:08 +0000</time>
      </trkpt>
      <trkpt lat="44.29579" lon="1.12735">
        <ele>227</ele>
        <time>2012-03-11 08:47:12 +0000</time>
      </trkpt>
      <trkpt lat="44.2957" lon="1.12716">
        <ele>225</ele>
        <time>2012-03-11 08:47:15 +0000</time>
      </trkpt>
      <trkpt lat="44.29561" lon="1.12695">
        <ele>223</ele>
        <time>2012-03-11 08:47:18 +0000</time>
      </trkpt>
      <trkpt lat="44.29554" lon="1.12679">
        <ele>221</ele>
        <time>2012-03-11 08:47:22 +0000</time>
      </trkpt>
      <trkpt lat="44.29548" lon="1.12666">
        <ele>223</ele>
        <time>2012-03-11 08:47:25 +0000</time>
      </trkpt>
      <trkpt lat="44.29541" lon="1.12652">
        <ele>222</ele>
        <time>2012-03-11 08:47:29 +0000</time>
      </trkpt>
      <trkpt lat="44.29536" lon="1.12643">
        <ele>223</ele>
        <time>2012-03-11 08:47:32 +0000</time>
      </trkpt>
      <trkpt lat="44.29529" lon="1.12629">
        <ele>225</ele>
        <time>2012-03-11 08:47:36 +0000</time>
      </trkpt>
      <trkpt lat="44.29524" lon="1.12618">
        <ele>227</ele>
        <time>2012-03-11 08:47:39 +0000</time>
      </trkpt>
      <trkpt lat="44.29519" lon="1.12615">
        <ele>229</ele>
        <time>2012-03-11 08:47:42 +0000</time>
      </trkpt>
      <trkpt lat="44.29509" lon="1.12619">
        <ele>223</ele>
        <time>2012-03-11 08:47:46 +0000</time>
      </trkpt>
      <trkpt lat="44.29498" lon="1.12626">
        <ele>225</ele>
        <time>2012-03-11 08:47:50 +0000</time>
      </trkpt>
      <trkpt lat="44.2949" lon="1.12633">
        <ele>223</ele>
        <time>2012-03-11 08:47:53 +0000</time>
      </trkpt>
      <trkpt lat="44.29478" lon="1.12642">
        <ele>219</ele>
        <time>2012-03-11 08:47:57 +0000</time>
      </trkpt>
      <trkpt lat="44.29466" lon="1.12644">
        <ele>218</ele>
        <time>2012-03-11 08:48:01 +0000</time>
      </trkpt>
      <trkpt lat="44.29457" lon="1.12647">
        <ele>219</ele>
        <time>2012-03-11 08:48:04 +0000</time>
      </trkpt>
      <trkpt lat="44.29445" lon="1.1265">
        <ele>212</ele>
        <time>2012-03-11 08:48:08 +0000</time>
      </trkpt>
      <trkpt lat="44.29435" lon="1.12653">
        <ele>216</ele>
        <time>2012-03-11 08:48:11 +0000</time>
      </trkpt>
      <trkpt lat="44.29421" lon="1.12658">
        <ele>219</ele>
        <time>2012-03-11 08:48:15 +0000</time>
      </trkpt>
      <trkpt lat="44.29409" lon="1.12662">
        <ele>221</ele>
        <time>2012-03-11 08:48:18 +0000</time>
      </trkpt>
      <trkpt lat="44.29393" lon="1.12669">
        <ele>218</ele>
        <time>2012-03-11 08:48:22 +0000</time>
      </trkpt>
      <trkpt lat="44.29379" lon="1.12676">
        <ele>219</ele>
        <time>2012-03-11 08:48:26 +0000</time>
      </trkpt>
      <trkpt lat="44.29369" lon="1.12679">
        <ele>216</ele>
        <time>2012-03-11 08:48:29 +0000</time>
      </trkpt>
      <trkpt lat="44.29355" lon="1.12683">
        <ele>219</ele>
        <time>2012-03-11 08:48:33 +0000</time>
      </trkpt>
      <trkpt lat="44.29345" lon="1.12687">
        <ele>221</ele>
        <time>2012-03-11 08:48:36 +0000</time>
      </trkpt>
      <trkpt lat="44.29336" lon="1.12684">
        <ele>219</ele>
        <time>2012-03-11 08:48:40 +0000</time>
      </trkpt>
      <trkpt lat="44.29332" lon="1.12672">
        <ele>217</ele>
        <time>2012-03-11 08:48:44 +0000</time>
      </trkpt>
      <trkpt lat="44.29328" lon="1.1266">
        <ele>220</ele>
        <time>2012-03-11 08:48:48 +0000</time>
      </trkpt>
      <trkpt lat="44.29324" lon="1.12654">
        <ele>217</ele>
        <time>2012-03-11 08:48:51 +0000</time>
      </trkpt>
      <trkpt lat="44.29317" lon="1.12649">
        <ele>222</ele>
        <time>2012-03-11 08:48:55 +0000</time>
      </trkpt>
      <trkpt lat="44.2931" lon="1.12646">
        <ele>220</ele>
        <time>2012-03-11 08:48:58 +0000</time>
      </trkpt>
      <trkpt lat="44.293" lon="1.12644">
        <ele>221</ele>
        <time>2012-03-11 08:49:02 +0000</time>
      </trkpt>
      <trkpt lat="44.29292" lon="1.12644">
        <ele>221</ele>
        <time>2012-03-11 08:49:05 +0000</time>
      </trkpt>
      <trkpt lat="44.29284" lon="1.12644">
        <ele>221</ele>
        <time>2012-03-11 08:49:08 +0000</time>
      </trkpt>
      <trkpt lat="44.29278" lon="1.12646">
        <ele>221</ele>
        <time>2012-03-11 08:49:11 +0000</time>
      </trkpt>
      <trkpt lat="44.29271" lon="1.12649">
        <ele>218</ele>
        <time>2012-03-11 08:49:15 +0000</time>
      </trkpt>
      <trkpt lat="44.29263" lon="1.12651">
        <ele>225</ele>
        <time>2012-03-11 08:49:19 +0000</time>
      </trkpt>
      <trkpt lat="44.29252" lon="1.12654">
        <ele>222</ele>
        <time>2012-03-11 08:49:23 +0000</time>
      </trkpt>
      <trkpt lat="44.29242" lon="1.12657">
        <ele>220</ele>
        <time>2012-03-11 08:49:26 +0000</time>
      </trkpt>
      <trkpt lat="44.29228" lon="1.12662">
        <ele>221</ele>
        <time>2012-03-11 08:49:30 +0000</time>
      </trkpt>
      <trkpt lat="44.29213" lon="1.12666">
        <ele>221</ele>
        <time>2012-03-11 08:49:34 +0000</time>
      </trkpt>
      <trkpt lat="44.29198" lon="1.12671">
        <ele>219</ele>
        <time>2012-03-11 08:49:38 +0000</time>
      </trkpt>
      <trkpt lat="44.29187" lon="1.12674">
        <ele>219</ele>
        <time>2012-03-11 08:49:41 +0000</time>
      </trkpt>
      <trkpt lat="44.29171" lon="1.12678">
        <ele>219</ele>
        <time>2012-03-11 08:49:45 +0000</time>
      </trkpt>
      <trkpt lat="44.29155" lon="1.12683">
        <ele>219</ele>
        <time>2012-03-11 08:49:49 +0000</time>
      </trkpt>
      <trkpt lat="44.29145" lon="1.12684">
        <ele>220</ele>
        <time>2012-03-11 08:49:52 +0000</time>
      </trkpt>
      <trkpt lat="44.29137" lon="1.12672">
        <ele>217</ele>
        <time>2012-03-11 08:49:56 +0000</time>
      </trkpt>
      <trkpt lat="44.29132" lon="1.1266">
        <ele>213</ele>
        <time>2012-03-11 08:50:00 +0000</time>
      </trkpt>
      <trkpt lat="44.29128" lon="1.12649">
        <ele>214</ele>
        <time>2012-03-11 08:50:03 +0000</time>
      </trkpt>
      <trkpt lat="44.29126" lon="1.12638">
        <ele>219</ele>
        <time>2012-03-11 08:50:06 +0000</time>
      </trkpt>
      <trkpt lat="44.29122" lon="1.12619">
        <ele>209</ele>
        <time>2012-03-11 08:50:10 +0000</time>
      </trkpt>
      <trkpt lat="44.29118" lon="1.12604">
        <ele>210</ele>
        <time>2012-03-11 08:50:13 +0000</time>
      </trkpt>
      <trkpt lat="44.2911" lon="1.1259">
        <ele>208</ele>
        <time>2012-03-11 08:50:16 +0000</time>
      </trkpt>
      <trkpt lat="44.29102" lon="1.12577">
        <ele>210</ele>
        <time>2012-03-11 08:50:19 +0000</time>
      </trkpt>
      <trkpt lat="44.291" lon="1.12575">
        <ele>212</ele>
        <time>2012-03-11 08:50:22 +0000</time>
      </trkpt>
      <trkpt lat="44.291" lon="1.12575">
        <ele>212</ele>
        <time>2012-03-11 08:50:25 +0000</time>
      </trkpt>
      <trkpt lat="44.291" lon="1.12575">
        <ele>212</ele>
        <time>2012-03-11 08:50:29 +0000</time>
      </trkpt>
      <trkpt lat="44.291" lon="1.12575">
        <ele>212</ele>
        <time>2012-03-11 08:50:32 +0000</time>
      </trkpt>
      <trkpt lat="44.291" lon="1.12575">
        <ele>212</ele>
        <time>2012-03-11 08:50:35 +0000</time>
      </trkpt>
      <trkpt lat="44.291" lon="1.12575">
        <ele>212</ele>
        <time>2012-03-11 08:50:39 +0000</time>
      </trkpt>
      <trkpt lat="44.291" lon="1.12575">
        <ele>212</ele>
        <time>2012-03-11 08:50:42 +0000</time>
      </trkpt>
      <trkpt lat="44.291" lon="1.12575">
        <ele>212</ele>
        <time>2012-03-11 08:50:46 +0000</time>
      </trkpt>
      <trkpt lat="44.291" lon="1.12575">
        <ele>212</ele>
        <time>2012-03-11 08:50:49 +0000</time>
      </trkpt>
      <trkpt lat="44.291" lon="1.12575">
        <ele>212</ele>
        <time>2012-03-11 08:50:53 +0000</time>
      </trkpt>
      <trkpt lat="44.291" lon="1.12575">
        <ele>212</ele>
        <time>2012-03-11 08:50:56 +0000</time>
      </trkpt>
      <trkpt lat="44.291" lon="1.12575">
        <ele>212</ele>
        <time>2012-03-11 08:51:00 +0000</time>
      </trkpt>
      <trkpt lat="44.291" lon="1.12575">
        <ele>212</ele>
        <time>2012-03-11 08:51:03 +0000</time>
      </trkpt>
      <trkpt lat="44.291" lon="1.12575">
        <ele>212</ele>
        <time>2012-03-11 08:51:06 +0000</time>
      </trkpt>
      <trkpt lat="44.291" lon="1.12575">
        <ele>212</ele>
        <time>2012-03-11 08:51:09 +0000</time>
      </trkpt>
      <trkpt lat="44.291" lon="1.12575">
        <ele>212</ele>
        <time>2012-03-11 08:51:13 +0000</time>
      </trkpt>
      <trkpt lat="44.291" lon="1.12575">
        <ele>212</ele>
        <time>2012-03-11 08:51:16 +0000</time>
      </trkpt>
      <trkpt lat="44.291" lon="1.12575">
        <ele>212</ele>
        <time>2012-03-11 08:51:20 +0000</time>
      </trkpt>
      <trkpt lat="44.291" lon="1.12575">
        <ele>212</ele>
        <time>2012-03-11 08:51:24 +0000</time>
      </trkpt>
      <trkpt lat="44.291" lon="1.12575">
        <ele>212</ele>
        <time>2012-03-11 08:51:27 +0000</time>
      </trkpt>
      <trkpt lat="44.29098" lon="1.12573">
        <ele>213</ele>
        <time>2012-03-11 08:51:31 +0000</time>
      </trkpt>
      <trkpt lat="44.29096" lon="1.12561">
        <ele>210</ele>
        <time>2012-03-11 08:51:34 +0000</time>
      </trkpt>
      <trkpt lat="44.29093" lon="1.12555">
        <ele>208</ele>
        <time>2012-03-11 08:51:38 +0000</time>
      </trkpt>
      <trkpt lat="44.29092" lon="1.12554">
        <ele>203</ele>
        <time>2012-03-11 08:51:42 +0000</time>
      </trkpt>
      <trkpt lat="44.29088" lon="1.12543">
        <ele>205</ele>
        <time>2012-03-11 08:51:46 +0000</time>
      </trkpt>
      <trkpt lat="44.29082" lon="1.12532">
        <ele>209</ele>
        <time>2012-03-11 08:51:50 +0000</time>
      </trkpt>
      <trkpt lat="44.29073" lon="1.12527">
        <ele>210</ele>
        <time>2012-03-11 08:51:53 +0000</time>
      </trkpt>
      <trkpt lat="44.29054" lon="1.12519">
        <ele>208</ele>
        <time>2012-03-11 08:51:57 +0000</time>
      </trkpt>
      <trkpt lat="44.29035" lon="1.12512">
        <ele>202</ele>
        <time>2012-03-11 08:52:01 +0000</time>
      </trkpt>
      <trkpt lat="44.29024" lon="1.12505">
        <ele>203</ele>
        <time>2012-03-11 08:52:04 +0000</time>
      </trkpt>
      <trkpt lat="44.29015" lon="1.125">
        <ele>199</ele>
        <time>2012-03-11 08:52:08 +0000</time>
      </trkpt>
      <trkpt lat="44.2901" lon="1.12499">
        <ele>197</ele>
        <time>2012-03-11 08:52:11 +0000</time>
      </trkpt>
      <trkpt lat="44.29006" lon="1.12499">
        <ele>196</ele>
        <time>2012-03-11 08:52:15 +0000</time>
      </trkpt>
      <trkpt lat="44.29003" lon="1.125">
        <ele>199</ele>
        <time>2012-03-11 08:52:19 +0000</time>
      </trkpt>
      <trkpt lat="44.28997" lon="1.12497">
        <ele>196</ele>
        <time>2012-03-11 08:52:22 +0000</time>
      </trkpt>
      <trkpt lat="44.2898" lon="1.12495">
        <ele>196</ele>
        <time>2012-03-11 08:52:26 +0000</time>
      </trkpt>
      <trkpt lat="44.28959" lon="1.12498">
        <ele>190</ele>
        <time>2012-03-11 08:52:30 +0000</time>
      </trkpt>
      <trkpt lat="44.28933" lon="1.12494">
        <ele>186</ele>
        <time>2012-03-11 08:52:33 +0000</time>
      </trkpt>
      <trkpt lat="44.28894" lon="1.12484">
        <ele>187</ele>
        <time>2012-03-11 08:52:37 +0000</time>
      </trkpt>
      <trkpt lat="44.28858" lon="1.12477">
        <ele>172</ele>
        <time>2012-03-11 08:52:41 +0000</time>
      </trkpt>
      <trkpt lat="44.2882" lon="1.12462">
        <ele>167</ele>
        <time>2012-03-11 08:52:45 +0000</time>
      </trkpt>
      <trkpt lat="44.28803" lon="1.12467">
        <ele>169</ele>
        <time>2012-03-11 08:52:49 +0000</time>
      </trkpt>
      <trkpt lat="44.28798" lon="1.12476">
        <ele>169</ele>
        <time>2012-03-11 08:52:52 +0000</time>
      </trkpt>
      <trkpt lat="44.28795" lon="1.12483">
        <ele>171</ele>
        <time>2012-03-11 08:52:56 +0000</time>
      </trkpt>
      <trkpt lat="44.28794" lon="1.12487">
        <ele>174</ele>
        <time>2012-03-11 08:52:59 +0000</time>
      </trkpt>
      <trkpt lat="44.28791" lon="1.12494">
        <ele>176</ele>
        <time>2012-03-11 08:53:03 +0000</time>
      </trkpt>
      <trkpt lat="44.28791" lon="1.12494">
        <ele>176</ele>
        <time>2012-03-11 08:53:07 +0000</time>
      </trkpt>
      <trkpt lat="44.28791" lon="1.12494">
        <ele>176</ele>
        <time>2012-03-11 08:53:10 +0000</time>
      </trkpt>
      <trkpt lat="44.28789" lon="1.12481">
        <ele>192</ele>
        <time>2012-03-11 08:53:14 +0000</time>
      </trkpt>
      <trkpt lat="44.28789" lon="1.12481">
        <ele>192</ele>
        <time>2012-03-11 08:53:18 +0000</time>
      </trkpt>
      <trkpt lat="44.28789" lon="1.12481">
        <ele>192</ele>
        <time>2012-03-11 08:53:22 +0000</time>
      </trkpt>
      <trkpt lat="44.28789" lon="1.12481">
        <ele>192</ele>
        <time>2012-03-11 08:53:26 +0000</time>
      </trkpt>
      <trkpt lat="44.28789" lon="1.12481">
        <ele>192</ele>
        <time>2012-03-11 08:53:30 +0000</time>
      </trkpt>
      <trkpt lat="44.28786" lon="1.12486">
        <ele>184</ele>
        <time>2012-03-11 08:53:33 +0000</time>
      </trkpt>
      <trkpt lat="44.28784" lon="1.12485">
        <ele>177</ele>
        <time>2012-03-11 08:53:37 +0000</time>
      </trkpt>
      <trkpt lat="44.28784" lon="1.12477">
        <ele>177</ele>
        <time>2012-03-11 08:53:40 +0000</time>
      </trkpt>
      <trkpt lat="44.28783" lon="1.12468">
        <ele>177</ele>
        <time>2012-03-11 08:53:43 +0000</time>
      </trkpt>
      <trkpt lat="44.28783" lon="1.12462">
        <ele>176</ele>
        <time>2012-03-11 08:53:46 +0000</time>
      </trkpt>
      <trkpt lat="44.28782" lon="1.12451">
        <ele>177</ele>
        <time>2012-03-11 08:53:50 +0000</time>
      </trkpt>
      <trkpt lat="44.28781" lon="1.12441">
        <ele>173</ele>
        <time>2012-03-11 08:53:53 +0000</time>
      </trkpt>
      <trkpt lat="44.28777" lon="1.12433">
        <ele>176</ele>
        <time>2012-03-11 08:53:56 +0000</time>
      </trkpt>
      <trkpt lat="44.28768" lon="1.1243">
        <ele>176</ele>
        <time>2012-03-11 08:54:00 +0000</time>
      </trkpt>
      <trkpt lat="44.28766" lon="1.1243">
        <ele>175</ele>
        <time>2012-03-11 08:54:04 +0000</time>
      </trkpt>
      <trkpt lat="44.28762" lon="1.12437">
        <ele>183</ele>
        <time>2012-03-11 08:54:08 +0000</time>
      </trkpt>
      <trkpt lat="44.28759" lon="1.12444">
        <ele>181</ele>
        <time>2012-03-11 08:54:11 +0000</time>
      </trkpt>
      <trkpt lat="44.28756" lon="1.1245">
        <ele>183</ele>
        <time>2012-03-11 08:54:15 +0000</time>
      </trkpt>
      <trkpt lat="44.28753" lon="1.12455">
        <ele>181</ele>
        <time>2012-03-11 08:54:19 +0000</time>
      </trkpt>
      <trkpt lat="44.28751" lon="1.12458">
        <ele>185</ele>
        <time>2012-03-11 08:54:22 +0000</time>
      </trkpt>
      <trkpt lat="44.28749" lon="1.12461">
        <ele>184</ele>
        <time>2012-03-11 08:54:25 +0000</time>
      </trkpt>
      <trkpt lat="44.28746" lon="1.12466">
        <ele>185</ele>
        <time>2012-03-11 08:54:29 +0000</time>
      </trkpt>
      <trkpt lat="44.28742" lon="1.12472">
        <ele>187</ele>
        <time>2012-03-11 08:54:33 +0000</time>
      </trkpt>
      <trkpt lat="44.28741" lon="1.12476">
        <ele>187</ele>
        <time>2012-03-11 08:54:36 +0000</time>
      </trkpt>
      <trkpt lat="44.28736" lon="1.12482">
        <ele>186</ele>
        <time>2012-03-11 08:54:40 +0000</time>
      </trkpt>
      <trkpt lat="44.28732" lon="1.12486">
        <ele>185</ele>
        <time>2012-03-11 08:54:43 +0000</time>
      </trkpt>
      <trkpt lat="44.28728" lon="1.12487">
        <ele>185</ele>
        <time>2012-03-11 08:54:46 +0000</time>
      </trkpt>
      <trkpt lat="44.28721" lon="1.12488">
        <ele>189</ele>
        <time>2012-03-11 08:54:50 +0000</time>
      </trkpt>
      <trkpt lat="44.28715" lon="1.12488">
        <ele>185</ele>
        <time>2012-03-11 08:54:54 +0000</time>
      </trkpt>
      <trkpt lat="44.28709" lon="1.12488">
        <ele>187</ele>
        <time>2012-03-11 08:54:58 +0000</time>
      </trkpt>
      <trkpt lat="44.28705" lon="1.12488">
        <ele>183</ele>
        <time>2012-03-11 08:55:01 +0000</time>
      </trkpt>
      <trkpt lat="44.28698" lon="1.12487">
        <ele>181</ele>
        <time>2012-03-11 08:55:05 +0000</time>
      </trkpt>
      <trkpt lat="44.28693" lon="1.12486">
        <ele>188</ele>
        <time>2012-03-11 08:55:09 +0000</time>
      </trkpt>
      <trkpt lat="44.28689" lon="1.12485">
        <ele>186</ele>
        <time>2012-03-11 08:55:12 +0000</time>
      </trkpt>
      <trkpt lat="44.28682" lon="1.12484">
        <ele>189</ele>
        <time>2012-03-11 08:55:16 +0000</time>
      </trkpt>
      <trkpt lat="44.28678" lon="1.12483">
        <ele>190</ele>
        <time>2012-03-11 08:55:19 +0000</time>
      </trkpt>
      <trkpt lat="44.28671" lon="1.12483">
        <ele>190</ele>
        <time>2012-03-11 08:55:23 +0000</time>
      </trkpt>
      <trkpt lat="44.28666" lon="1.12484">
        <ele>190</ele>
        <time>2012-03-11 08:55:26 +0000</time>
      </trkpt>
      <trkpt lat="44.28657" lon="1.12486">
        <ele>191</ele>
        <time>2012-03-11 08:55:30 +0000</time>
      </trkpt>
      <trkpt lat="44.28649" lon="1.1249">
        <ele>191</ele>
        <time>2012-03-11 08:55:34 +0000</time>
      </trkpt>
      <trkpt lat="44.28644" lon="1.12492">
        <ele>193</ele>
        <time>2012-03-11 08:55:37 +0000</time>
      </trkpt>
      <trkpt lat="44.28638" lon="1.12498">
        <ele>192</ele>
        <time>2012-03-11 08:55:41 +0000</time>
      </trkpt>
      <trkpt lat="44.28635" lon="1.12503">
        <ele>193</ele>
        <time>2012-03-11 08:55:44 +0000</time>
      </trkpt>
      <trkpt lat="44.28629" lon="1.12511">
        <ele>195</ele>
        <time>2012-03-11 08:55:48 +0000</time>
      </trkpt>
      <trkpt lat="44.28625" lon="1.12523">
        <ele>194</ele>
        <time>2012-03-11 08:55:52 +0000</time>
      </trkpt>
      <trkpt lat="44.28625" lon="1.12534">
        <ele>190</ele>
        <time>2012-03-11 08:55:56 +0000</time>
      </trkpt>
      <trkpt lat="44.28626" lon="1.12545">
        <ele>194</ele>
        <time>2012-03-11 08:56:00 +0000</time>
      </trkpt>
      <trkpt lat="44.28626" lon="1.12554">
        <ele>200</ele>
        <time>2012-03-11 08:56:03 +0000</time>
      </trkpt>
      <trkpt lat="44.28626" lon="1.12565">
        <ele>197</ele>
        <time>2012-03-11 08:56:07 +0000</time>
      </trkpt>
      <trkpt lat="44.28621" lon="1.12578">
        <ele>197</ele>
        <time>2012-03-11 08:56:11 +0000</time>
      </trkpt>
      <trkpt lat="44.28615" lon="1.12592">
        <ele>193</ele>
        <time>2012-03-11 08:56:15 +0000</time>
      </trkpt>
      <trkpt lat="44.28607" lon="1.12605">
        <ele>194</ele>
        <time>2012-03-11 08:56:19 +0000</time>
      </trkpt>
      <trkpt lat="44.28597" lon="1.12618">
        <ele>193</ele>
        <time>2012-03-11 08:56:23 +0000</time>
      </trkpt>
      <trkpt lat="44.28591" lon="1.12626">
        <ele>194</ele>
        <time>2012-03-11 08:56:26 +0000</time>
      </trkpt>
      <trkpt lat="44.28582" lon="1.12637">
        <ele>192</ele>
        <time>2012-03-11 08:56:30 +0000</time>
      </trkpt>
      <trkpt lat="44.28573" lon="1.12647">
        <ele>193</ele>
        <time>2012-03-11 08:56:34 +0000</time>
      </trkpt>
      <trkpt lat="44.28564" lon="1.12651">
        <ele>189</ele>
        <time>2012-03-11 08:56:38 +0000</time>
      </trkpt>
      <trkpt lat="44.28558" lon="1.12655">
        <ele>194</ele>
        <time>2012-03-11 08:56:41 +0000</time>
      </trkpt>
      <trkpt lat="44.28553" lon="1.1266">
        <ele>192</ele>
        <time>2012-03-11 08:56:44 +0000</time>
      </trkpt>
      <trkpt lat="44.28548" lon="1.12664">
        <ele>194</ele>
        <time>2012-03-11 08:56:48 +0000</time>
      </trkpt>
      <trkpt lat="44.28546" lon="1.12671">
        <ele>193</ele>
        <time>2012-03-11 08:56:51 +0000</time>
      </trkpt>
      <trkpt lat="44.28545" lon="1.12683">
        <ele>197</ele>
        <time>2012-03-11 08:56:54 +0000</time>
      </trkpt>
      <trkpt lat="44.28547" lon="1.12695">
        <ele>197</ele>
        <time>2012-03-11 08:56:58 +0000</time>
      </trkpt>
      <trkpt lat="44.28551" lon="1.12704">
        <ele>196</ele>
        <time>2012-03-11 08:57:02 +0000</time>
      </trkpt>
      <trkpt lat="44.28558" lon="1.12711">
        <ele>198</ele>
        <time>2012-03-11 08:57:06 +0000</time>
      </trkpt>
      <trkpt lat="44.28563" lon="1.12715">
        <ele>199</ele>
        <time>2012-03-11 08:57:09 +0000</time>
      </trkpt>
      <trkpt lat="44.28568" lon="1.12721">
        <ele>202</ele>
        <time>2012-03-11 08:57:13 +0000</time>
      </trkpt>
      <trkpt lat="44.28572" lon="1.12727">
        <ele>202</ele>
        <time>2012-03-11 08:57:16 +0000</time>
      </trkpt>
      <trkpt lat="44.28574" lon="1.12732">
        <ele>203</ele>
        <time>2012-03-11 08:57:20 +0000</time>
      </trkpt>
      <trkpt lat="44.28575" lon="1.12736">
        <ele>203</ele>
        <time>2012-03-11 08:57:23 +0000</time>
      </trkpt>
      <trkpt lat="44.28572" lon="1.12745">
        <ele>202</ele>
        <time>2012-03-11 08:57:27 +0000</time>
      </trkpt>
      <trkpt lat="44.2857" lon="1.1275">
        <ele>200</ele>
        <time>2012-03-11 08:57:30 +0000</time>
      </trkpt>
      <trkpt lat="44.28567" lon="1.12758">
        <ele>205</ele>
        <time>2012-03-11 08:57:34 +0000</time>
      </trkpt>
      <trkpt lat="44.28566" lon="1.12763">
        <ele>202</ele>
        <time>2012-03-11 08:57:37 +0000</time>
      </trkpt>
      <trkpt lat="44.28565" lon="1.12766">
        <ele>203</ele>
        <time>2012-03-11 08:57:40 +0000</time>
      </trkpt>
      <trkpt lat="44.28565" lon="1.12766">
        <ele>203</ele>
        <time>2012-03-11 08:57:44 +0000</time>
      </trkpt>
      <trkpt lat="44.28562" lon="1.12779">
        <ele>208</ele>
        <time>2012-03-11 08:57:47 +0000</time>
      </trkpt>
      <trkpt lat="44.28559" lon="1.12784">
        <ele>212</ele>
        <time>2012-03-11 08:57:50 +0000</time>
      </trkpt>
      <trkpt lat="44.28556" lon="1.12791">
        <ele>211</ele>
        <time>2012-03-11 08:57:54 +0000</time>
      </trkpt>
      <trkpt lat="44.28554" lon="1.12798">
        <ele>212</ele>
        <time>2012-03-11 08:57:57 +0000</time>
      </trkpt>
      <trkpt lat="44.28551" lon="1.12805">
        <ele>213</ele>
        <time>2012-03-11 08:58:01 +0000</time>
      </trkpt>
      <trkpt lat="44.2855" lon="1.1281">
        <ele>218</ele>
        <time>2012-03-11 08:58:04 +0000</time>
      </trkpt>
      <trkpt lat="44.28548" lon="1.12816">
        <ele>214</ele>
        <time>2012-03-11 08:58:08 +0000</time>
      </trkpt>
      <trkpt lat="44.28547" lon="1.1282">
        <ele>216</ele>
        <time>2012-03-11 08:58:11 +0000</time>
      </trkpt>
      <trkpt lat="44.28546" lon="1.12825">
        <ele>215</ele>
        <time>2012-03-11 08:58:15 +0000</time>
      </trkpt>
      <trkpt lat="44.28545" lon="1.12828">
        <ele>215</ele>
        <time>2012-03-11 08:58:19 +0000</time>
      </trkpt>
      <trkpt lat="44.28544" lon="1.12832">
        <ele>217</ele>
        <time>2012-03-11 08:58:22 +0000</time>
      </trkpt>
      <trkpt lat="44.28543" lon="1.12837">
        <ele>216</ele>
        <time>2012-03-11 08:58:26 +0000</time>
      </trkpt>
      <trkpt lat="44.28542" lon="1.12842">
        <ele>216</ele>
        <time>2012-03-11 08:58:29 +0000</time>
      </trkpt>
      <trkpt lat="44.28539" lon="1.12845">
        <ele>216</ele>
        <time>2012-03-11 08:58:32 +0000</time>
      </trkpt>
      <trkpt lat="44.28537" lon="1.1285">
        <ele>214</ele>
        <time>2012-03-11 08:58:36 +0000</time>
      </trkpt>
      <trkpt lat="44.28535" lon="1.12854">
        <ele>218</ele>
        <time>2012-03-11 08:58:40 +0000</time>
      </trkpt>
      <trkpt lat="44.28532" lon="1.12858">
        <ele>217</ele>
        <time>2012-03-11 08:58:44 +0000</time>
      </trkpt>
      <trkpt lat="44.28529" lon="1.12862">
        <ele>219</ele>
        <time>2012-03-11 08:58:48 +0000</time>
      </trkpt>
      <trkpt lat="44.28526" lon="1.12864">
        <ele>219</ele>
        <time>2012-03-11 08:58:51 +0000</time>
      </trkpt>
      <trkpt lat="44.28523" lon="1.12867">
        <ele>219</ele>
        <time>2012-03-11 08:58:55 +0000</time>
      </trkpt>
      <trkpt lat="44.28519" lon="1.12868">
        <ele>220</ele>
        <time>2012-03-11 08:58:59 +0000</time>
      </trkpt>
      <trkpt lat="44.28516" lon="1.12869">
        <ele>219</ele>
        <time>2012-03-11 08:59:02 +0000</time>
      </trkpt>
      <trkpt lat="44.28512" lon="1.12869">
        <ele>219</ele>
        <time>2012-03-11 08:59:06 +0000</time>
      </trkpt>
      <trkpt lat="44.28506" lon="1.12868">
        <ele>219</ele>
        <time>2012-03-11 08:59:10 +0000</time>
      </trkpt>
      <trkpt lat="44.285" lon="1.12868">
        <ele>215</ele>
        <time>2012-03-11 08:59:14 +0000</time>
      </trkpt>
      <trkpt lat="44.28493" lon="1.12866">
        <ele>215</ele>
        <time>2012-03-11 08:59:17 +0000</time>
      </trkpt>
      <trkpt lat="44.28484" lon="1.12863">
        <ele>215</ele>
        <time>2012-03-11 08:59:21 +0000</time>
      </trkpt>
      <trkpt lat="44.28477" lon="1.1286">
        <ele>215</ele>
        <time>2012-03-11 08:59:24 +0000</time>
      </trkpt>
      <trkpt lat="44.28468" lon="1.12857">
        <ele>215</ele>
        <time>2012-03-11 08:59:28 +0000</time>
      </trkpt>
      <trkpt lat="44.28461" lon="1.12855">
        <ele>215</ele>
        <time>2012-03-11 08:59:31 +0000</time>
      </trkpt>
      <trkpt lat="44.28454" lon="1.12852">
        <ele>215</ele>
        <time>2012-03-11 08:59:34 +0000</time>
      </trkpt>
      <trkpt lat="44.28445" lon="1.1285">
        <ele>217</ele>
        <time>2012-03-11 08:59:38 +0000</time>
      </trkpt>
      <trkpt lat="44.28438" lon="1.12847">
        <ele>216</ele>
        <time>2012-03-11 08:59:41 +0000</time>
      </trkpt>
      <trkpt lat="44.28429" lon="1.12844">
        <ele>215</ele>
        <time>2012-03-11 08:59:45 +0000</time>
      </trkpt>
      <trkpt lat="44.28421" lon="1.1284">
        <ele>216</ele>
        <time>2012-03-11 08:59:49 +0000</time>
      </trkpt>
      <trkpt lat="44.28413" lon="1.12839">
        <ele>217</ele>
        <time>2012-03-11 08:59:52 +0000</time>
      </trkpt>
      <trkpt lat="44.28405" lon="1.12837">
        <ele>217</ele>
        <time>2012-03-11 08:59:56 +0000</time>
      </trkpt>
      <trkpt lat="44.28394" lon="1.12837">
        <ele>219</ele>
        <time>2012-03-11 09:00:00 +0000</time>
      </trkpt>
      <trkpt lat="44.28386" lon="1.12836">
        <ele>221</ele>
        <time>2012-03-11 09:00:03 +0000</time>
      </trkpt>
      <trkpt lat="44.28375" lon="1.12835">
        <ele>221</ele>
        <time>2012-03-11 09:00:07 +0000</time>
      </trkpt>
      <trkpt lat="44.28365" lon="1.12837">
        <ele>223</ele>
        <time>2012-03-11 09:00:11 +0000</time>
      </trkpt>
      <trkpt lat="44.28358" lon="1.12838">
        <ele>222</ele>
        <time>2012-03-11 09:00:14 +0000</time>
      </trkpt>
      <trkpt lat="44.28352" lon="1.12841">
        <ele>224</ele>
        <time>2012-03-11 09:00:17 +0000</time>
      </trkpt>
      <trkpt lat="44.28352" lon="1.12848">
        <ele>223</ele>
        <time>2012-03-11 09:00:21 +0000</time>
      </trkpt>
      <trkpt lat="44.28357" lon="1.12856">
        <ele>221</ele>
        <time>2012-03-11 09:00:25 +0000</time>
      </trkpt>
      <trkpt lat="44.28361" lon="1.12864">
        <ele>223</ele>
        <time>2012-03-11 09:00:29 +0000</time>
      </trkpt>
      <trkpt lat="44.28365" lon="1.12873">
        <ele>222</ele>
        <time>2012-03-11 09:00:33 +0000</time>
      </trkpt>
      <trkpt lat="44.28369" lon="1.12883">
        <ele>218</ele>
        <time>2012-03-11 09:00:37 +0000</time>
      </trkpt>
      <trkpt lat="44.28371" lon="1.12889">
        <ele>223</ele>
        <time>2012-03-11 09:00:40 +0000</time>
      </trkpt>
      <trkpt lat="44.28372" lon="1.12898">
        <ele>230</ele>
        <time>2012-03-11 09:00:43 +0000</time>
      </trkpt>
      <trkpt lat="44.28374" lon="1.12909">
        <ele>230</ele>
        <time>2012-03-11 09:00:47 +0000</time>
      </trkpt>
      <trkpt lat="44.28376" lon="1.12921">
        <ele>228</ele>
        <time>2012-03-11 09:00:51 +0000</time>
      </trkpt>
      <trkpt lat="44.28375" lon="1.12932">
        <ele>230</ele>
        <time>2012-03-11 09:00:55 +0000</time>
      </trkpt>
      <trkpt lat="44.28374" lon="1.12944">
        <ele>231</ele>
        <time>2012-03-11 09:00:59 +0000</time>
      </trkpt>
      <trkpt lat="44.28373" lon="1.12957">
        <ele>233</ele>
        <time>2012-03-11 09:01:03 +0000</time>
      </trkpt>
      <trkpt lat="44.28373" lon="1.12965">
        <ele>231</ele>
        <time>2012-03-11 09:01:06 +0000</time>
      </trkpt>
      <trkpt lat="44.28373" lon="1.12978">
        <ele>230</ele>
        <time>2012-03-11 09:01:10 +0000</time>
      </trkpt>
      <trkpt lat="44.28373" lon="1.12986">
        <ele>225</ele>
        <time>2012-03-11 09:01:13 +0000</time>
      </trkpt>
      <trkpt lat="44.28374" lon="1.12994">
        <ele>225</ele>
        <time>2012-03-11 09:01:16 +0000</time>
      </trkpt>
      <trkpt lat="44.28374" lon="1.13009">
        <ele>221</ele>
        <time>2012-03-11 09:01:20 +0000</time>
      </trkpt>
      <trkpt lat="44.28375" lon="1.13019">
        <ele>224</ele>
        <time>2012-03-11 09:01:23 +0000</time>
      </trkpt>
      <trkpt lat="44.28376" lon="1.1303">
        <ele>223</ele>
        <time>2012-03-11 09:01:26 +0000</time>
      </trkpt>
      <trkpt lat="44.28376" lon="1.13042">
        <ele>223</ele>
        <time>2012-03-11 09:01:29 +0000</time>
      </trkpt>
      <trkpt lat="44.28376" lon="1.13052">
        <ele>221</ele>
        <time>2012-03-11 09:01:32 +0000</time>
      </trkpt>
      <trkpt lat="44.28378" lon="1.13063">
        <ele>220</ele>
        <time>2012-03-11 09:01:36 +0000</time>
      </trkpt>
      <trkpt lat="44.28378" lon="1.13076">
        <ele>221</ele>
        <time>2012-03-11 09:01:40 +0000</time>
      </trkpt>
      <trkpt lat="44.28378" lon="1.13087">
        <ele>221</ele>
        <time>2012-03-11 09:01:43 +0000</time>
      </trkpt>
      <trkpt lat="44.28377" lon="1.13099">
        <ele>220</ele>
        <time>2012-03-11 09:01:47 +0000</time>
      </trkpt>
      <trkpt lat="44.28375" lon="1.13111">
        <ele>219</ele>
        <time>2012-03-11 09:01:51 +0000</time>
      </trkpt>
      <trkpt lat="44.28373" lon="1.13122">
        <ele>222</ele>
        <time>2012-03-11 09:01:54 +0000</time>
      </trkpt>
      <trkpt lat="44.28369" lon="1.13139">
        <ele>219</ele>
        <time>2012-03-11 09:01:58 +0000</time>
      </trkpt>
      <trkpt lat="44.28365" lon="1.13152">
        <ele>219</ele>
        <time>2012-03-11 09:02:01 +0000</time>
      </trkpt>
      <trkpt lat="44.28361" lon="1.13166">
        <ele>222</ele>
        <time>2012-03-11 09:02:05 +0000</time>
      </trkpt>
      <trkpt lat="44.28357" lon="1.13184">
        <ele>221</ele>
        <time>2012-03-11 09:02:09 +0000</time>
      </trkpt>
      <trkpt lat="44.28354" lon="1.13195">
        <ele>222</ele>
        <time>2012-03-11 09:02:12 +0000</time>
      </trkpt>
      <trkpt lat="44.2835" lon="1.13208">
        <ele>222</ele>
        <time>2012-03-11 09:02:15 +0000</time>
      </trkpt>
      <trkpt lat="44.28345" lon="1.13226">
        <ele>221</ele>
        <time>2012-03-11 09:02:19 +0000</time>
      </trkpt>
      <trkpt lat="44.28341" lon="1.13243">
        <ele>220</ele>
        <time>2012-03-11 09:02:23 +0000</time>
      </trkpt>
      <trkpt lat="44.28337" lon="1.13257">
        <ele>220</ele>
        <time>2012-03-11 09:02:26 +0000</time>
      </trkpt>
      <trkpt lat="44.28333" lon="1.13278">
        <ele>216</ele>
        <time>2012-03-11 09:02:30 +0000</time>
      </trkpt>
      <trkpt lat="44.28328" lon="1.13299">
        <ele>216</ele>
        <time>2012-03-11 09:02:33 +0000</time>
      </trkpt>
      <trkpt lat="44.28323" lon="1.13319">
        <ele>217</ele>
        <time>2012-03-11 09:02:36 +0000</time>
      </trkpt>
      <trkpt lat="44.28316" lon="1.13345">
        <ele>214</ele>
        <time>2012-03-11 09:02:40 +0000</time>
      </trkpt>
      <trkpt lat="44.28308" lon="1.13377">
        <ele>212</ele>
        <time>2012-03-11 09:02:44 +0000</time>
      </trkpt>
      <trkpt lat="44.28302" lon="1.13407">
        <ele>212</ele>
        <time>2012-03-11 09:02:47 +0000</time>
      </trkpt>
      <trkpt lat="44.28291" lon="1.13441">
        <ele>210</ele>
        <time>2012-03-11 09:02:50 +0000</time>
      </trkpt>
      <trkpt lat="44.28273" lon="1.13477">
        <ele>204</ele>
        <time>2012-03-11 09:02:53 +0000</time>
      </trkpt>
      <trkpt lat="44.28257" lon="1.1351">
        <ele>192</ele>
        <time>2012-03-11 09:02:57 +0000</time>
      </trkpt>
      <trkpt lat="44.2825" lon="1.13535">
        <ele>195</ele>
        <time>2012-03-11 09:03:01 +0000</time>
      </trkpt>
      <trkpt lat="44.2824" lon="1.13547">
        <ele>191</ele>
        <time>2012-03-11 09:03:04 +0000</time>
      </trkpt>
      <trkpt lat="44.28234" lon="1.13538">
        <ele>191</ele>
        <time>2012-03-11 09:03:08 +0000</time>
      </trkpt>
      <trkpt lat="44.28233" lon="1.13536">
        <ele>189</ele>
        <time>2012-03-11 09:03:12 +0000</time>
      </trkpt>
      <trkpt lat="44.28231" lon="1.13523">
        <ele>191</ele>
        <time>2012-03-11 09:03:15 +0000</time>
      </trkpt>
      <trkpt lat="44.28231" lon="1.13512">
        <ele>187</ele>
        <time>2012-03-11 09:03:19 +0000</time>
      </trkpt>
      <trkpt lat="44.28231" lon="1.13503">
        <ele>184</ele>
        <time>2012-03-11 09:03:22 +0000</time>
      </trkpt>
      <trkpt lat="44.2823" lon="1.13496">
        <ele>182</ele>
        <time>2012-03-11 09:03:26 +0000</time>
      </trkpt>
      <trkpt lat="44.28224" lon="1.13492">
        <ele>187</ele>
        <time>2012-03-11 09:03:30 +0000</time>
      </trkpt>
      <trkpt lat="44.28222" lon="1.13497">
        <ele>188</ele>
        <time>2012-03-11 09:03:33 +0000</time>
      </trkpt>
      <trkpt lat="44.28223" lon="1.13505">
        <ele>184</ele>
        <time>2012-03-11 09:03:36 +0000</time>
      </trkpt>
      <trkpt lat="44.28223" lon="1.13519">
        <ele>189</ele>
        <time>2012-03-11 09:03:40 +0000</time>
      </trkpt>
      <trkpt lat="44.28225" lon="1.13533">
        <ele>187</ele>
        <time>2012-03-11 09:03:43 +0000</time>
      </trkpt>
      <trkpt lat="44.28231" lon="1.13552">
        <ele>184</ele>
        <time>2012-03-11 09:03:47 +0000</time>
      </trkpt>
      <trkpt lat="44.28243" lon="1.13574">
        <ele>180</ele>
        <time>2012-03-11 09:03:51 +0000</time>
      </trkpt>
      <trkpt lat="44.28255" lon="1.13593">
        <ele>180</ele>
        <time>2012-03-11 09:03:54 +0000</time>
      </trkpt>
      <trkpt lat="44.28262" lon="1.13624">
        <ele>176</ele>
        <time>2012-03-11 09:03:57 +0000</time>
      </trkpt>
      <trkpt lat="44.28255" lon="1.13664">
        <ele>175</ele>
        <time>2012-03-11 09:04:01 +0000</time>
      </trkpt>
      <trkpt lat="44.28253" lon="1.13702">
        <ele>177</ele>
        <time>2012-03-11 09:04:04 +0000</time>
      </trkpt>
      <trkpt lat="44.28245" lon="1.13745">
        <ele>169</ele>
        <time>2012-03-11 09:04:07 +0000</time>
      </trkpt>
      <trkpt lat="44.28227" lon="1.13807">
        <ele>163</ele>
        <time>2012-03-11 09:04:11 +0000</time>
      </trkpt>
      <trkpt lat="44.28213" lon="1.13849">
        <ele>161</ele>
        <time>2012-03-11 09:04:14 +0000</time>
      </trkpt>
      <trkpt lat="44.28202" lon="1.1388">
        <ele>156</ele>
        <time>2012-03-11 09:04:17 +0000</time>
      </trkpt>
      <trkpt lat="44.28178" lon="1.13889">
        <ele>156</ele>
        <time>2012-03-11 09:04:21 +0000</time>
      </trkpt>
      <trkpt lat="44.28154" lon="1.13907">
        <ele>152</ele>
        <time>2012-03-11 09:04:25 +0000</time>
      </trkpt>
      <trkpt lat="44.2813" lon="1.13945">
        <ele>145</ele>
        <time>2012-03-11 09:04:29 +0000</time>
      </trkpt>
      <trkpt lat="44.28113" lon="1.13984">
        <ele>143</ele>
        <time>2012-03-11 09:04:32 +0000</time>
      </trkpt>
      <trkpt lat="44.28098" lon="1.14043">
        <ele>139</ele>
        <time>2012-03-11 09:04:36 +0000</time>
      </trkpt>
      <trkpt lat="44.28073" lon="1.14096">
        <ele>131</ele>
        <time>2012-03-11 09:04:40 +0000</time>
      </trkpt>
      <trkpt lat="44.28055" lon="1.14121">
        <ele>132</ele>
        <time>2012-03-11 09:04:43 +0000</time>
      </trkpt>
      <trkpt lat="44.28018" lon="1.14125">
        <ele>123</ele>
        <time>2012-03-11 09:04:47 +0000</time>
      </trkpt>
      <trkpt lat="44.27994" lon="1.14114">
        <ele>118</ele>
        <time>2012-03-11 09:04:50 +0000</time>
      </trkpt>
      <trkpt lat="44.27974" lon="1.14107">
        <ele>118</ele>
        <time>2012-03-11 09:04:54 +0000</time>
      </trkpt>
      <trkpt lat="44.27961" lon="1.14101">
        <ele>116</ele>
        <time>2012-03-11 09:04:58 +0000</time>
      </trkpt>
      <trkpt lat="44.27953" lon="1.141">
        <ele>114</ele>
        <time>2012-03-11 09:05:01 +0000</time>
      </trkpt>
      <trkpt lat="44.27945" lon="1.14108">
        <ele>114</ele>
        <time>2012-03-11 09:05:05 +0000</time>
      </trkpt>
      <trkpt lat="44.27938" lon="1.14121">
        <ele>116</ele>
        <time>2012-03-11 09:05:08 +0000</time>
      </trkpt>
      <trkpt lat="44.27935" lon="1.14136">
        <ele>114</ele>
        <time>2012-03-11 09:05:11 +0000</time>
      </trkpt>
      <trkpt lat="44.2793" lon="1.14152">
        <ele>113</ele>
        <time>2012-03-11 09:05:14 +0000</time>
      </trkpt>
      <trkpt lat="44.27924" lon="1.14175">
        <ele>112</ele>
        <time>2012-03-11 09:05:17 +0000</time>
      </trkpt>
      <trkpt lat="44.27917" lon="1.14203">
        <ele>114</ele>
        <time>2012-03-11 09:05:21 +0000</time>
      </trkpt>
      <trkpt lat="44.27908" lon="1.14235">
        <ele>113</ele>
        <time>2012-03-11 09:05:25 +0000</time>
      </trkpt>
      <trkpt lat="44.27898" lon="1.14268">
        <ele>111</ele>
        <time>2012-03-11 09:05:29 +0000</time>
      </trkpt>
      <trkpt lat="44.27892" lon="1.14293">
        <ele>111</ele>
        <time>2012-03-11 09:05:32 +0000</time>
      </trkpt>
      <trkpt lat="44.27886" lon="1.14315">
        <ele>113</ele>
        <time>2012-03-11 09:05:35 +0000</time>
      </trkpt>
      <trkpt lat="44.2787" lon="1.14342">
        <ele>107</ele>
        <time>2012-03-11 09:05:39 +0000</time>
      </trkpt>
      <trkpt lat="44.27858" lon="1.14369">
        <ele>107</ele>
        <time>2012-03-11 09:05:43 +0000</time>
      </trkpt>
      <trkpt lat="44.27854" lon="1.14391">
        <ele>109</ele>
        <time>2012-03-11 09:05:47 +0000</time>
      </trkpt>
      <trkpt lat="44.27849" lon="1.14401">
        <ele>105</ele>
        <time>2012-03-11 09:05:50 +0000</time>
      </trkpt>
      <trkpt lat="44.27841" lon="1.14411">
        <ele>107</ele>
        <time>2012-03-11 09:05:53 +0000</time>
      </trkpt>
      <trkpt lat="44.27831" lon="1.14423">
        <ele>103</ele>
        <time>2012-03-11 09:05:57 +0000</time>
      </trkpt>
      <trkpt lat="44.27824" lon="1.14428">
        <ele>100</ele>
        <time>2012-03-11 09:06:01 +0000</time>
      </trkpt>
      <trkpt lat="44.27814" lon="1.14422">
        <ele>102</ele>
        <time>2012-03-11 09:06:04 +0000</time>
      </trkpt>
      <trkpt lat="44.27807" lon="1.14417">
        <ele>102</ele>
        <time>2012-03-11 09:06:08 +0000</time>
      </trkpt>
      <trkpt lat="44.27795" lon="1.14407">
        <ele>104</ele>
        <time>2012-03-11 09:06:12 +0000</time>
      </trkpt>
      <trkpt lat="44.27783" lon="1.14398">
        <ele>103</ele>
        <time>2012-03-11 09:06:16 +0000</time>
      </trkpt>
      <trkpt lat="44.27775" lon="1.14391">
        <ele>102</ele>
        <time>2012-03-11 09:06:19 +0000</time>
      </trkpt>
      <trkpt lat="44.27762" lon="1.14382">
        <ele>103</ele>
        <time>2012-03-11 09:06:23 +0000</time>
      </trkpt>
      <trkpt lat="44.27752" lon="1.14374">
        <ele>107</ele>
        <time>2012-03-11 09:06:26 +0000</time>
      </trkpt>
      <trkpt lat="44.2774" lon="1.14364">
        <ele>104</ele>
        <time>2012-03-11 09:06:30 +0000</time>
      </trkpt>
      <trkpt lat="44.27731" lon="1.14358">
        <ele>103</ele>
        <time>2012-03-11 09:06:33 +0000</time>
      </trkpt>
      <trkpt lat="44.27722" lon="1.14352">
        <ele>102</ele>
        <time>2012-03-11 09:06:36 +0000</time>
      </trkpt>
      <trkpt lat="44.27709" lon="1.14343">
        <ele>106</ele>
        <time>2012-03-11 09:06:40 +0000</time>
      </trkpt>
      <trkpt lat="44.27696" lon="1.14334">
        <ele>103</ele>
        <time>2012-03-11 09:06:44 +0000</time>
      </trkpt>
      <trkpt lat="44.27687" lon="1.14324">
        <ele>104</ele>
        <time>2012-03-11 09:06:48 +0000</time>
      </trkpt>
      <trkpt lat="44.27676" lon="1.14314">
        <ele>107</ele>
        <time>2012-03-11 09:06:52 +0000</time>
      </trkpt>
      <trkpt lat="44.27665" lon="1.14306">
        <ele>106</ele>
        <time>2012-03-11 09:06:56 +0000</time>
      </trkpt>
      <trkpt lat="44.27652" lon="1.14299">
        <ele>104</ele>
        <time>2012-03-11 09:07:00 +0000</time>
      </trkpt>
      <trkpt lat="44.27641" lon="1.14291">
        <ele>105</ele>
        <time>2012-03-11 09:07:04 +0000</time>
      </trkpt>
      <trkpt lat="44.27633" lon="1.14284">
        <ele>103</ele>
        <time>2012-03-11 09:07:07 +0000</time>
      </trkpt>
      <trkpt lat="44.27621" lon="1.14276">
        <ele>101</ele>
        <time>2012-03-11 09:07:11 +0000</time>
      </trkpt>
      <trkpt lat="44.27613" lon="1.14269">
        <ele>103</ele>
        <time>2012-03-11 09:07:14 +0000</time>
      </trkpt>
      <trkpt lat="44.27603" lon="1.1426">
        <ele>103</ele>
        <time>2012-03-11 09:07:18 +0000</time>
      </trkpt>
      <trkpt lat="44.27594" lon="1.14244">
        <ele>102</ele>
        <time>2012-03-11 09:07:22 +0000</time>
      </trkpt>
      <trkpt lat="44.27588" lon="1.1423">
        <ele>102</ele>
        <time>2012-03-11 09:07:26 +0000</time>
      </trkpt>
      <trkpt lat="44.27585" lon="1.1422">
        <ele>105</ele>
        <time>2012-03-11 09:07:29 +0000</time>
      </trkpt>
      <trkpt lat="44.27581" lon="1.1421">
        <ele>103</ele>
        <time>2012-03-11 09:07:32 +0000</time>
      </trkpt>
      <trkpt lat="44.27575" lon="1.14198">
        <ele>110</ele>
        <time>2012-03-11 09:07:36 +0000</time>
      </trkpt>
      <trkpt lat="44.2757" lon="1.14192">
        <ele>107</ele>
        <time>2012-03-11 09:07:39 +0000</time>
      </trkpt>
      <trkpt lat="44.27563" lon="1.14183">
        <ele>100</ele>
        <time>2012-03-11 09:07:43 +0000</time>
      </trkpt>
      <trkpt lat="44.27558" lon="1.14176">
        <ele>106</ele>
        <time>2012-03-11 09:07:46 +0000</time>
      </trkpt>
      <trkpt lat="44.27552" lon="1.14167">
        <ele>105</ele>
        <time>2012-03-11 09:07:49 +0000</time>
      </trkpt>
      <trkpt lat="44.27546" lon="1.14159">
        <ele>107</ele>
        <time>2012-03-11 09:07:53 +0000</time>
      </trkpt>
      <trkpt lat="44.27541" lon="1.14152">
        <ele>111</ele>
        <time>2012-03-11 09:07:56 +0000</time>
      </trkpt>
      <trkpt lat="44.27535" lon="1.1414">
        <ele>105</ele>
        <time>2012-03-11 09:07:59 +0000</time>
      </trkpt>
      <trkpt lat="44.2753" lon="1.14132">
        <ele>107</ele>
        <time>2012-03-11 09:08:02 +0000</time>
      </trkpt>
      <trkpt lat="44.27522" lon="1.14123">
        <ele>111</ele>
        <time>2012-03-11 09:08:06 +0000</time>
      </trkpt>
      <trkpt lat="44.27514" lon="1.14114">
        <ele>105</ele>
        <time>2012-03-11 09:08:09 +0000</time>
      </trkpt>
      <trkpt lat="44.27506" lon="1.14109">
        <ele>102</ele>
        <time>2012-03-11 09:08:13 +0000</time>
      </trkpt>
      <trkpt lat="44.275" lon="1.14102">
        <ele>108</ele>
        <time>2012-03-11 09:08:16 +0000</time>
      </trkpt>
      <trkpt lat="44.27492" lon="1.14093">
        <ele>106</ele>
        <time>2012-03-11 09:08:20 +0000</time>
      </trkpt>
      <trkpt lat="44.27486" lon="1.14087">
        <ele>106</ele>
        <time>2012-03-11 09:08:23 +0000</time>
      </trkpt>
      <trkpt lat="44.27478" lon="1.1408">
        <ele>107</ele>
        <time>2012-03-11 09:08:27 +0000</time>
      </trkpt>
      <trkpt lat="44.27471" lon="1.14075">
        <ele>106</ele>
        <time>2012-03-11 09:08:30 +0000</time>
      </trkpt>
      <trkpt lat="44.27464" lon="1.14067">
        <ele>111</ele>
        <time>2012-03-11 09:08:34 +0000</time>
      </trkpt>
      <trkpt lat="44.27459" lon="1.1406">
        <ele>107</ele>
        <time>2012-03-11 09:08:37 +0000</time>
      </trkpt>
      <trkpt lat="44.27455" lon="1.1405">
        <ele>111</ele>
        <time>2012-03-11 09:08:41 +0000</time>
      </trkpt>
      <trkpt lat="44.27452" lon="1.14037">
        <ele>110</ele>
        <time>2012-03-11 09:08:45 +0000</time>
      </trkpt>
      <trkpt lat="44.27451" lon="1.14028">
        <ele>112</ele>
        <time>2012-03-11 09:08:49 +0000</time>
      </trkpt>
      <trkpt lat="44.27444" lon="1.14019">
        <ele>106</ele>
        <time>2012-03-11 09:08:53 +0000</time>
      </trkpt>
      <trkpt lat="44.27439" lon="1.14012">
        <ele>105</ele>
        <time>2012-03-11 09:08:57 +0000</time>
      </trkpt>
      <trkpt lat="44.27433" lon="1.14003">
        <ele>107</ele>
        <time>2012-03-11 09:09:01 +0000</time>
      </trkpt>
      <trkpt lat="44.27428" lon="1.13994">
        <ele>112</ele>
        <time>2012-03-11 09:09:05 +0000</time>
      </trkpt>
      <trkpt lat="44.27425" lon="1.13987">
        <ele>113</ele>
        <time>2012-03-11 09:09:08 +0000</time>
      </trkpt>
      <trkpt lat="44.2742" lon="1.1398">
        <ele>112</ele>
        <time>2012-03-11 09:09:11 +0000</time>
      </trkpt>
      <trkpt lat="44.27413" lon="1.13972">
        <ele>117</ele>
        <time>2012-03-11 09:09:15 +0000</time>
      </trkpt>
      <trkpt lat="44.27407" lon="1.13964">
        <ele>112</ele>
        <time>2012-03-11 09:09:19 +0000</time>
      </trkpt>
      <trkpt lat="44.27402" lon="1.13959">
        <ele>113</ele>
        <time>2012-03-11 09:09:22 +0000</time>
      </trkpt>
      <trkpt lat="44.27395" lon="1.13953">
        <ele>113</ele>
        <time>2012-03-11 09:09:26 +0000</time>
      </trkpt>
      <trkpt lat="44.2739" lon="1.13949">
        <ele>118</ele>
        <time>2012-03-11 09:09:29 +0000</time>
      </trkpt>
      <trkpt lat="44.27384" lon="1.13946">
        <ele>114</ele>
        <time>2012-03-11 09:09:32 +0000</time>
      </trkpt>
      <trkpt lat="44.27377" lon="1.13943">
        <ele>115</ele>
        <time>2012-03-11 09:09:36 +0000</time>
      </trkpt>
      <trkpt lat="44.27368" lon="1.1394">
        <ele>116</ele>
        <time>2012-03-11 09:09:40 +0000</time>
      </trkpt>
      <trkpt lat="44.2736" lon="1.13939">
        <ele>115</ele>
        <time>2012-03-11 09:09:44 +0000</time>
      </trkpt>
      <trkpt lat="44.27354" lon="1.13937">
        <ele>115</ele>
        <time>2012-03-11 09:09:47 +0000</time>
      </trkpt>
      <trkpt lat="44.27347" lon="1.13932">
        <ele>115</ele>
        <time>2012-03-11 09:09:51 +0000</time>
      </trkpt>
      <trkpt lat="44.2734" lon="1.13927">
        <ele>116</ele>
        <time>2012-03-11 09:09:55 +0000</time>
      </trkpt>
      <trkpt lat="44.27336" lon="1.13923">
        <ele>117</ele>
        <time>2012-03-11 09:09:58 +0000</time>
      </trkpt>
      <trkpt lat="44.27328" lon="1.13917">
        <ele>119</ele>
        <time>2012-03-11 09:10:02 +0000</time>
      </trkpt>
      <trkpt lat="44.27323" lon="1.13912">
        <ele>119</ele>
        <time>2012-03-11 09:10:05 +0000</time>
      </trkpt>
      <trkpt lat="44.27315" lon="1.13906">
        <ele>119</ele>
        <time>2012-03-11 09:10:09 +0000</time>
      </trkpt>
      <trkpt lat="44.27309" lon="1.13901">
        <ele>120</ele>
        <time>2012-03-11 09:10:12 +0000</time>
      </trkpt>
      <trkpt lat="44.27302" lon="1.13894">
        <ele>120</ele>
        <time>2012-03-11 09:10:16 +0000</time>
      </trkpt>
      <trkpt lat="44.27297" lon="1.13888">
        <ele>122</ele>
        <time>2012-03-11 09:10:19 +0000</time>
      </trkpt>
      <trkpt lat="44.27291" lon="1.13881">
        <ele>123</ele>
        <time>2012-03-11 09:10:22 +0000</time>
      </trkpt>
      <trkpt lat="44.27286" lon="1.13875">
        <ele>130</ele>
        <time>2012-03-11 09:10:25 +0000</time>
      </trkpt>
      <trkpt lat="44.27279" lon="1.13869">
        <ele>131</ele>
        <time>2012-03-11 09:10:29 +0000</time>
      </trkpt>
      <trkpt lat="44.27274" lon="1.13865">
        <ele>124</ele>
        <time>2012-03-11 09:10:32 +0000</time>
      </trkpt>
      <trkpt lat="44.27269" lon="1.1386">
        <ele>120</ele>
        <time>2012-03-11 09:10:35 +0000</time>
      </trkpt>
      <trkpt lat="44.27262" lon="1.13853">
        <ele>122</ele>
        <time>2012-03-11 09:10:39 +0000</time>
      </trkpt>
      <trkpt lat="44.27257" lon="1.13848">
        <ele>120</ele>
        <time>2012-03-11 09:10:42 +0000</time>
      </trkpt>
      <trkpt lat="44.27248" lon="1.13839">
        <ele>120</ele>
        <time>2012-03-11 09:10:46 +0000</time>
      </trkpt>
      <trkpt lat="44.27237" lon="1.13829">
        <ele>121</ele>
        <time>2012-03-11 09:10:50 +0000</time>
      </trkpt>
      <trkpt lat="44.27224" lon="1.13823">
        <ele>124</ele>
        <time>2012-03-11 09:10:54 +0000</time>
      </trkpt>
      <trkpt lat="44.27214" lon="1.13819">
        <ele>126</ele>
        <time>2012-03-11 09:10:57 +0000</time>
      </trkpt>
      <trkpt lat="44.27204" lon="1.13816">
        <ele>124</ele>
        <time>2012-03-11 09:11:00 +0000</time>
      </trkpt>
      <trkpt lat="44.2719" lon="1.13811">
        <ele>120</ele>
        <time>2012-03-11 09:11:04 +0000</time>
      </trkpt>
      <trkpt lat="44.27181" lon="1.13807">
        <ele>121</ele>
        <time>2012-03-11 09:11:07 +0000</time>
      </trkpt>
      <trkpt lat="44.27166" lon="1.138">
        <ele>118</ele>
        <time>2012-03-11 09:11:11 +0000</time>
      </trkpt>
      <trkpt lat="44.27154" lon="1.13797">
        <ele>119</ele>
        <time>2012-03-11 09:11:14 +0000</time>
      </trkpt>
      <trkpt lat="44.2714" lon="1.13792">
        <ele>120</ele>
        <time>2012-03-11 09:11:17 +0000</time>
      </trkpt>
      <trkpt lat="44.27119" lon="1.13784">
        <ele>120</ele>
        <time>2012-03-11 09:11:21 +0000</time>
      </trkpt>
      <trkpt lat="44.27105" lon="1.13773">
        <ele>118</ele>
        <time>2012-03-11 09:11:24 +0000</time>
      </trkpt>
      <trkpt lat="44.27095" lon="1.13754">
        <ele>118</ele>
        <time>2012-03-11 09:11:27 +0000</time>
      </trkpt>
      <trkpt lat="44.27089" lon="1.13723">
        <ele>115</ele>
        <time>2012-03-11 09:11:31 +0000</time>
      </trkpt>
      <trkpt lat="44.27086" lon="1.137">
        <ele>113</ele>
        <time>2012-03-11 09:11:34 +0000</time>
      </trkpt>
      <trkpt lat="44.27083" lon="1.13675">
        <ele>114</ele>
        <time>2012-03-11 09:11:38 +0000</time>
      </trkpt>
      <trkpt lat="44.2708" lon="1.13665">
        <ele>112</ele>
        <time>2012-03-11 09:11:42 +0000</time>
      </trkpt>
      <trkpt lat="44.2708" lon="1.13661">
        <ele>113</ele>
        <time>2012-03-11 09:11:45 +0000</time>
      </trkpt>
      <trkpt lat="44.27073" lon="1.13666">
        <ele>111</ele>
        <time>2012-03-11 09:11:49 +0000</time>
      </trkpt>
      <trkpt lat="44.27064" lon="1.13686">
        <ele>110</ele>
        <time>2012-03-11 09:11:53 +0000</time>
      </trkpt>
      <trkpt lat="44.27054" lon="1.13708">
        <ele>110</ele>
        <time>2012-03-11 09:11:57 +0000</time>
      </trkpt>
      <trkpt lat="44.27042" lon="1.13734">
        <ele>109</ele>
        <time>2012-03-11 09:12:01 +0000</time>
      </trkpt>
      <trkpt lat="44.27027" lon="1.13758">
        <ele>107</ele>
        <time>2012-03-11 09:12:05 +0000</time>
      </trkpt>
      <trkpt lat="44.27013" lon="1.13777">
        <ele>106</ele>
        <time>2012-03-11 09:12:08 +0000</time>
      </trkpt>
      <trkpt lat="44.26994" lon="1.13805">
        <ele>105</ele>
        <time>2012-03-11 09:12:12 +0000</time>
      </trkpt>
      <trkpt lat="44.26979" lon="1.13828">
        <ele>105</ele>
        <time>2012-03-11 09:12:15 +0000</time>
      </trkpt>
      <trkpt lat="44.26961" lon="1.13855">
        <ele>107</ele>
        <time>2012-03-11 09:12:18 +0000</time>
      </trkpt>
      <trkpt lat="44.26936" lon="1.13892">
        <ele>106</ele>
        <time>2012-03-11 09:12:22 +0000</time>
      </trkpt>
      <trkpt lat="44.26911" lon="1.13928">
        <ele>99</ele>
        <time>2012-03-11 09:12:26 +0000</time>
      </trkpt>
      <trkpt lat="44.26896" lon="1.1395">
        <ele>99</ele>
        <time>2012-03-11 09:12:29 +0000</time>
      </trkpt>
      <trkpt lat="44.26881" lon="1.13974">
        <ele>99</ele>
        <time>2012-03-11 09:12:33 +0000</time>
      </trkpt>
      <trkpt lat="44.26865" lon="1.13992">
        <ele>102</ele>
        <time>2012-03-11 09:12:37 +0000</time>
      </trkpt>
      <trkpt lat="44.26855" lon="1.14006">
        <ele>106</ele>
        <time>2012-03-11 09:12:40 +0000</time>
      </trkpt>
      <trkpt lat="44.26841" lon="1.14021">
        <ele>106</ele>
        <time>2012-03-11 09:12:44 +0000</time>
      </trkpt>
      <trkpt lat="44.26826" lon="1.14017">
        <ele>99</ele>
        <time>2012-03-11 09:12:48 +0000</time>
      </trkpt>
      <trkpt lat="44.2681" lon="1.14011">
        <ele>101</ele>
        <time>2012-03-11 09:12:52 +0000</time>
      </trkpt>
      <trkpt lat="44.26794" lon="1.14001">
        <ele>101</ele>
        <time>2012-03-11 09:12:56 +0000</time>
      </trkpt>
      <trkpt lat="44.26776" lon="1.13991">
        <ele>103</ele>
        <time>2012-03-11 09:13:00 +0000</time>
      </trkpt>
      <trkpt lat="44.26769" lon="1.13977">
        <ele>103</ele>
        <time>2012-03-11 09:13:04 +0000</time>
      </trkpt>
      <trkpt lat="44.26767" lon="1.13966">
        <ele>99</ele>
        <time>2012-03-11 09:13:08 +0000</time>
      </trkpt>
      <trkpt lat="44.26763" lon="1.13961">
        <ele>98</ele>
        <time>2012-03-11 09:13:11 +0000</time>
      </trkpt>
      <trkpt lat="44.26759" lon="1.1396">
        <ele>99</ele>
        <time>2012-03-11 09:13:14 +0000</time>
      </trkpt>
      <trkpt lat="44.26754" lon="1.13957">
        <ele>98</ele>
        <time>2012-03-11 09:13:17 +0000</time>
      </trkpt>
      <trkpt lat="44.26748" lon="1.13954">
        <ele>106</ele>
        <time>2012-03-11 09:13:21 +0000</time>
      </trkpt>
      <trkpt lat="44.26742" lon="1.13952">
        <ele>108</ele>
        <time>2012-03-11 09:13:24 +0000</time>
      </trkpt>
      <trkpt lat="44.26733" lon="1.13947">
        <ele>100</ele>
        <time>2012-03-11 09:13:28 +0000</time>
      </trkpt>
      <trkpt lat="44.26728" lon="1.13943">
        <ele>100</ele>
        <time>2012-03-11 09:13:31 +0000</time>
      </trkpt>
      <trkpt lat="44.2672" lon="1.13937">
        <ele>98</ele>
        <time>2012-03-11 09:13:35 +0000</time>
      </trkpt>
      <trkpt lat="44.26711" lon="1.13929">
        <ele>99</ele>
        <time>2012-03-11 09:13:39 +0000</time>
      </trkpt>
      <trkpt lat="44.26706" lon="1.13923">
        <ele>102</ele>
        <time>2012-03-11 09:13:42 +0000</time>
      </trkpt>
      <trkpt lat="44.26698" lon="1.13916">
        <ele>103</ele>
        <time>2012-03-11 09:13:46 +0000</time>
      </trkpt>
      <trkpt lat="44.26691" lon="1.13911">
        <ele>101</ele>
        <time>2012-03-11 09:13:49 +0000</time>
      </trkpt>
      <trkpt lat="44.26683" lon="1.13905">
        <ele>100</ele>
        <time>2012-03-11 09:13:53 +0000</time>
      </trkpt>
      <trkpt lat="44.26677" lon="1.13901">
        <ele>100</ele>
        <time>2012-03-11 09:13:56 +0000</time>
      </trkpt>
      <trkpt lat="44.26668" lon="1.13895">
        <ele>104</ele>
        <time>2012-03-11 09:14:00 +0000</time>
      </trkpt>
      <trkpt lat="44.26661" lon="1.13889">
        <ele>102</ele>
        <time>2012-03-11 09:14:03 +0000</time>
      </trkpt>
      <trkpt lat="44.26652" lon="1.13883">
        <ele>103</ele>
        <time>2012-03-11 09:14:07 +0000</time>
      </trkpt>
      <trkpt lat="44.26643" lon="1.13877">
        <ele>106</ele>
        <time>2012-03-11 09:14:11 +0000</time>
      </trkpt>
      <trkpt lat="44.26632" lon="1.13869">
        <ele>96</ele>
        <time>2012-03-11 09:14:15 +0000</time>
      </trkpt>
      <trkpt lat="44.26625" lon="1.13864">
        <ele>93</ele>
        <time>2012-03-11 09:14:18 +0000</time>
      </trkpt>
      <trkpt lat="44.26614" lon="1.13855">
        <ele>105</ele>
        <time>2012-03-11 09:14:22 +0000</time>
      </trkpt>
      <trkpt lat="44.26606" lon="1.13845">
        <ele>99</ele>
        <time>2012-03-11 09:14:26 +0000</time>
      </trkpt>
      <trkpt lat="44.26604" lon="1.13839">
        <ele>99</ele>
        <time>2012-03-11 09:14:30 +0000</time>
      </trkpt>
      <trkpt lat="44.26604" lon="1.13839">
        <ele>99</ele>
        <time>2012-03-11 09:14:33 +0000</time>
      </trkpt>
      <trkpt lat="44.26604" lon="1.13839">
        <ele>99</ele>
        <time>2012-03-11 09:14:36 +0000</time>
      </trkpt>
      <trkpt lat="44.26604" lon="1.13839">
        <ele>99</ele>
        <time>2012-03-11 09:14:40 +0000</time>
      </trkpt>
      <trkpt lat="44.26604" lon="1.13839">
        <ele>99</ele>
        <time>2012-03-11 09:14:43 +0000</time>
      </trkpt>
      <trkpt lat="44.26604" lon="1.13839">
        <ele>99</ele>
        <time>2012-03-11 09:14:46 +0000</time>
      </trkpt>
      <trkpt lat="44.26604" lon="1.13839">
        <ele>99</ele>
        <time>2012-03-11 09:14:50 +0000</time>
      </trkpt>
      <trkpt lat="44.26604" lon="1.13839">
        <ele>99</ele>
        <time>2012-03-11 09:14:53 +0000</time>
      </trkpt>
      <trkpt lat="44.26604" lon="1.13839">
        <ele>99</ele>
        <time>2012-03-11 09:14:57 +0000</time>
      </trkpt>
      <trkpt lat="44.26604" lon="1.13839">
        <ele>99</ele>
        <time>2012-03-11 09:15:01 +0000</time>
      </trkpt>
      <trkpt lat="44.26604" lon="1.13839">
        <ele>99</ele>
        <time>2012-03-11 09:15:04 +0000</time>
      </trkpt>
      <trkpt lat="44.26604" lon="1.13839">
        <ele>99</ele>
        <time>2012-03-11 09:15:08 +0000</time>
      </trkpt>
      <trkpt lat="44.26604" lon="1.13839">
        <ele>99</ele>
        <time>2012-03-11 09:15:11 +0000</time>
      </trkpt>
      <trkpt lat="44.26604" lon="1.13839">
        <ele>99</ele>
        <time>2012-03-11 09:15:14 +0000</time>
      </trkpt>
      <trkpt lat="44.26604" lon="1.13839">
        <ele>99</ele>
        <time>2012-03-11 09:15:17 +0000</time>
      </trkpt>
      <trkpt lat="44.26604" lon="1.13839">
        <ele>99</ele>
        <time>2012-03-11 09:15:21 +0000</time>
      </trkpt>
      <trkpt lat="44.26604" lon="1.13839">
        <ele>99</ele>
        <time>2012-03-11 09:15:25 +0000</time>
      </trkpt>
      <trkpt lat="44.26604" lon="1.13839">
        <ele>99</ele>
        <time>2012-03-11 09:15:28 +0000</time>
      </trkpt>
      <trkpt lat="44.26604" lon="1.13839">
        <ele>99</ele>
        <time>2012-03-11 09:15:31 +0000</time>
      </trkpt>
      <trkpt lat="44.26604" lon="1.13839">
        <ele>99</ele>
        <time>2012-03-11 09:15:34 +0000</time>
      </trkpt>
      <trkpt lat="44.26604" lon="1.13839">
        <ele>99</ele>
        <time>2012-03-11 09:15:38 +0000</time>
      </trkpt>
      <trkpt lat="44.26604" lon="1.13839">
        <ele>99</ele>
        <time>2012-03-11 09:15:41 +0000</time>
      </trkpt>
      <trkpt lat="44.26604" lon="1.13839">
        <ele>99</ele>
        <time>2012-03-11 09:15:44 +0000</time>
      </trkpt>
      <trkpt lat="44.26604" lon="1.13839">
        <ele>99</ele>
        <time>2012-03-11 09:15:48 +0000</time>
      </trkpt>
      <trkpt lat="44.26604" lon="1.13839">
        <ele>99</ele>
        <time>2012-03-11 09:15:51 +0000</time>
      </trkpt>
      <trkpt lat="44.26604" lon="1.13839">
        <ele>99</ele>
        <time>2012-03-11 09:15:55 +0000</time>
      </trkpt>
      <trkpt lat="44.26604" lon="1.13839">
        <ele>99</ele>
        <time>2012-03-11 09:15:58 +0000</time>
      </trkpt>
      <trkpt lat="44.26604" lon="1.13839">
        <ele>99</ele>
        <time>2012-03-11 09:16:02 +0000</time>
      </trkpt>
      <trkpt lat="44.26604" lon="1.13839">
        <ele>99</ele>
        <time>2012-03-11 09:16:05 +0000</time>
      </trkpt>
      <trkpt lat="44.26604" lon="1.13839">
        <ele>99</ele>
        <time>2012-03-11 09:16:09 +0000</time>
      </trkpt>
      <trkpt lat="44.26604" lon="1.13839">
        <ele>99</ele>
        <time>2012-03-11 09:16:12 +0000</time>
      </trkpt>
      <trkpt lat="44.26604" lon="1.13839">
        <ele>99</ele>
        <time>2012-03-11 09:16:16 +0000</time>
      </trkpt>
      <trkpt lat="44.26604" lon="1.13839">
        <ele>99</ele>
        <time>2012-03-11 09:16:19 +0000</time>
      </trkpt>
      <trkpt lat="44.26604" lon="1.13839">
        <ele>99</ele>
        <time>2012-03-11 09:16:23 +0000</time>
      </trkpt>
      <trkpt lat="44.26604" lon="1.13839">
        <ele>99</ele>
        <time>2012-03-11 09:16:27 +0000</time>
      </trkpt>
      <trkpt lat="44.26604" lon="1.13839">
        <ele>99</ele>
        <time>2012-03-11 09:16:31 +0000</time>
      </trkpt>
      <trkpt lat="44.26604" lon="1.13839">
        <ele>99</ele>
        <time>2012-03-11 09:16:35 +0000</time>
      </trkpt>
      <trkpt lat="44.26604" lon="1.13839">
        <ele>99</ele>
        <time>2012-03-11 09:16:39 +0000</time>
      </trkpt>
      <trkpt lat="44.26604" lon="1.13839">
        <ele>99</ele>
        <time>2012-03-11 09:16:43 +0000</time>
      </trkpt>
      <trkpt lat="44.26604" lon="1.13839">
        <ele>99</ele>
        <time>2012-03-11 09:16:47 +0000</time>
      </trkpt>
      <trkpt lat="44.26604" lon="1.13839">
        <ele>99</ele>
        <time>2012-03-11 09:16:50 +0000</time>
      </trkpt>
      <trkpt lat="44.26604" lon="1.13839">
        <ele>99</ele>
        <time>2012-03-11 09:16:54 +0000</time>
      </trkpt>
      <trkpt lat="44.26604" lon="1.13839">
        <ele>99</ele>
        <time>2012-03-11 09:16:58 +0000</time>
      </trkpt>
      <trkpt lat="44.26604" lon="1.13839">
        <ele>99</ele>
        <time>2012-03-11 09:17:02 +0000</time>
      </trkpt>
      <trkpt lat="44.26604" lon="1.13839">
        <ele>99</ele>
        <time>2012-03-11 09:17:05 +0000</time>
      </trkpt>
      <trkpt lat="44.26604" lon="1.13839">
        <ele>99</ele>
        <time>2012-03-11 09:17:09 +0000</time>
      </trkpt>
      <trkpt lat="44.26604" lon="1.13839">
        <ele>99</ele>
        <time>2012-03-11 09:17:12 +0000</time>
      </trkpt>
      <trkpt lat="44.26604" lon="1.13839">
        <ele>99</ele>
        <time>2012-03-11 09:17:16 +0000</time>
      </trkpt>
      <trkpt lat="44.26604" lon="1.13839">
        <ele>99</ele>
        <time>2012-03-11 09:17:20 +0000</time>
      </trkpt>
      <trkpt lat="44.26604" lon="1.13839">
        <ele>99</ele>
        <time>2012-03-11 09:17:23 +0000</time>
      </trkpt>
      <trkpt lat="44.26604" lon="1.13839">
        <ele>99</ele>
        <time>2012-03-11 09:17:26 +0000</time>
      </trkpt>
      <trkpt lat="44.26604" lon="1.13839">
        <ele>99</ele>
        <time>2012-03-11 09:17:30 +0000</time>
      </trkpt>
      <trkpt lat="44.26604" lon="1.13839">
        <ele>105</ele>
        <time>2012-03-11 09:17:33 +0000</time>
      </trkpt>
      <trkpt lat="44.26604" lon="1.13839">
        <ele>101</ele>
        <time>2012-03-11 09:17:37 +0000</time>
      </trkpt>
      <trkpt lat="44.26604" lon="1.13839">
        <ele>99</ele>
        <time>2012-03-11 09:17:41 +0000</time>
      </trkpt>
      <trkpt lat="44.26604" lon="1.13839">
        <ele>104</ele>
        <time>2012-03-11 09:17:44 +0000</time>
      </trkpt>
      <trkpt lat="44.26604" lon="1.13839">
        <ele>96</ele>
        <time>2012-03-11 09:17:48 +0000</time>
      </trkpt>
      <trkpt lat="44.26604" lon="1.13839">
        <ele>108</ele>
        <time>2012-03-11 09:17:52 +0000</time>
      </trkpt>
      <trkpt lat="44.26604" lon="1.13839">
        <ele>104</ele>
        <time>2012-03-11 09:17:55 +0000</time>
      </trkpt>
      <trkpt lat="44.26604" lon="1.13839">
        <ele>98</ele>
        <time>2012-03-11 09:17:58 +0000</time>
      </trkpt>
      <trkpt lat="44.26604" lon="1.13839">
        <ele>84</ele>
        <time>2012-03-11 09:18:02 +0000</time>
      </trkpt>
      <trkpt lat="44.26604" lon="1.13839">
        <ele>98</ele>
        <time>2012-03-11 09:18:06 +0000</time>
      </trkpt>
      <trkpt lat="44.26604" lon="1.13839">
        <ele>112</ele>
        <time>2012-03-11 09:18:09 +0000</time>
      </trkpt>
      <trkpt lat="44.26604" lon="1.13839">
        <ele>118</ele>
        <time>2012-03-11 09:18:13 +0000</time>
      </trkpt>
      <trkpt lat="44.26604" lon="1.13839">
        <ele>106</ele>
        <time>2012-03-11 09:18:16 +0000</time>
      </trkpt>
      <trkpt lat="44.26604" lon="1.13839">
        <ele>115</ele>
        <time>2012-03-11 09:18:20 +0000</time>
      </trkpt>
      <trkpt lat="44.26604" lon="1.13839">
        <ele>107</ele>
        <time>2012-03-11 09:18:23 +0000</time>
      </trkpt>
      <trkpt lat="44.26604" lon="1.13839">
        <ele>87</ele>
        <time>2012-03-11 09:18:27 +0000</time>
      </trkpt>
      <trkpt lat="44.26604" lon="1.13839">
        <ele>98</ele>
        <time>2012-03-11 09:18:30 +0000</time>
      </trkpt>
      <trkpt lat="44.26604" lon="1.13839">
        <ele>107</ele>
        <time>2012-03-11 09:18:34 +0000</time>
      </trkpt>
      <trkpt lat="44.26604" lon="1.13839">
        <ele>109</ele>
        <time>2012-03-11 09:18:38 +0000</time>
      </trkpt>
      <trkpt lat="44.26604" lon="1.13839">
        <ele>107</ele>
        <time>2012-03-11 09:18:41 +0000</time>
      </trkpt>
      <trkpt lat="44.26603" lon="1.13835">
        <ele>109</ele>
        <time>2012-03-11 09:18:45 +0000</time>
      </trkpt>
      <trkpt lat="44.26603" lon="1.13835">
        <ele>92</ele>
        <time>2012-03-11 09:18:49 +0000</time>
      </trkpt>
      <trkpt lat="44.26603" lon="1.13835">
        <ele>90</ele>
        <time>2012-03-11 09:18:52 +0000</time>
      </trkpt>
      <trkpt lat="44.26603" lon="1.13835">
        <ele>101</ele>
        <time>2012-03-11 09:18:56 +0000</time>
      </trkpt>
      <trkpt lat="44.26603" lon="1.13835">
        <ele>96</ele>
        <time>2012-03-11 09:18:59 +0000</time>
      </trkpt>
      <trkpt lat="44.26603" lon="1.13835">
        <ele>90</ele>
        <time>2012-03-11 09:19:03 +0000</time>
      </trkpt>
      <trkpt lat="44.26603" lon="1.13835">
        <ele>92</ele>
        <time>2012-03-11 09:19:06 +0000</time>
      </trkpt>
      <trkpt lat="44.26603" lon="1.13835">
        <ele>98</ele>
        <time>2012-03-11 09:19:10 +0000</time>
      </trkpt>
      <trkpt lat="44.26603" lon="1.13835">
        <ele>108</ele>
        <time>2012-03-11 09:19:14 +0000</time>
      </trkpt>
      <trkpt lat="44.26603" lon="1.13835">
        <ele>118</ele>
        <time>2012-03-11 09:19:17 +0000</time>
      </trkpt>
      <trkpt lat="44.26603" lon="1.13835">
        <ele>117</ele>
        <time>2012-03-11 09:19:21 +0000</time>
      </trkpt>
      <trkpt lat="44.26603" lon="1.13835">
        <ele>105</ele>
        <time>2012-03-11 09:19:25 +0000</time>
      </trkpt>
      <trkpt lat="44.26603" lon="1.13835">
        <ele>98</ele>
        <time>2012-03-11 09:19:29 +0000</time>
      </trkpt>
      <trkpt lat="44.26603" lon="1.13835">
        <ele>94</ele>
        <time>2012-03-11 09:19:32 +0000</time>
      </trkpt>
      <trkpt lat="44.26603" lon="1.13834">
        <ele>101</ele>
        <time>2012-03-11 09:19:36 +0000</time>
      </trkpt>
      <trkpt lat="44.26603" lon="1.13834">
        <ele>117</ele>
        <time>2012-03-11 09:19:40 +0000</time>
      </trkpt>
      <trkpt lat="44.26603" lon="1.13834">
        <ele>110</ele>
        <time>2012-03-11 09:19:43 +0000</time>
      </trkpt>
      <trkpt lat="44.26603" lon="1.13834">
        <ele>99</ele>
        <time>2012-03-11 09:19:46 +0000</time>
      </trkpt>
      <trkpt lat="44.26603" lon="1.13834">
        <ele>104</ele>
        <time>2012-03-11 09:19:50 +0000</time>
      </trkpt>
      <trkpt lat="44.26603" lon="1.13834">
        <ele>95</ele>
        <time>2012-03-11 09:19:53 +0000</time>
      </trkpt>
      <trkpt lat="44.26603" lon="1.13834">
        <ele>94</ele>
        <time>2012-03-11 09:19:56 +0000</time>
      </trkpt>
      <trkpt lat="44.26603" lon="1.13834">
        <ele>100</ele>
        <time>2012-03-11 09:19:59 +0000</time>
      </trkpt>
      <trkpt lat="44.26603" lon="1.13834">
        <ele>99</ele>
        <time>2012-03-11 09:20:03 +0000</time>
      </trkpt>
      <trkpt lat="44.26603" lon="1.13834">
        <ele>100</ele>
        <time>2012-03-11 09:20:06 +0000</time>
      </trkpt>
      <trkpt lat="44.26603" lon="1.13834">
        <ele>107</ele>
        <time>2012-03-11 09:20:10 +0000</time>
      </trkpt>
      <trkpt lat="44.26603" lon="1.13834">
        <ele>100</ele>
        <time>2012-03-11 09:20:14 +0000</time>
      </trkpt>
      <trkpt lat="44.26603" lon="1.13834">
        <ele>97</ele>
        <time>2012-03-11 09:20:17 +0000</time>
      </trkpt>
      <trkpt lat="44.26603" lon="1.13834">
        <ele>94</ele>
        <time>2012-03-11 09:20:21 +0000</time>
      </trkpt>
      <trkpt lat="44.26602" lon="1.13833">
        <ele>95</ele>
        <time>2012-03-11 09:20:24 +0000</time>
      </trkpt>
      <trkpt lat="44.26602" lon="1.13833">
        <ele>99</ele>
        <time>2012-03-11 09:20:28 +0000</time>
      </trkpt>
      <trkpt lat="44.26602" lon="1.13833">
        <ele>99</ele>
        <time>2012-03-11 09:20:32 +0000</time>
      </trkpt>
      <trkpt lat="44.26602" lon="1.13833">
        <ele>97</ele>
        <time>2012-03-11 09:20:35 +0000</time>
      </trkpt>
      <trkpt lat="44.26602" lon="1.13833">
        <ele>94</ele>
        <time>2012-03-11 09:20:39 +0000</time>
      </trkpt>
      <trkpt lat="44.26602" lon="1.13833">
        <ele>94</ele>
        <time>2012-03-11 09:20:43 +0000</time>
      </trkpt>
      <trkpt lat="44.26602" lon="1.13833">
        <ele>96</ele>
        <time>2012-03-11 09:20:46 +0000</time>
      </trkpt>
      <trkpt lat="44.26602" lon="1.13833">
        <ele>95</ele>
        <time>2012-03-11 09:20:49 +0000</time>
      </trkpt>
      <trkpt lat="44.26602" lon="1.13833">
        <ele>96</ele>
        <time>2012-03-11 09:20:53 +0000</time>
      </trkpt>
      <trkpt lat="44.26602" lon="1.13833">
        <ele>100</ele>
        <time>2012-03-11 09:20:57 +0000</time>
      </trkpt>
      <trkpt lat="44.26602" lon="1.13833">
        <ele>114</ele>
        <time>2012-03-11 09:21:01 +0000</time>
      </trkpt>
      <trkpt lat="44.26602" lon="1.13833">
        <ele>111</ele>
        <time>2012-03-11 09:21:05 +0000</time>
      </trkpt>
      <trkpt lat="44.26602" lon="1.13833">
        <ele>108</ele>
        <time>2012-03-11 09:21:09 +0000</time>
      </trkpt>
      <trkpt lat="44.26602" lon="1.13833">
        <ele>93</ele>
        <time>2012-03-11 09:21:12 +0000</time>
      </trkpt>
      <trkpt lat="44.26602" lon="1.13833">
        <ele>99</ele>
        <time>2012-03-11 09:21:16 +0000</time>
      </trkpt>
      <trkpt lat="44.26602" lon="1.13833">
        <ele>113</ele>
        <time>2012-03-11 09:21:20 +0000</time>
      </trkpt>
      <trkpt lat="44.26602" lon="1.13833">
        <ele>118</ele>
        <time>2012-03-11 09:21:23 +0000</time>
      </trkpt>
      <trkpt lat="44.26602" lon="1.13833">
        <ele>104</ele>
        <time>2012-03-11 09:21:27 +0000</time>
      </trkpt>
      <trkpt lat="44.26602" lon="1.13833">
        <ele>99</ele>
        <time>2012-03-11 09:21:30 +0000</time>
      </trkpt>
      <trkpt lat="44.26602" lon="1.13833">
        <ele>107</ele>
        <time>2012-03-11 09:21:34 +0000</time>
      </trkpt>
      <trkpt lat="44.26602" lon="1.13833">
        <ele>107</ele>
        <time>2012-03-11 09:21:37 +0000</time>
      </trkpt>
      <trkpt lat="44.26602" lon="1.13833">
        <ele>100</ele>
        <time>2012-03-11 09:21:40 +0000</time>
      </trkpt>
      <trkpt lat="44.26602" lon="1.13833">
        <ele>99</ele>
        <time>2012-03-11 09:21:44 +0000</time>
      </trkpt>
      <trkpt lat="44.26602" lon="1.13833">
        <ele>97</ele>
        <time>2012-03-11 09:21:47 +0000</time>
      </trkpt>
      <trkpt lat="44.26602" lon="1.13833">
        <ele>97</ele>
        <time>2012-03-11 09:21:51 +0000</time>
      </trkpt>
      <trkpt lat="44.26602" lon="1.13833">
        <ele>110</ele>
        <time>2012-03-11 09:21:54 +0000</time>
      </trkpt>
      <trkpt lat="44.26602" lon="1.13833">
        <ele>114</ele>
        <time>2012-03-11 09:21:57 +0000</time>
      </trkpt>
      <trkpt lat="44.26602" lon="1.13833">
        <ele>114</ele>
        <time>2012-03-11 09:22:00 +0000</time>
      </trkpt>
      <trkpt lat="44.26602" lon="1.13833">
        <ele>115</ele>
        <time>2012-03-11 09:22:04 +0000</time>
      </trkpt>
      <trkpt lat="44.26602" lon="1.13833">
        <ele>113</ele>
        <time>2012-03-11 09:22:08 +0000</time>
      </trkpt>
      <trkpt lat="44.26602" lon="1.13833">
        <ele>111</ele>
        <time>2012-03-11 09:22:12 +0000</time>
      </trkpt>
      <trkpt lat="44.26602" lon="1.13833">
        <ele>106</ele>
        <time>2012-03-11 09:22:15 +0000</time>
      </trkpt>
      <trkpt lat="44.26602" lon="1.13833">
        <ele>111</ele>
        <time>2012-03-11 09:22:19 +0000</time>
      </trkpt>
      <trkpt lat="44.26602" lon="1.13833">
        <ele>108</ele>
        <time>2012-03-11 09:22:22 +0000</time>
      </trkpt>
      <trkpt lat="44.26602" lon="1.13833">
        <ele>105</ele>
        <time>2012-03-11 09:22:26 +0000</time>
      </trkpt>
      <trkpt lat="44.26602" lon="1.13833">
        <ele>107</ele>
        <time>2012-03-11 09:22:30 +0000</time>
      </trkpt>
      <trkpt lat="44.26602" lon="1.13833">
        <ele>96</ele>
        <time>2012-03-11 09:22:34 +0000</time>
      </trkpt>
      <trkpt lat="44.26602" lon="1.13833">
        <ele>102</ele>
        <time>2012-03-11 09:22:38 +0000</time>
      </trkpt>
      <trkpt lat="44.26602" lon="1.13833">
        <ele>101</ele>
        <time>2012-03-11 09:22:41 +0000</time>
      </trkpt>
      <trkpt lat="44.26602" lon="1.13833">
        <ele>106</ele>
        <time>2012-03-11 09:22:44 +0000</time>
      </trkpt>
      <trkpt lat="44.26602" lon="1.13833">
        <ele>118</ele>
        <time>2012-03-11 09:22:47 +0000</time>
      </trkpt>
      <trkpt lat="44.26602" lon="1.13833">
        <ele>101</ele>
        <time>2012-03-11 09:22:51 +0000</time>
      </trkpt>
      <trkpt lat="44.26601" lon="1.13833">
        <ele>97</ele>
        <time>2012-03-11 09:22:54 +0000</time>
      </trkpt>
      <trkpt lat="44.26601" lon="1.13833">
        <ele>111</ele>
        <time>2012-03-11 09:22:57 +0000</time>
      </trkpt>
      <trkpt lat="44.26598" lon="1.13835">
        <ele>107</ele>
        <time>2012-03-11 09:23:01 +0000</time>
      </trkpt>
      <trkpt lat="44.26595" lon="1.13835">
        <ele>105</ele>
        <time>2012-03-11 09:23:05 +0000</time>
      </trkpt>
      <trkpt lat="44.26591" lon="1.13835">
        <ele>103</ele>
        <time>2012-03-11 09:23:09 +0000</time>
      </trkpt>
      <trkpt lat="44.26585" lon="1.13835">
        <ele>103</ele>
        <time>2012-03-11 09:23:12 +0000</time>
      </trkpt>
      <trkpt lat="44.26577" lon="1.13834">
        <ele>99</ele>
        <time>2012-03-11 09:23:16 +0000</time>
      </trkpt>
      <trkpt lat="44.26567" lon="1.13829">
        <ele>104</ele>
        <time>2012-03-11 09:23:20 +0000</time>
      </trkpt>
      <trkpt lat="44.26562" lon="1.13825">
        <ele>102</ele>
        <time>2012-03-11 09:23:23 +0000</time>
      </trkpt>
      <trkpt lat="44.26556" lon="1.1382">
        <ele>101</ele>
        <time>2012-03-11 09:23:26 +0000</time>
      </trkpt>
      <trkpt lat="44.26549" lon="1.13812">
        <ele>98</ele>
        <time>2012-03-11 09:23:30 +0000</time>
      </trkpt>
      <trkpt lat="44.26542" lon="1.13807">
        <ele>99</ele>
        <time>2012-03-11 09:23:33 +0000</time>
      </trkpt>
      <trkpt lat="44.26534" lon="1.138">
        <ele>100</ele>
        <time>2012-03-11 09:23:37 +0000</time>
      </trkpt>
      <trkpt lat="44.26526" lon="1.13795">
        <ele>101</ele>
        <time>2012-03-11 09:23:40 +0000</time>
      </trkpt>
      <trkpt lat="44.26516" lon="1.13787">
        <ele>103</ele>
        <time>2012-03-11 09:23:44 +0000</time>
      </trkpt>
      <trkpt lat="44.26509" lon="1.13781">
        <ele>103</ele>
        <time>2012-03-11 09:23:47 +0000</time>
      </trkpt>
      <trkpt lat="44.26498" lon="1.13773">
        <ele>98</ele>
        <time>2012-03-11 09:23:51 +0000</time>
      </trkpt>
      <trkpt lat="44.26488" lon="1.13765">
        <ele>100</ele>
        <time>2012-03-11 09:23:55 +0000</time>
      </trkpt>
      <trkpt lat="44.26478" lon="1.13756">
        <ele>101</ele>
        <time>2012-03-11 09:23:59 +0000</time>
      </trkpt>
      <trkpt lat="44.2647" lon="1.13749">
        <ele>101</ele>
        <time>2012-03-11 09:24:02 +0000</time>
      </trkpt>
      <trkpt lat="44.2646" lon="1.1374">
        <ele>101</ele>
        <time>2012-03-11 09:24:06 +0000</time>
      </trkpt>
      <trkpt lat="44.26449" lon="1.13732">
        <ele>101</ele>
        <time>2012-03-11 09:24:10 +0000</time>
      </trkpt>
      <trkpt lat="44.26442" lon="1.13727">
        <ele>101</ele>
        <time>2012-03-11 09:24:13 +0000</time>
      </trkpt>
      <trkpt lat="44.26432" lon="1.13721">
        <ele>99</ele>
        <time>2012-03-11 09:24:17 +0000</time>
      </trkpt>
      <trkpt lat="44.26423" lon="1.13716">
        <ele>99</ele>
        <time>2012-03-11 09:24:21 +0000</time>
      </trkpt>
      <trkpt lat="44.26416" lon="1.13709">
        <ele>101</ele>
        <time>2012-03-11 09:24:24 +0000</time>
      </trkpt>
      <trkpt lat="44.26413" lon="1.137">
        <ele>106</ele>
        <time>2012-03-11 09:24:27 +0000</time>
      </trkpt>
      <trkpt lat="44.2641" lon="1.13691">
        <ele>103</ele>
        <time>2012-03-11 09:24:30 +0000</time>
      </trkpt>
      <trkpt lat="44.26406" lon="1.1368">
        <ele>104</ele>
        <time>2012-03-11 09:24:33 +0000</time>
      </trkpt>
      <trkpt lat="44.26402" lon="1.13668">
        <ele>105</ele>
        <time>2012-03-11 09:24:36 +0000</time>
      </trkpt>
      <trkpt lat="44.26398" lon="1.13656">
        <ele>106</ele>
        <time>2012-03-11 09:24:40 +0000</time>
      </trkpt>
      <trkpt lat="44.26397" lon="1.13648">
        <ele>108</ele>
        <time>2012-03-11 09:24:43 +0000</time>
      </trkpt>
      <trkpt lat="44.26397" lon="1.13637">
        <ele>106</ele>
        <time>2012-03-11 09:24:47 +0000</time>
      </trkpt>
      <trkpt lat="44.26398" lon="1.13627">
        <ele>104</ele>
        <time>2012-03-11 09:24:50 +0000</time>
      </trkpt>
      <trkpt lat="44.26398" lon="1.13614">
        <ele>110</ele>
        <time>2012-03-11 09:24:54 +0000</time>
      </trkpt>
      <trkpt lat="44.26398" lon="1.13606">
        <ele>109</ele>
        <time>2012-03-11 09:24:57 +0000</time>
      </trkpt>
      <trkpt lat="44.26396" lon="1.13595">
        <ele>108</ele>
        <time>2012-03-11 09:25:01 +0000</time>
      </trkpt>
      <trkpt lat="44.2639" lon="1.1359">
        <ele>106</ele>
        <time>2012-03-11 09:25:04 +0000</time>
      </trkpt>
      <trkpt lat="44.26379" lon="1.13583">
        <ele>104</ele>
        <time>2012-03-11 09:25:08 +0000</time>
      </trkpt>
      <trkpt lat="44.26368" lon="1.13574">
        <ele>99</ele>
        <time>2012-03-11 09:25:12 +0000</time>
      </trkpt>
      <trkpt lat="44.2636" lon="1.13569">
        <ele>100</ele>
        <time>2012-03-11 09:25:15 +0000</time>
      </trkpt>
      <trkpt lat="44.26347" lon="1.1356">
        <ele>101</ele>
        <time>2012-03-11 09:25:19 +0000</time>
      </trkpt>
      <trkpt lat="44.26337" lon="1.13551">
        <ele>102</ele>
        <time>2012-03-11 09:25:23 +0000</time>
      </trkpt>
      <trkpt lat="44.26328" lon="1.13544">
        <ele>101</ele>
        <time>2012-03-11 09:25:26 +0000</time>
      </trkpt>
      <trkpt lat="44.26316" lon="1.13533">
        <ele>103</ele>
        <time>2012-03-11 09:25:30 +0000</time>
      </trkpt>
      <trkpt lat="44.26306" lon="1.13525">
        <ele>106</ele>
        <time>2012-03-11 09:25:33 +0000</time>
      </trkpt>
      <trkpt lat="44.26295" lon="1.13512">
        <ele>108</ele>
        <time>2012-03-11 09:25:37 +0000</time>
      </trkpt>
      <trkpt lat="44.26284" lon="1.13503">
        <ele>104</ele>
        <time>2012-03-11 09:25:41 +0000</time>
      </trkpt>
      <trkpt lat="44.26276" lon="1.13495">
        <ele>104</ele>
        <time>2012-03-11 09:25:44 +0000</time>
      </trkpt>
      <trkpt lat="44.26264" lon="1.13481">
        <ele>106</ele>
        <time>2012-03-11 09:25:48 +0000</time>
      </trkpt>
      <trkpt lat="44.26255" lon="1.13468">
        <ele>107</ele>
        <time>2012-03-11 09:25:52 +0000</time>
      </trkpt>
      <trkpt lat="44.26244" lon="1.13454">
        <ele>104</ele>
        <time>2012-03-11 09:25:56 +0000</time>
      </trkpt>
      <trkpt lat="44.26234" lon="1.13442">
        <ele>105</ele>
        <time>2012-03-11 09:26:00 +0000</time>
      </trkpt>
      <trkpt lat="44.26227" lon="1.13431">
        <ele>108</ele>
        <time>2012-03-11 09:26:03 +0000</time>
      </trkpt>
      <trkpt lat="44.26217" lon="1.13416">
        <ele>103</ele>
        <time>2012-03-11 09:26:07 +0000</time>
      </trkpt>
      <trkpt lat="44.26208" lon="1.13402">
        <ele>105</ele>
        <time>2012-03-11 09:26:11 +0000</time>
      </trkpt>
      <trkpt lat="44.26202" lon="1.13391">
        <ele>104</ele>
        <time>2012-03-11 09:26:14 +0000</time>
      </trkpt>
      <trkpt lat="44.26192" lon="1.13379">
        <ele>104</ele>
        <time>2012-03-11 09:26:18 +0000</time>
      </trkpt>
      <trkpt lat="44.26184" lon="1.13368">
        <ele>105</ele>
        <time>2012-03-11 09:26:21 +0000</time>
      </trkpt>
      <trkpt lat="44.26175" lon="1.13357">
        <ele>105</ele>
        <time>2012-03-11 09:26:24 +0000</time>
      </trkpt>
      <trkpt lat="44.26166" lon="1.13344">
        <ele>104</ele>
        <time>2012-03-11 09:26:28 +0000</time>
      </trkpt>
      <trkpt lat="44.26159" lon="1.13334">
        <ele>103</ele>
        <time>2012-03-11 09:26:31 +0000</time>
      </trkpt>
      <trkpt lat="44.26152" lon="1.13324">
        <ele>104</ele>
        <time>2012-03-11 09:26:34 +0000</time>
      </trkpt>
      <trkpt lat="44.26144" lon="1.13314">
        <ele>107</ele>
        <time>2012-03-11 09:26:37 +0000</time>
      </trkpt>
      <trkpt lat="44.26135" lon="1.133">
        <ele>104</ele>
        <time>2012-03-11 09:26:41 +0000</time>
      </trkpt>
      <trkpt lat="44.26128" lon="1.1329">
        <ele>103</ele>
        <time>2012-03-11 09:26:44 +0000</time>
      </trkpt>
      <trkpt lat="44.26119" lon="1.13276">
        <ele>105</ele>
        <time>2012-03-11 09:26:48 +0000</time>
      </trkpt>
      <trkpt lat="44.26111" lon="1.13264">
        <ele>105</ele>
        <time>2012-03-11 09:26:51 +0000</time>
      </trkpt>
      <trkpt lat="44.26101" lon="1.1325">
        <ele>104</ele>
        <time>2012-03-11 09:26:55 +0000</time>
      </trkpt>
      <trkpt lat="44.26093" lon="1.13239">
        <ele>104</ele>
        <time>2012-03-11 09:26:58 +0000</time>
      </trkpt>
      <trkpt lat="44.26086" lon="1.13229">
        <ele>104</ele>
        <time>2012-03-11 09:27:01 +0000</time>
      </trkpt>
      <trkpt lat="44.26078" lon="1.13218">
        <ele>102</ele>
        <time>2012-03-11 09:27:05 +0000</time>
      </trkpt>
      <trkpt lat="44.26072" lon="1.1321">
        <ele>100</ele>
        <time>2012-03-11 09:27:08 +0000</time>
      </trkpt>
      <trkpt lat="44.26065" lon="1.13201">
        <ele>102</ele>
        <time>2012-03-11 09:27:12 +0000</time>
      </trkpt>
      <trkpt lat="44.26061" lon="1.13196">
        <ele>101</ele>
        <time>2012-03-11 09:27:15 +0000</time>
      </trkpt>
      <trkpt lat="44.26056" lon="1.13184">
        <ele>105</ele>
        <time>2012-03-11 09:27:19 +0000</time>
      </trkpt>
      <trkpt lat="44.2605" lon="1.13175">
        <ele>104</ele>
        <time>2012-03-11 09:27:22 +0000</time>
      </trkpt>
      <trkpt lat="44.26042" lon="1.13163">
        <ele>102</ele>
        <time>2012-03-11 09:27:26 +0000</time>
      </trkpt>
      <trkpt lat="44.26035" lon="1.13154">
        <ele>103</ele>
        <time>2012-03-11 09:27:29 +0000</time>
      </trkpt>
      <trkpt lat="44.26028" lon="1.13145">
        <ele>104</ele>
        <time>2012-03-11 09:27:32 +0000</time>
      </trkpt>
      <trkpt lat="44.2602" lon="1.13133">
        <ele>103</ele>
        <time>2012-03-11 09:27:36 +0000</time>
      </trkpt>
      <trkpt lat="44.26011" lon="1.1312">
        <ele>103</ele>
        <time>2012-03-11 09:27:40 +0000</time>
      </trkpt>
      <trkpt lat="44.26004" lon="1.13111">
        <ele>104</ele>
        <time>2012-03-11 09:27:43 +0000</time>
      </trkpt>
      <trkpt lat="44.25996" lon="1.13098">
        <ele>105</ele>
        <time>2012-03-11 09:27:47 +0000</time>
      </trkpt>
      <trkpt lat="44.25986" lon="1.13084">
        <ele>106</ele>
        <time>2012-03-11 09:27:51 +0000</time>
      </trkpt>
      <trkpt lat="44.25979" lon="1.13073">
        <ele>106</ele>
        <time>2012-03-11 09:27:54 +0000</time>
      </trkpt>
      <trkpt lat="44.2597" lon="1.13061">
        <ele>105</ele>
        <time>2012-03-11 09:27:58 +0000</time>
      </trkpt>
      <trkpt lat="44.25963" lon="1.13051">
        <ele>104</ele>
        <time>2012-03-11 09:28:01 +0000</time>
      </trkpt>
      <trkpt lat="44.25956" lon="1.1304">
        <ele>105</ele>
        <time>2012-03-11 09:28:04 +0000</time>
      </trkpt>
      <trkpt lat="44.25946" lon="1.13027">
        <ele>104</ele>
        <time>2012-03-11 09:28:08 +0000</time>
      </trkpt>
      <trkpt lat="44.25939" lon="1.13017">
        <ele>104</ele>
        <time>2012-03-11 09:28:11 +0000</time>
      </trkpt>
      <trkpt lat="44.2593" lon="1.13003">
        <ele>104</ele>
        <time>2012-03-11 09:28:15 +0000</time>
      </trkpt>
      <trkpt lat="44.2592" lon="1.1299">
        <ele>103</ele>
        <time>2012-03-11 09:28:19 +0000</time>
      </trkpt>
      <trkpt lat="44.25911" lon="1.12978">
        <ele>103</ele>
        <time>2012-03-11 09:28:23 +0000</time>
      </trkpt>
      <trkpt lat="44.25904" lon="1.12968">
        <ele>103</ele>
        <time>2012-03-11 09:28:26 +0000</time>
      </trkpt>
      <trkpt lat="44.25895" lon="1.12956">
        <ele>102</ele>
        <time>2012-03-11 09:28:30 +0000</time>
      </trkpt>
      <trkpt lat="44.25886" lon="1.12942">
        <ele>104</ele>
        <time>2012-03-11 09:28:34 +0000</time>
      </trkpt>
      <trkpt lat="44.25879" lon="1.12932">
        <ele>104</ele>
        <time>2012-03-11 09:28:37 +0000</time>
      </trkpt>
      <trkpt lat="44.2587" lon="1.12918">
        <ele>104</ele>
        <time>2012-03-11 09:28:41 +0000</time>
      </trkpt>
      <trkpt lat="44.25863" lon="1.12908">
        <ele>105</ele>
        <time>2012-03-11 09:28:44 +0000</time>
      </trkpt>
      <trkpt lat="44.25857" lon="1.12899">
        <ele>104</ele>
        <time>2012-03-11 09:28:47 +0000</time>
      </trkpt>
      <trkpt lat="44.25849" lon="1.1289">
        <ele>101</ele>
        <time>2012-03-11 09:28:51 +0000</time>
      </trkpt>
      <trkpt lat="44.25843" lon="1.12882">
        <ele>101</ele>
        <time>2012-03-11 09:28:55 +0000</time>
      </trkpt>
      <trkpt lat="44.2584" lon="1.12877">
        <ele>100</ele>
        <time>2012-03-11 09:28:58 +0000</time>
      </trkpt>
      <trkpt lat="44.2584" lon="1.12874">
        <ele>98</ele>
        <time>2012-03-11 09:29:02 +0000</time>
      </trkpt>
      <trkpt lat="44.25836" lon="1.12872">
        <ele>99</ele>
        <time>2012-03-11 09:29:05 +0000</time>
      </trkpt>
      <trkpt lat="44.25829" lon="1.12865">
        <ele>99</ele>
        <time>2012-03-11 09:29:09 +0000</time>
      </trkpt>
      <trkpt lat="44.25827" lon="1.12861">
        <ele>99</ele>
        <time>2012-03-11 09:29:13 +0000</time>
      </trkpt>
      <trkpt lat="44.25825" lon="1.12859">
        <ele>98</ele>
        <time>2012-03-11 09:29:16 +0000</time>
      </trkpt>
      <trkpt lat="44.25825" lon="1.12857">
        <ele>102</ele>
        <time>2012-03-11 09:29:20 +0000</time>
      </trkpt>
      <trkpt lat="44.25824" lon="1.12853">
        <ele>101</ele>
        <time>2012-03-11 09:29:24 +0000</time>
      </trkpt>
      <trkpt lat="44.25822" lon="1.12852">
        <ele>99</ele>
        <time>2012-03-11 09:29:27 +0000</time>
      </trkpt>
      <trkpt lat="44.25825" lon="1.12858">
        <ele>98</ele>
        <time>2012-03-11 09:29:31 +0000</time>
      </trkpt>
      <trkpt lat="44.25829" lon="1.12864">
        <ele>98</ele>
        <time>2012-03-11 09:29:34 +0000</time>
      </trkpt>
      <trkpt lat="44.25833" lon="1.1287">
        <ele>97</ele>
        <time>2012-03-11 09:29:38 +0000</time>
      </trkpt>
      <trkpt lat="44.25837" lon="1.12874">
        <ele>97</ele>
        <time>2012-03-11 09:29:41 +0000</time>
      </trkpt>
      <trkpt lat="44.25843" lon="1.12873">
        <ele>98</ele>
        <time>2012-03-11 09:29:45 +0000</time>
      </trkpt>
      <trkpt lat="44.25846" lon="1.12867">
        <ele>101</ele>
        <time>2012-03-11 09:29:48 +0000</time>
      </trkpt>
      <trkpt lat="44.25856" lon="1.12855">
        <ele>98</ele>
        <time>2012-03-11 09:29:52 +0000</time>
      </trkpt>
      <trkpt lat="44.25863" lon="1.1284">
        <ele>100</ele>
        <time>2012-03-11 09:29:56 +0000</time>
      </trkpt>
      <trkpt lat="44.25868" lon="1.12828">
        <ele>98</ele>
        <time>2012-03-11 09:30:00 +0000</time>
      </trkpt>
      <trkpt lat="44.25872" lon="1.12817">
        <ele>101</ele>
        <time>2012-03-11 09:30:03 +0000</time>
      </trkpt>
      <trkpt lat="44.25878" lon="1.12802">
        <ele>100</ele>
        <time>2012-03-11 09:30:07 +0000</time>
      </trkpt>
      <trkpt lat="44.25882" lon="1.12791">
        <ele>99</ele>
        <time>2012-03-11 09:30:10 +0000</time>
      </trkpt>
      <trkpt lat="44.25887" lon="1.12775">
        <ele>100</ele>
        <time>2012-03-11 09:30:14 +0000</time>
      </trkpt>
      <trkpt lat="44.25892" lon="1.1276">
        <ele>99</ele>
        <time>2012-03-11 09:30:18 +0000</time>
      </trkpt>
      <trkpt lat="44.25896" lon="1.12748">
        <ele>101</ele>
        <time>2012-03-11 09:30:21 +0000</time>
      </trkpt>
      <trkpt lat="44.25901" lon="1.12735">
        <ele>101</ele>
        <time>2012-03-11 09:30:24 +0000</time>
      </trkpt>
      <trkpt lat="44.25907" lon="1.12719">
        <ele>101</ele>
        <time>2012-03-11 09:30:28 +0000</time>
      </trkpt>
      <trkpt lat="44.25911" lon="1.12707">
        <ele>102</ele>
        <time>2012-03-11 09:30:31 +0000</time>
      </trkpt>
      <trkpt lat="44.25917" lon="1.12691">
        <ele>101</ele>
        <time>2012-03-11 09:30:35 +0000</time>
      </trkpt>
      <trkpt lat="44.25924" lon="1.12674">
        <ele>102</ele>
        <time>2012-03-11 09:30:39 +0000</time>
      </trkpt>
      <trkpt lat="44.25928" lon="1.12662">
        <ele>102</ele>
        <time>2012-03-11 09:30:42 +0000</time>
      </trkpt>
      <trkpt lat="44.25935" lon="1.12648">
        <ele>101</ele>
        <time>2012-03-11 09:30:46 +0000</time>
      </trkpt>
      <trkpt lat="44.25939" lon="1.12637">
        <ele>100</ele>
        <time>2012-03-11 09:30:49 +0000</time>
      </trkpt>
      <trkpt lat="44.25944" lon="1.12624">
        <ele>103</ele>
        <time>2012-03-11 09:30:52 +0000</time>
      </trkpt>
      <trkpt lat="44.25949" lon="1.1261">
        <ele>101</ele>
        <time>2012-03-11 09:30:56 +0000</time>
      </trkpt>
      <trkpt lat="44.25953" lon="1.12599">
        <ele>104</ele>
        <time>2012-03-11 09:30:59 +0000</time>
      </trkpt>
      <trkpt lat="44.25958" lon="1.12589">
        <ele>106</ele>
        <time>2012-03-11 09:31:02 +0000</time>
      </trkpt>
      <trkpt lat="44.25963" lon="1.12578">
        <ele>104</ele>
        <time>2012-03-11 09:31:06 +0000</time>
      </trkpt>
      <trkpt lat="44.25968" lon="1.12566">
        <ele>105</ele>
        <time>2012-03-11 09:31:10 +0000</time>
      </trkpt>
      <trkpt lat="44.25971" lon="1.12558">
        <ele>105</ele>
        <time>2012-03-11 09:31:13 +0000</time>
      </trkpt>
      <trkpt lat="44.25976" lon="1.12549">
        <ele>107</ele>
        <time>2012-03-11 09:31:17 +0000</time>
      </trkpt>
      <trkpt lat="44.25979" lon="1.1254">
        <ele>105</ele>
        <time>2012-03-11 09:31:21 +0000</time>
      </trkpt>
      <trkpt lat="44.25983" lon="1.12534">
        <ele>107</ele>
        <time>2012-03-11 09:31:24 +0000</time>
      </trkpt>
      <trkpt lat="44.25986" lon="1.12527">
        <ele>107</ele>
        <time>2012-03-11 09:31:27 +0000</time>
      </trkpt>
      <trkpt lat="44.25991" lon="1.1252">
        <ele>108</ele>
        <time>2012-03-11 09:31:31 +0000</time>
      </trkpt>
      <trkpt lat="44.25995" lon="1.12513">
        <ele>108</ele>
        <time>2012-03-11 09:31:34 +0000</time>
      </trkpt>
      <trkpt lat="44.25999" lon="1.12505">
        <ele>108</ele>
        <time>2012-03-11 09:31:38 +0000</time>
      </trkpt>
      <trkpt lat="44.26003" lon="1.12499">
        <ele>108</ele>
        <time>2012-03-11 09:31:41 +0000</time>
      </trkpt>
      <trkpt lat="44.26006" lon="1.12491">
        <ele>111</ele>
        <time>2012-03-11 09:31:44 +0000</time>
      </trkpt>
      <trkpt lat="44.26008" lon="1.1248">
        <ele>111</ele>
        <time>2012-03-11 09:31:48 +0000</time>
      </trkpt>
      <trkpt lat="44.26009" lon="1.1247">
        <ele>111</ele>
        <time>2012-03-11 09:31:52 +0000</time>
      </trkpt>
      <trkpt lat="44.2601" lon="1.12463">
        <ele>111</ele>
        <time>2012-03-11 09:31:55 +0000</time>
      </trkpt>
      <trkpt lat="44.26011" lon="1.12452">
        <ele>110</ele>
        <time>2012-03-11 09:31:59 +0000</time>
      </trkpt>
      <trkpt lat="44.26012" lon="1.12443">
        <ele>112</ele>
        <time>2012-03-11 09:32:02 +0000</time>
      </trkpt>
      <trkpt lat="44.26013" lon="1.12431">
        <ele>111</ele>
        <time>2012-03-11 09:32:06 +0000</time>
      </trkpt>
      <trkpt lat="44.26012" lon="1.12422">
        <ele>110</ele>
        <time>2012-03-11 09:32:09 +0000</time>
      </trkpt>
      <trkpt lat="44.26013" lon="1.12407">
        <ele>112</ele>
        <time>2012-03-11 09:32:13 +0000</time>
      </trkpt>
      <trkpt lat="44.26014" lon="1.12397">
        <ele>113</ele>
        <time>2012-03-11 09:32:16 +0000</time>
      </trkpt>
      <trkpt lat="44.26014" lon="1.12388">
        <ele>112</ele>
        <time>2012-03-11 09:32:19 +0000</time>
      </trkpt>
      <trkpt lat="44.26015" lon="1.12376">
        <ele>113</ele>
        <time>2012-03-11 09:32:23 +0000</time>
      </trkpt>
      <trkpt lat="44.26016" lon="1.12367">
        <ele>113</ele>
        <time>2012-03-11 09:32:26 +0000</time>
      </trkpt>
      <trkpt lat="44.26017" lon="1.12355">
        <ele>112</ele>
        <time>2012-03-11 09:32:30 +0000</time>
      </trkpt>
      <trkpt lat="44.26017" lon="1.12347">
        <ele>113</ele>
        <time>2012-03-11 09:32:33 +0000</time>
      </trkpt>
      <trkpt lat="44.26019" lon="1.12337">
        <ele>116</ele>
        <time>2012-03-11 09:32:37 +0000</time>
      </trkpt>
      <trkpt lat="44.26021" lon="1.1233">
        <ele>116</ele>
        <time>2012-03-11 09:32:40 +0000</time>
      </trkpt>
      <trkpt lat="44.26025" lon="1.12322">
        <ele>117</ele>
        <time>2012-03-11 09:32:44 +0000</time>
      </trkpt>
      <trkpt lat="44.26029" lon="1.12315">
        <ele>119</ele>
        <time>2012-03-11 09:32:47 +0000</time>
      </trkpt>
      <trkpt lat="44.26034" lon="1.12309">
        <ele>120</ele>
        <time>2012-03-11 09:32:51 +0000</time>
      </trkpt>
      <trkpt lat="44.26038" lon="1.12305">
        <ele>121</ele>
        <time>2012-03-11 09:32:54 +0000</time>
      </trkpt>
      <trkpt lat="44.26043" lon="1.12299">
        <ele>118</ele>
        <time>2012-03-11 09:32:58 +0000</time>
      </trkpt>
      <trkpt lat="44.26047" lon="1.12295">
        <ele>120</ele>
        <time>2012-03-11 09:33:01 +0000</time>
      </trkpt>
      <trkpt lat="44.26051" lon="1.12287">
        <ele>120</ele>
        <time>2012-03-11 09:33:05 +0000</time>
      </trkpt>
      <trkpt lat="44.26052" lon="1.12281">
        <ele>122</ele>
        <time>2012-03-11 09:33:08 +0000</time>
      </trkpt>
      <trkpt lat="44.26051" lon="1.12271">
        <ele>126</ele>
        <time>2012-03-11 09:33:12 +0000</time>
      </trkpt>
      <trkpt lat="44.26047" lon="1.12266">
        <ele>127</ele>
        <time>2012-03-11 09:33:15 +0000</time>
      </trkpt>
      <trkpt lat="44.26043" lon="1.12261">
        <ele>126</ele>
        <time>2012-03-11 09:33:19 +0000</time>
      </trkpt>
      <trkpt lat="44.2604" lon="1.12258">
        <ele>125</ele>
        <time>2012-03-11 09:33:22 +0000</time>
      </trkpt>
      <trkpt lat="44.26036" lon="1.12253">
        <ele>123</ele>
        <time>2012-03-11 09:33:26 +0000</time>
      </trkpt>
      <trkpt lat="44.26033" lon="1.12249">
        <ele>128</ele>
        <time>2012-03-11 09:33:29 +0000</time>
      </trkpt>
      <trkpt lat="44.2603" lon="1.12241">
        <ele>127</ele>
        <time>2012-03-11 09:33:33 +0000</time>
      </trkpt>
      <trkpt lat="44.26028" lon="1.12236">
        <ele>128</ele>
        <time>2012-03-11 09:33:36 +0000</time>
      </trkpt>
      <trkpt lat="44.26026" lon="1.1223">
        <ele>129</ele>
        <time>2012-03-11 09:33:40 +0000</time>
      </trkpt>
      <trkpt lat="44.26023" lon="1.12222">
        <ele>130</ele>
        <time>2012-03-11 09:33:44 +0000</time>
      </trkpt>
      <trkpt lat="44.26023" lon="1.12217">
        <ele>128</ele>
        <time>2012-03-11 09:33:47 +0000</time>
      </trkpt>
      <trkpt lat="44.26023" lon="1.1221">
        <ele>129</ele>
        <time>2012-03-11 09:33:51 +0000</time>
      </trkpt>
      <trkpt lat="44.26021" lon="1.12203">
        <ele>130</ele>
        <time>2012-03-11 09:33:54 +0000</time>
      </trkpt>
      <trkpt lat="44.26019" lon="1.12195">
        <ele>133</ele>
        <time>2012-03-11 09:33:58 +0000</time>
      </trkpt>
      <trkpt lat="44.26017" lon="1.12189">
        <ele>130</ele>
        <time>2012-03-11 09:34:01 +0000</time>
      </trkpt>
      <trkpt lat="44.26017" lon="1.12182">
        <ele>132</ele>
        <time>2012-03-11 09:34:05 +0000</time>
      </trkpt>
      <trkpt lat="44.26017" lon="1.12177">
        <ele>133</ele>
        <time>2012-03-11 09:34:08 +0000</time>
      </trkpt>
      <trkpt lat="44.26016" lon="1.12168">
        <ele>134</ele>
        <time>2012-03-11 09:34:12 +0000</time>
      </trkpt>
      <trkpt lat="44.26016" lon="1.12161">
        <ele>133</ele>
        <time>2012-03-11 09:34:16 +0000</time>
      </trkpt>
      <trkpt lat="44.26017" lon="1.12155">
        <ele>134</ele>
        <time>2012-03-11 09:34:19 +0000</time>
      </trkpt>
      <trkpt lat="44.26017" lon="1.12149">
        <ele>135</ele>
        <time>2012-03-11 09:34:23 +0000</time>
      </trkpt>
      <trkpt lat="44.2602" lon="1.12143">
        <ele>135</ele>
        <time>2012-03-11 09:34:27 +0000</time>
      </trkpt>
      <trkpt lat="44.26022" lon="1.1214">
        <ele>135</ele>
        <time>2012-03-11 09:34:30 +0000</time>
      </trkpt>
      <trkpt lat="44.26025" lon="1.12135">
        <ele>136</ele>
        <time>2012-03-11 09:34:34 +0000</time>
      </trkpt>
      <trkpt lat="44.26029" lon="1.12129">
        <ele>136</ele>
        <time>2012-03-11 09:34:38 +0000</time>
      </trkpt>
      <trkpt lat="44.26031" lon="1.12126">
        <ele>136</ele>
        <time>2012-03-11 09:34:41 +0000</time>
      </trkpt>
      <trkpt lat="44.26034" lon="1.12121">
        <ele>136</ele>
        <time>2012-03-11 09:34:45 +0000</time>
      </trkpt>
      <trkpt lat="44.26036" lon="1.12117">
        <ele>138</ele>
        <time>2012-03-11 09:34:48 +0000</time>
      </trkpt>
      <trkpt lat="44.26038" lon="1.12114">
        <ele>139</ele>
        <time>2012-03-11 09:34:51 +0000</time>
      </trkpt>
      <trkpt lat="44.26041" lon="1.12111">
        <ele>140</ele>
        <time>2012-03-11 09:34:54 +0000</time>
      </trkpt>
      <trkpt lat="44.26045" lon="1.12105">
        <ele>138</ele>
        <time>2012-03-11 09:34:58 +0000</time>
      </trkpt>
      <trkpt lat="44.26047" lon="1.121">
        <ele>140</ele>
        <time>2012-03-11 09:35:01 +0000</time>
      </trkpt>
      <trkpt lat="44.26051" lon="1.12094">
        <ele>140</ele>
        <time>2012-03-11 09:35:05 +0000</time>
      </trkpt>
      <trkpt lat="44.26052" lon="1.1209">
        <ele>140</ele>
        <time>2012-03-11 09:35:08 +0000</time>
      </trkpt>
      <trkpt lat="44.26057" lon="1.12085">
        <ele>142</ele>
        <time>2012-03-11 09:35:12 +0000</time>
      </trkpt>
      <trkpt lat="44.2606" lon="1.12079">
        <ele>144</ele>
        <time>2012-03-11 09:35:16 +0000</time>
      </trkpt>
      <trkpt lat="44.26062" lon="1.12074">
        <ele>144</ele>
        <time>2012-03-11 09:35:19 +0000</time>
      </trkpt>
      <trkpt lat="44.26064" lon="1.12069">
        <ele>144</ele>
        <time>2012-03-11 09:35:22 +0000</time>
      </trkpt>
      <trkpt lat="44.26067" lon="1.12065">
        <ele>146</ele>
        <time>2012-03-11 09:35:26 +0000</time>
      </trkpt>
      <trkpt lat="44.26069" lon="1.1206">
        <ele>147</ele>
        <time>2012-03-11 09:35:29 +0000</time>
      </trkpt>
      <trkpt lat="44.2607" lon="1.12054">
        <ele>147</ele>
        <time>2012-03-11 09:35:33 +0000</time>
      </trkpt>
      <trkpt lat="44.26072" lon="1.12049">
        <ele>147</ele>
        <time>2012-03-11 09:35:36 +0000</time>
      </trkpt>
      <trkpt lat="44.26073" lon="1.12041">
        <ele>149</ele>
        <time>2012-03-11 09:35:40 +0000</time>
      </trkpt>
      <trkpt lat="44.26073" lon="1.12036">
        <ele>148</ele>
        <time>2012-03-11 09:35:43 +0000</time>
      </trkpt>
      <trkpt lat="44.26073" lon="1.1203">
        <ele>148</ele>
        <time>2012-03-11 09:35:47 +0000</time>
      </trkpt>
      <trkpt lat="44.26073" lon="1.12024">
        <ele>148</ele>
        <time>2012-03-11 09:35:50 +0000</time>
      </trkpt>
      <trkpt lat="44.2607" lon="1.12019">
        <ele>149</ele>
        <time>2012-03-11 09:35:53 +0000</time>
      </trkpt>
      <trkpt lat="44.26069" lon="1.12011">
        <ele>151</ele>
        <time>2012-03-11 09:35:57 +0000</time>
      </trkpt>
      <trkpt lat="44.26069" lon="1.12006">
        <ele>150</ele>
        <time>2012-03-11 09:36:00 +0000</time>
      </trkpt>
      <trkpt lat="44.26068" lon="1.12">
        <ele>150</ele>
        <time>2012-03-11 09:36:04 +0000</time>
      </trkpt>
      <trkpt lat="44.26066" lon="1.11994">
        <ele>148</ele>
        <time>2012-03-11 09:36:07 +0000</time>
      </trkpt>
      <trkpt lat="44.26063" lon="1.11989">
        <ele>153</ele>
        <time>2012-03-11 09:36:11 +0000</time>
      </trkpt>
      <trkpt lat="44.26063" lon="1.11985">
        <ele>155</ele>
        <time>2012-03-11 09:36:14 +0000</time>
      </trkpt>
      <trkpt lat="44.26061" lon="1.11977">
        <ele>155</ele>
        <time>2012-03-11 09:36:18 +0000</time>
      </trkpt>
      <trkpt lat="44.26062" lon="1.1197">
        <ele>155</ele>
        <time>2012-03-11 09:36:22 +0000</time>
      </trkpt>
      <trkpt lat="44.26062" lon="1.11963">
        <ele>155</ele>
        <time>2012-03-11 09:36:26 +0000</time>
      </trkpt>
      <trkpt lat="44.26062" lon="1.11957">
        <ele>155</ele>
        <time>2012-03-11 09:36:29 +0000</time>
      </trkpt>
      <trkpt lat="44.26064" lon="1.11951">
        <ele>158</ele>
        <time>2012-03-11 09:36:33 +0000</time>
      </trkpt>
      <trkpt lat="44.26066" lon="1.11946">
        <ele>157</ele>
        <time>2012-03-11 09:36:36 +0000</time>
      </trkpt>
      <trkpt lat="44.26069" lon="1.11938">
        <ele>156</ele>
        <time>2012-03-11 09:36:40 +0000</time>
      </trkpt>
      <trkpt lat="44.26073" lon="1.11932">
        <ele>158</ele>
        <time>2012-03-11 09:36:44 +0000</time>
      </trkpt>
      <trkpt lat="44.26076" lon="1.11928">
        <ele>159</ele>
        <time>2012-03-11 09:36:47 +0000</time>
      </trkpt>
      <trkpt lat="44.26081" lon="1.11925">
        <ele>157</ele>
        <time>2012-03-11 09:36:51 +0000</time>
      </trkpt>
      <trkpt lat="44.26085" lon="1.11923">
        <ele>159</ele>
        <time>2012-03-11 09:36:54 +0000</time>
      </trkpt>
      <trkpt lat="44.26091" lon="1.11924">
        <ele>158</ele>
        <time>2012-03-11 09:36:58 +0000</time>
      </trkpt>
      <trkpt lat="44.26095" lon="1.11928">
        <ele>155</ele>
        <time>2012-03-11 09:37:01 +0000</time>
      </trkpt>
      <trkpt lat="44.26099" lon="1.11933">
        <ele>158</ele>
        <time>2012-03-11 09:37:05 +0000</time>
      </trkpt>
      <trkpt lat="44.26102" lon="1.11938">
        <ele>157</ele>
        <time>2012-03-11 09:37:09 +0000</time>
      </trkpt>
      <trkpt lat="44.26105" lon="1.11943">
        <ele>158</ele>
        <time>2012-03-11 09:37:12 +0000</time>
      </trkpt>
      <trkpt lat="44.26108" lon="1.11947">
        <ele>158</ele>
        <time>2012-03-11 09:37:16 +0000</time>
      </trkpt>
      <trkpt lat="44.2611" lon="1.11951">
        <ele>158</ele>
        <time>2012-03-11 09:37:19 +0000</time>
      </trkpt>
      <trkpt lat="44.26115" lon="1.11955">
        <ele>160</ele>
        <time>2012-03-11 09:37:23 +0000</time>
      </trkpt>
      <trkpt lat="44.2612" lon="1.11956">
        <ele>161</ele>
        <time>2012-03-11 09:37:26 +0000</time>
      </trkpt>
      <trkpt lat="44.26126" lon="1.11956">
        <ele>160</ele>
        <time>2012-03-11 09:37:30 +0000</time>
      </trkpt>
      <trkpt lat="44.26128" lon="1.11957">
        <ele>158</ele>
        <time>2012-03-11 09:37:33 +0000</time>
      </trkpt>
      <trkpt lat="44.2613" lon="1.11956">
        <ele>156</ele>
        <time>2012-03-11 09:37:36 +0000</time>
      </trkpt>
      <trkpt lat="44.26133" lon="1.11955">
        <ele>154</ele>
        <time>2012-03-11 09:37:40 +0000</time>
      </trkpt>
      <trkpt lat="44.26137" lon="1.11954">
        <ele>158</ele>
        <time>2012-03-11 09:37:43 +0000</time>
      </trkpt>
      <trkpt lat="44.26141" lon="1.11951">
        <ele>156</ele>
        <time>2012-03-11 09:37:47 +0000</time>
      </trkpt>
      <trkpt lat="44.26144" lon="1.1195">
        <ele>159</ele>
        <time>2012-03-11 09:37:50 +0000</time>
      </trkpt>
      <trkpt lat="44.26147" lon="1.11948">
        <ele>159</ele>
        <time>2012-03-11 09:37:53 +0000</time>
      </trkpt>
      <trkpt lat="44.2615" lon="1.11946">
        <ele>156</ele>
        <time>2012-03-11 09:37:57 +0000</time>
      </trkpt>
      <trkpt lat="44.26152" lon="1.11944">
        <ele>160</ele>
        <time>2012-03-11 09:38:00 +0000</time>
      </trkpt>
      <trkpt lat="44.26154" lon="1.11943">
        <ele>163</ele>
        <time>2012-03-11 09:38:04 +0000</time>
      </trkpt>
      <trkpt lat="44.26157" lon="1.11941">
        <ele>161</ele>
        <time>2012-03-11 09:38:08 +0000</time>
      </trkpt>
      <trkpt lat="44.2616" lon="1.11939">
        <ele>165</ele>
        <time>2012-03-11 09:38:11 +0000</time>
      </trkpt>
      <trkpt lat="44.26165" lon="1.11938">
        <ele>163</ele>
        <time>2012-03-11 09:38:15 +0000</time>
      </trkpt>
      <trkpt lat="44.26169" lon="1.11935">
        <ele>166</ele>
        <time>2012-03-11 09:38:19 +0000</time>
      </trkpt>
      <trkpt lat="44.26173" lon="1.11932">
        <ele>167</ele>
        <time>2012-03-11 09:38:23 +0000</time>
      </trkpt>
      <trkpt lat="44.26175" lon="1.1193">
        <ele>163</ele>
        <time>2012-03-11 09:38:26 +0000</time>
      </trkpt>
      <trkpt lat="44.26184" lon="1.11922">
        <ele>167</ele>
        <time>2012-03-11 09:38:30 +0000</time>
      </trkpt>
      <trkpt lat="44.26186" lon="1.11921">
        <ele>167</ele>
        <time>2012-03-11 09:38:33 +0000</time>
      </trkpt>
      <trkpt lat="44.2619" lon="1.11919">
        <ele>169</ele>
        <time>2012-03-11 09:38:36 +0000</time>
      </trkpt>
      <trkpt lat="44.26194" lon="1.11915">
        <ele>170</ele>
        <time>2012-03-11 09:38:40 +0000</time>
      </trkpt>
      <trkpt lat="44.26196" lon="1.11911">
        <ele>170</ele>
        <time>2012-03-11 09:38:43 +0000</time>
      </trkpt>
      <trkpt lat="44.26201" lon="1.11904">
        <ele>168</ele>
        <time>2012-03-11 09:38:47 +0000</time>
      </trkpt>
      <trkpt lat="44.26205" lon="1.11898">
        <ele>171</ele>
        <time>2012-03-11 09:38:51 +0000</time>
      </trkpt>
      <trkpt lat="44.26208" lon="1.11893">
        <ele>172</ele>
        <time>2012-03-11 09:38:54 +0000</time>
      </trkpt>
      <trkpt lat="44.26212" lon="1.11888">
        <ele>171</ele>
        <time>2012-03-11 09:38:58 +0000</time>
      </trkpt>
      <trkpt lat="44.26216" lon="1.11885">
        <ele>168</ele>
        <time>2012-03-11 09:39:01 +0000</time>
      </trkpt>
      <trkpt lat="44.26219" lon="1.11882">
        <ele>170</ele>
        <time>2012-03-11 09:39:04 +0000</time>
      </trkpt>
      <trkpt lat="44.26222" lon="1.11877">
        <ele>168</ele>
        <time>2012-03-11 09:39:08 +0000</time>
      </trkpt>
      <trkpt lat="44.26224" lon="1.11874">
        <ele>177</ele>
        <time>2012-03-11 09:39:11 +0000</time>
      </trkpt>
      <trkpt lat="44.26227" lon="1.1187">
        <ele>177</ele>
        <time>2012-03-11 09:39:15 +0000</time>
      </trkpt>
      <trkpt lat="44.26228" lon="1.11869">
        <ele>177</ele>
        <time>2012-03-11 09:39:18 +0000</time>
      </trkpt>
      <trkpt lat="44.26233" lon="1.11865">
        <ele>178</ele>
        <time>2012-03-11 09:39:22 +0000</time>
      </trkpt>
      <trkpt lat="44.26237" lon="1.1186">
        <ele>178</ele>
        <time>2012-03-11 09:39:26 +0000</time>
      </trkpt>
      <trkpt lat="44.26241" lon="1.11855">
        <ele>176</ele>
        <time>2012-03-11 09:39:29 +0000</time>
      </trkpt>
      <trkpt lat="44.26245" lon="1.11851">
        <ele>177</ele>
        <time>2012-03-11 09:39:33 +0000</time>
      </trkpt>
      <trkpt lat="44.26246" lon="1.11848">
        <ele>181</ele>
        <time>2012-03-11 09:39:36 +0000</time>
      </trkpt>
      <trkpt lat="44.26249" lon="1.11844">
        <ele>180</ele>
        <time>2012-03-11 09:39:40 +0000</time>
      </trkpt>
      <trkpt lat="44.26251" lon="1.1184">
        <ele>177</ele>
        <time>2012-03-11 09:39:43 +0000</time>
      </trkpt>
      <trkpt lat="44.26256" lon="1.11835">
        <ele>182</ele>
        <time>2012-03-11 09:39:47 +0000</time>
      </trkpt>
      <trkpt lat="44.26261" lon="1.1183">
        <ele>182</ele>
        <time>2012-03-11 09:39:50 +0000</time>
      </trkpt>
      <trkpt lat="44.26264" lon="1.11828">
        <ele>185</ele>
        <time>2012-03-11 09:39:53 +0000</time>
      </trkpt>
      <trkpt lat="44.26267" lon="1.11823">
        <ele>187</ele>
        <time>2012-03-11 09:39:57 +0000</time>
      </trkpt>
      <trkpt lat="44.2627" lon="1.11819">
        <ele>193</ele>
        <time>2012-03-11 09:40:01 +0000</time>
      </trkpt>
      <trkpt lat="44.26273" lon="1.11816">
        <ele>189</ele>
        <time>2012-03-11 09:40:04 +0000</time>
      </trkpt>
      <trkpt lat="44.26278" lon="1.11813">
        <ele>188</ele>
        <time>2012-03-11 09:40:08 +0000</time>
      </trkpt>
      <trkpt lat="44.26281" lon="1.1181">
        <ele>187</ele>
        <time>2012-03-11 09:40:11 +0000</time>
      </trkpt>
      <trkpt lat="44.26285" lon="1.11808">
        <ele>188</ele>
        <time>2012-03-11 09:40:15 +0000</time>
      </trkpt>
      <trkpt lat="44.2629" lon="1.11806">
        <ele>186</ele>
        <time>2012-03-11 09:40:18 +0000</time>
      </trkpt>
      <trkpt lat="44.26294" lon="1.11801">
        <ele>185</ele>
        <time>2012-03-11 09:40:22 +0000</time>
      </trkpt>
      <trkpt lat="44.26298" lon="1.11798">
        <ele>187</ele>
        <time>2012-03-11 09:40:25 +0000</time>
      </trkpt>
      <trkpt lat="44.26301" lon="1.11795">
        <ele>187</ele>
        <time>2012-03-11 09:40:28 +0000</time>
      </trkpt>
      <trkpt lat="44.26305" lon="1.11791">
        <ele>190</ele>
        <time>2012-03-11 09:40:32 +0000</time>
      </trkpt>
      <trkpt lat="44.26307" lon="1.11789">
        <ele>191</ele>
        <time>2012-03-11 09:40:35 +0000</time>
      </trkpt>
      <trkpt lat="44.26313" lon="1.11786">
        <ele>189</ele>
        <time>2012-03-11 09:40:39 +0000</time>
      </trkpt>
      <trkpt lat="44.26319" lon="1.11782">
        <ele>187</ele>
        <time>2012-03-11 09:40:42 +0000</time>
      </trkpt>
      <trkpt lat="44.26327" lon="1.11777">
        <ele>189</ele>
        <time>2012-03-11 09:40:46 +0000</time>
      </trkpt>
      <trkpt lat="44.26333" lon="1.11775">
        <ele>192</ele>
        <time>2012-03-11 09:40:50 +0000</time>
      </trkpt>
      <trkpt lat="44.26339" lon="1.11772">
        <ele>189</ele>
        <time>2012-03-11 09:40:53 +0000</time>
      </trkpt>
      <trkpt lat="44.26346" lon="1.1177">
        <ele>186</ele>
        <time>2012-03-11 09:40:57 +0000</time>
      </trkpt>
      <trkpt lat="44.2635" lon="1.1177">
        <ele>182</ele>
        <time>2012-03-11 09:41:00 +0000</time>
      </trkpt>
      <trkpt lat="44.26354" lon="1.11768">
        <ele>179</ele>
        <time>2012-03-11 09:41:03 +0000</time>
      </trkpt>
      <trkpt lat="44.26361" lon="1.11766">
        <ele>180</ele>
        <time>2012-03-11 09:41:07 +0000</time>
      </trkpt>
      <trkpt lat="44.26367" lon="1.11765">
        <ele>185</ele>
        <time>2012-03-11 09:41:10 +0000</time>
      </trkpt>
      <trkpt lat="44.26376" lon="1.11764">
        <ele>186</ele>
        <time>2012-03-11 09:41:14 +0000</time>
      </trkpt>
      <trkpt lat="44.26381" lon="1.11762">
        <ele>188</ele>
        <time>2012-03-11 09:41:17 +0000</time>
      </trkpt>
      <trkpt lat="44.26389" lon="1.11762">
        <ele>188</ele>
        <time>2012-03-11 09:41:21 +0000</time>
      </trkpt>
      <trkpt lat="44.26395" lon="1.11761">
        <ele>187</ele>
        <time>2012-03-11 09:41:24 +0000</time>
      </trkpt>
      <trkpt lat="44.26403" lon="1.11759">
        <ele>189</ele>
        <time>2012-03-11 09:41:28 +0000</time>
      </trkpt>
      <trkpt lat="44.26407" lon="1.11759">
        <ele>190</ele>
        <time>2012-03-11 09:41:31 +0000</time>
      </trkpt>
      <trkpt lat="44.26413" lon="1.11758">
        <ele>189</ele>
        <time>2012-03-11 09:41:35 +0000</time>
      </trkpt>
      <trkpt lat="44.26421" lon="1.11757">
        <ele>194</ele>
        <time>2012-03-11 09:41:39 +0000</time>
      </trkpt>
      <trkpt lat="44.26426" lon="1.11757">
        <ele>194</ele>
        <time>2012-03-11 09:41:42 +0000</time>
      </trkpt>
      <trkpt lat="44.26434" lon="1.11757">
        <ele>193</ele>
        <time>2012-03-11 09:41:46 +0000</time>
      </trkpt>
      <trkpt lat="44.26439" lon="1.11757">
        <ele>193</ele>
        <time>2012-03-11 09:41:49 +0000</time>
      </trkpt>
      <trkpt lat="44.26446" lon="1.11758">
        <ele>196</ele>
        <time>2012-03-11 09:41:53 +0000</time>
      </trkpt>
      <trkpt lat="44.26452" lon="1.11757">
        <ele>194</ele>
        <time>2012-03-11 09:41:57 +0000</time>
      </trkpt>
      <trkpt lat="44.26458" lon="1.11756">
        <ele>192</ele>
        <time>2012-03-11 09:42:00 +0000</time>
      </trkpt>
      <trkpt lat="44.26464" lon="1.11757">
        <ele>196</ele>
        <time>2012-03-11 09:42:04 +0000</time>
      </trkpt>
      <trkpt lat="44.26471" lon="1.11758">
        <ele>196</ele>
        <time>2012-03-11 09:42:08 +0000</time>
      </trkpt>
      <trkpt lat="44.26475" lon="1.11759">
        <ele>198</ele>
        <time>2012-03-11 09:42:11 +0000</time>
      </trkpt>
      <trkpt lat="44.2648" lon="1.11759">
        <ele>193</ele>
        <time>2012-03-11 09:42:15 +0000</time>
      </trkpt>
      <trkpt lat="44.26485" lon="1.1176">
        <ele>190</ele>
        <time>2012-03-11 09:42:18 +0000</time>
      </trkpt>
      <trkpt lat="44.26491" lon="1.1176">
        <ele>197</ele>
        <time>2012-03-11 09:42:22 +0000</time>
      </trkpt>
      <trkpt lat="44.26498" lon="1.11761">
        <ele>200</ele>
        <time>2012-03-11 09:42:26 +0000</time>
      </trkpt>
      <trkpt lat="44.26502" lon="1.11761">
        <ele>202</ele>
        <time>2012-03-11 09:42:29 +0000</time>
      </trkpt>
      <trkpt lat="44.26507" lon="1.11759">
        <ele>203</ele>
        <time>2012-03-11 09:42:33 +0000</time>
      </trkpt>
      <trkpt lat="44.26511" lon="1.11758">
        <ele>204</ele>
        <time>2012-03-11 09:42:36 +0000</time>
      </trkpt>
      <trkpt lat="44.26516" lon="1.11756">
        <ele>202</ele>
        <time>2012-03-11 09:42:40 +0000</time>
      </trkpt>
      <trkpt lat="44.26519" lon="1.11754">
        <ele>202</ele>
        <time>2012-03-11 09:42:43 +0000</time>
      </trkpt>
      <trkpt lat="44.26524" lon="1.11751">
        <ele>200</ele>
        <time>2012-03-11 09:42:47 +0000</time>
      </trkpt>
      <trkpt lat="44.26527" lon="1.11749">
        <ele>200</ele>
        <time>2012-03-11 09:42:50 +0000</time>
      </trkpt>
      <trkpt lat="44.26532" lon="1.11745">
        <ele>201</ele>
        <time>2012-03-11 09:42:54 +0000</time>
      </trkpt>
      <trkpt lat="44.26535" lon="1.11743">
        <ele>202</ele>
        <time>2012-03-11 09:42:57 +0000</time>
      </trkpt>
      <trkpt lat="44.26539" lon="1.1174">
        <ele>202</ele>
        <time>2012-03-11 09:43:01 +0000</time>
      </trkpt>
      <trkpt lat="44.26542" lon="1.11735">
        <ele>203</ele>
        <time>2012-03-11 09:43:04 +0000</time>
      </trkpt>
      <trkpt lat="44.26546" lon="1.11732">
        <ele>204</ele>
        <time>2012-03-11 09:43:08 +0000</time>
      </trkpt>
      <trkpt lat="44.26549" lon="1.11729">
        <ele>203</ele>
        <time>2012-03-11 09:43:11 +0000</time>
      </trkpt>
      <trkpt lat="44.26552" lon="1.11726">
        <ele>204</ele>
        <time>2012-03-11 09:43:14 +0000</time>
      </trkpt>
      <trkpt lat="44.26556" lon="1.11721">
        <ele>203</ele>
        <time>2012-03-11 09:43:18 +0000</time>
      </trkpt>
      <trkpt lat="44.26558" lon="1.11719">
        <ele>205</ele>
        <time>2012-03-11 09:43:21 +0000</time>
      </trkpt>
      <trkpt lat="44.26564" lon="1.11714">
        <ele>205</ele>
        <time>2012-03-11 09:43:25 +0000</time>
      </trkpt>
      <trkpt lat="44.26569" lon="1.1171">
        <ele>208</ele>
        <time>2012-03-11 09:43:29 +0000</time>
      </trkpt>
      <trkpt lat="44.26572" lon="1.11707">
        <ele>203</ele>
        <time>2012-03-11 09:43:32 +0000</time>
      </trkpt>
      <trkpt lat="44.26578" lon="1.11703">
        <ele>203</ele>
        <time>2012-03-11 09:43:36 +0000</time>
      </trkpt>
      <trkpt lat="44.26581" lon="1.117">
        <ele>203</ele>
        <time>2012-03-11 09:43:39 +0000</time>
      </trkpt>
      <trkpt lat="44.26588" lon="1.11698">
        <ele>208</ele>
        <time>2012-03-11 09:43:43 +0000</time>
      </trkpt>
      <trkpt lat="44.26595" lon="1.11696">
        <ele>208</ele>
        <time>2012-03-11 09:43:47 +0000</time>
      </trkpt>
      <trkpt lat="44.26599" lon="1.11694">
        <ele>209</ele>
        <time>2012-03-11 09:43:50 +0000</time>
      </trkpt>
      <trkpt lat="44.26606" lon="1.11693">
        <ele>210</ele>
        <time>2012-03-11 09:43:54 +0000</time>
      </trkpt>
      <trkpt lat="44.26612" lon="1.1169">
        <ele>210</ele>
        <time>2012-03-11 09:43:58 +0000</time>
      </trkpt>
      <trkpt lat="44.26617" lon="1.11688">
        <ele>209</ele>
        <time>2012-03-11 09:44:01 +0000</time>
      </trkpt>
      <trkpt lat="44.26623" lon="1.11686">
        <ele>209</ele>
        <time>2012-03-11 09:44:05 +0000</time>
      </trkpt>
      <trkpt lat="44.26629" lon="1.11683">
        <ele>211</ele>
        <time>2012-03-11 09:44:08 +0000</time>
      </trkpt>
      <trkpt lat="44.26634" lon="1.1168">
        <ele>210</ele>
        <time>2012-03-11 09:44:11 +0000</time>
      </trkpt>
      <trkpt lat="44.26642" lon="1.11677">
        <ele>211</ele>
        <time>2012-03-11 09:44:15 +0000</time>
      </trkpt>
      <trkpt lat="44.26648" lon="1.11675">
        <ele>211</ele>
        <time>2012-03-11 09:44:18 +0000</time>
      </trkpt>
      <trkpt lat="44.26655" lon="1.11673">
        <ele>210</ele>
        <time>2012-03-11 09:44:22 +0000</time>
      </trkpt>
      <trkpt lat="44.26662" lon="1.1167">
        <ele>212</ele>
        <time>2012-03-11 09:44:26 +0000</time>
      </trkpt>
      <trkpt lat="44.2667" lon="1.11666">
        <ele>211</ele>
        <time>2012-03-11 09:44:30 +0000</time>
      </trkpt>
      <trkpt lat="44.26679" lon="1.11663">
        <ele>213</ele>
        <time>2012-03-11 09:44:34 +0000</time>
      </trkpt>
      <trkpt lat="44.26685" lon="1.1166">
        <ele>211</ele>
        <time>2012-03-11 09:44:37 +0000</time>
      </trkpt>
      <trkpt lat="44.26693" lon="1.11656">
        <ele>211</ele>
        <time>2012-03-11 09:44:41 +0000</time>
      </trkpt>
      <trkpt lat="44.267" lon="1.11654">
        <ele>212</ele>
        <time>2012-03-11 09:44:44 +0000</time>
      </trkpt>
      <trkpt lat="44.26708" lon="1.11652">
        <ele>213</ele>
        <time>2012-03-11 09:44:48 +0000</time>
      </trkpt>
      <trkpt lat="44.26714" lon="1.11652">
        <ele>212</ele>
        <time>2012-03-11 09:44:51 +0000</time>
      </trkpt>
      <trkpt lat="44.2672" lon="1.11652">
        <ele>211</ele>
        <time>2012-03-11 09:44:54 +0000</time>
      </trkpt>
      <trkpt lat="44.26729" lon="1.11651">
        <ele>211</ele>
        <time>2012-03-11 09:44:58 +0000</time>
      </trkpt>
      <trkpt lat="44.26735" lon="1.1165">
        <ele>212</ele>
        <time>2012-03-11 09:45:01 +0000</time>
      </trkpt>
      <trkpt lat="44.26741" lon="1.11648">
        <ele>208</ele>
        <time>2012-03-11 09:45:04 +0000</time>
      </trkpt>
      <trkpt lat="44.26747" lon="1.11647">
        <ele>211</ele>
        <time>2012-03-11 09:45:08 +0000</time>
      </trkpt>
      <trkpt lat="44.26754" lon="1.11645">
        <ele>208</ele>
        <time>2012-03-11 09:45:12 +0000</time>
      </trkpt>
      <trkpt lat="44.26762" lon="1.11645">
        <ele>211</ele>
        <time>2012-03-11 09:45:16 +0000</time>
      </trkpt>
      <trkpt lat="44.26767" lon="1.11644">
        <ele>211</ele>
        <time>2012-03-11 09:45:19 +0000</time>
      </trkpt>
      <trkpt lat="44.26772" lon="1.11644">
        <ele>212</ele>
        <time>2012-03-11 09:45:22 +0000</time>
      </trkpt>
      <trkpt lat="44.26778" lon="1.11643">
        <ele>212</ele>
        <time>2012-03-11 09:45:26 +0000</time>
      </trkpt>
      <trkpt lat="44.26784" lon="1.11642">
        <ele>214</ele>
        <time>2012-03-11 09:45:29 +0000</time>
      </trkpt>
      <trkpt lat="44.2679" lon="1.11641">
        <ele>216</ele>
        <time>2012-03-11 09:45:32 +0000</time>
      </trkpt>
      <trkpt lat="44.26796" lon="1.11633">
        <ele>218</ele>
        <time>2012-03-11 09:45:36 +0000</time>
      </trkpt>
      <trkpt lat="44.26801" lon="1.11627">
        <ele>220</ele>
        <time>2012-03-11 09:45:40 +0000</time>
      </trkpt>
      <trkpt lat="44.26806" lon="1.11623">
        <ele>218</ele>
        <time>2012-03-11 09:45:43 +0000</time>
      </trkpt>
      <trkpt lat="44.26812" lon="1.11619">
        <ele>217</ele>
        <time>2012-03-11 09:45:46 +0000</time>
      </trkpt>
      <trkpt lat="44.26817" lon="1.11614">
        <ele>219</ele>
        <time>2012-03-11 09:45:49 +0000</time>
      </trkpt>
      <trkpt lat="44.26825" lon="1.11608">
        <ele>216</ele>
        <time>2012-03-11 09:45:53 +0000</time>
      </trkpt>
      <trkpt lat="44.2683" lon="1.11605">
        <ele>215</ele>
        <time>2012-03-11 09:45:56 +0000</time>
      </trkpt>
      <trkpt lat="44.26838" lon="1.116">
        <ele>216</ele>
        <time>2012-03-11 09:46:00 +0000</time>
      </trkpt>
      <trkpt lat="44.26845" lon="1.11595">
        <ele>213</ele>
        <time>2012-03-11 09:46:04 +0000</time>
      </trkpt>
      <trkpt lat="44.26852" lon="1.11593">
        <ele>219</ele>
        <time>2012-03-11 09:46:07 +0000</time>
      </trkpt>
      <trkpt lat="44.26859" lon="1.11591">
        <ele>218</ele>
        <time>2012-03-11 09:46:11 +0000</time>
      </trkpt>
      <trkpt lat="44.26865" lon="1.11588">
        <ele>215</ele>
        <time>2012-03-11 09:46:14 +0000</time>
      </trkpt>
      <trkpt lat="44.26874" lon="1.11586">
        <ele>217</ele>
        <time>2012-03-11 09:46:18 +0000</time>
      </trkpt>
      <trkpt lat="44.26881" lon="1.11584">
        <ele>216</ele>
        <time>2012-03-11 09:46:21 +0000</time>
      </trkpt>
      <trkpt lat="44.26888" lon="1.11582">
        <ele>217</ele>
        <time>2012-03-11 09:46:24 +0000</time>
      </trkpt>
      <trkpt lat="44.26896" lon="1.11579">
        <ele>217</ele>
        <time>2012-03-11 09:46:27 +0000</time>
      </trkpt>
      <trkpt lat="44.26906" lon="1.11575">
        <ele>218</ele>
        <time>2012-03-11 09:46:31 +0000</time>
      </trkpt>
      <trkpt lat="44.26913" lon="1.1157">
        <ele>216</ele>
        <time>2012-03-11 09:46:34 +0000</time>
      </trkpt>
      <trkpt lat="44.26922" lon="1.11563">
        <ele>215</ele>
        <time>2012-03-11 09:46:38 +0000</time>
      </trkpt>
      <trkpt lat="44.26931" lon="1.11553">
        <ele>218</ele>
        <time>2012-03-11 09:46:42 +0000</time>
      </trkpt>
      <trkpt lat="44.2694" lon="1.11543">
        <ele>219</ele>
        <time>2012-03-11 09:46:45 +0000</time>
      </trkpt>
      <trkpt lat="44.26951" lon="1.11526">
        <ele>223</ele>
        <time>2012-03-11 09:46:49 +0000</time>
      </trkpt>
      <trkpt lat="44.26961" lon="1.11513">
        <ele>221</ele>
        <time>2012-03-11 09:46:53 +0000</time>
      </trkpt>
      <trkpt lat="44.26968" lon="1.11501">
        <ele>219</ele>
        <time>2012-03-11 09:46:56 +0000</time>
      </trkpt>
      <trkpt lat="44.26976" lon="1.1149">
        <ele>220</ele>
        <time>2012-03-11 09:46:59 +0000</time>
      </trkpt>
      <trkpt lat="44.26986" lon="1.11478">
        <ele>220</ele>
        <time>2012-03-11 09:47:03 +0000</time>
      </trkpt>
      <trkpt lat="44.26995" lon="1.11474">
        <ele>219</ele>
        <time>2012-03-11 09:47:06 +0000</time>
      </trkpt>
      <trkpt lat="44.27006" lon="1.11476">
        <ele>219</ele>
        <time>2012-03-11 09:47:10 +0000</time>
      </trkpt>
      <trkpt lat="44.27013" lon="1.1148">
        <ele>218</ele>
        <time>2012-03-11 09:47:13 +0000</time>
      </trkpt>
      <trkpt lat="44.27023" lon="1.11486">
        <ele>219</ele>
        <time>2012-03-11 09:47:17 +0000</time>
      </trkpt>
      <trkpt lat="44.27029" lon="1.11492">
        <ele>221</ele>
        <time>2012-03-11 09:47:20 +0000</time>
      </trkpt>
      <trkpt lat="44.27039" lon="1.11498">
        <ele>222</ele>
        <time>2012-03-11 09:47:24 +0000</time>
      </trkpt>
      <trkpt lat="44.27044" lon="1.11503">
        <ele>223</ele>
        <time>2012-03-11 09:47:27 +0000</time>
      </trkpt>
      <trkpt lat="44.2705" lon="1.11509">
        <ele>224</ele>
        <time>2012-03-11 09:47:31 +0000</time>
      </trkpt>
      <trkpt lat="44.27056" lon="1.11515">
        <ele>225</ele>
        <time>2012-03-11 09:47:35 +0000</time>
      </trkpt>
      <trkpt lat="44.2706" lon="1.11519">
        <ele>224</ele>
        <time>2012-03-11 09:47:38 +0000</time>
      </trkpt>
      <trkpt lat="44.27066" lon="1.11523">
        <ele>225</ele>
        <time>2012-03-11 09:47:42 +0000</time>
      </trkpt>
      <trkpt lat="44.27071" lon="1.11525">
        <ele>226</ele>
        <time>2012-03-11 09:47:45 +0000</time>
      </trkpt>
      <trkpt lat="44.27076" lon="1.11528">
        <ele>226</ele>
        <time>2012-03-11 09:47:48 +0000</time>
      </trkpt>
      <trkpt lat="44.27082" lon="1.11531">
        <ele>227</ele>
        <time>2012-03-11 09:47:52 +0000</time>
      </trkpt>
      <trkpt lat="44.27089" lon="1.11534">
        <ele>227</ele>
        <time>2012-03-11 09:47:56 +0000</time>
      </trkpt>
      <trkpt lat="44.27095" lon="1.11536">
        <ele>227</ele>
        <time>2012-03-11 09:47:59 +0000</time>
      </trkpt>
      <trkpt lat="44.27101" lon="1.11537">
        <ele>228</ele>
        <time>2012-03-11 09:48:03 +0000</time>
      </trkpt>
      <trkpt lat="44.27106" lon="1.11536">
        <ele>231</ele>
        <time>2012-03-11 09:48:06 +0000</time>
      </trkpt>
      <trkpt lat="44.27112" lon="1.11532">
        <ele>229</ele>
        <time>2012-03-11 09:48:09 +0000</time>
      </trkpt>
      <trkpt lat="44.27118" lon="1.11528">
        <ele>230</ele>
        <time>2012-03-11 09:48:13 +0000</time>
      </trkpt>
      <trkpt lat="44.27123" lon="1.11521">
        <ele>233</ele>
        <time>2012-03-11 09:48:16 +0000</time>
      </trkpt>
      <trkpt lat="44.27128" lon="1.11513">
        <ele>232</ele>
        <time>2012-03-11 09:48:20 +0000</time>
      </trkpt>
      <trkpt lat="44.27131" lon="1.11507">
        <ele>231</ele>
        <time>2012-03-11 09:48:23 +0000</time>
      </trkpt>
      <trkpt lat="44.27136" lon="1.11496">
        <ele>232</ele>
        <time>2012-03-11 09:48:27 +0000</time>
      </trkpt>
      <trkpt lat="44.2714" lon="1.11486">
        <ele>233</ele>
        <time>2012-03-11 09:48:30 +0000</time>
      </trkpt>
      <trkpt lat="44.27144" lon="1.11475">
        <ele>234</ele>
        <time>2012-03-11 09:48:34 +0000</time>
      </trkpt>
      <trkpt lat="44.27148" lon="1.11465">
        <ele>235</ele>
        <time>2012-03-11 09:48:37 +0000</time>
      </trkpt>
      <trkpt lat="44.27154" lon="1.11453">
        <ele>233</ele>
        <time>2012-03-11 09:48:41 +0000</time>
      </trkpt>
      <trkpt lat="44.2716" lon="1.11442">
        <ele>232</ele>
        <time>2012-03-11 09:48:45 +0000</time>
      </trkpt>
      <trkpt lat="44.27164" lon="1.11434">
        <ele>232</ele>
        <time>2012-03-11 09:48:48 +0000</time>
      </trkpt>
      <trkpt lat="44.27169" lon="1.1142">
        <ele>234</ele>
        <time>2012-03-11 09:48:52 +0000</time>
      </trkpt>
      <trkpt lat="44.27174" lon="1.11407">
        <ele>230</ele>
        <time>2012-03-11 09:48:56 +0000</time>
      </trkpt>
      <trkpt lat="44.27179" lon="1.11398">
        <ele>232</ele>
        <time>2012-03-11 09:48:59 +0000</time>
      </trkpt>
      <trkpt lat="44.27184" lon="1.1139">
        <ele>231</ele>
        <time>2012-03-11 09:49:02 +0000</time>
      </trkpt>
      <trkpt lat="44.27189" lon="1.11383">
        <ele>231</ele>
        <time>2012-03-11 09:49:05 +0000</time>
      </trkpt>
      <trkpt lat="44.27195" lon="1.1137">
        <ele>227</ele>
        <time>2012-03-11 09:49:09 +0000</time>
      </trkpt>
      <trkpt lat="44.272" lon="1.11359">
        <ele>228</ele>
        <time>2012-03-11 09:49:12 +0000</time>
      </trkpt>
      <trkpt lat="44.27206" lon="1.11345">
        <ele>228</ele>
        <time>2012-03-11 09:49:16 +0000</time>
      </trkpt>
      <trkpt lat="44.27212" lon="1.11332">
        <ele>228</ele>
        <time>2012-03-11 09:49:21 +0000</time>
      </trkpt>
      <trkpt lat="44.2722" lon="1.11318">
        <ele>228</ele>
        <time>2012-03-11 09:49:24 +0000</time>
      </trkpt>
      <trkpt lat="44.27229" lon="1.11304">
        <ele>230</ele>
        <time>2012-03-11 09:49:28 +0000</time>
      </trkpt>
      <trkpt lat="44.27235" lon="1.11295">
        <ele>230</ele>
        <time>2012-03-11 09:49:31 +0000</time>
      </trkpt>
      <trkpt lat="44.27244" lon="1.11281">
        <ele>231</ele>
        <time>2012-03-11 09:49:35 +0000</time>
      </trkpt>
      <trkpt lat="44.27253" lon="1.11268">
        <ele>230</ele>
        <time>2012-03-11 09:49:39 +0000</time>
      </trkpt>
      <trkpt lat="44.2726" lon="1.11257">
        <ele>232</ele>
        <time>2012-03-11 09:49:42 +0000</time>
      </trkpt>
      <trkpt lat="44.27266" lon="1.11248">
        <ele>232</ele>
        <time>2012-03-11 09:49:45 +0000</time>
      </trkpt>
      <trkpt lat="44.27274" lon="1.11237">
        <ele>232</ele>
        <time>2012-03-11 09:49:49 +0000</time>
      </trkpt>
      <trkpt lat="44.27282" lon="1.11226">
        <ele>230</ele>
        <time>2012-03-11 09:49:53 +0000</time>
      </trkpt>
      <trkpt lat="44.27288" lon="1.11218">
        <ele>230</ele>
        <time>2012-03-11 09:49:56 +0000</time>
      </trkpt>
      <trkpt lat="44.27296" lon="1.11206">
        <ele>230</ele>
        <time>2012-03-11 09:50:00 +0000</time>
      </trkpt>
      <trkpt lat="44.27306" lon="1.11194">
        <ele>234</ele>
        <time>2012-03-11 09:50:04 +0000</time>
      </trkpt>
      <trkpt lat="44.27313" lon="1.11186">
        <ele>233</ele>
        <time>2012-03-11 09:50:07 +0000</time>
      </trkpt>
      <trkpt lat="44.27322" lon="1.11175">
        <ele>233</ele>
        <time>2012-03-11 09:50:11 +0000</time>
      </trkpt>
      <trkpt lat="44.27329" lon="1.11167">
        <ele>234</ele>
        <time>2012-03-11 09:50:14 +0000</time>
      </trkpt>
      <trkpt lat="44.27338" lon="1.11155">
        <ele>234</ele>
        <time>2012-03-11 09:50:18 +0000</time>
      </trkpt>
      <trkpt lat="44.27345" lon="1.11146">
        <ele>234</ele>
        <time>2012-03-11 09:50:21 +0000</time>
      </trkpt>
      <trkpt lat="44.27355" lon="1.11135">
        <ele>232</ele>
        <time>2012-03-11 09:50:25 +0000</time>
      </trkpt>
      <trkpt lat="44.27364" lon="1.11123">
        <ele>231</ele>
        <time>2012-03-11 09:50:29 +0000</time>
      </trkpt>
      <trkpt lat="44.27374" lon="1.11112">
        <ele>231</ele>
        <time>2012-03-11 09:50:33 +0000</time>
      </trkpt>
      <trkpt lat="44.27381" lon="1.11104">
        <ele>235</ele>
        <time>2012-03-11 09:50:36 +0000</time>
      </trkpt>
      <trkpt lat="44.27387" lon="1.11096">
        <ele>233</ele>
        <time>2012-03-11 09:50:40 +0000</time>
      </trkpt>
      <trkpt lat="44.27394" lon="1.11086">
        <ele>231</ele>
        <time>2012-03-11 09:50:43 +0000</time>
      </trkpt>
      <trkpt lat="44.27399" lon="1.1108">
        <ele>231</ele>
        <time>2012-03-11 09:50:46 +0000</time>
      </trkpt>
      <trkpt lat="44.27408" lon="1.11073">
        <ele>232</ele>
        <time>2012-03-11 09:50:50 +0000</time>
      </trkpt>
      <trkpt lat="44.27416" lon="1.11071">
        <ele>231</ele>
        <time>2012-03-11 09:50:53 +0000</time>
      </trkpt>
      <trkpt lat="44.27427" lon="1.11074">
        <ele>231</ele>
        <time>2012-03-11 09:50:57 +0000</time>
      </trkpt>
      <trkpt lat="44.27435" lon="1.11078">
        <ele>230</ele>
        <time>2012-03-11 09:51:00 +0000</time>
      </trkpt>
      <trkpt lat="44.27446" lon="1.11083">
        <ele>230</ele>
        <time>2012-03-11 09:51:04 +0000</time>
      </trkpt>
      <trkpt lat="44.27458" lon="1.1109">
        <ele>232</ele>
        <time>2012-03-11 09:51:08 +0000</time>
      </trkpt>
      <trkpt lat="44.27472" lon="1.11097">
        <ele>232</ele>
        <time>2012-03-11 09:51:12 +0000</time>
      </trkpt>
      <trkpt lat="44.27488" lon="1.11105">
        <ele>229</ele>
        <time>2012-03-11 09:51:16 +0000</time>
      </trkpt>
      <trkpt lat="44.275" lon="1.11113">
        <ele>228</ele>
        <time>2012-03-11 09:51:19 +0000</time>
      </trkpt>
      <trkpt lat="44.27514" lon="1.11123">
        <ele>229</ele>
        <time>2012-03-11 09:51:22 +0000</time>
      </trkpt>
      <trkpt lat="44.27534" lon="1.11137">
        <ele>229</ele>
        <time>2012-03-11 09:51:26 +0000</time>
      </trkpt>
      <trkpt lat="44.27554" lon="1.11152">
        <ele>231</ele>
        <time>2012-03-11 09:51:30 +0000</time>
      </trkpt>
      <trkpt lat="44.27568" lon="1.11163">
        <ele>232</ele>
        <time>2012-03-11 09:51:33 +0000</time>
      </trkpt>
      <trkpt lat="44.27586" lon="1.11177">
        <ele>231</ele>
        <time>2012-03-11 09:51:37 +0000</time>
      </trkpt>
      <trkpt lat="44.27602" lon="1.1119">
        <ele>232</ele>
        <time>2012-03-11 09:51:41 +0000</time>
      </trkpt>
      <trkpt lat="44.27613" lon="1.11199">
        <ele>233</ele>
        <time>2012-03-11 09:51:44 +0000</time>
      </trkpt>
      <trkpt lat="44.27625" lon="1.11209">
        <ele>234</ele>
        <time>2012-03-11 09:51:48 +0000</time>
      </trkpt>
      <trkpt lat="44.27636" lon="1.11216">
        <ele>235</ele>
        <time>2012-03-11 09:51:52 +0000</time>
      </trkpt>
      <trkpt lat="44.27645" lon="1.11224">
        <ele>234</ele>
        <time>2012-03-11 09:51:56 +0000</time>
      </trkpt>
      <trkpt lat="44.27651" lon="1.1123">
        <ele>234</ele>
        <time>2012-03-11 09:51:59 +0000</time>
      </trkpt>
      <trkpt lat="44.27658" lon="1.11236">
        <ele>235</ele>
        <time>2012-03-11 09:52:02 +0000</time>
      </trkpt>
      <trkpt lat="44.27667" lon="1.11244">
        <ele>236</ele>
        <time>2012-03-11 09:52:06 +0000</time>
      </trkpt>
      <trkpt lat="44.27675" lon="1.11249">
        <ele>236</ele>
        <time>2012-03-11 09:52:10 +0000</time>
      </trkpt>
      <trkpt lat="44.2768" lon="1.11254">
        <ele>238</ele>
        <time>2012-03-11 09:52:13 +0000</time>
      </trkpt>
      <trkpt lat="44.27686" lon="1.11258">
        <ele>244</ele>
        <time>2012-03-11 09:52:16 +0000</time>
      </trkpt>
      <trkpt lat="44.27695" lon="1.11264">
        <ele>236</ele>
        <time>2012-03-11 09:52:20 +0000</time>
      </trkpt>
      <trkpt lat="44.27704" lon="1.11271">
        <ele>239</ele>
        <time>2012-03-11 09:52:24 +0000</time>
      </trkpt>
      <trkpt lat="44.27714" lon="1.11276">
        <ele>237</ele>
        <time>2012-03-11 09:52:27 +0000</time>
      </trkpt>
      <trkpt lat="44.27727" lon="1.11285">
        <ele>238</ele>
        <time>2012-03-11 09:52:31 +0000</time>
      </trkpt>
      <trkpt lat="44.27739" lon="1.11295">
        <ele>238</ele>
        <time>2012-03-11 09:52:34 +0000</time>
      </trkpt>
      <trkpt lat="44.2775" lon="1.11308">
        <ele>237</ele>
        <time>2012-03-11 09:52:37 +0000</time>
      </trkpt>
      <trkpt lat="44.27766" lon="1.11322">
        <ele>239</ele>
        <time>2012-03-11 09:52:41 +0000</time>
      </trkpt>
      <trkpt lat="44.2778" lon="1.11326">
        <ele>233</ele>
        <time>2012-03-11 09:52:44 +0000</time>
      </trkpt>
      <trkpt lat="44.27793" lon="1.11336">
        <ele>233</ele>
        <time>2012-03-11 09:52:47 +0000</time>
      </trkpt>
      <trkpt lat="44.27806" lon="1.11347">
        <ele>233</ele>
        <time>2012-03-11 09:52:51 +0000</time>
      </trkpt>
      <trkpt lat="44.27817" lon="1.11355">
        <ele>230</ele>
        <time>2012-03-11 09:52:54 +0000</time>
      </trkpt>
      <trkpt lat="44.27831" lon="1.1136">
        <ele>233</ele>
        <time>2012-03-11 09:52:58 +0000</time>
      </trkpt>
      <trkpt lat="44.27845" lon="1.11367">
        <ele>233</ele>
        <time>2012-03-11 09:53:02 +0000</time>
      </trkpt>
      <trkpt lat="44.27854" lon="1.11372">
        <ele>232</ele>
        <time>2012-03-11 09:53:05 +0000</time>
      </trkpt>
      <trkpt lat="44.27868" lon="1.11374">
        <ele>230</ele>
        <time>2012-03-11 09:53:09 +0000</time>
      </trkpt>
      <trkpt lat="44.27879" lon="1.11375">
        <ele>229</ele>
        <time>2012-03-11 09:53:12 +0000</time>
      </trkpt>
      <trkpt lat="44.27896" lon="1.11375">
        <ele>230</ele>
        <time>2012-03-11 09:53:16 +0000</time>
      </trkpt>
      <trkpt lat="44.27915" lon="1.11373">
        <ele>228</ele>
        <time>2012-03-11 09:53:20 +0000</time>
      </trkpt>
      <trkpt lat="44.2793" lon="1.11367">
        <ele>229</ele>
        <time>2012-03-11 09:53:23 +0000</time>
      </trkpt>
      <trkpt lat="44.27951" lon="1.11361">
        <ele>228</ele>
        <time>2012-03-11 09:53:27 +0000</time>
      </trkpt>
      <trkpt lat="44.27974" lon="1.11364">
        <ele>227</ele>
        <time>2012-03-11 09:53:31 +0000</time>
      </trkpt>
      <trkpt lat="44.27991" lon="1.11369">
        <ele>227</ele>
        <time>2012-03-11 09:53:34 +0000</time>
      </trkpt>
      <trkpt lat="44.28016" lon="1.11377">
        <ele>226</ele>
        <time>2012-03-11 09:53:38 +0000</time>
      </trkpt>
      <trkpt lat="44.28032" lon="1.11384">
        <ele>228</ele>
        <time>2012-03-11 09:53:41 +0000</time>
      </trkpt>
      <trkpt lat="44.28048" lon="1.1139">
        <ele>229</ele>
        <time>2012-03-11 09:53:44 +0000</time>
      </trkpt>
      <trkpt lat="44.28075" lon="1.114">
        <ele>225</ele>
        <time>2012-03-11 09:53:48 +0000</time>
      </trkpt>
      <trkpt lat="44.28102" lon="1.1141">
        <ele>225</ele>
        <time>2012-03-11 09:53:52 +0000</time>
      </trkpt>
      <trkpt lat="44.28125" lon="1.11418">
        <ele>226</ele>
        <time>2012-03-11 09:53:55 +0000</time>
      </trkpt>
      <trkpt lat="44.28152" lon="1.11429">
        <ele>222</ele>
        <time>2012-03-11 09:53:59 +0000</time>
      </trkpt>
      <trkpt lat="44.28176" lon="1.1144">
        <ele>222</ele>
        <time>2012-03-11 09:54:03 +0000</time>
      </trkpt>
      <trkpt lat="44.28203" lon="1.11451">
        <ele>222</ele>
        <time>2012-03-11 09:54:07 +0000</time>
      </trkpt>
      <trkpt lat="44.28226" lon="1.11461">
        <ele>220</ele>
        <time>2012-03-11 09:54:11 +0000</time>
      </trkpt>
      <trkpt lat="44.28239" lon="1.1147">
        <ele>221</ele>
        <time>2012-03-11 09:54:14 +0000</time>
      </trkpt>
      <trkpt lat="44.28255" lon="1.11483">
        <ele>224</ele>
        <time>2012-03-11 09:54:18 +0000</time>
      </trkpt>
      <trkpt lat="44.28268" lon="1.11491">
        <ele>226</ele>
        <time>2012-03-11 09:54:22 +0000</time>
      </trkpt>
      <trkpt lat="44.28279" lon="1.11499">
        <ele>226</ele>
        <time>2012-03-11 09:54:26 +0000</time>
      </trkpt>
      <trkpt lat="44.28289" lon="1.11508">
        <ele>230</ele>
        <time>2012-03-11 09:54:29 +0000</time>
      </trkpt>
      <trkpt lat="44.28297" lon="1.11515">
        <ele>228</ele>
        <time>2012-03-11 09:54:32 +0000</time>
      </trkpt>
      <trkpt lat="44.28308" lon="1.11525">
        <ele>225</ele>
        <time>2012-03-11 09:54:36 +0000</time>
      </trkpt>
      <trkpt lat="44.28316" lon="1.11531">
        <ele>232</ele>
        <time>2012-03-11 09:54:39 +0000</time>
      </trkpt>
      <trkpt lat="44.28323" lon="1.11537">
        <ele>221</ele>
        <time>2012-03-11 09:54:42 +0000</time>
      </trkpt>
      <trkpt lat="44.28334" lon="1.11546">
        <ele>228</ele>
        <time>2012-03-11 09:54:46 +0000</time>
      </trkpt>
      <trkpt lat="44.28345" lon="1.11555">
        <ele>230</ele>
        <time>2012-03-11 09:54:50 +0000</time>
      </trkpt>
      <trkpt lat="44.28351" lon="1.11561">
        <ele>231</ele>
        <time>2012-03-11 09:54:53 +0000</time>
      </trkpt>
      <trkpt lat="44.28358" lon="1.11567">
        <ele>224</ele>
        <time>2012-03-11 09:54:56 +0000</time>
      </trkpt>
      <trkpt lat="44.28366" lon="1.11572">
        <ele>231</ele>
        <time>2012-03-11 09:54:59 +0000</time>
      </trkpt>
      <trkpt lat="44.28376" lon="1.11579">
        <ele>231</ele>
        <time>2012-03-11 09:55:03 +0000</time>
      </trkpt>
      <trkpt lat="44.28384" lon="1.11586">
        <ele>233</ele>
        <time>2012-03-11 09:55:06 +0000</time>
      </trkpt>
      <trkpt lat="44.28391" lon="1.11592">
        <ele>226</ele>
        <time>2012-03-11 09:55:09 +0000</time>
      </trkpt>
      <trkpt lat="44.28398" lon="1.11597">
        <ele>235</ele>
        <time>2012-03-11 09:55:12 +0000</time>
      </trkpt>
      <trkpt lat="44.28407" lon="1.11604">
        <ele>236</ele>
        <time>2012-03-11 09:55:16 +0000</time>
      </trkpt>
      <trkpt lat="44.28413" lon="1.11611">
        <ele>232</ele>
        <time>2012-03-11 09:55:19 +0000</time>
      </trkpt>
      <trkpt lat="44.28421" lon="1.1162">
        <ele>233</ele>
        <time>2012-03-11 09:55:23 +0000</time>
      </trkpt>
      <trkpt lat="44.28429" lon="1.11626">
        <ele>235</ele>
        <time>2012-03-11 09:55:27 +0000</time>
      </trkpt>
      <trkpt lat="44.28439" lon="1.11635">
        <ele>233</ele>
        <time>2012-03-11 09:55:31 +0000</time>
      </trkpt>
      <trkpt lat="44.28449" lon="1.11642">
        <ele>234</ele>
        <time>2012-03-11 09:55:35 +0000</time>
      </trkpt>
      <trkpt lat="44.2846" lon="1.11647">
        <ele>236</ele>
        <time>2012-03-11 09:55:39 +0000</time>
      </trkpt>
      <trkpt lat="44.28468" lon="1.11651">
        <ele>232</ele>
        <time>2012-03-11 09:55:42 +0000</time>
      </trkpt>
      <trkpt lat="44.28478" lon="1.11655">
        <ele>233</ele>
        <time>2012-03-11 09:55:46 +0000</time>
      </trkpt>
      <trkpt lat="44.28485" lon="1.11661">
        <ele>230</ele>
        <time>2012-03-11 09:55:50 +0000</time>
      </trkpt>
      <trkpt lat="44.28492" lon="1.11666">
        <ele>239</ele>
        <time>2012-03-11 09:55:53 +0000</time>
      </trkpt>
      <trkpt lat="44.28499" lon="1.11673">
        <ele>236</ele>
        <time>2012-03-11 09:55:57 +0000</time>
      </trkpt>
      <trkpt lat="44.28511" lon="1.11682">
        <ele>236</ele>
        <time>2012-03-11 09:56:01 +0000</time>
      </trkpt>
      <trkpt lat="44.28523" lon="1.1169">
        <ele>240</ele>
        <time>2012-03-11 09:56:05 +0000</time>
      </trkpt>
      <trkpt lat="44.28531" lon="1.11695">
        <ele>242</ele>
        <time>2012-03-11 09:56:08 +0000</time>
      </trkpt>
      <trkpt lat="44.28537" lon="1.11698">
        <ele>237</ele>
        <time>2012-03-11 09:56:11 +0000</time>
      </trkpt>
      <trkpt lat="44.28547" lon="1.11705">
        <ele>238</ele>
        <time>2012-03-11 09:56:15 +0000</time>
      </trkpt>
      <trkpt lat="44.28554" lon="1.11711">
        <ele>236</ele>
        <time>2012-03-11 09:56:18 +0000</time>
      </trkpt>
      <trkpt lat="44.28563" lon="1.11719">
        <ele>234</ele>
        <time>2012-03-11 09:56:22 +0000</time>
      </trkpt>
      <trkpt lat="44.28572" lon="1.11725">
        <ele>239</ele>
        <time>2012-03-11 09:56:25 +0000</time>
      </trkpt>
      <trkpt lat="44.28585" lon="1.11735">
        <ele>242</ele>
        <time>2012-03-11 09:56:29 +0000</time>
      </trkpt>
      <trkpt lat="44.28598" lon="1.11742">
        <ele>242</ele>
        <time>2012-03-11 09:56:33 +0000</time>
      </trkpt>
      <trkpt lat="44.28609" lon="1.1175">
        <ele>236</ele>
        <time>2012-03-11 09:56:37 +0000</time>
      </trkpt>
      <trkpt lat="44.28618" lon="1.11753">
        <ele>235</ele>
        <time>2012-03-11 09:56:41 +0000</time>
      </trkpt>
      <trkpt lat="44.28627" lon="1.11748">
        <ele>242</ele>
        <time>2012-03-11 09:56:44 +0000</time>
      </trkpt>
      <trkpt lat="44.2864" lon="1.11735">
        <ele>240</ele>
        <time>2012-03-11 09:56:48 +0000</time>
      </trkpt>
      <trkpt lat="44.28646" lon="1.11723">
        <ele>238</ele>
        <time>2012-03-11 09:56:51 +0000</time>
      </trkpt>
      <trkpt lat="44.28651" lon="1.11713">
        <ele>240</ele>
        <time>2012-03-11 09:56:54 +0000</time>
      </trkpt>
      <trkpt lat="44.28659" lon="1.11693">
        <ele>241</ele>
        <time>2012-03-11 09:56:58 +0000</time>
      </trkpt>
      <trkpt lat="44.28664" lon="1.11681">
        <ele>244</ele>
        <time>2012-03-11 09:57:01 +0000</time>
      </trkpt>
      <trkpt lat="44.28672" lon="1.11666">
        <ele>242</ele>
        <time>2012-03-11 09:57:05 +0000</time>
      </trkpt>
      <trkpt lat="44.2868" lon="1.11653">
        <ele>242</ele>
        <time>2012-03-11 09:57:09 +0000</time>
      </trkpt>
      <trkpt lat="44.28687" lon="1.1164">
        <ele>240</ele>
        <time>2012-03-11 09:57:12 +0000</time>
      </trkpt>
      <trkpt lat="44.28694" lon="1.11629">
        <ele>244</ele>
        <time>2012-03-11 09:57:16 +0000</time>
      </trkpt>
      <trkpt lat="44.287" lon="1.1162">
        <ele>250</ele>
        <time>2012-03-11 09:57:19 +0000</time>
      </trkpt>
      <trkpt lat="44.2871" lon="1.11604">
        <ele>258</ele>
        <time>2012-03-11 09:57:23 +0000</time>
      </trkpt>
      <trkpt lat="44.28717" lon="1.11593">
        <ele>260</ele>
        <time>2012-03-11 09:57:26 +0000</time>
      </trkpt>
      <trkpt lat="44.28723" lon="1.11581">
        <ele>263</ele>
        <time>2012-03-11 09:57:29 +0000</time>
      </trkpt>
      <trkpt lat="44.28727" lon="1.11572">
        <ele>250</ele>
        <time>2012-03-11 09:57:32 +0000</time>
      </trkpt>
      <trkpt lat="44.28732" lon="1.11559">
        <ele>240</ele>
        <time>2012-03-11 09:57:35 +0000</time>
      </trkpt>
      <trkpt lat="44.28736" lon="1.11547">
        <ele>244</ele>
        <time>2012-03-11 09:57:38 +0000</time>
      </trkpt>
      <trkpt lat="44.28743" lon="1.11533">
        <ele>242</ele>
        <time>2012-03-11 09:57:42 +0000</time>
      </trkpt>
      <trkpt lat="44.28749" lon="1.11523">
        <ele>242</ele>
        <time>2012-03-11 09:57:45 +0000</time>
      </trkpt>
      <trkpt lat="44.28757" lon="1.11507">
        <ele>246</ele>
        <time>2012-03-11 09:57:49 +0000</time>
      </trkpt>
      <trkpt lat="44.28762" lon="1.11496">
        <ele>239</ele>
        <time>2012-03-11 09:57:52 +0000</time>
      </trkpt>
      <trkpt lat="44.28769" lon="1.11482">
        <ele>247</ele>
        <time>2012-03-11 09:57:55 +0000</time>
      </trkpt>
      <trkpt lat="44.28775" lon="1.11465">
        <ele>245</ele>
        <time>2012-03-11 09:57:59 +0000</time>
      </trkpt>
      <trkpt lat="44.28781" lon="1.11449">
        <ele>241</ele>
        <time>2012-03-11 09:58:03 +0000</time>
      </trkpt>
      <trkpt lat="44.28788" lon="1.11437">
        <ele>240</ele>
        <time>2012-03-11 09:58:06 +0000</time>
      </trkpt>
      <trkpt lat="44.28794" lon="1.11421">
        <ele>240</ele>
        <time>2012-03-11 09:58:10 +0000</time>
      </trkpt>
      <trkpt lat="44.28798" lon="1.1141">
        <ele>244</ele>
        <time>2012-03-11 09:58:13 +0000</time>
      </trkpt>
      <trkpt lat="44.28804" lon="1.11392">
        <ele>240</ele>
        <time>2012-03-11 09:58:17 +0000</time>
      </trkpt>
      <trkpt lat="44.28809" lon="1.11378">
        <ele>236</ele>
        <time>2012-03-11 09:58:20 +0000</time>
      </trkpt>
      <trkpt lat="44.28813" lon="1.1137">
        <ele>236</ele>
        <time>2012-03-11 09:58:23 +0000</time>
      </trkpt>
      <trkpt lat="44.28819" lon="1.11356">
        <ele>242</ele>
        <time>2012-03-11 09:58:27 +0000</time>
      </trkpt>
      <trkpt lat="44.28825" lon="1.11344">
        <ele>240</ele>
        <time>2012-03-11 09:58:30 +0000</time>
      </trkpt>
      <trkpt lat="44.28831" lon="1.11329">
        <ele>238</ele>
        <time>2012-03-11 09:58:34 +0000</time>
      </trkpt>
      <trkpt lat="44.28834" lon="1.11319">
        <ele>236</ele>
        <time>2012-03-11 09:58:37 +0000</time>
      </trkpt>
      <trkpt lat="44.28839" lon="1.11305">
        <ele>238</ele>
        <time>2012-03-11 09:58:41 +0000</time>
      </trkpt>
      <trkpt lat="44.28845" lon="1.11293">
        <ele>240</ele>
        <time>2012-03-11 09:58:44 +0000</time>
      </trkpt>
      <trkpt lat="44.2885" lon="1.11286">
        <ele>239</ele>
        <time>2012-03-11 09:58:47 +0000</time>
      </trkpt>
      <trkpt lat="44.28857" lon="1.11272">
        <ele>237</ele>
        <time>2012-03-11 09:58:51 +0000</time>
      </trkpt>
      <trkpt lat="44.28867" lon="1.11254">
        <ele>239</ele>
        <time>2012-03-11 09:58:55 +0000</time>
      </trkpt>
      <trkpt lat="44.28876" lon="1.11236">
        <ele>240</ele>
        <time>2012-03-11 09:58:59 +0000</time>
      </trkpt>
      <trkpt lat="44.28883" lon="1.11222">
        <ele>240</ele>
        <time>2012-03-11 09:59:02 +0000</time>
      </trkpt>
      <trkpt lat="44.28893" lon="1.11204">
        <ele>240</ele>
        <time>2012-03-11 09:59:06 +0000</time>
      </trkpt>
      <trkpt lat="44.28903" lon="1.11185">
        <ele>238</ele>
        <time>2012-03-11 09:59:10 +0000</time>
      </trkpt>
      <trkpt lat="44.28908" lon="1.1117">
        <ele>238</ele>
        <time>2012-03-11 09:59:13 +0000</time>
      </trkpt>
      <trkpt lat="44.28914" lon="1.11149">
        <ele>238</ele>
        <time>2012-03-11 09:59:17 +0000</time>
      </trkpt>
      <trkpt lat="44.28918" lon="1.11134">
        <ele>239</ele>
        <time>2012-03-11 09:59:20 +0000</time>
      </trkpt>
      <trkpt lat="44.28924" lon="1.1112">
        <ele>240</ele>
        <time>2012-03-11 09:59:23 +0000</time>
      </trkpt>
      <trkpt lat="44.28932" lon="1.11103">
        <ele>243</ele>
        <time>2012-03-11 09:59:27 +0000</time>
      </trkpt>
      <trkpt lat="44.28938" lon="1.1109">
        <ele>244</ele>
        <time>2012-03-11 09:59:30 +0000</time>
      </trkpt>
      <trkpt lat="44.28945" lon="1.11075">
        <ele>245</ele>
        <time>2012-03-11 09:59:33 +0000</time>
      </trkpt>
      <trkpt lat="44.28952" lon="1.11064">
        <ele>241</ele>
        <time>2012-03-11 09:59:36 +0000</time>
      </trkpt>
      <trkpt lat="44.28962" lon="1.11048">
        <ele>241</ele>
        <time>2012-03-11 09:59:40 +0000</time>
      </trkpt>
      <trkpt lat="44.28972" lon="1.11033">
        <ele>239</ele>
        <time>2012-03-11 09:59:44 +0000</time>
      </trkpt>
      <trkpt lat="44.28979" lon="1.11022">
        <ele>236</ele>
        <time>2012-03-11 09:59:47 +0000</time>
      </trkpt>
      <trkpt lat="44.28992" lon="1.11008">
        <ele>238</ele>
        <time>2012-03-11 09:59:51 +0000</time>
      </trkpt>
      <trkpt lat="44.29001" lon="1.10994">
        <ele>240</ele>
        <time>2012-03-11 09:59:54 +0000</time>
      </trkpt>
      <trkpt lat="44.29013" lon="1.10977">
        <ele>238</ele>
        <time>2012-03-11 09:59:58 +0000</time>
      </trkpt>
      <trkpt lat="44.29025" lon="1.10961">
        <ele>238</ele>
        <time>2012-03-11 10:00:02 +0000</time>
      </trkpt>
      <trkpt lat="44.29036" lon="1.10945">
        <ele>240</ele>
        <time>2012-03-11 10:00:06 +0000</time>
      </trkpt>
      <trkpt lat="44.29046" lon="1.1093">
        <ele>238</ele>
        <time>2012-03-11 10:00:10 +0000</time>
      </trkpt>
      <trkpt lat="44.29054" lon="1.10917">
        <ele>234</ele>
        <time>2012-03-11 10:00:14 +0000</time>
      </trkpt>
      <trkpt lat="44.2905" lon="1.10907">
        <ele>241</ele>
        <time>2012-03-11 10:00:17 +0000</time>
      </trkpt>
      <trkpt lat="44.29039" lon="1.10894">
        <ele>236</ele>
        <time>2012-03-11 10:00:21 +0000</time>
      </trkpt>
      <trkpt lat="44.29029" lon="1.10883">
        <ele>235</ele>
        <time>2012-03-11 10:00:24 +0000</time>
      </trkpt>
      <trkpt lat="44.29016" lon="1.1087">
        <ele>233</ele>
        <time>2012-03-11 10:00:27 +0000</time>
      </trkpt>
      <trkpt lat="44.29" lon="1.10853">
        <ele>232</ele>
        <time>2012-03-11 10:00:31 +0000</time>
      </trkpt>
      <trkpt lat="44.28987" lon="1.10838">
        <ele>233</ele>
        <time>2012-03-11 10:00:34 +0000</time>
      </trkpt>
      <trkpt lat="44.28971" lon="1.10818">
        <ele>234</ele>
        <time>2012-03-11 10:00:38 +0000</time>
      </trkpt>
      <trkpt lat="44.28962" lon="1.108">
        <ele>234</ele>
        <time>2012-03-11 10:00:41 +0000</time>
      </trkpt>
      <trkpt lat="44.28957" lon="1.1078">
        <ele>234</ele>
        <time>2012-03-11 10:00:44 +0000</time>
      </trkpt>
      <trkpt lat="44.28951" lon="1.10759">
        <ele>235</ele>
        <time>2012-03-11 10:00:47 +0000</time>
      </trkpt>
      <trkpt lat="44.28947" lon="1.10732">
        <ele>237</ele>
        <time>2012-03-11 10:00:51 +0000</time>
      </trkpt>
      <trkpt lat="44.28946" lon="1.10702">
        <ele>241</ele>
        <time>2012-03-11 10:00:55 +0000</time>
      </trkpt>
      <trkpt lat="44.28947" lon="1.10675">
        <ele>239</ele>
        <time>2012-03-11 10:00:59 +0000</time>
      </trkpt>
      <trkpt lat="44.28947" lon="1.10652">
        <ele>237</ele>
        <time>2012-03-11 10:01:03 +0000</time>
      </trkpt>
      <trkpt lat="44.28947" lon="1.10633">
        <ele>238</ele>
        <time>2012-03-11 10:01:06 +0000</time>
      </trkpt>
      <trkpt lat="44.28947" lon="1.10608">
        <ele>236</ele>
        <time>2012-03-11 10:01:10 +0000</time>
      </trkpt>
      <trkpt lat="44.28946" lon="1.10582">
        <ele>234</ele>
        <time>2012-03-11 10:01:14 +0000</time>
      </trkpt>
      <trkpt lat="44.28945" lon="1.10556">
        <ele>233</ele>
        <time>2012-03-11 10:01:18 +0000</time>
      </trkpt>
      <trkpt lat="44.28943" lon="1.1053">
        <ele>233</ele>
        <time>2012-03-11 10:01:22 +0000</time>
      </trkpt>
      <trkpt lat="44.28944" lon="1.10507">
        <ele>233</ele>
        <time>2012-03-11 10:01:25 +0000</time>
      </trkpt>
      <trkpt lat="44.28944" lon="1.10478">
        <ele>233</ele>
        <time>2012-03-11 10:01:28 +0000</time>
      </trkpt>
      <trkpt lat="44.2894" lon="1.10443">
        <ele>230</ele>
        <time>2012-03-11 10:01:32 +0000</time>
      </trkpt>
      <trkpt lat="44.28933" lon="1.10421">
        <ele>230</ele>
        <time>2012-03-11 10:01:35 +0000</time>
      </trkpt>
      <trkpt lat="44.28924" lon="1.10396">
        <ele>231</ele>
        <time>2012-03-11 10:01:39 +0000</time>
      </trkpt>
      <trkpt lat="44.2893" lon="1.10376">
        <ele>230</ele>
        <time>2012-03-11 10:01:43 +0000</time>
      </trkpt>
      <trkpt lat="44.28942" lon="1.10363">
        <ele>231</ele>
        <time>2012-03-11 10:01:47 +0000</time>
      </trkpt>
      <trkpt lat="44.28949" lon="1.10353">
        <ele>234</ele>
        <time>2012-03-11 10:01:51 +0000</time>
      </trkpt>
      <trkpt lat="44.28955" lon="1.10343">
        <ele>242</ele>
        <time>2012-03-11 10:01:54 +0000</time>
      </trkpt>
      <trkpt lat="44.28959" lon="1.10332">
        <ele>238</ele>
        <time>2012-03-11 10:01:57 +0000</time>
      </trkpt>
      <trkpt lat="44.28966" lon="1.10318">
        <ele>240</ele>
        <time>2012-03-11 10:02:01 +0000</time>
      </trkpt>
      <trkpt lat="44.28973" lon="1.10304">
        <ele>235</ele>
        <time>2012-03-11 10:02:05 +0000</time>
      </trkpt>
      <trkpt lat="44.28978" lon="1.1029">
        <ele>230</ele>
        <time>2012-03-11 10:02:09 +0000</time>
      </trkpt>
      <trkpt lat="44.28983" lon="1.10277">
        <ele>240</ele>
        <time>2012-03-11 10:02:13 +0000</time>
      </trkpt>
      <trkpt lat="44.28986" lon="1.10269">
        <ele>231</ele>
        <time>2012-03-11 10:02:16 +0000</time>
      </trkpt>
      <trkpt lat="44.28992" lon="1.10256">
        <ele>229</ele>
        <time>2012-03-11 10:02:20 +0000</time>
      </trkpt>
      <trkpt lat="44.29" lon="1.10241">
        <ele>229</ele>
        <time>2012-03-11 10:02:24 +0000</time>
      </trkpt>
      <trkpt lat="44.29006" lon="1.10234">
        <ele>235</ele>
        <time>2012-03-11 10:02:27 +0000</time>
      </trkpt>
      <trkpt lat="44.29016" lon="1.10225">
        <ele>231</ele>
        <time>2012-03-11 10:02:31 +0000</time>
      </trkpt>
      <trkpt lat="44.29026" lon="1.10222">
        <ele>226</ele>
        <time>2012-03-11 10:02:35 +0000</time>
      </trkpt>
      <trkpt lat="44.29034" lon="1.10214">
        <ele>221</ele>
        <time>2012-03-11 10:02:38 +0000</time>
      </trkpt>
      <trkpt lat="44.29045" lon="1.102">
        <ele>224</ele>
        <time>2012-03-11 10:02:42 +0000</time>
      </trkpt>
      <trkpt lat="44.29055" lon="1.10182">
        <ele>232</ele>
        <time>2012-03-11 10:02:46 +0000</time>
      </trkpt>
      <trkpt lat="44.29066" lon="1.10162">
        <ele>231</ele>
        <time>2012-03-11 10:02:50 +0000</time>
      </trkpt>
      <trkpt lat="44.29074" lon="1.1015">
        <ele>220</ele>
        <time>2012-03-11 10:02:53 +0000</time>
      </trkpt>
      <trkpt lat="44.29085" lon="1.10137">
        <ele>223</ele>
        <time>2012-03-11 10:02:56 +0000</time>
      </trkpt>
      <trkpt lat="44.29096" lon="1.10122">
        <ele>218</ele>
        <time>2012-03-11 10:02:59 +0000</time>
      </trkpt>
      <trkpt lat="44.29113" lon="1.10102">
        <ele>216</ele>
        <time>2012-03-11 10:03:03 +0000</time>
      </trkpt>
      <trkpt lat="44.29128" lon="1.10086">
        <ele>215</ele>
        <time>2012-03-11 10:03:06 +0000</time>
      </trkpt>
      <trkpt lat="44.29143" lon="1.10068">
        <ele>227</ele>
        <time>2012-03-11 10:03:10 +0000</time>
      </trkpt>
      <trkpt lat="44.29159" lon="1.10054">
        <ele>224</ele>
        <time>2012-03-11 10:03:14 +0000</time>
      </trkpt>
      <trkpt lat="44.29178" lon="1.10037">
        <ele>224</ele>
        <time>2012-03-11 10:03:18 +0000</time>
      </trkpt>
      <trkpt lat="44.29192" lon="1.10024">
        <ele>225</ele>
        <time>2012-03-11 10:03:21 +0000</time>
      </trkpt>
      <trkpt lat="44.29208" lon="1.10008">
        <ele>223</ele>
        <time>2012-03-11 10:03:25 +0000</time>
      </trkpt>
      <trkpt lat="44.29222" lon="1.09997">
        <ele>217</ele>
        <time>2012-03-11 10:03:28 +0000</time>
      </trkpt>
      <trkpt lat="44.29238" lon="1.09985">
        <ele>215</ele>
        <time>2012-03-11 10:03:32 +0000</time>
      </trkpt>
      <trkpt lat="44.29247" lon="1.09965">
        <ele>212</ele>
        <time>2012-03-11 10:03:36 +0000</time>
      </trkpt>
      <trkpt lat="44.29257" lon="1.09948">
        <ele>219</ele>
        <time>2012-03-11 10:03:40 +0000</time>
      </trkpt>
      <trkpt lat="44.29269" lon="1.09936">
        <ele>219</ele>
        <time>2012-03-11 10:03:43 +0000</time>
      </trkpt>
      <trkpt lat="44.29285" lon="1.09921">
        <ele>216</ele>
        <time>2012-03-11 10:03:47 +0000</time>
      </trkpt>
      <trkpt lat="44.29299" lon="1.09918">
        <ele>222</ele>
        <time>2012-03-11 10:03:50 +0000</time>
      </trkpt>
      <trkpt lat="44.29319" lon="1.09913">
        <ele>216</ele>
        <time>2012-03-11 10:03:54 +0000</time>
      </trkpt>
      <trkpt lat="44.29333" lon="1.09907">
        <ele>216</ele>
        <time>2012-03-11 10:03:57 +0000</time>
      </trkpt>
      <trkpt lat="44.29345" lon="1.099">
        <ele>215</ele>
        <time>2012-03-11 10:04:00 +0000</time>
      </trkpt>
      <trkpt lat="44.29361" lon="1.09891">
        <ele>217</ele>
        <time>2012-03-11 10:04:04 +0000</time>
      </trkpt>
      <trkpt lat="44.29376" lon="1.09883">
        <ele>225</ele>
        <time>2012-03-11 10:04:07 +0000</time>
      </trkpt>
      <trkpt lat="44.2939" lon="1.09875">
        <ele>220</ele>
        <time>2012-03-11 10:04:10 +0000</time>
      </trkpt>
      <trkpt lat="44.29404" lon="1.09866">
        <ele>217</ele>
        <time>2012-03-11 10:04:13 +0000</time>
      </trkpt>
      <trkpt lat="44.2942" lon="1.09855">
        <ele>211</ele>
        <time>2012-03-11 10:04:17 +0000</time>
      </trkpt>
      <trkpt lat="44.2944" lon="1.09846">
        <ele>216</ele>
        <time>2012-03-11 10:04:21 +0000</time>
      </trkpt>
      <trkpt lat="44.29454" lon="1.09834">
        <ele>217</ele>
        <time>2012-03-11 10:04:24 +0000</time>
      </trkpt>
      <trkpt lat="44.29467" lon="1.0982">
        <ele>218</ele>
        <time>2012-03-11 10:04:28 +0000</time>
      </trkpt>
      <trkpt lat="44.29484" lon="1.09814">
        <ele>215</ele>
        <time>2012-03-11 10:04:32 +0000</time>
      </trkpt>
      <trkpt lat="44.29497" lon="1.09798">
        <ele>217</ele>
        <time>2012-03-11 10:04:36 +0000</time>
      </trkpt>
      <trkpt lat="44.29506" lon="1.09779">
        <ele>219</ele>
        <time>2012-03-11 10:04:40 +0000</time>
      </trkpt>
      <trkpt lat="44.29511" lon="1.09766">
        <ele>217</ele>
        <time>2012-03-11 10:04:43 +0000</time>
      </trkpt>
      <trkpt lat="44.29513" lon="1.09758">
        <ele>220</ele>
        <time>2012-03-11 10:04:46 +0000</time>
      </trkpt>
      <trkpt lat="44.2952" lon="1.09743">
        <ele>212</ele>
        <time>2012-03-11 10:04:50 +0000</time>
      </trkpt>
      <trkpt lat="44.29529" lon="1.09733">
        <ele>209</ele>
        <time>2012-03-11 10:04:53 +0000</time>
      </trkpt>
      <trkpt lat="44.29546" lon="1.09718">
        <ele>206</ele>
        <time>2012-03-11 10:04:57 +0000</time>
      </trkpt>
      <trkpt lat="44.29556" lon="1.09712">
        <ele>208</ele>
        <time>2012-03-11 10:05:00 +0000</time>
      </trkpt>
      <trkpt lat="44.29566" lon="1.09707">
        <ele>206</ele>
        <time>2012-03-11 10:05:03 +0000</time>
      </trkpt>
      <trkpt lat="44.29566" lon="1.09696">
        <ele>207</ele>
        <time>2012-03-11 10:05:06 +0000</time>
      </trkpt>
      <trkpt lat="44.29549" lon="1.09678">
        <ele>201</ele>
        <time>2012-03-11 10:05:10 +0000</time>
      </trkpt>
      <trkpt lat="44.29533" lon="1.09662">
        <ele>196</ele>
        <time>2012-03-11 10:05:13 +0000</time>
      </trkpt>
      <trkpt lat="44.29508" lon="1.09646">
        <ele>191</ele>
        <time>2012-03-11 10:05:17 +0000</time>
      </trkpt>
      <trkpt lat="44.2949" lon="1.09639">
        <ele>191</ele>
        <time>2012-03-11 10:05:20 +0000</time>
      </trkpt>
      <trkpt lat="44.2946" lon="1.0964">
        <ele>184</ele>
        <time>2012-03-11 10:05:24 +0000</time>
      </trkpt>
      <trkpt lat="44.29441" lon="1.09638">
        <ele>176</ele>
        <time>2012-03-11 10:05:27 +0000</time>
      </trkpt>
      <trkpt lat="44.2942" lon="1.09626">
        <ele>180</ele>
        <time>2012-03-11 10:05:31 +0000</time>
      </trkpt>
      <trkpt lat="44.29403" lon="1.09609">
        <ele>177</ele>
        <time>2012-03-11 10:05:34 +0000</time>
      </trkpt>
      <trkpt lat="44.2939" lon="1.09581">
        <ele>178</ele>
        <time>2012-03-11 10:05:38 +0000</time>
      </trkpt>
      <trkpt lat="44.29394" lon="1.09563">
        <ele>171</ele>
        <time>2012-03-11 10:05:41 +0000</time>
      </trkpt>
      <trkpt lat="44.29416" lon="1.09547">
        <ele>167</ele>
        <time>2012-03-11 10:05:45 +0000</time>
      </trkpt>
      <trkpt lat="44.2943" lon="1.09528">
        <ele>159</ele>
        <time>2012-03-11 10:05:49 +0000</time>
      </trkpt>
      <trkpt lat="44.29431" lon="1.095">
        <ele>158</ele>
        <time>2012-03-11 10:05:52 +0000</time>
      </trkpt>
      <trkpt lat="44.29437" lon="1.09473">
        <ele>160</ele>
        <time>2012-03-11 10:05:56 +0000</time>
      </trkpt>
      <trkpt lat="44.29459" lon="1.09453">
        <ele>159</ele>
        <time>2012-03-11 10:06:00 +0000</time>
      </trkpt>
      <trkpt lat="44.2948" lon="1.09441">
        <ele>154</ele>
        <time>2012-03-11 10:06:03 +0000</time>
      </trkpt>
      <trkpt lat="44.29499" lon="1.0943">
        <ele>154</ele>
        <time>2012-03-11 10:06:06 +0000</time>
      </trkpt>
      <trkpt lat="44.29524" lon="1.09408">
        <ele>155</ele>
        <time>2012-03-11 10:06:10 +0000</time>
      </trkpt>
      <trkpt lat="44.29535" lon="1.09383">
        <ele>150</ele>
        <time>2012-03-11 10:06:13 +0000</time>
      </trkpt>
      <trkpt lat="44.29538" lon="1.09356">
        <ele>146</ele>
        <time>2012-03-11 10:06:17 +0000</time>
      </trkpt>
      <trkpt lat="44.29524" lon="1.09347">
        <ele>145</ele>
        <time>2012-03-11 10:06:21 +0000</time>
      </trkpt>
      <trkpt lat="44.29504" lon="1.09344">
        <ele>142</ele>
        <time>2012-03-11 10:06:25 +0000</time>
      </trkpt>
      <trkpt lat="44.2949" lon="1.09341">
        <ele>142</ele>
        <time>2012-03-11 10:06:28 +0000</time>
      </trkpt>
      <trkpt lat="44.29475" lon="1.09338">
        <ele>138</ele>
        <time>2012-03-11 10:06:31 +0000</time>
      </trkpt>
      <trkpt lat="44.29459" lon="1.09335">
        <ele>141</ele>
        <time>2012-03-11 10:06:34 +0000</time>
      </trkpt>
      <trkpt lat="44.29441" lon="1.09332">
        <ele>141</ele>
        <time>2012-03-11 10:06:37 +0000</time>
      </trkpt>
      <trkpt lat="44.29428" lon="1.09329">
        <ele>140</ele>
        <time>2012-03-11 10:06:40 +0000</time>
      </trkpt>
      <trkpt lat="44.29409" lon="1.09325">
        <ele>142</ele>
        <time>2012-03-11 10:06:44 +0000</time>
      </trkpt>
      <trkpt lat="44.29394" lon="1.09321">
        <ele>139</ele>
        <time>2012-03-11 10:06:47 +0000</time>
      </trkpt>
      <trkpt lat="44.29371" lon="1.09319">
        <ele>145</ele>
        <time>2012-03-11 10:06:51 +0000</time>
      </trkpt>
      <trkpt lat="44.29354" lon="1.09316">
        <ele>139</ele>
        <time>2012-03-11 10:06:54 +0000</time>
      </trkpt>
      <trkpt lat="44.29332" lon="1.09311">
        <ele>141</ele>
        <time>2012-03-11 10:06:58 +0000</time>
      </trkpt>
      <trkpt lat="44.29315" lon="1.09309">
        <ele>136</ele>
        <time>2012-03-11 10:07:01 +0000</time>
      </trkpt>
      <trkpt lat="44.29295" lon="1.09309">
        <ele>143</ele>
        <time>2012-03-11 10:07:05 +0000</time>
      </trkpt>
      <trkpt lat="44.29276" lon="1.09309">
        <ele>141</ele>
        <time>2012-03-11 10:07:08 +0000</time>
      </trkpt>
      <trkpt lat="44.29254" lon="1.09309">
        <ele>139</ele>
        <time>2012-03-11 10:07:12 +0000</time>
      </trkpt>
      <trkpt lat="44.29232" lon="1.09309">
        <ele>139</ele>
        <time>2012-03-11 10:07:16 +0000</time>
      </trkpt>
      <trkpt lat="44.29214" lon="1.09309">
        <ele>140</ele>
        <time>2012-03-11 10:07:19 +0000</time>
      </trkpt>
      <trkpt lat="44.29193" lon="1.09308">
        <ele>140</ele>
        <time>2012-03-11 10:07:23 +0000</time>
      </trkpt>
      <trkpt lat="44.29179" lon="1.09308">
        <ele>141</ele>
        <time>2012-03-11 10:07:26 +0000</time>
      </trkpt>
      <trkpt lat="44.29161" lon="1.09305">
        <ele>139</ele>
        <time>2012-03-11 10:07:29 +0000</time>
      </trkpt>
      <trkpt lat="44.29137" lon="1.09305">
        <ele>140</ele>
        <time>2012-03-11 10:07:33 +0000</time>
      </trkpt>
      <trkpt lat="44.29121" lon="1.09306">
        <ele>135</ele>
        <time>2012-03-11 10:07:36 +0000</time>
      </trkpt>
      <trkpt lat="44.29098" lon="1.09307">
        <ele>138</ele>
        <time>2012-03-11 10:07:40 +0000</time>
      </trkpt>
      <trkpt lat="44.29076" lon="1.09306">
        <ele>137</ele>
        <time>2012-03-11 10:07:44 +0000</time>
      </trkpt>
      <trkpt lat="44.2906" lon="1.09306">
        <ele>138</ele>
        <time>2012-03-11 10:07:47 +0000</time>
      </trkpt>
      <trkpt lat="44.29037" lon="1.09306">
        <ele>137</ele>
        <time>2012-03-11 10:07:51 +0000</time>
      </trkpt>
      <trkpt lat="44.2902" lon="1.09306">
        <ele>137</ele>
        <time>2012-03-11 10:07:54 +0000</time>
      </trkpt>
      <trkpt lat="44.28999" lon="1.09299">
        <ele>138</ele>
        <time>2012-03-11 10:07:58 +0000</time>
      </trkpt>
      <trkpt lat="44.28983" lon="1.09294">
        <ele>144</ele>
        <time>2012-03-11 10:08:01 +0000</time>
      </trkpt>
      <trkpt lat="44.2896" lon="1.09287">
        <ele>140</ele>
        <time>2012-03-11 10:08:05 +0000</time>
      </trkpt>
      <trkpt lat="44.28944" lon="1.09282">
        <ele>143</ele>
        <time>2012-03-11 10:08:08 +0000</time>
      </trkpt>
      <trkpt lat="44.28928" lon="1.09277">
        <ele>142</ele>
        <time>2012-03-11 10:08:11 +0000</time>
      </trkpt>
      <trkpt lat="44.28912" lon="1.09274">
        <ele>137</ele>
        <time>2012-03-11 10:08:14 +0000</time>
      </trkpt>
      <trkpt lat="44.28891" lon="1.09268">
        <ele>141</ele>
        <time>2012-03-11 10:08:18 +0000</time>
      </trkpt>
      <trkpt lat="44.28875" lon="1.09262">
        <ele>134</ele>
        <time>2012-03-11 10:08:21 +0000</time>
      </trkpt>
      <trkpt lat="44.28859" lon="1.09257">
        <ele>139</ele>
        <time>2012-03-11 10:08:24 +0000</time>
      </trkpt>
      <trkpt lat="44.28838" lon="1.0925">
        <ele>133</ele>
        <time>2012-03-11 10:08:28 +0000</time>
      </trkpt>
      <trkpt lat="44.28816" lon="1.09246">
        <ele>134</ele>
        <time>2012-03-11 10:08:32 +0000</time>
      </trkpt>
      <trkpt lat="44.28801" lon="1.09242">
        <ele>138</ele>
        <time>2012-03-11 10:08:35 +0000</time>
      </trkpt>
      <trkpt lat="44.28782" lon="1.09243">
        <ele>137</ele>
        <time>2012-03-11 10:08:39 +0000</time>
      </trkpt>
      <trkpt lat="44.28767" lon="1.09246">
        <ele>143</ele>
        <time>2012-03-11 10:08:42 +0000</time>
      </trkpt>
      <trkpt lat="44.28746" lon="1.09252">
        <ele>140</ele>
        <time>2012-03-11 10:08:46 +0000</time>
      </trkpt>
      <trkpt lat="44.2873" lon="1.09248">
        <ele>136</ele>
        <time>2012-03-11 10:08:50 +0000</time>
      </trkpt>
      <trkpt lat="44.28714" lon="1.09243">
        <ele>141</ele>
        <time>2012-03-11 10:08:53 +0000</time>
      </trkpt>
      <trkpt lat="44.28697" lon="1.09232">
        <ele>139</ele>
        <time>2012-03-11 10:08:57 +0000</time>
      </trkpt>
      <trkpt lat="44.28681" lon="1.0922">
        <ele>138</ele>
        <time>2012-03-11 10:09:01 +0000</time>
      </trkpt>
      <trkpt lat="44.28667" lon="1.09212">
        <ele>141</ele>
        <time>2012-03-11 10:09:04 +0000</time>
      </trkpt>
      <trkpt lat="44.28649" lon="1.092">
        <ele>140</ele>
        <time>2012-03-11 10:09:08 +0000</time>
      </trkpt>
      <trkpt lat="44.28637" lon="1.09194">
        <ele>139</ele>
        <time>2012-03-11 10:09:11 +0000</time>
      </trkpt>
      <trkpt lat="44.2862" lon="1.09185">
        <ele>139</ele>
        <time>2012-03-11 10:09:15 +0000</time>
      </trkpt>
      <trkpt lat="44.28601" lon="1.0918">
        <ele>136</ele>
        <time>2012-03-11 10:09:19 +0000</time>
      </trkpt>
      <trkpt lat="44.28587" lon="1.09176">
        <ele>141</ele>
        <time>2012-03-11 10:09:22 +0000</time>
      </trkpt>
      <trkpt lat="44.2857" lon="1.09171">
        <ele>136</ele>
        <time>2012-03-11 10:09:25 +0000</time>
      </trkpt>
      <trkpt lat="44.28551" lon="1.09164">
        <ele>139</ele>
        <time>2012-03-11 10:09:29 +0000</time>
      </trkpt>
      <trkpt lat="44.28532" lon="1.09158">
        <ele>137</ele>
        <time>2012-03-11 10:09:33 +0000</time>
      </trkpt>
      <trkpt lat="44.28514" lon="1.09151">
        <ele>137</ele>
        <time>2012-03-11 10:09:37 +0000</time>
      </trkpt>
      <trkpt lat="44.28496" lon="1.09144">
        <ele>137</ele>
        <time>2012-03-11 10:09:41 +0000</time>
      </trkpt>
      <trkpt lat="44.28479" lon="1.09136">
        <ele>141</ele>
        <time>2012-03-11 10:09:45 +0000</time>
      </trkpt>
      <trkpt lat="44.28462" lon="1.09129">
        <ele>140</ele>
        <time>2012-03-11 10:09:49 +0000</time>
      </trkpt>
      <trkpt lat="44.28456" lon="1.09123">
        <ele>141</ele>
        <time>2012-03-11 10:09:52 +0000</time>
      </trkpt>
      <trkpt lat="44.28463" lon="1.0911">
        <ele>139</ele>
        <time>2012-03-11 10:09:56 +0000</time>
      </trkpt>
      <trkpt lat="44.28472" lon="1.09097">
        <ele>137</ele>
        <time>2012-03-11 10:09:59 +0000</time>
      </trkpt>
      <trkpt lat="44.28482" lon="1.09078">
        <ele>141</ele>
        <time>2012-03-11 10:10:03 +0000</time>
      </trkpt>
      <trkpt lat="44.28488" lon="1.09064">
        <ele>146</ele>
        <time>2012-03-11 10:10:06 +0000</time>
      </trkpt>
      <trkpt lat="44.28494" lon="1.09047">
        <ele>139</ele>
        <time>2012-03-11 10:10:09 +0000</time>
      </trkpt>
      <trkpt lat="44.28499" lon="1.09031">
        <ele>142</ele>
        <time>2012-03-11 10:10:12 +0000</time>
      </trkpt>
      <trkpt lat="44.28503" lon="1.09005">
        <ele>139</ele>
        <time>2012-03-11 10:10:16 +0000</time>
      </trkpt>
      <trkpt lat="44.28503" lon="1.0899">
        <ele>142</ele>
        <time>2012-03-11 10:10:19 +0000</time>
      </trkpt>
      <trkpt lat="44.28505" lon="1.08972">
        <ele>139</ele>
        <time>2012-03-11 10:10:22 +0000</time>
      </trkpt>
      <trkpt lat="44.28505" lon="1.08957">
        <ele>143</ele>
        <time>2012-03-11 10:10:25 +0000</time>
      </trkpt>
      <trkpt lat="44.28505" lon="1.08932">
        <ele>140</ele>
        <time>2012-03-11 10:10:29 +0000</time>
      </trkpt>
      <trkpt lat="44.28508" lon="1.08917">
        <ele>137</ele>
        <time>2012-03-11 10:10:32 +0000</time>
      </trkpt>
      <trkpt lat="44.28513" lon="1.08903">
        <ele>140</ele>
        <time>2012-03-11 10:10:36 +0000</time>
      </trkpt>
      <trkpt lat="44.28518" lon="1.08891">
        <ele>141</ele>
        <time>2012-03-11 10:10:39 +0000</time>
      </trkpt>
      <trkpt lat="44.28528" lon="1.08876">
        <ele>141</ele>
        <time>2012-03-11 10:10:43 +0000</time>
      </trkpt>
      <trkpt lat="44.28533" lon="1.08865">
        <ele>139</ele>
        <time>2012-03-11 10:10:46 +0000</time>
      </trkpt>
      <trkpt lat="44.28538" lon="1.0885">
        <ele>146</ele>
        <time>2012-03-11 10:10:49 +0000</time>
      </trkpt>
      <trkpt lat="44.28543" lon="1.08825">
        <ele>139</ele>
        <time>2012-03-11 10:10:53 +0000</time>
      </trkpt>
      <trkpt lat="44.28548" lon="1.08804">
        <ele>137</ele>
        <time>2012-03-11 10:10:57 +0000</time>
      </trkpt>
      <trkpt lat="44.28551" lon="1.08787">
        <ele>146</ele>
        <time>2012-03-11 10:11:00 +0000</time>
      </trkpt>
      <trkpt lat="44.28557" lon="1.08766">
        <ele>140</ele>
        <time>2012-03-11 10:11:04 +0000</time>
      </trkpt>
      <trkpt lat="44.2856" lon="1.08753">
        <ele>139</ele>
        <time>2012-03-11 10:11:07 +0000</time>
      </trkpt>
      <trkpt lat="44.28565" lon="1.08739">
        <ele>143</ele>
        <time>2012-03-11 10:11:10 +0000</time>
      </trkpt>
      <trkpt lat="44.28573" lon="1.08731">
        <ele>141</ele>
        <time>2012-03-11 10:11:14 +0000</time>
      </trkpt>
      <trkpt lat="44.28583" lon="1.08724">
        <ele>137</ele>
        <time>2012-03-11 10:11:18 +0000</time>
      </trkpt>
      <trkpt lat="44.28592" lon="1.08719">
        <ele>137</ele>
        <time>2012-03-11 10:11:22 +0000</time>
      </trkpt>
      <trkpt lat="44.28599" lon="1.08715">
        <ele>141</ele>
        <time>2012-03-11 10:11:25 +0000</time>
      </trkpt>
      <trkpt lat="44.28606" lon="1.08711">
        <ele>139</ele>
        <time>2012-03-11 10:11:29 +0000</time>
      </trkpt>
      <trkpt lat="44.28611" lon="1.08706">
        <ele>144</ele>
        <time>2012-03-11 10:11:32 +0000</time>
      </trkpt>
      <trkpt lat="44.28614" lon="1.08698">
        <ele>143</ele>
        <time>2012-03-11 10:11:36 +0000</time>
      </trkpt>
      <trkpt lat="44.28614" lon="1.08689">
        <ele>143</ele>
        <time>2012-03-11 10:11:39 +0000</time>
      </trkpt>
      <trkpt lat="44.28614" lon="1.08681">
        <ele>142</ele>
        <time>2012-03-11 10:11:42 +0000</time>
      </trkpt>
      <trkpt lat="44.28614" lon="1.0867">
        <ele>148</ele>
        <time>2012-03-11 10:11:46 +0000</time>
      </trkpt>
      <trkpt lat="44.28613" lon="1.08658">
        <ele>148</ele>
        <time>2012-03-11 10:11:50 +0000</time>
      </trkpt>
      <trkpt lat="44.28613" lon="1.0865">
        <ele>152</ele>
        <time>2012-03-11 10:11:53 +0000</time>
      </trkpt>
      <trkpt lat="44.28614" lon="1.08639">
        <ele>153</ele>
        <time>2012-03-11 10:11:57 +0000</time>
      </trkpt>
      <trkpt lat="44.28615" lon="1.08632">
        <ele>153</ele>
        <time>2012-03-11 10:12:00 +0000</time>
      </trkpt>
      <trkpt lat="44.28619" lon="1.08624">
        <ele>150</ele>
        <time>2012-03-11 10:12:04 +0000</time>
      </trkpt>
      <trkpt lat="44.28622" lon="1.08618">
        <ele>151</ele>
        <time>2012-03-11 10:12:07 +0000</time>
      </trkpt>
      <trkpt lat="44.28625" lon="1.08613">
        <ele>155</ele>
        <time>2012-03-11 10:12:10 +0000</time>
      </trkpt>
      <trkpt lat="44.2863" lon="1.08606">
        <ele>157</ele>
        <time>2012-03-11 10:12:14 +0000</time>
      </trkpt>
      <trkpt lat="44.28633" lon="1.08599">
        <ele>153</ele>
        <time>2012-03-11 10:12:18 +0000</time>
      </trkpt>
      <trkpt lat="44.28636" lon="1.08593">
        <ele>154</ele>
        <time>2012-03-11 10:12:22 +0000</time>
      </trkpt>
      <trkpt lat="44.2864" lon="1.08586">
        <ele>155</ele>
        <time>2012-03-11 10:12:26 +0000</time>
      </trkpt>
      <trkpt lat="44.28641" lon="1.0858">
        <ele>154</ele>
        <time>2012-03-11 10:12:29 +0000</time>
      </trkpt>
      <trkpt lat="44.28643" lon="1.08574">
        <ele>157</ele>
        <time>2012-03-11 10:12:32 +0000</time>
      </trkpt>
      <trkpt lat="44.28647" lon="1.08567">
        <ele>159</ele>
        <time>2012-03-11 10:12:36 +0000</time>
      </trkpt>
      <trkpt lat="44.28651" lon="1.0856">
        <ele>158</ele>
        <time>2012-03-11 10:12:39 +0000</time>
      </trkpt>
      <trkpt lat="44.28654" lon="1.08551">
        <ele>156</ele>
        <time>2012-03-11 10:12:43 +0000</time>
      </trkpt>
      <trkpt lat="44.28657" lon="1.08545">
        <ele>155</ele>
        <time>2012-03-11 10:12:46 +0000</time>
      </trkpt>
      <trkpt lat="44.28661" lon="1.08538">
        <ele>158</ele>
        <time>2012-03-11 10:12:50 +0000</time>
      </trkpt>
      <trkpt lat="44.28666" lon="1.0853">
        <ele>154</ele>
        <time>2012-03-11 10:12:54 +0000</time>
      </trkpt>
      <trkpt lat="44.28669" lon="1.08524">
        <ele>156</ele>
        <time>2012-03-11 10:12:57 +0000</time>
      </trkpt>
      <trkpt lat="44.28674" lon="1.08517">
        <ele>154</ele>
        <time>2012-03-11 10:13:01 +0000</time>
      </trkpt>
      <trkpt lat="44.28679" lon="1.08509">
        <ele>158</ele>
        <time>2012-03-11 10:13:05 +0000</time>
      </trkpt>
      <trkpt lat="44.28683" lon="1.08502">
        <ele>160</ele>
        <time>2012-03-11 10:13:09 +0000</time>
      </trkpt>
      <trkpt lat="44.28687" lon="1.08496">
        <ele>160</ele>
        <time>2012-03-11 10:13:12 +0000</time>
      </trkpt>
      <trkpt lat="44.28691" lon="1.08488">
        <ele>161</ele>
        <time>2012-03-11 10:13:16 +0000</time>
      </trkpt>
      <trkpt lat="44.28695" lon="1.08482">
        <ele>158</ele>
        <time>2012-03-11 10:13:19 +0000</time>
      </trkpt>
      <trkpt lat="44.28699" lon="1.08476">
        <ele>166</ele>
        <time>2012-03-11 10:13:23 +0000</time>
      </trkpt>
      <trkpt lat="44.28705" lon="1.08468">
        <ele>163</ele>
        <time>2012-03-11 10:13:27 +0000</time>
      </trkpt>
      <trkpt lat="44.2871" lon="1.08459">
        <ele>167</ele>
        <time>2012-03-11 10:13:31 +0000</time>
      </trkpt>
      <trkpt lat="44.28714" lon="1.08451">
        <ele>163</ele>
        <time>2012-03-11 10:13:35 +0000</time>
      </trkpt>
      <trkpt lat="44.28717" lon="1.08445">
        <ele>163</ele>
        <time>2012-03-11 10:13:38 +0000</time>
      </trkpt>
      <trkpt lat="44.28722" lon="1.08438">
        <ele>166</ele>
        <time>2012-03-11 10:13:42 +0000</time>
      </trkpt>
      <trkpt lat="44.28725" lon="1.08432">
        <ele>165</ele>
        <time>2012-03-11 10:13:45 +0000</time>
      </trkpt>
      <trkpt lat="44.28729" lon="1.08426">
        <ele>164</ele>
        <time>2012-03-11 10:13:48 +0000</time>
      </trkpt>
      <trkpt lat="44.28733" lon="1.08419">
        <ele>164</ele>
        <time>2012-03-11 10:13:52 +0000</time>
      </trkpt>
      <trkpt lat="44.28736" lon="1.08414">
        <ele>165</ele>
        <time>2012-03-11 10:13:55 +0000</time>
      </trkpt>
      <trkpt lat="44.2874" lon="1.08408">
        <ele>168</ele>
        <time>2012-03-11 10:13:58 +0000</time>
      </trkpt>
      <trkpt lat="44.28744" lon="1.084">
        <ele>168</ele>
        <time>2012-03-11 10:14:02 +0000</time>
      </trkpt>
      <trkpt lat="44.28748" lon="1.08393">
        <ele>170</ele>
        <time>2012-03-11 10:14:06 +0000</time>
      </trkpt>
      <trkpt lat="44.28751" lon="1.08387">
        <ele>171</ele>
        <time>2012-03-11 10:14:09 +0000</time>
      </trkpt>
      <trkpt lat="44.28753" lon="1.08382">
        <ele>170</ele>
        <time>2012-03-11 10:14:12 +0000</time>
      </trkpt>
      <trkpt lat="44.28757" lon="1.08374">
        <ele>166</ele>
        <time>2012-03-11 10:14:16 +0000</time>
      </trkpt>
      <trkpt lat="44.28759" lon="1.08369">
        <ele>167</ele>
        <time>2012-03-11 10:14:19 +0000</time>
      </trkpt>
      <trkpt lat="44.28764" lon="1.08362">
        <ele>167</ele>
        <time>2012-03-11 10:14:23 +0000</time>
      </trkpt>
      <trkpt lat="44.28765" lon="1.08356">
        <ele>173</ele>
        <time>2012-03-11 10:14:27 +0000</time>
      </trkpt>
      <trkpt lat="44.28769" lon="1.08349">
        <ele>173</ele>
        <time>2012-03-11 10:14:31 +0000</time>
      </trkpt>
      <trkpt lat="44.2877" lon="1.08343">
        <ele>171</ele>
        <time>2012-03-11 10:14:34 +0000</time>
      </trkpt>
      <trkpt lat="44.28773" lon="1.08335">
        <ele>170</ele>
        <time>2012-03-11 10:14:38 +0000</time>
      </trkpt>
      <trkpt lat="44.28776" lon="1.0833">
        <ele>171</ele>
        <time>2012-03-11 10:14:41 +0000</time>
      </trkpt>
      <trkpt lat="44.28778" lon="1.08326">
        <ele>170</ele>
        <time>2012-03-11 10:14:44 +0000</time>
      </trkpt>
      <trkpt lat="44.2878" lon="1.08321">
        <ele>171</ele>
        <time>2012-03-11 10:14:48 +0000</time>
      </trkpt>
      <trkpt lat="44.2878" lon="1.08315">
        <ele>172</ele>
        <time>2012-03-11 10:14:52 +0000</time>
      </trkpt>
      <trkpt lat="44.28781" lon="1.08309">
        <ele>176</ele>
        <time>2012-03-11 10:14:55 +0000</time>
      </trkpt>
      <trkpt lat="44.28782" lon="1.08299">
        <ele>176</ele>
        <time>2012-03-11 10:14:59 +0000</time>
      </trkpt>
      <trkpt lat="44.28783" lon="1.08294">
        <ele>178</ele>
        <time>2012-03-11 10:15:02 +0000</time>
      </trkpt>
      <trkpt lat="44.28785" lon="1.08288">
        <ele>176</ele>
        <time>2012-03-11 10:15:06 +0000</time>
      </trkpt>
      <trkpt lat="44.28786" lon="1.0828">
        <ele>176</ele>
        <time>2012-03-11 10:15:10 +0000</time>
      </trkpt>
      <trkpt lat="44.28787" lon="1.08272">
        <ele>177</ele>
        <time>2012-03-11 10:15:14 +0000</time>
      </trkpt>
      <trkpt lat="44.28788" lon="1.08267">
        <ele>180</ele>
        <time>2012-03-11 10:15:17 +0000</time>
      </trkpt>
      <trkpt lat="44.28791" lon="1.08258">
        <ele>178</ele>
        <time>2012-03-11 10:15:21 +0000</time>
      </trkpt>
      <trkpt lat="44.28792" lon="1.08249">
        <ele>174</ele>
        <time>2012-03-11 10:15:25 +0000</time>
      </trkpt>
      <trkpt lat="44.28793" lon="1.08241">
        <ele>174</ele>
        <time>2012-03-11 10:15:29 +0000</time>
      </trkpt>
      <trkpt lat="44.28794" lon="1.08236">
        <ele>178</ele>
        <time>2012-03-11 10:15:32 +0000</time>
      </trkpt>
      <trkpt lat="44.28796" lon="1.08228">
        <ele>177</ele>
        <time>2012-03-11 10:15:36 +0000</time>
      </trkpt>
      <trkpt lat="44.28797" lon="1.08219">
        <ele>174</ele>
        <time>2012-03-11 10:15:40 +0000</time>
      </trkpt>
      <trkpt lat="44.28797" lon="1.08212">
        <ele>178</ele>
        <time>2012-03-11 10:15:44 +0000</time>
      </trkpt>
      <trkpt lat="44.28799" lon="1.08206">
        <ele>180</ele>
        <time>2012-03-11 10:15:47 +0000</time>
      </trkpt>
      <trkpt lat="44.28802" lon="1.08199">
        <ele>178</ele>
        <time>2012-03-11 10:15:51 +0000</time>
      </trkpt>
      <trkpt lat="44.28805" lon="1.08191">
        <ele>178</ele>
        <time>2012-03-11 10:15:55 +0000</time>
      </trkpt>
      <trkpt lat="44.28807" lon="1.08183">
        <ele>177</ele>
        <time>2012-03-11 10:15:59 +0000</time>
      </trkpt>
      <trkpt lat="44.28809" lon="1.08176">
        <ele>179</ele>
        <time>2012-03-11 10:16:03 +0000</time>
      </trkpt>
      <trkpt lat="44.28811" lon="1.0817">
        <ele>178</ele>
        <time>2012-03-11 10:16:06 +0000</time>
      </trkpt>
      <trkpt lat="44.28812" lon="1.08162">
        <ele>182</ele>
        <time>2012-03-11 10:16:10 +0000</time>
      </trkpt>
      <trkpt lat="44.28814" lon="1.08156">
        <ele>183</ele>
        <time>2012-03-11 10:16:13 +0000</time>
      </trkpt>
      <trkpt lat="44.28815" lon="1.08149">
        <ele>182</ele>
        <time>2012-03-11 10:16:16 +0000</time>
      </trkpt>
      <trkpt lat="44.28819" lon="1.08141">
        <ele>184</ele>
        <time>2012-03-11 10:16:20 +0000</time>
      </trkpt>
      <trkpt lat="44.28821" lon="1.08133">
        <ele>180</ele>
        <time>2012-03-11 10:16:23 +0000</time>
      </trkpt>
      <trkpt lat="44.28824" lon="1.08125">
        <ele>183</ele>
        <time>2012-03-11 10:16:27 +0000</time>
      </trkpt>
      <trkpt lat="44.28827" lon="1.08121">
        <ele>184</ele>
        <time>2012-03-11 10:16:30 +0000</time>
      </trkpt>
      <trkpt lat="44.2883" lon="1.08114">
        <ele>187</ele>
        <time>2012-03-11 10:16:34 +0000</time>
      </trkpt>
      <trkpt lat="44.28833" lon="1.08108">
        <ele>184</ele>
        <time>2012-03-11 10:16:37 +0000</time>
      </trkpt>
      <trkpt lat="44.28836" lon="1.08102">
        <ele>184</ele>
        <time>2012-03-11 10:16:40 +0000</time>
      </trkpt>
      <trkpt lat="44.28838" lon="1.08094">
        <ele>185</ele>
        <time>2012-03-11 10:16:44 +0000</time>
      </trkpt>
      <trkpt lat="44.28841" lon="1.08087">
        <ele>188</ele>
        <time>2012-03-11 10:16:48 +0000</time>
      </trkpt>
      <trkpt lat="44.28844" lon="1.08078">
        <ele>188</ele>
        <time>2012-03-11 10:16:52 +0000</time>
      </trkpt>
      <trkpt lat="44.28848" lon="1.08072">
        <ele>182</ele>
        <time>2012-03-11 10:16:56 +0000</time>
      </trkpt>
      <trkpt lat="44.28849" lon="1.08064">
        <ele>185</ele>
        <time>2012-03-11 10:16:59 +0000</time>
      </trkpt>
      <trkpt lat="44.28852" lon="1.08057">
        <ele>191</ele>
        <time>2012-03-11 10:17:03 +0000</time>
      </trkpt>
      <trkpt lat="44.28854" lon="1.08052">
        <ele>189</ele>
        <time>2012-03-11 10:17:06 +0000</time>
      </trkpt>
      <trkpt lat="44.28856" lon="1.08044">
        <ele>188</ele>
        <time>2012-03-11 10:17:10 +0000</time>
      </trkpt>
      <trkpt lat="44.28857" lon="1.08038">
        <ele>189</ele>
        <time>2012-03-11 10:17:13 +0000</time>
      </trkpt>
      <trkpt lat="44.28858" lon="1.08033">
        <ele>195</ele>
        <time>2012-03-11 10:17:17 +0000</time>
      </trkpt>
      <trkpt lat="44.28859" lon="1.08028">
        <ele>193</ele>
        <time>2012-03-11 10:17:20 +0000</time>
      </trkpt>
      <trkpt lat="44.2886" lon="1.0802">
        <ele>190</ele>
        <time>2012-03-11 10:17:23 +0000</time>
      </trkpt>
      <trkpt lat="44.28862" lon="1.08013">
        <ele>191</ele>
        <time>2012-03-11 10:17:27 +0000</time>
      </trkpt>
      <trkpt lat="44.28865" lon="1.08007">
        <ele>188</ele>
        <time>2012-03-11 10:17:31 +0000</time>
      </trkpt>
      <trkpt lat="44.28867" lon="1.08002">
        <ele>192</ele>
        <time>2012-03-11 10:17:34 +0000</time>
      </trkpt>
      <trkpt lat="44.2887" lon="1.07994">
        <ele>197</ele>
        <time>2012-03-11 10:17:38 +0000</time>
      </trkpt>
      <trkpt lat="44.2887" lon="1.07985">
        <ele>197</ele>
        <time>2012-03-11 10:17:42 +0000</time>
      </trkpt>
      <trkpt lat="44.2887" lon="1.0798">
        <ele>198</ele>
        <time>2012-03-11 10:17:45 +0000</time>
      </trkpt>
      <trkpt lat="44.28872" lon="1.07975">
        <ele>200</ele>
        <time>2012-03-11 10:17:49 +0000</time>
      </trkpt>
      <trkpt lat="44.28873" lon="1.07967">
        <ele>203</ele>
        <time>2012-03-11 10:17:52 +0000</time>
      </trkpt>
      <trkpt lat="44.28873" lon="1.07961">
        <ele>201</ele>
        <time>2012-03-11 10:17:56 +0000</time>
      </trkpt>
      <trkpt lat="44.28873" lon="1.07952">
        <ele>199</ele>
        <time>2012-03-11 10:18:00 +0000</time>
      </trkpt>
      <trkpt lat="44.28874" lon="1.07946">
        <ele>199</ele>
        <time>2012-03-11 10:18:03 +0000</time>
      </trkpt>
      <trkpt lat="44.28875" lon="1.07937">
        <ele>203</ele>
        <time>2012-03-11 10:18:07 +0000</time>
      </trkpt>
      <trkpt lat="44.28875" lon="1.0793">
        <ele>201</ele>
        <time>2012-03-11 10:18:10 +0000</time>
      </trkpt>
      <trkpt lat="44.28875" lon="1.07922">
        <ele>206</ele>
        <time>2012-03-11 10:18:14 +0000</time>
      </trkpt>
      <trkpt lat="44.28875" lon="1.07914">
        <ele>202</ele>
        <time>2012-03-11 10:18:18 +0000</time>
      </trkpt>
      <trkpt lat="44.28876" lon="1.07908">
        <ele>199</ele>
        <time>2012-03-11 10:18:21 +0000</time>
      </trkpt>
      <trkpt lat="44.28878" lon="1.07898">
        <ele>206</ele>
        <time>2012-03-11 10:18:25 +0000</time>
      </trkpt>
      <trkpt lat="44.28878" lon="1.07892">
        <ele>205</ele>
        <time>2012-03-11 10:18:28 +0000</time>
      </trkpt>
      <trkpt lat="44.28878" lon="1.07885">
        <ele>201</ele>
        <time>2012-03-11 10:18:32 +0000</time>
      </trkpt>
      <trkpt lat="44.28879" lon="1.07876">
        <ele>203</ele>
        <time>2012-03-11 10:18:36 +0000</time>
      </trkpt>
      <trkpt lat="44.28881" lon="1.07869">
        <ele>204</ele>
        <time>2012-03-11 10:18:40 +0000</time>
      </trkpt>
      <trkpt lat="44.28883" lon="1.0786">
        <ele>203</ele>
        <time>2012-03-11 10:18:44 +0000</time>
      </trkpt>
      <trkpt lat="44.28887" lon="1.07851">
        <ele>206</ele>
        <time>2012-03-11 10:18:48 +0000</time>
      </trkpt>
      <trkpt lat="44.28891" lon="1.07844">
        <ele>201</ele>
        <time>2012-03-11 10:18:52 +0000</time>
      </trkpt>
      <trkpt lat="44.28894" lon="1.07839">
        <ele>201</ele>
        <time>2012-03-11 10:18:55 +0000</time>
      </trkpt>
      <trkpt lat="44.28897" lon="1.07834">
        <ele>201</ele>
        <time>2012-03-11 10:18:59 +0000</time>
      </trkpt>
      <trkpt lat="44.28901" lon="1.07829">
        <ele>203</ele>
        <time>2012-03-11 10:19:03 +0000</time>
      </trkpt>
      <trkpt lat="44.28904" lon="1.07824">
        <ele>200</ele>
        <time>2012-03-11 10:19:06 +0000</time>
      </trkpt>
      <trkpt lat="44.28907" lon="1.07816">
        <ele>204</ele>
        <time>2012-03-11 10:19:10 +0000</time>
      </trkpt>
      <trkpt lat="44.28911" lon="1.07811">
        <ele>207</ele>
        <time>2012-03-11 10:19:14 +0000</time>
      </trkpt>
      <trkpt lat="44.28914" lon="1.07806">
        <ele>204</ele>
        <time>2012-03-11 10:19:17 +0000</time>
      </trkpt>
      <trkpt lat="44.28918" lon="1.078">
        <ele>210</ele>
        <time>2012-03-11 10:19:21 +0000</time>
      </trkpt>
      <trkpt lat="44.28922" lon="1.07796">
        <ele>209</ele>
        <time>2012-03-11 10:19:24 +0000</time>
      </trkpt>
      <trkpt lat="44.28925" lon="1.0779">
        <ele>212</ele>
        <time>2012-03-11 10:19:28 +0000</time>
      </trkpt>
      <trkpt lat="44.28928" lon="1.07786">
        <ele>212</ele>
        <time>2012-03-11 10:19:31 +0000</time>
      </trkpt>
      <trkpt lat="44.28931" lon="1.07779">
        <ele>213</ele>
        <time>2012-03-11 10:19:34 +0000</time>
      </trkpt>
      <trkpt lat="44.28937" lon="1.07772">
        <ele>215</ele>
        <time>2012-03-11 10:19:38 +0000</time>
      </trkpt>
      <trkpt lat="44.2894" lon="1.07766">
        <ele>213</ele>
        <time>2012-03-11 10:19:41 +0000</time>
      </trkpt>
      <trkpt lat="44.28942" lon="1.0776">
        <ele>217</ele>
        <time>2012-03-11 10:19:44 +0000</time>
      </trkpt>
      <trkpt lat="44.28945" lon="1.07755">
        <ele>217</ele>
        <time>2012-03-11 10:19:47 +0000</time>
      </trkpt>
      <trkpt lat="44.28949" lon="1.07748">
        <ele>213</ele>
        <time>2012-03-11 10:19:51 +0000</time>
      </trkpt>
      <trkpt lat="44.28953" lon="1.07743">
        <ele>216</ele>
        <time>2012-03-11 10:19:55 +0000</time>
      </trkpt>
      <trkpt lat="44.28956" lon="1.07736">
        <ele>215</ele>
        <time>2012-03-11 10:19:59 +0000</time>
      </trkpt>
      <trkpt lat="44.28959" lon="1.07729">
        <ele>214</ele>
        <time>2012-03-11 10:20:03 +0000</time>
      </trkpt>
      <trkpt lat="44.2896" lon="1.07721">
        <ele>215</ele>
        <time>2012-03-11 10:20:07 +0000</time>
      </trkpt>
      <trkpt lat="44.28961" lon="1.07712">
        <ele>217</ele>
        <time>2012-03-11 10:20:11 +0000</time>
      </trkpt>
      <trkpt lat="44.28963" lon="1.07706">
        <ele>217</ele>
        <time>2012-03-11 10:20:14 +0000</time>
      </trkpt>
      <trkpt lat="44.28964" lon="1.07702">
        <ele>218</ele>
        <time>2012-03-11 10:20:17 +0000</time>
      </trkpt>
      <trkpt lat="44.28966" lon="1.07696">
        <ele>216</ele>
        <time>2012-03-11 10:20:20 +0000</time>
      </trkpt>
      <trkpt lat="44.28968" lon="1.07689">
        <ele>218</ele>
        <time>2012-03-11 10:20:24 +0000</time>
      </trkpt>
      <trkpt lat="44.2897" lon="1.0768">
        <ele>219</ele>
        <time>2012-03-11 10:20:28 +0000</time>
      </trkpt>
      <trkpt lat="44.28972" lon="1.07674">
        <ele>217</ele>
        <time>2012-03-11 10:20:31 +0000</time>
      </trkpt>
      <trkpt lat="44.28975" lon="1.07667">
        <ele>216</ele>
        <time>2012-03-11 10:20:35 +0000</time>
      </trkpt>
      <trkpt lat="44.28976" lon="1.07661">
        <ele>220</ele>
        <time>2012-03-11 10:20:38 +0000</time>
      </trkpt>
      <trkpt lat="44.28979" lon="1.07653">
        <ele>218</ele>
        <time>2012-03-11 10:20:42 +0000</time>
      </trkpt>
      <trkpt lat="44.28983" lon="1.07646">
        <ele>220</ele>
        <time>2012-03-11 10:20:46 +0000</time>
      </trkpt>
      <trkpt lat="44.28987" lon="1.07638">
        <ele>219</ele>
        <time>2012-03-11 10:20:50 +0000</time>
      </trkpt>
      <trkpt lat="44.28992" lon="1.07633">
        <ele>219</ele>
        <time>2012-03-11 10:20:54 +0000</time>
      </trkpt>
      <trkpt lat="44.28998" lon="1.07628">
        <ele>218</ele>
        <time>2012-03-11 10:20:58 +0000</time>
      </trkpt>
      <trkpt lat="44.29003" lon="1.07626">
        <ele>219</ele>
        <time>2012-03-11 10:21:01 +0000</time>
      </trkpt>
      <trkpt lat="44.29009" lon="1.07622">
        <ele>219</ele>
        <time>2012-03-11 10:21:05 +0000</time>
      </trkpt>
      <trkpt lat="44.29015" lon="1.0762">
        <ele>217</ele>
        <time>2012-03-11 10:21:09 +0000</time>
      </trkpt>
      <trkpt lat="44.2902" lon="1.07619">
        <ele>218</ele>
        <time>2012-03-11 10:21:12 +0000</time>
      </trkpt>
      <trkpt lat="44.29026" lon="1.07617">
        <ele>220</ele>
        <time>2012-03-11 10:21:16 +0000</time>
      </trkpt>
      <trkpt lat="44.29031" lon="1.07616">
        <ele>220</ele>
        <time>2012-03-11 10:21:19 +0000</time>
      </trkpt>
      <trkpt lat="44.29036" lon="1.07614">
        <ele>220</ele>
        <time>2012-03-11 10:21:22 +0000</time>
      </trkpt>
      <trkpt lat="44.29041" lon="1.07612">
        <ele>221</ele>
        <time>2012-03-11 10:21:25 +0000</time>
      </trkpt>
      <trkpt lat="44.29046" lon="1.0761">
        <ele>221</ele>
        <time>2012-03-11 10:21:29 +0000</time>
      </trkpt>
      <trkpt lat="44.2905" lon="1.07608">
        <ele>222</ele>
        <time>2012-03-11 10:21:32 +0000</time>
      </trkpt>
      <trkpt lat="44.29056" lon="1.07604">
        <ele>222</ele>
        <time>2012-03-11 10:21:36 +0000</time>
      </trkpt>
      <trkpt lat="44.29061" lon="1.07601">
        <ele>223</ele>
        <time>2012-03-11 10:21:39 +0000</time>
      </trkpt>
      <trkpt lat="44.29065" lon="1.07597">
        <ele>222</ele>
        <time>2012-03-11 10:21:42 +0000</time>
      </trkpt>
      <trkpt lat="44.29068" lon="1.07594">
        <ele>222</ele>
        <time>2012-03-11 10:21:45 +0000</time>
      </trkpt>
      <trkpt lat="44.29071" lon="1.0759">
        <ele>223</ele>
        <time>2012-03-11 10:21:49 +0000</time>
      </trkpt>
      <trkpt lat="44.29075" lon="1.07584">
        <ele>225</ele>
        <time>2012-03-11 10:21:53 +0000</time>
      </trkpt>
      <trkpt lat="44.29078" lon="1.0758">
        <ele>225</ele>
        <time>2012-03-11 10:21:56 +0000</time>
      </trkpt>
      <trkpt lat="44.29083" lon="1.07575">
        <ele>226</ele>
        <time>2012-03-11 10:22:00 +0000</time>
      </trkpt>
      <trkpt lat="44.29087" lon="1.07571">
        <ele>226</ele>
        <time>2012-03-11 10:22:03 +0000</time>
      </trkpt>
      <trkpt lat="44.29092" lon="1.07566">
        <ele>228</ele>
        <time>2012-03-11 10:22:07 +0000</time>
      </trkpt>
      <trkpt lat="44.29097" lon="1.0756">
        <ele>230</ele>
        <time>2012-03-11 10:22:11 +0000</time>
      </trkpt>
      <trkpt lat="44.291" lon="1.07555">
        <ele>232</ele>
        <time>2012-03-11 10:22:14 +0000</time>
      </trkpt>
      <trkpt lat="44.29105" lon="1.07548">
        <ele>229</ele>
        <time>2012-03-11 10:22:18 +0000</time>
      </trkpt>
      <trkpt lat="44.29108" lon="1.07544">
        <ele>229</ele>
        <time>2012-03-11 10:22:21 +0000</time>
      </trkpt>
      <trkpt lat="44.29113" lon="1.07536">
        <ele>225</ele>
        <time>2012-03-11 10:22:25 +0000</time>
      </trkpt>
      <trkpt lat="44.29118" lon="1.0753">
        <ele>227</ele>
        <time>2012-03-11 10:22:29 +0000</time>
      </trkpt>
      <trkpt lat="44.29121" lon="1.07525">
        <ele>226</ele>
        <time>2012-03-11 10:22:32 +0000</time>
      </trkpt>
      <trkpt lat="44.29126" lon="1.07519">
        <ele>231</ele>
        <time>2012-03-11 10:22:36 +0000</time>
      </trkpt>
      <trkpt lat="44.29131" lon="1.07514">
        <ele>232</ele>
        <time>2012-03-11 10:22:40 +0000</time>
      </trkpt>
      <trkpt lat="44.29135" lon="1.07508">
        <ele>232</ele>
        <time>2012-03-11 10:22:44 +0000</time>
      </trkpt>
      <trkpt lat="44.2914" lon="1.07502">
        <ele>233</ele>
        <time>2012-03-11 10:22:48 +0000</time>
      </trkpt>
      <trkpt lat="44.29145" lon="1.07497">
        <ele>231</ele>
        <time>2012-03-11 10:22:51 +0000</time>
      </trkpt>
      <trkpt lat="44.2915" lon="1.07491">
        <ele>234</ele>
        <time>2012-03-11 10:22:55 +0000</time>
      </trkpt>
      <trkpt lat="44.29155" lon="1.07485">
        <ele>231</ele>
        <time>2012-03-11 10:22:59 +0000</time>
      </trkpt>
      <trkpt lat="44.29159" lon="1.07478">
        <ele>233</ele>
        <time>2012-03-11 10:23:03 +0000</time>
      </trkpt>
      <trkpt lat="44.29162" lon="1.07473">
        <ele>233</ele>
        <time>2012-03-11 10:23:06 +0000</time>
      </trkpt>
      <trkpt lat="44.29165" lon="1.07467">
        <ele>229</ele>
        <time>2012-03-11 10:23:09 +0000</time>
      </trkpt>
      <trkpt lat="44.29167" lon="1.07461">
        <ele>231</ele>
        <time>2012-03-11 10:23:13 +0000</time>
      </trkpt>
      <trkpt lat="44.29171" lon="1.07454">
        <ele>233</ele>
        <time>2012-03-11 10:23:17 +0000</time>
      </trkpt>
      <trkpt lat="44.29174" lon="1.07445">
        <ele>232</ele>
        <time>2012-03-11 10:23:22 +0000</time>
      </trkpt>
      <trkpt lat="44.29178" lon="1.07438">
        <ele>232</ele>
        <time>2012-03-11 10:23:25 +0000</time>
      </trkpt>
      <trkpt lat="44.29181" lon="1.07428">
        <ele>235</ele>
        <time>2012-03-11 10:23:29 +0000</time>
      </trkpt>
      <trkpt lat="44.29185" lon="1.07421">
        <ele>232</ele>
        <time>2012-03-11 10:23:33 +0000</time>
      </trkpt>
      <trkpt lat="44.29189" lon="1.07413">
        <ele>233</ele>
        <time>2012-03-11 10:23:36 +0000</time>
      </trkpt>
      <trkpt lat="44.29193" lon="1.07402">
        <ele>231</ele>
        <time>2012-03-11 10:23:40 +0000</time>
      </trkpt>
      <trkpt lat="44.29197" lon="1.07394">
        <ele>233</ele>
        <time>2012-03-11 10:23:43 +0000</time>
      </trkpt>
      <trkpt lat="44.29201" lon="1.07382">
        <ele>232</ele>
        <time>2012-03-11 10:23:47 +0000</time>
      </trkpt>
      <trkpt lat="44.29207" lon="1.07368">
        <ele>233</ele>
        <time>2012-03-11 10:23:51 +0000</time>
      </trkpt>
      <trkpt lat="44.29212" lon="1.07356">
        <ele>234</ele>
        <time>2012-03-11 10:23:54 +0000</time>
      </trkpt>
      <trkpt lat="44.29219" lon="1.0734">
        <ele>232</ele>
        <time>2012-03-11 10:23:58 +0000</time>
      </trkpt>
      <trkpt lat="44.29226" lon="1.07323">
        <ele>229</ele>
        <time>2012-03-11 10:24:02 +0000</time>
      </trkpt>
      <trkpt lat="44.29232" lon="1.07309">
        <ele>229</ele>
        <time>2012-03-11 10:24:05 +0000</time>
      </trkpt>
      <trkpt lat="44.2924" lon="1.07289">
        <ele>231</ele>
        <time>2012-03-11 10:24:09 +0000</time>
      </trkpt>
      <trkpt lat="44.29248" lon="1.07272">
        <ele>227</ele>
        <time>2012-03-11 10:24:13 +0000</time>
      </trkpt>
      <trkpt lat="44.29255" lon="1.07259">
        <ele>226</ele>
        <time>2012-03-11 10:24:16 +0000</time>
      </trkpt>
      <trkpt lat="44.29267" lon="1.07242">
        <ele>227</ele>
        <time>2012-03-11 10:24:20 +0000</time>
      </trkpt>
      <trkpt lat="44.29278" lon="1.0723">
        <ele>226</ele>
        <time>2012-03-11 10:24:24 +0000</time>
      </trkpt>
      <trkpt lat="44.29286" lon="1.07222">
        <ele>225</ele>
        <time>2012-03-11 10:24:27 +0000</time>
      </trkpt>
      <trkpt lat="44.29295" lon="1.07215">
        <ele>225</ele>
        <time>2012-03-11 10:24:30 +0000</time>
      </trkpt>
      <trkpt lat="44.29303" lon="1.07208">
        <ele>226</ele>
        <time>2012-03-11 10:24:33 +0000</time>
      </trkpt>
      <trkpt lat="44.29314" lon="1.072">
        <ele>227</ele>
        <time>2012-03-11 10:24:37 +0000</time>
      </trkpt>
      <trkpt lat="44.29325" lon="1.07192">
        <ele>225</ele>
        <time>2012-03-11 10:24:41 +0000</time>
      </trkpt>
      <trkpt lat="44.29333" lon="1.07186">
        <ele>225</ele>
        <time>2012-03-11 10:24:44 +0000</time>
      </trkpt>
      <trkpt lat="44.29345" lon="1.07178">
        <ele>223</ele>
        <time>2012-03-11 10:24:48 +0000</time>
      </trkpt>
      <trkpt lat="44.29356" lon="1.07171">
        <ele>225</ele>
        <time>2012-03-11 10:24:52 +0000</time>
      </trkpt>
      <trkpt lat="44.29367" lon="1.07163">
        <ele>224</ele>
        <time>2012-03-11 10:24:56 +0000</time>
      </trkpt>
      <trkpt lat="44.29376" lon="1.07157">
        <ele>224</ele>
        <time>2012-03-11 10:24:59 +0000</time>
      </trkpt>
      <trkpt lat="44.29387" lon="1.07148">
        <ele>223</ele>
        <time>2012-03-11 10:25:03 +0000</time>
      </trkpt>
      <trkpt lat="44.29396" lon="1.0714">
        <ele>222</ele>
        <time>2012-03-11 10:25:06 +0000</time>
      </trkpt>
      <trkpt lat="44.29405" lon="1.07131">
        <ele>221</ele>
        <time>2012-03-11 10:25:09 +0000</time>
      </trkpt>
      <trkpt lat="44.29417" lon="1.0712">
        <ele>221</ele>
        <time>2012-03-11 10:25:13 +0000</time>
      </trkpt>
      <trkpt lat="44.29427" lon="1.07111">
        <ele>222</ele>
        <time>2012-03-11 10:25:16 +0000</time>
      </trkpt>
      <trkpt lat="44.29439" lon="1.07099">
        <ele>221</ele>
        <time>2012-03-11 10:25:20 +0000</time>
      </trkpt>
      <trkpt lat="44.29448" lon="1.0709">
        <ele>222</ele>
        <time>2012-03-11 10:25:23 +0000</time>
      </trkpt>
      <trkpt lat="44.2946" lon="1.07078">
        <ele>221</ele>
        <time>2012-03-11 10:25:27 +0000</time>
      </trkpt>
      <trkpt lat="44.29474" lon="1.07066">
        <ele>221</ele>
        <time>2012-03-11 10:25:31 +0000</time>
      </trkpt>
      <trkpt lat="44.29486" lon="1.07057">
        <ele>220</ele>
        <time>2012-03-11 10:25:34 +0000</time>
      </trkpt>
      <trkpt lat="44.29503" lon="1.07047">
        <ele>219</ele>
        <time>2012-03-11 10:25:38 +0000</time>
      </trkpt>
      <trkpt lat="44.29523" lon="1.07038">
        <ele>220</ele>
        <time>2012-03-11 10:25:42 +0000</time>
      </trkpt>
      <trkpt lat="44.29539" lon="1.07028">
        <ele>217</ele>
        <time>2012-03-11 10:25:46 +0000</time>
      </trkpt>
      <trkpt lat="44.29557" lon="1.07015">
        <ele>217</ele>
        <time>2012-03-11 10:25:50 +0000</time>
      </trkpt>
      <trkpt lat="44.2957" lon="1.07009">
        <ele>216</ele>
        <time>2012-03-11 10:25:53 +0000</time>
      </trkpt>
      <trkpt lat="44.29584" lon="1.07007">
        <ele>217</ele>
        <time>2012-03-11 10:25:57 +0000</time>
      </trkpt>
      <trkpt lat="44.29593" lon="1.07005">
        <ele>214</ele>
        <time>2012-03-11 10:26:01 +0000</time>
      </trkpt>
      <trkpt lat="44.29603" lon="1.07002">
        <ele>214</ele>
        <time>2012-03-11 10:26:05 +0000</time>
      </trkpt>
      <trkpt lat="44.2961" lon="1.07001">
        <ele>217</ele>
        <time>2012-03-11 10:26:08 +0000</time>
      </trkpt>
      <trkpt lat="44.29617" lon="1.06998">
        <ele>216</ele>
        <time>2012-03-11 10:26:12 +0000</time>
      </trkpt>
      <trkpt lat="44.29624" lon="1.06996">
        <ele>220</ele>
        <time>2012-03-11 10:26:16 +0000</time>
      </trkpt>
      <trkpt lat="44.29629" lon="1.06993">
        <ele>217</ele>
        <time>2012-03-11 10:26:19 +0000</time>
      </trkpt>
      <trkpt lat="44.29636" lon="1.06987">
        <ele>217</ele>
        <time>2012-03-11 10:26:23 +0000</time>
      </trkpt>
      <trkpt lat="44.29642" lon="1.06982">
        <ele>226</ele>
        <time>2012-03-11 10:26:27 +0000</time>
      </trkpt>
      <trkpt lat="44.29646" lon="1.06978">
        <ele>229</ele>
        <time>2012-03-11 10:26:30 +0000</time>
      </trkpt>
      <trkpt lat="44.29652" lon="1.06973">
        <ele>228</ele>
        <time>2012-03-11 10:26:34 +0000</time>
      </trkpt>
      <trkpt lat="44.29658" lon="1.06967">
        <ele>226</ele>
        <time>2012-03-11 10:26:38 +0000</time>
      </trkpt>
      <trkpt lat="44.29662" lon="1.06962">
        <ele>222</ele>
        <time>2012-03-11 10:26:41 +0000</time>
      </trkpt>
      <trkpt lat="44.29669" lon="1.06954">
        <ele>226</ele>
        <time>2012-03-11 10:26:45 +0000</time>
      </trkpt>
      <trkpt lat="44.29676" lon="1.06947">
        <ele>226</ele>
        <time>2012-03-11 10:26:49 +0000</time>
      </trkpt>
      <trkpt lat="44.29682" lon="1.06941">
        <ele>229</ele>
        <time>2012-03-11 10:26:52 +0000</time>
      </trkpt>
      <trkpt lat="44.2969" lon="1.06933">
        <ele>228</ele>
        <time>2012-03-11 10:26:56 +0000</time>
      </trkpt>
      <trkpt lat="44.29696" lon="1.06926">
        <ele>227</ele>
        <time>2012-03-11 10:26:59 +0000</time>
      </trkpt>
      <trkpt lat="44.29705" lon="1.06916">
        <ele>225</ele>
        <time>2012-03-11 10:27:03 +0000</time>
      </trkpt>
      <trkpt lat="44.29717" lon="1.06903">
        <ele>226</ele>
        <time>2012-03-11 10:27:07 +0000</time>
      </trkpt>
      <trkpt lat="44.29726" lon="1.06892">
        <ele>224</ele>
        <time>2012-03-11 10:27:11 +0000</time>
      </trkpt>
      <trkpt lat="44.29734" lon="1.06882">
        <ele>224</ele>
        <time>2012-03-11 10:27:14 +0000</time>
      </trkpt>
      <trkpt lat="44.29745" lon="1.06868">
        <ele>221</ele>
        <time>2012-03-11 10:27:18 +0000</time>
      </trkpt>
      <trkpt lat="44.29753" lon="1.06855">
        <ele>218</ele>
        <time>2012-03-11 10:27:22 +0000</time>
      </trkpt>
      <trkpt lat="44.29764" lon="1.06839">
        <ele>223</ele>
        <time>2012-03-11 10:27:26 +0000</time>
      </trkpt>
      <trkpt lat="44.29771" lon="1.0683">
        <ele>223</ele>
        <time>2012-03-11 10:27:29 +0000</time>
      </trkpt>
      <trkpt lat="44.29776" lon="1.06823">
        <ele>221</ele>
        <time>2012-03-11 10:27:32 +0000</time>
      </trkpt>
      <trkpt lat="44.29784" lon="1.06815">
        <ele>222</ele>
        <time>2012-03-11 10:27:35 +0000</time>
      </trkpt>
      <trkpt lat="44.29795" lon="1.06805">
        <ele>223</ele>
        <time>2012-03-11 10:27:39 +0000</time>
      </trkpt>
      <trkpt lat="44.29806" lon="1.06797">
        <ele>224</ele>
        <time>2012-03-11 10:27:43 +0000</time>
      </trkpt>
      <trkpt lat="44.29814" lon="1.06791">
        <ele>225</ele>
        <time>2012-03-11 10:27:46 +0000</time>
      </trkpt>
      <trkpt lat="44.29824" lon="1.06785">
        <ele>225</ele>
        <time>2012-03-11 10:27:50 +0000</time>
      </trkpt>
      <trkpt lat="44.29834" lon="1.06778">
        <ele>226</ele>
        <time>2012-03-11 10:27:54 +0000</time>
      </trkpt>
      <trkpt lat="44.2984" lon="1.06773">
        <ele>229</ele>
        <time>2012-03-11 10:27:57 +0000</time>
      </trkpt>
      <trkpt lat="44.29847" lon="1.06767">
        <ele>226</ele>
        <time>2012-03-11 10:28:01 +0000</time>
      </trkpt>
      <trkpt lat="44.29852" lon="1.06761">
        <ele>226</ele>
        <time>2012-03-11 10:28:04 +0000</time>
      </trkpt>
      <trkpt lat="44.29858" lon="1.06755">
        <ele>232</ele>
        <time>2012-03-11 10:28:08 +0000</time>
      </trkpt>
      <trkpt lat="44.29866" lon="1.06749">
        <ele>232</ele>
        <time>2012-03-11 10:28:12 +0000</time>
      </trkpt>
      <trkpt lat="44.29871" lon="1.06745">
        <ele>236</ele>
        <time>2012-03-11 10:28:15 +0000</time>
      </trkpt>
      <trkpt lat="44.29876" lon="1.06739">
        <ele>236</ele>
        <time>2012-03-11 10:28:19 +0000</time>
      </trkpt>
      <trkpt lat="44.29881" lon="1.06736">
        <ele>228</ele>
        <time>2012-03-11 10:28:22 +0000</time>
      </trkpt>
      <trkpt lat="44.29888" lon="1.06732">
        <ele>232</ele>
        <time>2012-03-11 10:28:26 +0000</time>
      </trkpt>
      <trkpt lat="44.29892" lon="1.06729">
        <ele>233</ele>
        <time>2012-03-11 10:28:29 +0000</time>
      </trkpt>
      <trkpt lat="44.29896" lon="1.06725">
        <ele>231</ele>
        <time>2012-03-11 10:28:33 +0000</time>
      </trkpt>
      <trkpt lat="44.29902" lon="1.06722">
        <ele>234</ele>
        <time>2012-03-11 10:28:37 +0000</time>
      </trkpt>
      <trkpt lat="44.29905" lon="1.06719">
        <ele>235</ele>
        <time>2012-03-11 10:28:40 +0000</time>
      </trkpt>
      <trkpt lat="44.29908" lon="1.06717">
        <ele>233</ele>
        <time>2012-03-11 10:28:43 +0000</time>
      </trkpt>
      <trkpt lat="44.29911" lon="1.06715">
        <ele>234</ele>
        <time>2012-03-11 10:28:46 +0000</time>
      </trkpt>
      <trkpt lat="44.29915" lon="1.06713">
        <ele>236</ele>
        <time>2012-03-11 10:28:49 +0000</time>
      </trkpt>
      <trkpt lat="44.29919" lon="1.06711">
        <ele>238</ele>
        <time>2012-03-11 10:28:52 +0000</time>
      </trkpt>
      <trkpt lat="44.29924" lon="1.06707">
        <ele>238</ele>
        <time>2012-03-11 10:28:56 +0000</time>
      </trkpt>
      <trkpt lat="44.29928" lon="1.06703">
        <ele>235</ele>
        <time>2012-03-11 10:29:00 +0000</time>
      </trkpt>
      <trkpt lat="44.29932" lon="1.06699">
        <ele>237</ele>
        <time>2012-03-11 10:29:03 +0000</time>
      </trkpt>
      <trkpt lat="44.29936" lon="1.06693">
        <ele>238</ele>
        <time>2012-03-11 10:29:07 +0000</time>
      </trkpt>
      <trkpt lat="44.29939" lon="1.06687">
        <ele>239</ele>
        <time>2012-03-11 10:29:10 +0000</time>
      </trkpt>
      <trkpt lat="44.29943" lon="1.06681">
        <ele>239</ele>
        <time>2012-03-11 10:29:13 +0000</time>
      </trkpt>
      <trkpt lat="44.29947" lon="1.06672">
        <ele>239</ele>
        <time>2012-03-11 10:29:17 +0000</time>
      </trkpt>
      <trkpt lat="44.29951" lon="1.06662">
        <ele>240</ele>
        <time>2012-03-11 10:29:21 +0000</time>
      </trkpt>
      <trkpt lat="44.29954" lon="1.06654">
        <ele>241</ele>
        <time>2012-03-11 10:29:24 +0000</time>
      </trkpt>
      <trkpt lat="44.29957" lon="1.06646">
        <ele>243</ele>
        <time>2012-03-11 10:29:27 +0000</time>
      </trkpt>
      <trkpt lat="44.29963" lon="1.06637">
        <ele>239</ele>
        <time>2012-03-11 10:29:31 +0000</time>
      </trkpt>
      <trkpt lat="44.29968" lon="1.06634">
        <ele>238</ele>
        <time>2012-03-11 10:29:34 +0000</time>
      </trkpt>
      <trkpt lat="44.29975" lon="1.06637">
        <ele>238</ele>
        <time>2012-03-11 10:29:38 +0000</time>
      </trkpt>
      <trkpt lat="44.29985" lon="1.06644">
        <ele>238</ele>
        <time>2012-03-11 10:29:42 +0000</time>
      </trkpt>
      <trkpt lat="44.29996" lon="1.06653">
        <ele>237</ele>
        <time>2012-03-11 10:29:46 +0000</time>
      </trkpt>
      <trkpt lat="44.30008" lon="1.06661">
        <ele>239</ele>
        <time>2012-03-11 10:29:49 +0000</time>
      </trkpt>
      <trkpt lat="44.30019" lon="1.06671">
        <ele>236</ele>
        <time>2012-03-11 10:29:52 +0000</time>
      </trkpt>
      <trkpt lat="44.3003" lon="1.06683">
        <ele>239</ele>
        <time>2012-03-11 10:29:55 +0000</time>
      </trkpt>
      <trkpt lat="44.30046" lon="1.06699">
        <ele>240</ele>
        <time>2012-03-11 10:29:59 +0000</time>
      </trkpt>
      <trkpt lat="44.30062" lon="1.06717">
        <ele>238</ele>
        <time>2012-03-11 10:30:03 +0000</time>
      </trkpt>
      <trkpt lat="44.30075" lon="1.0673">
        <ele>239</ele>
        <time>2012-03-11 10:30:06 +0000</time>
      </trkpt>
      <trkpt lat="44.3009" lon="1.06745">
        <ele>240</ele>
        <time>2012-03-11 10:30:10 +0000</time>
      </trkpt>
      <trkpt lat="44.30101" lon="1.06757">
        <ele>241</ele>
        <time>2012-03-11 10:30:14 +0000</time>
      </trkpt>
      <trkpt lat="44.30108" lon="1.06763">
        <ele>240</ele>
        <time>2012-03-11 10:30:17 +0000</time>
      </trkpt>
      <trkpt lat="44.30115" lon="1.06772">
        <ele>243</ele>
        <time>2012-03-11 10:30:21 +0000</time>
      </trkpt>
      <trkpt lat="44.30119" lon="1.06777">
        <ele>243</ele>
        <time>2012-03-11 10:30:24 +0000</time>
      </trkpt>
      <trkpt lat="44.30124" lon="1.06783">
        <ele>242</ele>
        <time>2012-03-11 10:30:28 +0000</time>
      </trkpt>
      <trkpt lat="44.30131" lon="1.06788">
        <ele>242</ele>
        <time>2012-03-11 10:30:32 +0000</time>
      </trkpt>
      <trkpt lat="44.30139" lon="1.06791">
        <ele>241</ele>
        <time>2012-03-11 10:30:36 +0000</time>
      </trkpt>
      <trkpt lat="44.30146" lon="1.06788">
        <ele>241</ele>
        <time>2012-03-11 10:30:39 +0000</time>
      </trkpt>
      <trkpt lat="44.30152" lon="1.06783">
        <ele>242</ele>
        <time>2012-03-11 10:30:42 +0000</time>
      </trkpt>
      <trkpt lat="44.30158" lon="1.06776">
        <ele>244</ele>
        <time>2012-03-11 10:30:46 +0000</time>
      </trkpt>
      <trkpt lat="44.30164" lon="1.06767">
        <ele>243</ele>
        <time>2012-03-11 10:30:50 +0000</time>
      </trkpt>
      <trkpt lat="44.30169" lon="1.0676">
        <ele>243</ele>
        <time>2012-03-11 10:30:53 +0000</time>
      </trkpt>
      <trkpt lat="44.30175" lon="1.06754">
        <ele>243</ele>
        <time>2012-03-11 10:30:56 +0000</time>
      </trkpt>
      <trkpt lat="44.30181" lon="1.06752">
        <ele>244</ele>
        <time>2012-03-11 10:30:59 +0000</time>
      </trkpt>
      <trkpt lat="44.3019" lon="1.06756">
        <ele>241</ele>
        <time>2012-03-11 10:31:03 +0000</time>
      </trkpt>
      <trkpt lat="44.30204" lon="1.06767">
        <ele>241</ele>
        <time>2012-03-11 10:31:07 +0000</time>
      </trkpt>
      <trkpt lat="44.30215" lon="1.06776">
        <ele>241</ele>
        <time>2012-03-11 10:31:10 +0000</time>
      </trkpt>
      <trkpt lat="44.30229" lon="1.06789">
        <ele>241</ele>
        <time>2012-03-11 10:31:14 +0000</time>
      </trkpt>
      <trkpt lat="44.30242" lon="1.06801">
        <ele>240</ele>
        <time>2012-03-11 10:31:18 +0000</time>
      </trkpt>
      <trkpt lat="44.30254" lon="1.06814">
        <ele>241</ele>
        <time>2012-03-11 10:31:22 +0000</time>
      </trkpt>
      <trkpt lat="44.30265" lon="1.06825">
        <ele>240</ele>
        <time>2012-03-11 10:31:26 +0000</time>
      </trkpt>
      <trkpt lat="44.30275" lon="1.06836">
        <ele>240</ele>
        <time>2012-03-11 10:31:30 +0000</time>
      </trkpt>
      <trkpt lat="44.30282" lon="1.06845">
        <ele>241</ele>
        <time>2012-03-11 10:31:33 +0000</time>
      </trkpt>
      <trkpt lat="44.3029" lon="1.06862">
        <ele>242</ele>
        <time>2012-03-11 10:31:37 +0000</time>
      </trkpt>
      <trkpt lat="44.30295" lon="1.06884">
        <ele>243</ele>
        <time>2012-03-11 10:31:41 +0000</time>
      </trkpt>
      <trkpt lat="44.30297" lon="1.06901">
        <ele>243</ele>
        <time>2012-03-11 10:31:44 +0000</time>
      </trkpt>
      <trkpt lat="44.30297" lon="1.06926">
        <ele>242</ele>
        <time>2012-03-11 10:31:48 +0000</time>
      </trkpt>
      <trkpt lat="44.30298" lon="1.06951">
        <ele>241</ele>
        <time>2012-03-11 10:31:52 +0000</time>
      </trkpt>
      <trkpt lat="44.30299" lon="1.06969">
        <ele>240</ele>
        <time>2012-03-11 10:31:55 +0000</time>
      </trkpt>
      <trkpt lat="44.303" lon="1.06995">
        <ele>240</ele>
        <time>2012-03-11 10:31:59 +0000</time>
      </trkpt>
      <trkpt lat="44.30299" lon="1.07014">
        <ele>240</ele>
        <time>2012-03-11 10:32:02 +0000</time>
      </trkpt>
      <trkpt lat="44.30296" lon="1.07033">
        <ele>240</ele>
        <time>2012-03-11 10:32:05 +0000</time>
      </trkpt>
      <trkpt lat="44.3029" lon="1.07057">
        <ele>239</ele>
        <time>2012-03-11 10:32:09 +0000</time>
      </trkpt>
      <trkpt lat="44.30287" lon="1.07076">
        <ele>239</ele>
        <time>2012-03-11 10:32:12 +0000</time>
      </trkpt>
      <trkpt lat="44.30285" lon="1.07094">
        <ele>238</ele>
        <time>2012-03-11 10:32:15 +0000</time>
      </trkpt>
      <trkpt lat="44.30284" lon="1.07112">
        <ele>238</ele>
        <time>2012-03-11 10:32:18 +0000</time>
      </trkpt>
      <trkpt lat="44.30281" lon="1.07138">
        <ele>240</ele>
        <time>2012-03-11 10:32:22 +0000</time>
      </trkpt>
      <trkpt lat="44.30279" lon="1.07163">
        <ele>237</ele>
        <time>2012-03-11 10:32:26 +0000</time>
      </trkpt>
      <trkpt lat="44.30277" lon="1.07189">
        <ele>240</ele>
        <time>2012-03-11 10:32:30 +0000</time>
      </trkpt>
      <trkpt lat="44.30277" lon="1.07208">
        <ele>239</ele>
        <time>2012-03-11 10:32:33 +0000</time>
      </trkpt>
      <trkpt lat="44.30278" lon="1.07233">
        <ele>240</ele>
        <time>2012-03-11 10:32:37 +0000</time>
      </trkpt>
      <trkpt lat="44.3028" lon="1.0725">
        <ele>243</ele>
        <time>2012-03-11 10:32:40 +0000</time>
      </trkpt>
      <trkpt lat="44.30282" lon="1.07272">
        <ele>242</ele>
        <time>2012-03-11 10:32:44 +0000</time>
      </trkpt>
      <trkpt lat="44.30283" lon="1.07289">
        <ele>242</ele>
        <time>2012-03-11 10:32:47 +0000</time>
      </trkpt>
      <trkpt lat="44.30283" lon="1.07307">
        <ele>243</ele>
        <time>2012-03-11 10:32:50 +0000</time>
      </trkpt>
      <trkpt lat="44.30285" lon="1.0733">
        <ele>244</ele>
        <time>2012-03-11 10:32:54 +0000</time>
      </trkpt>
      <trkpt lat="44.30285" lon="1.07346">
        <ele>244</ele>
        <time>2012-03-11 10:32:57 +0000</time>
      </trkpt>
      <trkpt lat="44.30285" lon="1.07368">
        <ele>243</ele>
        <time>2012-03-11 10:33:01 +0000</time>
      </trkpt>
      <trkpt lat="44.30284" lon="1.07384">
        <ele>244</ele>
        <time>2012-03-11 10:33:04 +0000</time>
      </trkpt>
      <trkpt lat="44.30283" lon="1.07405">
        <ele>243</ele>
        <time>2012-03-11 10:33:08 +0000</time>
      </trkpt>
      <trkpt lat="44.30281" lon="1.07427">
        <ele>243</ele>
        <time>2012-03-11 10:33:12 +0000</time>
      </trkpt>
      <trkpt lat="44.30279" lon="1.07441">
        <ele>243</ele>
        <time>2012-03-11 10:33:15 +0000</time>
      </trkpt>
      <trkpt lat="44.30274" lon="1.07461">
        <ele>243</ele>
        <time>2012-03-11 10:33:19 +0000</time>
      </trkpt>
      <trkpt lat="44.3027" lon="1.07477">
        <ele>241</ele>
        <time>2012-03-11 10:33:22 +0000</time>
      </trkpt>
      <trkpt lat="44.30265" lon="1.07491">
        <ele>241</ele>
        <time>2012-03-11 10:33:25 +0000</time>
      </trkpt>
      <trkpt lat="44.30259" lon="1.07511">
        <ele>240</ele>
        <time>2012-03-11 10:33:29 +0000</time>
      </trkpt>
      <trkpt lat="44.30256" lon="1.07531">
        <ele>241</ele>
        <time>2012-03-11 10:33:33 +0000</time>
      </trkpt>
      <trkpt lat="44.30257" lon="1.0755">
        <ele>239</ele>
        <time>2012-03-11 10:33:36 +0000</time>
      </trkpt>
      <trkpt lat="44.30256" lon="1.07575">
        <ele>240</ele>
        <time>2012-03-11 10:33:40 +0000</time>
      </trkpt>
      <trkpt lat="44.30257" lon="1.07601">
        <ele>239</ele>
        <time>2012-03-11 10:33:44 +0000</time>
      </trkpt>
      <trkpt lat="44.30258" lon="1.07622">
        <ele>239</ele>
        <time>2012-03-11 10:33:47 +0000</time>
      </trkpt>
      <trkpt lat="44.3026" lon="1.07653">
        <ele>236</ele>
        <time>2012-03-11 10:33:51 +0000</time>
      </trkpt>
      <trkpt lat="44.30261" lon="1.07678">
        <ele>234</ele>
        <time>2012-03-11 10:33:54 +0000</time>
      </trkpt>
      <trkpt lat="44.30262" lon="1.07713">
        <ele>232</ele>
        <time>2012-03-11 10:33:58 +0000</time>
      </trkpt>
      <trkpt lat="44.30264" lon="1.07749">
        <ele>230</ele>
        <time>2012-03-11 10:34:02 +0000</time>
      </trkpt>
      <trkpt lat="44.30266" lon="1.07779">
        <ele>228</ele>
        <time>2012-03-11 10:34:05 +0000</time>
      </trkpt>
      <trkpt lat="44.30267" lon="1.07819">
        <ele>229</ele>
        <time>2012-03-11 10:34:09 +0000</time>
      </trkpt>
      <trkpt lat="44.30268" lon="1.07844">
        <ele>229</ele>
        <time>2012-03-11 10:34:12 +0000</time>
      </trkpt>
      <trkpt lat="44.30268" lon="1.07873">
        <ele>227</ele>
        <time>2012-03-11 10:34:15 +0000</time>
      </trkpt>
      <trkpt lat="44.30266" lon="1.07897">
        <ele>227</ele>
        <time>2012-03-11 10:34:18 +0000</time>
      </trkpt>
      <trkpt lat="44.30259" lon="1.07927">
        <ele>228</ele>
        <time>2012-03-11 10:34:22 +0000</time>
      </trkpt>
      <trkpt lat="44.30246" lon="1.07964">
        <ele>218</ele>
        <time>2012-03-11 10:34:26 +0000</time>
      </trkpt>
      <trkpt lat="44.30244" lon="1.07985">
        <ele>219</ele>
        <time>2012-03-11 10:34:29 +0000</time>
      </trkpt>
      <trkpt lat="44.30262" lon="1.07999">
        <ele>218</ele>
        <time>2012-03-11 10:34:33 +0000</time>
      </trkpt>
      <trkpt lat="44.30277" lon="1.08004">
        <ele>221</ele>
        <time>2012-03-11 10:34:36 +0000</time>
      </trkpt>
      <trkpt lat="44.30294" lon="1.08009">
        <ele>220</ele>
        <time>2012-03-11 10:34:40 +0000</time>
      </trkpt>
      <trkpt lat="44.3031" lon="1.08014">
        <ele>222</ele>
        <time>2012-03-11 10:34:43 +0000</time>
      </trkpt>
      <trkpt lat="44.30331" lon="1.08018">
        <ele>218</ele>
        <time>2012-03-11 10:34:47 +0000</time>
      </trkpt>
      <trkpt lat="44.30355" lon="1.08024">
        <ele>220</ele>
        <time>2012-03-11 10:34:51 +0000</time>
      </trkpt>
      <trkpt lat="44.30376" lon="1.08029">
        <ele>217</ele>
        <time>2012-03-11 10:34:54 +0000</time>
      </trkpt>
      <trkpt lat="44.304" lon="1.08034">
        <ele>212</ele>
        <time>2012-03-11 10:34:58 +0000</time>
      </trkpt>
      <trkpt lat="44.30421" lon="1.08037">
        <ele>211</ele>
        <time>2012-03-11 10:35:02 +0000</time>
      </trkpt>
      <trkpt lat="44.30441" lon="1.08033">
        <ele>211</ele>
        <time>2012-03-11 10:35:06 +0000</time>
      </trkpt>
      <trkpt lat="44.30445" lon="1.08023">
        <ele>218</ele>
        <time>2012-03-11 10:35:09 +0000</time>
      </trkpt>
      <trkpt lat="44.30447" lon="1.08008">
        <ele>219</ele>
        <time>2012-03-11 10:35:13 +0000</time>
      </trkpt>
      <trkpt lat="44.30449" lon="1.07998">
        <ele>222</ele>
        <time>2012-03-11 10:35:17 +0000</time>
      </trkpt>
      <trkpt lat="44.30452" lon="1.07987">
        <ele>221</ele>
        <time>2012-03-11 10:35:20 +0000</time>
      </trkpt>
      <trkpt lat="44.30455" lon="1.07974">
        <ele>223</ele>
        <time>2012-03-11 10:35:24 +0000</time>
      </trkpt>
      <trkpt lat="44.30458" lon="1.07959">
        <ele>218</ele>
        <time>2012-03-11 10:35:28 +0000</time>
      </trkpt>
      <trkpt lat="44.30461" lon="1.07951">
        <ele>219</ele>
        <time>2012-03-11 10:35:31 +0000</time>
      </trkpt>
      <trkpt lat="44.30464" lon="1.07936">
        <ele>225</ele>
        <time>2012-03-11 10:35:35 +0000</time>
      </trkpt>
      <trkpt lat="44.30465" lon="1.07922">
        <ele>224</ele>
        <time>2012-03-11 10:35:38 +0000</time>
      </trkpt>
      <trkpt lat="44.30467" lon="1.07911">
        <ele>224</ele>
        <time>2012-03-11 10:35:41 +0000</time>
      </trkpt>
      <trkpt lat="44.30469" lon="1.07898">
        <ele>220</ele>
        <time>2012-03-11 10:35:45 +0000</time>
      </trkpt>
      <trkpt lat="44.30471" lon="1.07884">
        <ele>222</ele>
        <time>2012-03-11 10:35:49 +0000</time>
      </trkpt>
      <trkpt lat="44.30472" lon="1.07877">
        <ele>223</ele>
        <time>2012-03-11 10:35:52 +0000</time>
      </trkpt>
      <trkpt lat="44.30473" lon="1.07865">
        <ele>220</ele>
        <time>2012-03-11 10:35:56 +0000</time>
      </trkpt>
      <trkpt lat="44.30473" lon="1.07855">
        <ele>226</ele>
        <time>2012-03-11 10:36:00 +0000</time>
      </trkpt>
      <trkpt lat="44.30473" lon="1.07848">
        <ele>228</ele>
        <time>2012-03-11 10:36:03 +0000</time>
      </trkpt>
      <trkpt lat="44.30474" lon="1.07843">
        <ele>227</ele>
        <time>2012-03-11 10:36:06 +0000</time>
      </trkpt>
      <trkpt lat="44.30474" lon="1.07838">
        <ele>229</ele>
        <time>2012-03-11 10:36:09 +0000</time>
      </trkpt>
      <trkpt lat="44.30474" lon="1.07833">
        <ele>228</ele>
        <time>2012-03-11 10:36:12 +0000</time>
      </trkpt>
      <trkpt lat="44.30474" lon="1.07828">
        <ele>230</ele>
        <time>2012-03-11 10:36:15 +0000</time>
      </trkpt>
      <trkpt lat="44.30474" lon="1.07821">
        <ele>227</ele>
        <time>2012-03-11 10:36:18 +0000</time>
      </trkpt>
      <trkpt lat="44.30475" lon="1.07813">
        <ele>227</ele>
        <time>2012-03-11 10:36:22 +0000</time>
      </trkpt>
      <trkpt lat="44.30474" lon="1.07809">
        <ele>230</ele>
        <time>2012-03-11 10:36:25 +0000</time>
      </trkpt>
      <trkpt lat="44.30474" lon="1.07803">
        <ele>227</ele>
        <time>2012-03-11 10:36:28 +0000</time>
      </trkpt>
      <trkpt lat="44.30473" lon="1.07796">
        <ele>230</ele>
        <time>2012-03-11 10:36:32 +0000</time>
      </trkpt>
      <trkpt lat="44.30473" lon="1.07791">
        <ele>235</ele>
        <time>2012-03-11 10:36:35 +0000</time>
      </trkpt>
      <trkpt lat="44.30474" lon="1.07784">
        <ele>232</ele>
        <time>2012-03-11 10:36:39 +0000</time>
      </trkpt>
      <trkpt lat="44.30475" lon="1.07777">
        <ele>227</ele>
        <time>2012-03-11 10:36:43 +0000</time>
      </trkpt>
      <trkpt lat="44.30476" lon="1.07768">
        <ele>229</ele>
        <time>2012-03-11 10:36:47 +0000</time>
      </trkpt>
      <trkpt lat="44.30476" lon="1.07763">
        <ele>231</ele>
        <time>2012-03-11 10:36:50 +0000</time>
      </trkpt>
      <trkpt lat="44.30477" lon="1.07757">
        <ele>234</ele>
        <time>2012-03-11 10:36:53 +0000</time>
      </trkpt>
      <trkpt lat="44.30477" lon="1.0775">
        <ele>234</ele>
        <time>2012-03-11 10:36:57 +0000</time>
      </trkpt>
      <trkpt lat="44.30478" lon="1.07746">
        <ele>232</ele>
        <time>2012-03-11 10:37:00 +0000</time>
      </trkpt>
      <trkpt lat="44.30478" lon="1.07735">
        <ele>233</ele>
        <time>2012-03-11 10:37:04 +0000</time>
      </trkpt>
      <trkpt lat="44.30479" lon="1.07726">
        <ele>226</ele>
        <time>2012-03-11 10:37:07 +0000</time>
      </trkpt>
      <trkpt lat="44.30481" lon="1.0772">
        <ele>235</ele>
        <time>2012-03-11 10:37:10 +0000</time>
      </trkpt>
      <trkpt lat="44.30487" lon="1.07716">
        <ele>231</ele>
        <time>2012-03-11 10:37:14 +0000</time>
      </trkpt>
      <trkpt lat="44.30492" lon="1.07714">
        <ele>234</ele>
        <time>2012-03-11 10:37:17 +0000</time>
      </trkpt>
      <trkpt lat="44.30498" lon="1.07714">
        <ele>232</ele>
        <time>2012-03-11 10:37:20 +0000</time>
      </trkpt>
      <trkpt lat="44.30503" lon="1.07713">
        <ele>236</ele>
        <time>2012-03-11 10:37:24 +0000</time>
      </trkpt>
      <trkpt lat="44.30507" lon="1.07712">
        <ele>233</ele>
        <time>2012-03-11 10:37:27 +0000</time>
      </trkpt>
      <trkpt lat="44.30512" lon="1.07712">
        <ele>232</ele>
        <time>2012-03-11 10:37:31 +0000</time>
      </trkpt>
      <trkpt lat="44.30516" lon="1.07709">
        <ele>230</ele>
        <time>2012-03-11 10:37:34 +0000</time>
      </trkpt>
      <trkpt lat="44.3052" lon="1.07707">
        <ele>230</ele>
        <time>2012-03-11 10:37:38 +0000</time>
      </trkpt>
      <trkpt lat="44.30527" lon="1.07704">
        <ele>233</ele>
        <time>2012-03-11 10:37:41 +0000</time>
      </trkpt>
      <trkpt lat="44.30531" lon="1.07701">
        <ele>235</ele>
        <time>2012-03-11 10:37:44 +0000</time>
      </trkpt>
      <trkpt lat="44.30539" lon="1.07698">
        <ele>239</ele>
        <time>2012-03-11 10:37:48 +0000</time>
      </trkpt>
      <trkpt lat="44.30544" lon="1.07696">
        <ele>236</ele>
        <time>2012-03-11 10:37:51 +0000</time>
      </trkpt>
      <trkpt lat="44.30551" lon="1.07697">
        <ele>231</ele>
        <time>2012-03-11 10:37:55 +0000</time>
      </trkpt>
      <trkpt lat="44.30558" lon="1.07698">
        <ele>235</ele>
        <time>2012-03-11 10:37:59 +0000</time>
      </trkpt>
      <trkpt lat="44.30563" lon="1.07698">
        <ele>234</ele>
        <time>2012-03-11 10:38:03 +0000</time>
      </trkpt>
      <trkpt lat="44.30568" lon="1.07697">
        <ele>237</ele>
        <time>2012-03-11 10:38:06 +0000</time>
      </trkpt>
      <trkpt lat="44.30573" lon="1.07692">
        <ele>234</ele>
        <time>2012-03-11 10:38:10 +0000</time>
      </trkpt>
      <trkpt lat="44.30581" lon="1.07684">
        <ele>241</ele>
        <time>2012-03-11 10:38:14 +0000</time>
      </trkpt>
      <trkpt lat="44.30588" lon="1.07677">
        <ele>238</ele>
        <time>2012-03-11 10:38:17 +0000</time>
      </trkpt>
      <trkpt lat="44.30598" lon="1.0767">
        <ele>240</ele>
        <time>2012-03-11 10:38:21 +0000</time>
      </trkpt>
      <trkpt lat="44.3061" lon="1.07664">
        <ele>238</ele>
        <time>2012-03-11 10:38:25 +0000</time>
      </trkpt>
      <trkpt lat="44.30616" lon="1.07663">
        <ele>237</ele>
        <time>2012-03-11 10:38:28 +0000</time>
      </trkpt>
      <trkpt lat="44.30624" lon="1.07663">
        <ele>233</ele>
        <time>2012-03-11 10:38:31 +0000</time>
      </trkpt>
      <trkpt lat="44.30632" lon="1.07663">
        <ele>237</ele>
        <time>2012-03-11 10:38:35 +0000</time>
      </trkpt>
      <trkpt lat="44.3064" lon="1.07665">
        <ele>230</ele>
        <time>2012-03-11 10:38:39 +0000</time>
      </trkpt>
      <trkpt lat="44.30647" lon="1.07666">
        <ele>231</ele>
        <time>2012-03-11 10:38:43 +0000</time>
      </trkpt>
      <trkpt lat="44.30656" lon="1.07664">
        <ele>235</ele>
        <time>2012-03-11 10:38:47 +0000</time>
      </trkpt>
      <trkpt lat="44.30661" lon="1.07662">
        <ele>234</ele>
        <time>2012-03-11 10:38:50 +0000</time>
      </trkpt>
      <trkpt lat="44.30672" lon="1.07658">
        <ele>230</ele>
        <time>2012-03-11 10:38:54 +0000</time>
      </trkpt>
      <trkpt lat="44.30684" lon="1.07654">
        <ele>231</ele>
        <time>2012-03-11 10:38:58 +0000</time>
      </trkpt>
      <trkpt lat="44.30695" lon="1.0765">
        <ele>232</ele>
        <time>2012-03-11 10:39:01 +0000</time>
      </trkpt>
      <trkpt lat="44.30711" lon="1.07645">
        <ele>231</ele>
        <time>2012-03-11 10:39:04 +0000</time>
      </trkpt>
      <trkpt lat="44.30736" lon="1.07638">
        <ele>232</ele>
        <time>2012-03-11 10:39:08 +0000</time>
      </trkpt>
      <trkpt lat="44.30753" lon="1.07634">
        <ele>230</ele>
        <time>2012-03-11 10:39:11 +0000</time>
      </trkpt>
      <trkpt lat="44.30777" lon="1.07626">
        <ele>225</ele>
        <time>2012-03-11 10:39:15 +0000</time>
      </trkpt>
      <trkpt lat="44.308" lon="1.07616">
        <ele>224</ele>
        <time>2012-03-11 10:39:19 +0000</time>
      </trkpt>
      <trkpt lat="44.30816" lon="1.0761">
        <ele>228</ele>
        <time>2012-03-11 10:39:22 +0000</time>
      </trkpt>
      <trkpt lat="44.30836" lon="1.076">
        <ele>219</ele>
        <time>2012-03-11 10:39:26 +0000</time>
      </trkpt>
      <trkpt lat="44.30852" lon="1.07593">
        <ele>222</ele>
        <time>2012-03-11 10:39:30 +0000</time>
      </trkpt>
      <trkpt lat="44.30869" lon="1.07589">
        <ele>217</ele>
        <time>2012-03-11 10:39:33 +0000</time>
      </trkpt>
      <trkpt lat="44.30888" lon="1.07602">
        <ele>217</ele>
        <time>2012-03-11 10:39:37 +0000</time>
      </trkpt>
      <trkpt lat="44.30896" lon="1.07616">
        <ele>222</ele>
        <time>2012-03-11 10:39:41 +0000</time>
      </trkpt>
      <trkpt lat="44.30901" lon="1.0763">
        <ele>221</ele>
        <time>2012-03-11 10:39:45 +0000</time>
      </trkpt>
      <trkpt lat="44.30904" lon="1.07638">
        <ele>216</ele>
        <time>2012-03-11 10:39:48 +0000</time>
      </trkpt>
      <trkpt lat="44.30906" lon="1.07647">
        <ele>220</ele>
        <time>2012-03-11 10:39:51 +0000</time>
      </trkpt>
      <trkpt lat="44.30906" lon="1.0766">
        <ele>222</ele>
        <time>2012-03-11 10:39:55 +0000</time>
      </trkpt>
      <trkpt lat="44.30905" lon="1.07671">
        <ele>224</ele>
        <time>2012-03-11 10:39:58 +0000</time>
      </trkpt>
      <trkpt lat="44.30897" lon="1.07683">
        <ele>223</ele>
        <time>2012-03-11 10:40:02 +0000</time>
      </trkpt>
      <trkpt lat="44.30888" lon="1.07689">
        <ele>223</ele>
        <time>2012-03-11 10:40:05 +0000</time>
      </trkpt>
      <trkpt lat="44.30881" lon="1.07695">
        <ele>219</ele>
        <time>2012-03-11 10:40:09 +0000</time>
      </trkpt>
      <trkpt lat="44.30875" lon="1.07702">
        <ele>217</ele>
        <time>2012-03-11 10:40:12 +0000</time>
      </trkpt>
      <trkpt lat="44.3087" lon="1.07712">
        <ele>221</ele>
        <time>2012-03-11 10:40:15 +0000</time>
      </trkpt>
      <trkpt lat="44.30863" lon="1.07723">
        <ele>222</ele>
        <time>2012-03-11 10:40:19 +0000</time>
      </trkpt>
      <trkpt lat="44.30856" lon="1.07735">
        <ele>218</ele>
        <time>2012-03-11 10:40:23 +0000</time>
      </trkpt>
      <trkpt lat="44.30849" lon="1.07744">
        <ele>218</ele>
        <time>2012-03-11 10:40:27 +0000</time>
      </trkpt>
      <trkpt lat="44.30845" lon="1.07753">
        <ele>212</ele>
        <time>2012-03-11 10:40:31 +0000</time>
      </trkpt>
      <trkpt lat="44.30848" lon="1.0777">
        <ele>218</ele>
        <time>2012-03-11 10:40:35 +0000</time>
      </trkpt>
      <trkpt lat="44.30856" lon="1.07781">
        <ele>218</ele>
        <time>2012-03-11 10:40:38 +0000</time>
      </trkpt>
      <trkpt lat="44.30867" lon="1.07787">
        <ele>220</ele>
        <time>2012-03-11 10:40:41 +0000</time>
      </trkpt>
      <trkpt lat="44.30881" lon="1.07789">
        <ele>218</ele>
        <time>2012-03-11 10:40:45 +0000</time>
      </trkpt>
      <trkpt lat="44.30893" lon="1.07793">
        <ele>219</ele>
        <time>2012-03-11 10:40:49 +0000</time>
      </trkpt>
      <trkpt lat="44.30902" lon="1.07798">
        <ele>217</ele>
        <time>2012-03-11 10:40:52 +0000</time>
      </trkpt>
      <trkpt lat="44.30908" lon="1.07806">
        <ele>216</ele>
        <time>2012-03-11 10:40:55 +0000</time>
      </trkpt>
      <trkpt lat="44.30914" lon="1.07818">
        <ele>221</ele>
        <time>2012-03-11 10:40:59 +0000</time>
      </trkpt>
      <trkpt lat="44.30912" lon="1.07836">
        <ele>218</ele>
        <time>2012-03-11 10:41:03 +0000</time>
      </trkpt>
      <trkpt lat="44.3091" lon="1.07849">
        <ele>221</ele>
        <time>2012-03-11 10:41:07 +0000</time>
      </trkpt>
      <trkpt lat="44.30908" lon="1.07862">
        <ele>220</ele>
        <time>2012-03-11 10:41:10 +0000</time>
      </trkpt>
      <trkpt lat="44.30907" lon="1.07872">
        <ele>218</ele>
        <time>2012-03-11 10:41:13 +0000</time>
      </trkpt>
      <trkpt lat="44.30906" lon="1.07888">
        <ele>217</ele>
        <time>2012-03-11 10:41:17 +0000</time>
      </trkpt>
      <trkpt lat="44.30903" lon="1.07906">
        <ele>218</ele>
        <time>2012-03-11 10:41:21 +0000</time>
      </trkpt>
      <trkpt lat="44.30901" lon="1.07925">
        <ele>218</ele>
        <time>2012-03-11 10:41:25 +0000</time>
      </trkpt>
      <trkpt lat="44.30901" lon="1.07938">
        <ele>216</ele>
        <time>2012-03-11 10:41:28 +0000</time>
      </trkpt>
      <trkpt lat="44.30899" lon="1.07958">
        <ele>216</ele>
        <time>2012-03-11 10:41:32 +0000</time>
      </trkpt>
      <trkpt lat="44.30894" lon="1.07972">
        <ele>216</ele>
        <time>2012-03-11 10:41:35 +0000</time>
      </trkpt>
      <trkpt lat="44.30884" lon="1.07988">
        <ele>212</ele>
        <time>2012-03-11 10:41:39 +0000</time>
      </trkpt>
      <trkpt lat="44.30877" lon="1.08">
        <ele>217</ele>
        <time>2012-03-11 10:41:42 +0000</time>
      </trkpt>
      <trkpt lat="44.30877" lon="1.08018">
        <ele>216</ele>
        <time>2012-03-11 10:41:46 +0000</time>
      </trkpt>
      <trkpt lat="44.30881" lon="1.08031">
        <ele>217</ele>
        <time>2012-03-11 10:41:50 +0000</time>
      </trkpt>
      <trkpt lat="44.30885" lon="1.08044">
        <ele>211</ele>
        <time>2012-03-11 10:41:53 +0000</time>
      </trkpt>
      <trkpt lat="44.30891" lon="1.0806">
        <ele>215</ele>
        <time>2012-03-11 10:41:57 +0000</time>
      </trkpt>
      <trkpt lat="44.30898" lon="1.08075">
        <ele>212</ele>
        <time>2012-03-11 10:42:00 +0000</time>
      </trkpt>
      <trkpt lat="44.30903" lon="1.08087">
        <ele>216</ele>
        <time>2012-03-11 10:42:04 +0000</time>
      </trkpt>
      <trkpt lat="44.30909" lon="1.08095">
        <ele>216</ele>
        <time>2012-03-11 10:42:07 +0000</time>
      </trkpt>
      <trkpt lat="44.30915" lon="1.08111">
        <ele>213</ele>
        <time>2012-03-11 10:42:11 +0000</time>
      </trkpt>
      <trkpt lat="44.30913" lon="1.0812">
        <ele>214</ele>
        <time>2012-03-11 10:42:14 +0000</time>
      </trkpt>
      <trkpt lat="44.30904" lon="1.08125">
        <ele>218</ele>
        <time>2012-03-11 10:42:18 +0000</time>
      </trkpt>
      <trkpt lat="44.30894" lon="1.08124">
        <ele>215</ele>
        <time>2012-03-11 10:42:22 +0000</time>
      </trkpt>
      <trkpt lat="44.30888" lon="1.08128">
        <ele>216</ele>
        <time>2012-03-11 10:42:25 +0000</time>
      </trkpt>
      <trkpt lat="44.30881" lon="1.0814">
        <ele>217</ele>
        <time>2012-03-11 10:42:29 +0000</time>
      </trkpt>
      <trkpt lat="44.30876" lon="1.08147">
        <ele>216</ele>
        <time>2012-03-11 10:42:32 +0000</time>
      </trkpt>
      <trkpt lat="44.30868" lon="1.08159">
        <ele>216</ele>
        <time>2012-03-11 10:42:36 +0000</time>
      </trkpt>
      <trkpt lat="44.30859" lon="1.0818">
        <ele>215</ele>
        <time>2012-03-11 10:42:40 +0000</time>
      </trkpt>
      <trkpt lat="44.30854" lon="1.08201">
        <ele>210</ele>
        <time>2012-03-11 10:42:43 +0000</time>
      </trkpt>
      <trkpt lat="44.30856" lon="1.08223">
        <ele>210</ele>
        <time>2012-03-11 10:42:47 +0000</time>
      </trkpt>
      <trkpt lat="44.30858" lon="1.08237">
        <ele>212</ele>
        <time>2012-03-11 10:42:50 +0000</time>
      </trkpt>
      <trkpt lat="44.30858" lon="1.08253">
        <ele>214</ele>
        <time>2012-03-11 10:42:54 +0000</time>
      </trkpt>
      <trkpt lat="44.30859" lon="1.08264">
        <ele>213</ele>
        <time>2012-03-11 10:42:57 +0000</time>
      </trkpt>
      <trkpt lat="44.30861" lon="1.08275">
        <ele>212</ele>
        <time>2012-03-11 10:43:00 +0000</time>
      </trkpt>
      <trkpt lat="44.30863" lon="1.08293">
        <ele>216</ele>
        <time>2012-03-11 10:43:04 +0000</time>
      </trkpt>
      <trkpt lat="44.30865" lon="1.08305">
        <ele>213</ele>
        <time>2012-03-11 10:43:07 +0000</time>
      </trkpt>
      <trkpt lat="44.30869" lon="1.08316">
        <ele>212</ele>
        <time>2012-03-11 10:43:11 +0000</time>
      </trkpt>
      <trkpt lat="44.30873" lon="1.08328">
        <ele>215</ele>
        <time>2012-03-11 10:43:15 +0000</time>
      </trkpt>
      <trkpt lat="44.30875" lon="1.08339">
        <ele>213</ele>
        <time>2012-03-11 10:43:18 +0000</time>
      </trkpt>
      <trkpt lat="44.30875" lon="1.08349">
        <ele>212</ele>
        <time>2012-03-11 10:43:21 +0000</time>
      </trkpt>
      <trkpt lat="44.30873" lon="1.08363">
        <ele>214</ele>
        <time>2012-03-11 10:43:25 +0000</time>
      </trkpt>
      <trkpt lat="44.30869" lon="1.08381">
        <ele>212</ele>
        <time>2012-03-11 10:43:29 +0000</time>
      </trkpt>
      <trkpt lat="44.30863" lon="1.084">
        <ele>210</ele>
        <time>2012-03-11 10:43:33 +0000</time>
      </trkpt>
      <trkpt lat="44.30861" lon="1.08413">
        <ele>215</ele>
        <time>2012-03-11 10:43:36 +0000</time>
      </trkpt>
      <trkpt lat="44.3086" lon="1.08423">
        <ele>221</ele>
        <time>2012-03-11 10:43:39 +0000</time>
      </trkpt>
      <trkpt lat="44.30858" lon="1.08436">
        <ele>217</ele>
        <time>2012-03-11 10:43:42 +0000</time>
      </trkpt>
      <trkpt lat="44.30857" lon="1.08442">
        <ele>217</ele>
        <time>2012-03-11 10:43:45 +0000</time>
      </trkpt>
      <trkpt lat="44.30854" lon="1.08453">
        <ele>219</ele>
        <time>2012-03-11 10:43:49 +0000</time>
      </trkpt>
      <trkpt lat="44.30852" lon="1.08463">
        <ele>217</ele>
        <time>2012-03-11 10:43:52 +0000</time>
      </trkpt>
      <trkpt lat="44.30849" lon="1.08478">
        <ele>214</ele>
        <time>2012-03-11 10:43:56 +0000</time>
      </trkpt>
      <trkpt lat="44.30847" lon="1.08487">
        <ele>216</ele>
        <time>2012-03-11 10:43:59 +0000</time>
      </trkpt>
      <trkpt lat="44.30844" lon="1.08498">
        <ele>220</ele>
        <time>2012-03-11 10:44:03 +0000</time>
      </trkpt>
      <trkpt lat="44.30841" lon="1.08512">
        <ele>217</ele>
        <time>2012-03-11 10:44:07 +0000</time>
      </trkpt>
      <trkpt lat="44.30838" lon="1.0852">
        <ele>213</ele>
        <time>2012-03-11 10:44:10 +0000</time>
      </trkpt>
      <trkpt lat="44.30835" lon="1.08534">
        <ele>208</ele>
        <time>2012-03-11 10:44:14 +0000</time>
      </trkpt>
      <trkpt lat="44.30833" lon="1.08546">
        <ele>221</ele>
        <time>2012-03-11 10:44:17 +0000</time>
      </trkpt>
      <trkpt lat="44.30831" lon="1.08557">
        <ele>216</ele>
        <time>2012-03-11 10:44:21 +0000</time>
      </trkpt>
      <trkpt lat="44.30827" lon="1.08569">
        <ele>218</ele>
        <time>2012-03-11 10:44:25 +0000</time>
      </trkpt>
      <trkpt lat="44.30825" lon="1.08578">
        <ele>218</ele>
        <time>2012-03-11 10:44:28 +0000</time>
      </trkpt>
      <trkpt lat="44.30822" lon="1.08592">
        <ele>220</ele>
        <time>2012-03-11 10:44:32 +0000</time>
      </trkpt>
      <trkpt lat="44.30821" lon="1.086">
        <ele>219</ele>
        <time>2012-03-11 10:44:35 +0000</time>
      </trkpt>
      <trkpt lat="44.30818" lon="1.08612">
        <ele>221</ele>
        <time>2012-03-11 10:44:39 +0000</time>
      </trkpt>
      <trkpt lat="44.30816" lon="1.08625">
        <ele>219</ele>
        <time>2012-03-11 10:44:43 +0000</time>
      </trkpt>
      <trkpt lat="44.30814" lon="1.08634">
        <ele>221</ele>
        <time>2012-03-11 10:44:46 +0000</time>
      </trkpt>
      <trkpt lat="44.30811" lon="1.08645">
        <ele>220</ele>
        <time>2012-03-11 10:44:50 +0000</time>
      </trkpt>
      <trkpt lat="44.30809" lon="1.08659">
        <ele>214</ele>
        <time>2012-03-11 10:44:54 +0000</time>
      </trkpt>
      <trkpt lat="44.30807" lon="1.08669">
        <ele>217</ele>
        <time>2012-03-11 10:44:57 +0000</time>
      </trkpt>
      <trkpt lat="44.30807" lon="1.08678">
        <ele>221</ele>
        <time>2012-03-11 10:45:00 +0000</time>
      </trkpt>
      <trkpt lat="44.30807" lon="1.08691">
        <ele>218</ele>
        <time>2012-03-11 10:45:04 +0000</time>
      </trkpt>
      <trkpt lat="44.30806" lon="1.08701">
        <ele>218</ele>
        <time>2012-03-11 10:45:07 +0000</time>
      </trkpt>
      <trkpt lat="44.30804" lon="1.08714">
        <ele>217</ele>
        <time>2012-03-11 10:45:10 +0000</time>
      </trkpt>
      <trkpt lat="44.30802" lon="1.0873">
        <ele>221</ele>
        <time>2012-03-11 10:45:14 +0000</time>
      </trkpt>
      <trkpt lat="44.30801" lon="1.08744">
        <ele>220</ele>
        <time>2012-03-11 10:45:18 +0000</time>
      </trkpt>
      <trkpt lat="44.30801" lon="1.08759">
        <ele>223</ele>
        <time>2012-03-11 10:45:22 +0000</time>
      </trkpt>
      <trkpt lat="44.30801" lon="1.08779">
        <ele>219</ele>
        <time>2012-03-11 10:45:26 +0000</time>
      </trkpt>
      <trkpt lat="44.30801" lon="1.088">
        <ele>217</ele>
        <time>2012-03-11 10:45:30 +0000</time>
      </trkpt>
      <trkpt lat="44.30803" lon="1.08816">
        <ele>217</ele>
        <time>2012-03-11 10:45:33 +0000</time>
      </trkpt>
      <trkpt lat="44.30805" lon="1.08835">
        <ele>215</ele>
        <time>2012-03-11 10:45:37 +0000</time>
      </trkpt>
      <trkpt lat="44.30807" lon="1.08847">
        <ele>214</ele>
        <time>2012-03-11 10:45:40 +0000</time>
      </trkpt>
      <trkpt lat="44.30814" lon="1.08857">
        <ele>212</ele>
        <time>2012-03-11 10:45:43 +0000</time>
      </trkpt>
      <trkpt lat="44.30822" lon="1.0887">
        <ele>215</ele>
        <time>2012-03-11 10:45:47 +0000</time>
      </trkpt>
      <trkpt lat="44.30829" lon="1.08881">
        <ele>211</ele>
        <time>2012-03-11 10:45:50 +0000</time>
      </trkpt>
      <trkpt lat="44.30836" lon="1.0889">
        <ele>211</ele>
        <time>2012-03-11 10:45:53 +0000</time>
      </trkpt>
      <trkpt lat="44.30844" lon="1.08904">
        <ele>208</ele>
        <time>2012-03-11 10:45:56 +0000</time>
      </trkpt>
      <trkpt lat="44.30852" lon="1.08918">
        <ele>204</ele>
        <time>2012-03-11 10:45:59 +0000</time>
      </trkpt>
      <trkpt lat="44.30863" lon="1.08927">
        <ele>201</ele>
        <time>2012-03-11 10:46:03 +0000</time>
      </trkpt>
      <trkpt lat="44.30872" lon="1.0894">
        <ele>196</ele>
        <time>2012-03-11 10:46:07 +0000</time>
      </trkpt>
      <trkpt lat="44.30878" lon="1.08959">
        <ele>197</ele>
        <time>2012-03-11 10:46:11 +0000</time>
      </trkpt>
      <trkpt lat="44.30883" lon="1.0897">
        <ele>191</ele>
        <time>2012-03-11 10:46:14 +0000</time>
      </trkpt>
      <trkpt lat="44.30882" lon="1.08987">
        <ele>188</ele>
        <time>2012-03-11 10:46:18 +0000</time>
      </trkpt>
      <trkpt lat="44.30881" lon="1.09">
        <ele>188</ele>
        <time>2012-03-11 10:46:21 +0000</time>
      </trkpt>
      <trkpt lat="44.30878" lon="1.09017">
        <ele>188</ele>
        <time>2012-03-11 10:46:25 +0000</time>
      </trkpt>
      <trkpt lat="44.30876" lon="1.09026">
        <ele>188</ele>
        <time>2012-03-11 10:46:28 +0000</time>
      </trkpt>
      <trkpt lat="44.30872" lon="1.0904">
        <ele>190</ele>
        <time>2012-03-11 10:46:32 +0000</time>
      </trkpt>
      <trkpt lat="44.30867" lon="1.09051">
        <ele>188</ele>
        <time>2012-03-11 10:46:35 +0000</time>
      </trkpt>
      <trkpt lat="44.30865" lon="1.09063">
        <ele>182</ele>
        <time>2012-03-11 10:46:39 +0000</time>
      </trkpt>
      <trkpt lat="44.30863" lon="1.09076">
        <ele>181</ele>
        <time>2012-03-11 10:46:43 +0000</time>
      </trkpt>
      <trkpt lat="44.30859" lon="1.09082">
        <ele>184</ele>
        <time>2012-03-11 10:46:46 +0000</time>
      </trkpt>
      <trkpt lat="44.30856" lon="1.09093">
        <ele>182</ele>
        <time>2012-03-11 10:46:50 +0000</time>
      </trkpt>
      <trkpt lat="44.30855" lon="1.09097">
        <ele>181</ele>
        <time>2012-03-11 10:46:54 +0000</time>
      </trkpt>
      <trkpt lat="44.30855" lon="1.09097">
        <ele>178</ele>
        <time>2012-03-11 10:46:57 +0000</time>
      </trkpt>
      <trkpt lat="44.30855" lon="1.09097">
        <ele>175</ele>
        <time>2012-03-11 10:47:01 +0000</time>
      </trkpt>
      <trkpt lat="44.30855" lon="1.09097">
        <ele>186</ele>
        <time>2012-03-11 10:47:04 +0000</time>
      </trkpt>
      <trkpt lat="44.30855" lon="1.09098">
        <ele>189</ele>
        <time>2012-03-11 10:47:08 +0000</time>
      </trkpt>
      <trkpt lat="44.30855" lon="1.09098">
        <ele>175</ele>
        <time>2012-03-11 10:47:11 +0000</time>
      </trkpt>
      <trkpt lat="44.30855" lon="1.091">
        <ele>171</ele>
        <time>2012-03-11 10:47:15 +0000</time>
      </trkpt>
      <trkpt lat="44.30854" lon="1.091">
        <ele>174</ele>
        <time>2012-03-11 10:47:19 +0000</time>
      </trkpt>
      <trkpt lat="44.30854" lon="1.091">
        <ele>172</ele>
        <time>2012-03-11 10:47:23 +0000</time>
      </trkpt>
      <trkpt lat="44.30853" lon="1.09101">
        <ele>168</ele>
        <time>2012-03-11 10:47:27 +0000</time>
      </trkpt>
      <trkpt lat="44.3085" lon="1.09103">
        <ele>173</ele>
        <time>2012-03-11 10:47:30 +0000</time>
      </trkpt>
      <trkpt lat="44.30847" lon="1.09104">
        <ele>172</ele>
        <time>2012-03-11 10:47:33 +0000</time>
      </trkpt>
      <trkpt lat="44.30847" lon="1.09106">
        <ele>169</ele>
        <time>2012-03-11 10:47:37 +0000</time>
      </trkpt>
      <trkpt lat="44.30848" lon="1.09105">
        <ele>170</ele>
        <time>2012-03-11 10:47:41 +0000</time>
      </trkpt>
      <trkpt lat="44.30848" lon="1.09105">
        <ele>177</ele>
        <time>2012-03-11 10:47:44 +0000</time>
      </trkpt>
      <trkpt lat="44.30848" lon="1.09105">
        <ele>171</ele>
        <time>2012-03-11 10:47:48 +0000</time>
      </trkpt>
      <trkpt lat="44.30848" lon="1.09105">
        <ele>168</ele>
        <time>2012-03-11 10:47:52 +0000</time>
      </trkpt>
      <trkpt lat="44.30848" lon="1.09105">
        <ele>167</ele>
        <time>2012-03-11 10:47:55 +0000</time>
      </trkpt>
      <trkpt lat="44.30848" lon="1.09105">
        <ele>169</ele>
        <time>2012-03-11 10:47:58 +0000</time>
      </trkpt>
      <trkpt lat="44.30848" lon="1.09105">
        <ele>171</ele>
        <time>2012-03-11 10:48:01 +0000</time>
      </trkpt>
      <trkpt lat="44.30848" lon="1.09105">
        <ele>172</ele>
        <time>2012-03-11 10:48:05 +0000</time>
      </trkpt>
      <trkpt lat="44.30848" lon="1.09105">
        <ele>171</ele>
        <time>2012-03-11 10:48:09 +0000</time>
      </trkpt>
      <trkpt lat="44.30848" lon="1.09105">
        <ele>169</ele>
        <time>2012-03-11 10:48:12 +0000</time>
      </trkpt>
      <trkpt lat="44.30848" lon="1.09105">
        <ele>165</ele>
        <time>2012-03-11 10:48:16 +0000</time>
      </trkpt>
      <trkpt lat="44.30848" lon="1.09105">
        <ele>169</ele>
        <time>2012-03-11 10:48:20 +0000</time>
      </trkpt>
      <trkpt lat="44.30848" lon="1.09105">
        <ele>171</ele>
        <time>2012-03-11 10:48:24 +0000</time>
      </trkpt>
      <trkpt lat="44.30849" lon="1.09104">
        <ele>166</ele>
        <time>2012-03-11 10:48:27 +0000</time>
      </trkpt>
      <trkpt lat="44.30849" lon="1.09103">
        <ele>168</ele>
        <time>2012-03-11 10:48:30 +0000</time>
      </trkpt>
      <trkpt lat="44.3085" lon="1.09103">
        <ele>171</ele>
        <time>2012-03-11 10:48:34 +0000</time>
      </trkpt>
      <trkpt lat="44.3085" lon="1.09103">
        <ele>173</ele>
        <time>2012-03-11 10:48:37 +0000</time>
      </trkpt>
      <trkpt lat="44.3085" lon="1.09103">
        <ele>172</ele>
        <time>2012-03-11 10:48:40 +0000</time>
      </trkpt>
      <trkpt lat="44.3085" lon="1.09103">
        <ele>169</ele>
        <time>2012-03-11 10:48:44 +0000</time>
      </trkpt>
      <trkpt lat="44.3085" lon="1.09103">
        <ele>169</ele>
        <time>2012-03-11 10:48:47 +0000</time>
      </trkpt>
      <trkpt lat="44.30852" lon="1.09101">
        <ele>172</ele>
        <time>2012-03-11 10:48:50 +0000</time>
      </trkpt>
      <trkpt lat="44.3086" lon="1.09099">
        <ele>172</ele>
        <time>2012-03-11 10:48:53 +0000</time>
      </trkpt>
      <trkpt lat="44.30875" lon="1.09098">
        <ele>169</ele>
        <time>2012-03-11 10:48:57 +0000</time>
      </trkpt>
      <trkpt lat="44.30891" lon="1.09096">
        <ele>169</ele>
        <time>2012-03-11 10:49:00 +0000</time>
      </trkpt>
      <trkpt lat="44.30906" lon="1.09097">
        <ele>170</ele>
        <time>2012-03-11 10:49:03 +0000</time>
      </trkpt>
      <trkpt lat="44.30925" lon="1.09095">
        <ele>169</ele>
        <time>2012-03-11 10:49:07 +0000</time>
      </trkpt>
      <trkpt lat="44.30942" lon="1.09089">
        <ele>166</ele>
        <time>2012-03-11 10:49:10 +0000</time>
      </trkpt>
      <trkpt lat="44.30959" lon="1.09081">
        <ele>165</ele>
        <time>2012-03-11 10:49:13 +0000</time>
      </trkpt>
      <trkpt lat="44.30981" lon="1.0908">
        <ele>156</ele>
        <time>2012-03-11 10:49:17 +0000</time>
      </trkpt>
      <trkpt lat="44.30998" lon="1.09093">
        <ele>156</ele>
        <time>2012-03-11 10:49:20 +0000</time>
      </trkpt>
      <trkpt lat="44.31019" lon="1.09116">
        <ele>155</ele>
        <time>2012-03-11 10:49:24 +0000</time>
      </trkpt>
      <trkpt lat="44.31034" lon="1.09137">
        <ele>155</ele>
        <time>2012-03-11 10:49:28 +0000</time>
      </trkpt>
      <trkpt lat="44.31031" lon="1.09167">
        <ele>154</ele>
        <time>2012-03-11 10:49:32 +0000</time>
      </trkpt>
      <trkpt lat="44.31028" lon="1.0919">
        <ele>152</ele>
        <time>2012-03-11 10:49:35 +0000</time>
      </trkpt>
      <trkpt lat="44.31028" lon="1.09211">
        <ele>152</ele>
        <time>2012-03-11 10:49:38 +0000</time>
      </trkpt>
      <trkpt lat="44.31036" lon="1.09219">
        <ele>152</ele>
        <time>2012-03-11 10:49:41 +0000</time>
      </trkpt>
      <trkpt lat="44.31049" lon="1.09235">
        <ele>155</ele>
        <time>2012-03-11 10:49:45 +0000</time>
      </trkpt>
      <trkpt lat="44.31057" lon="1.09249">
        <ele>154</ele>
        <time>2012-03-11 10:49:49 +0000</time>
      </trkpt>
      <trkpt lat="44.31062" lon="1.09257">
        <ele>154</ele>
        <time>2012-03-11 10:49:52 +0000</time>
      </trkpt>
      <trkpt lat="44.31066" lon="1.09263">
        <ele>155</ele>
        <time>2012-03-11 10:49:56 +0000</time>
      </trkpt>
      <trkpt lat="44.31071" lon="1.09269">
        <ele>156</ele>
        <time>2012-03-11 10:49:59 +0000</time>
      </trkpt>
      <trkpt lat="44.31083" lon="1.0928">
        <ele>154</ele>
        <time>2012-03-11 10:50:03 +0000</time>
      </trkpt>
      <trkpt lat="44.31094" lon="1.09287">
        <ele>149</ele>
        <time>2012-03-11 10:50:06 +0000</time>
      </trkpt>
      <trkpt lat="44.3111" lon="1.09301">
        <ele>148</ele>
        <time>2012-03-11 10:50:10 +0000</time>
      </trkpt>
      <trkpt lat="44.31124" lon="1.09312">
        <ele>150</ele>
        <time>2012-03-11 10:50:14 +0000</time>
      </trkpt>
      <trkpt lat="44.31137" lon="1.09318">
        <ele>149</ele>
        <time>2012-03-11 10:50:17 +0000</time>
      </trkpt>
      <trkpt lat="44.31151" lon="1.09322">
        <ele>146</ele>
        <time>2012-03-11 10:50:21 +0000</time>
      </trkpt>
      <trkpt lat="44.31167" lon="1.09324">
        <ele>145</ele>
        <time>2012-03-11 10:50:25 +0000</time>
      </trkpt>
      <trkpt lat="44.31184" lon="1.09324">
        <ele>148</ele>
        <time>2012-03-11 10:50:29 +0000</time>
      </trkpt>
      <trkpt lat="44.31195" lon="1.09324">
        <ele>151</ele>
        <time>2012-03-11 10:50:32 +0000</time>
      </trkpt>
      <trkpt lat="44.31209" lon="1.09326">
        <ele>147</ele>
        <time>2012-03-11 10:50:35 +0000</time>
      </trkpt>
      <trkpt lat="44.3122" lon="1.09329">
        <ele>150</ele>
        <time>2012-03-11 10:50:38 +0000</time>
      </trkpt>
      <trkpt lat="44.31239" lon="1.09336">
        <ele>151</ele>
        <time>2012-03-11 10:50:42 +0000</time>
      </trkpt>
      <trkpt lat="44.31255" lon="1.09343">
        <ele>150</ele>
        <time>2012-03-11 10:50:46 +0000</time>
      </trkpt>
      <trkpt lat="44.31268" lon="1.09349">
        <ele>150</ele>
        <time>2012-03-11 10:50:49 +0000</time>
      </trkpt>
      <trkpt lat="44.31286" lon="1.0936">
        <ele>147</ele>
        <time>2012-03-11 10:50:53 +0000</time>
      </trkpt>
      <trkpt lat="44.31297" lon="1.09366">
        <ele>148</ele>
        <time>2012-03-11 10:50:56 +0000</time>
      </trkpt>
      <trkpt lat="44.31309" lon="1.09371">
        <ele>149</ele>
        <time>2012-03-11 10:50:59 +0000</time>
      </trkpt>
      <trkpt lat="44.31325" lon="1.09378">
        <ele>148</ele>
        <time>2012-03-11 10:51:03 +0000</time>
      </trkpt>
      <trkpt lat="44.31339" lon="1.09382">
        <ele>146</ele>
        <time>2012-03-11 10:51:06 +0000</time>
      </trkpt>
      <trkpt lat="44.31353" lon="1.09384">
        <ele>150</ele>
        <time>2012-03-11 10:51:10 +0000</time>
      </trkpt>
      <trkpt lat="44.31366" lon="1.09386">
        <ele>155</ele>
        <time>2012-03-11 10:51:13 +0000</time>
      </trkpt>
      <trkpt lat="44.31383" lon="1.09389">
        <ele>151</ele>
        <time>2012-03-11 10:51:17 +0000</time>
      </trkpt>
      <trkpt lat="44.31395" lon="1.09391">
        <ele>147</ele>
        <time>2012-03-11 10:51:21 +0000</time>
      </trkpt>
      <trkpt lat="44.31405" lon="1.09391">
        <ele>150</ele>
        <time>2012-03-11 10:51:24 +0000</time>
      </trkpt>
      <trkpt lat="44.31415" lon="1.09392">
        <ele>152</ele>
        <time>2012-03-11 10:51:27 +0000</time>
      </trkpt>
      <trkpt lat="44.31432" lon="1.09396">
        <ele>148</ele>
        <time>2012-03-11 10:51:31 +0000</time>
      </trkpt>
      <trkpt lat="44.3144" lon="1.09398">
        <ele>144</ele>
        <time>2012-03-11 10:51:34 +0000</time>
      </trkpt>
      <trkpt lat="44.31454" lon="1.09397">
        <ele>152</ele>
        <time>2012-03-11 10:51:38 +0000</time>
      </trkpt>
      <trkpt lat="44.31466" lon="1.09396">
        <ele>149</ele>
        <time>2012-03-11 10:51:41 +0000</time>
      </trkpt>
      <trkpt lat="44.31479" lon="1.09398">
        <ele>149</ele>
        <time>2012-03-11 10:51:45 +0000</time>
      </trkpt>
      <trkpt lat="44.3149" lon="1.094">
        <ele>154</ele>
        <time>2012-03-11 10:51:49 +0000</time>
      </trkpt>
      <trkpt lat="44.315" lon="1.09401">
        <ele>151</ele>
        <time>2012-03-11 10:51:52 +0000</time>
      </trkpt>
      <trkpt lat="44.31514" lon="1.09402">
        <ele>150</ele>
        <time>2012-03-11 10:51:56 +0000</time>
      </trkpt>
      <trkpt lat="44.31524" lon="1.09402">
        <ele>153</ele>
        <time>2012-03-11 10:51:59 +0000</time>
      </trkpt>
      <trkpt lat="44.31535" lon="1.09406">
        <ele>154</ele>
        <time>2012-03-11 10:52:03 +0000</time>
      </trkpt>
      <trkpt lat="44.31545" lon="1.09407">
        <ele>150</ele>
        <time>2012-03-11 10:52:06 +0000</time>
      </trkpt>
      <trkpt lat="44.31558" lon="1.09407">
        <ele>155</ele>
        <time>2012-03-11 10:52:10 +0000</time>
      </trkpt>
      <trkpt lat="44.31572" lon="1.09407">
        <ele>153</ele>
        <time>2012-03-11 10:52:14 +0000</time>
      </trkpt>
      <trkpt lat="44.31582" lon="1.09406">
        <ele>155</ele>
        <time>2012-03-11 10:52:17 +0000</time>
      </trkpt>
      <trkpt lat="44.31593" lon="1.09406">
        <ele>152</ele>
        <time>2012-03-11 10:52:21 +0000</time>
      </trkpt>
      <trkpt lat="44.31606" lon="1.09404">
        <ele>154</ele>
        <time>2012-03-11 10:52:25 +0000</time>
      </trkpt>
      <trkpt lat="44.31613" lon="1.09402">
        <ele>149</ele>
        <time>2012-03-11 10:52:28 +0000</time>
      </trkpt>
      <trkpt lat="44.31625" lon="1.09399">
        <ele>162</ele>
        <time>2012-03-11 10:52:32 +0000</time>
      </trkpt>
      <trkpt lat="44.31635" lon="1.09399">
        <ele>157</ele>
        <time>2012-03-11 10:52:36 +0000</time>
      </trkpt>
      <trkpt lat="44.31643" lon="1.09399">
        <ele>155</ele>
        <time>2012-03-11 10:52:40 +0000</time>
      </trkpt>
      <trkpt lat="44.31652" lon="1.09401">
        <ele>157</ele>
        <time>2012-03-11 10:52:43 +0000</time>
      </trkpt>
      <trkpt lat="44.31666" lon="1.09403">
        <ele>152</ele>
        <time>2012-03-11 10:52:47 +0000</time>
      </trkpt>
      <trkpt lat="44.31676" lon="1.09405">
        <ele>156</ele>
        <time>2012-03-11 10:52:50 +0000</time>
      </trkpt>
      <trkpt lat="44.3169" lon="1.0941">
        <ele>154</ele>
        <time>2012-03-11 10:52:54 +0000</time>
      </trkpt>
      <trkpt lat="44.31704" lon="1.09415">
        <ele>154</ele>
        <time>2012-03-11 10:52:58 +0000</time>
      </trkpt>
      <trkpt lat="44.31717" lon="1.09414">
        <ele>158</ele>
        <time>2012-03-11 10:53:02 +0000</time>
      </trkpt>
      <trkpt lat="44.3173" lon="1.0941">
        <ele>161</ele>
        <time>2012-03-11 10:53:06 +0000</time>
      </trkpt>
      <trkpt lat="44.31742" lon="1.09407">
        <ele>156</ele>
        <time>2012-03-11 10:53:10 +0000</time>
      </trkpt>
      <trkpt lat="44.31748" lon="1.09406">
        <ele>156</ele>
        <time>2012-03-11 10:53:13 +0000</time>
      </trkpt>
      <trkpt lat="44.31757" lon="1.09404">
        <ele>156</ele>
        <time>2012-03-11 10:53:17 +0000</time>
      </trkpt>
      <trkpt lat="44.31765" lon="1.09404">
        <ele>160</ele>
        <time>2012-03-11 10:53:20 +0000</time>
      </trkpt>
      <trkpt lat="44.31775" lon="1.09404">
        <ele>155</ele>
        <time>2012-03-11 10:53:24 +0000</time>
      </trkpt>
      <trkpt lat="44.31786" lon="1.09407">
        <ele>158</ele>
        <time>2012-03-11 10:53:28 +0000</time>
      </trkpt>
      <trkpt lat="44.31799" lon="1.09412">
        <ele>154</ele>
        <time>2012-03-11 10:53:32 +0000</time>
      </trkpt>
      <trkpt lat="44.31812" lon="1.09417">
        <ele>155</ele>
        <time>2012-03-11 10:53:36 +0000</time>
      </trkpt>
      <trkpt lat="44.31826" lon="1.09423">
        <ele>157</ele>
        <time>2012-03-11 10:53:40 +0000</time>
      </trkpt>
      <trkpt lat="44.31837" lon="1.09428">
        <ele>150</ele>
        <time>2012-03-11 10:53:43 +0000</time>
      </trkpt>
      <trkpt lat="44.31849" lon="1.09436">
        <ele>157</ele>
        <time>2012-03-11 10:53:47 +0000</time>
      </trkpt>
      <trkpt lat="44.31866" lon="1.09447">
        <ele>158</ele>
        <time>2012-03-11 10:53:51 +0000</time>
      </trkpt>
      <trkpt lat="44.31878" lon="1.09454">
        <ele>151</ele>
        <time>2012-03-11 10:53:54 +0000</time>
      </trkpt>
      <trkpt lat="44.31892" lon="1.0946">
        <ele>150</ele>
        <time>2012-03-11 10:53:57 +0000</time>
      </trkpt>
      <trkpt lat="44.31906" lon="1.09464">
        <ele>155</ele>
        <time>2012-03-11 10:54:01 +0000</time>
      </trkpt>
      <trkpt lat="44.31917" lon="1.09466">
        <ele>156</ele>
        <time>2012-03-11 10:54:05 +0000</time>
      </trkpt>
      <trkpt lat="44.31929" lon="1.0947">
        <ele>154</ele>
        <time>2012-03-11 10:54:09 +0000</time>
      </trkpt>
      <trkpt lat="44.3194" lon="1.09474">
        <ele>156</ele>
        <time>2012-03-11 10:54:12 +0000</time>
      </trkpt>
      <trkpt lat="44.31955" lon="1.09478">
        <ele>157</ele>
        <time>2012-03-11 10:54:16 +0000</time>
      </trkpt>
      <trkpt lat="44.31967" lon="1.09483">
        <ele>154</ele>
        <time>2012-03-11 10:54:20 +0000</time>
      </trkpt>
      <trkpt lat="44.31976" lon="1.09487">
        <ele>153</ele>
        <time>2012-03-11 10:54:23 +0000</time>
      </trkpt>
      <trkpt lat="44.31987" lon="1.09496">
        <ele>153</ele>
        <time>2012-03-11 10:54:27 +0000</time>
      </trkpt>
      <trkpt lat="44.31994" lon="1.09504">
        <ele>155</ele>
        <time>2012-03-11 10:54:30 +0000</time>
      </trkpt>
      <trkpt lat="44.32004" lon="1.09517">
        <ele>156</ele>
        <time>2012-03-11 10:54:34 +0000</time>
      </trkpt>
      <trkpt lat="44.32012" lon="1.09527">
        <ele>156</ele>
        <time>2012-03-11 10:54:38 +0000</time>
      </trkpt>
      <trkpt lat="44.32022" lon="1.09536">
        <ele>157</ele>
        <time>2012-03-11 10:54:42 +0000</time>
      </trkpt>
      <trkpt lat="44.32028" lon="1.09541">
        <ele>156</ele>
        <time>2012-03-11 10:54:45 +0000</time>
      </trkpt>
      <trkpt lat="44.32038" lon="1.09547">
        <ele>156</ele>
        <time>2012-03-11 10:54:49 +0000</time>
      </trkpt>
      <trkpt lat="44.32047" lon="1.0955">
        <ele>156</ele>
        <time>2012-03-11 10:54:52 +0000</time>
      </trkpt>
      <trkpt lat="44.32057" lon="1.09555">
        <ele>156</ele>
        <time>2012-03-11 10:54:56 +0000</time>
      </trkpt>
      <trkpt lat="44.32064" lon="1.09559">
        <ele>156</ele>
        <time>2012-03-11 10:54:59 +0000</time>
      </trkpt>
      <trkpt lat="44.32075" lon="1.09563">
        <ele>156</ele>
        <time>2012-03-11 10:55:03 +0000</time>
      </trkpt>
      <trkpt lat="44.32085" lon="1.09567">
        <ele>155</ele>
        <time>2012-03-11 10:55:07 +0000</time>
      </trkpt>
      <trkpt lat="44.32093" lon="1.09571">
        <ele>155</ele>
        <time>2012-03-11 10:55:10 +0000</time>
      </trkpt>
      <trkpt lat="44.32103" lon="1.09575">
        <ele>155</ele>
        <time>2012-03-11 10:55:14 +0000</time>
      </trkpt>
      <trkpt lat="44.32114" lon="1.09577">
        <ele>157</ele>
        <time>2012-03-11 10:55:18 +0000</time>
      </trkpt>
      <trkpt lat="44.32121" lon="1.09579">
        <ele>156</ele>
        <time>2012-03-11 10:55:21 +0000</time>
      </trkpt>
      <trkpt lat="44.32133" lon="1.09581">
        <ele>156</ele>
        <time>2012-03-11 10:55:25 +0000</time>
      </trkpt>
      <trkpt lat="44.32143" lon="1.09585">
        <ele>156</ele>
        <time>2012-03-11 10:55:29 +0000</time>
      </trkpt>
      <trkpt lat="44.32155" lon="1.09589">
        <ele>156</ele>
        <time>2012-03-11 10:55:33 +0000</time>
      </trkpt>
      <trkpt lat="44.32163" lon="1.09593">
        <ele>156</ele>
        <time>2012-03-11 10:55:36 +0000</time>
      </trkpt>
      <trkpt lat="44.32174" lon="1.09596">
        <ele>156</ele>
        <time>2012-03-11 10:55:40 +0000</time>
      </trkpt>
      <trkpt lat="44.32183" lon="1.09597">
        <ele>156</ele>
        <time>2012-03-11 10:55:43 +0000</time>
      </trkpt>
      <trkpt lat="44.32193" lon="1.09598">
        <ele>158</ele>
        <time>2012-03-11 10:55:47 +0000</time>
      </trkpt>
      <trkpt lat="44.32204" lon="1.09597">
        <ele>158</ele>
        <time>2012-03-11 10:55:51 +0000</time>
      </trkpt>
      <trkpt lat="44.32211" lon="1.09595">
        <ele>158</ele>
        <time>2012-03-11 10:55:54 +0000</time>
      </trkpt>
      <trkpt lat="44.32221" lon="1.09591">
        <ele>156</ele>
        <time>2012-03-11 10:55:58 +0000</time>
      </trkpt>
      <trkpt lat="44.32228" lon="1.09588">
        <ele>155</ele>
        <time>2012-03-11 10:56:01 +0000</time>
      </trkpt>
      <trkpt lat="44.32236" lon="1.09585">
        <ele>156</ele>
        <time>2012-03-11 10:56:05 +0000</time>
      </trkpt>
      <trkpt lat="44.32242" lon="1.09582">
        <ele>157</ele>
        <time>2012-03-11 10:56:08 +0000</time>
      </trkpt>
      <trkpt lat="44.32248" lon="1.09579">
        <ele>159</ele>
        <time>2012-03-11 10:56:12 +0000</time>
      </trkpt>
      <trkpt lat="44.32253" lon="1.09577">
        <ele>158</ele>
        <time>2012-03-11 10:56:15 +0000</time>
      </trkpt>
      <trkpt lat="44.32259" lon="1.09575">
        <ele>160</ele>
        <time>2012-03-11 10:56:19 +0000</time>
      </trkpt>
      <trkpt lat="44.32264" lon="1.09574">
        <ele>159</ele>
        <time>2012-03-11 10:56:22 +0000</time>
      </trkpt>
      <trkpt lat="44.32269" lon="1.09572">
        <ele>159</ele>
        <time>2012-03-11 10:56:25 +0000</time>
      </trkpt>
      <trkpt lat="44.32276" lon="1.09571">
        <ele>160</ele>
        <time>2012-03-11 10:56:29 +0000</time>
      </trkpt>
      <trkpt lat="44.32281" lon="1.0957">
        <ele>161</ele>
        <time>2012-03-11 10:56:32 +0000</time>
      </trkpt>
      <trkpt lat="44.3229" lon="1.09568">
        <ele>163</ele>
        <time>2012-03-11 10:56:36 +0000</time>
      </trkpt>
      <trkpt lat="44.32297" lon="1.09568">
        <ele>163</ele>
        <time>2012-03-11 10:56:39 +0000</time>
      </trkpt>
      <trkpt lat="44.32304" lon="1.0957">
        <ele>162</ele>
        <time>2012-03-11 10:56:42 +0000</time>
      </trkpt>
      <trkpt lat="44.32311" lon="1.09573">
        <ele>161</ele>
        <time>2012-03-11 10:56:45 +0000</time>
      </trkpt>
      <trkpt lat="44.32321" lon="1.09577">
        <ele>160</ele>
        <time>2012-03-11 10:56:49 +0000</time>
      </trkpt>
      <trkpt lat="44.32328" lon="1.09578">
        <ele>162</ele>
        <time>2012-03-11 10:56:52 +0000</time>
      </trkpt>
      <trkpt lat="44.32336" lon="1.0958">
        <ele>161</ele>
        <time>2012-03-11 10:56:55 +0000</time>
      </trkpt>
      <trkpt lat="44.32344" lon="1.09581">
        <ele>161</ele>
        <time>2012-03-11 10:56:59 +0000</time>
      </trkpt>
      <trkpt lat="44.32351" lon="1.09582">
        <ele>160</ele>
        <time>2012-03-11 10:57:03 +0000</time>
      </trkpt>
      <trkpt lat="44.32357" lon="1.09582">
        <ele>162</ele>
        <time>2012-03-11 10:57:07 +0000</time>
      </trkpt>
      <trkpt lat="44.32363" lon="1.09583">
        <ele>163</ele>
        <time>2012-03-11 10:57:10 +0000</time>
      </trkpt>
      <trkpt lat="44.32367" lon="1.09583">
        <ele>164</ele>
        <time>2012-03-11 10:57:13 +0000</time>
      </trkpt>
      <trkpt lat="44.32373" lon="1.09586">
        <ele>163</ele>
        <time>2012-03-11 10:57:17 +0000</time>
      </trkpt>
      <trkpt lat="44.32382" lon="1.09593">
        <ele>164</ele>
        <time>2012-03-11 10:57:21 +0000</time>
      </trkpt>
      <trkpt lat="44.32389" lon="1.09599">
        <ele>164</ele>
        <time>2012-03-11 10:57:24 +0000</time>
      </trkpt>
      <trkpt lat="44.32401" lon="1.0961">
        <ele>162</ele>
        <time>2012-03-11 10:57:28 +0000</time>
      </trkpt>
      <trkpt lat="44.32415" lon="1.09622">
        <ele>164</ele>
        <time>2012-03-11 10:57:32 +0000</time>
      </trkpt>
      <trkpt lat="44.32433" lon="1.09636">
        <ele>160</ele>
        <time>2012-03-11 10:57:36 +0000</time>
      </trkpt>
      <trkpt lat="44.32446" lon="1.09658">
        <ele>160</ele>
        <time>2012-03-11 10:57:39 +0000</time>
      </trkpt>
      <trkpt lat="44.32444" lon="1.09699">
        <ele>157</ele>
        <time>2012-03-11 10:57:43 +0000</time>
      </trkpt>
      <trkpt lat="44.32441" lon="1.09732">
        <ele>157</ele>
        <time>2012-03-11 10:57:46 +0000</time>
      </trkpt>
      <trkpt lat="44.32437" lon="1.09762">
        <ele>156</ele>
        <time>2012-03-11 10:57:49 +0000</time>
      </trkpt>
      <trkpt lat="44.32434" lon="1.09787">
        <ele>153</ele>
        <time>2012-03-11 10:57:52 +0000</time>
      </trkpt>
      <trkpt lat="44.3243" lon="1.09819">
        <ele>159</ele>
        <time>2012-03-11 10:57:56 +0000</time>
      </trkpt>
      <trkpt lat="44.32428" lon="1.09841">
        <ele>155</ele>
        <time>2012-03-11 10:57:59 +0000</time>
      </trkpt>
      <trkpt lat="44.32423" lon="1.09864">
        <ele>154</ele>
        <time>2012-03-11 10:58:03 +0000</time>
      </trkpt>
      <trkpt lat="44.3242" lon="1.09884">
        <ele>155</ele>
        <time>2012-03-11 10:58:06 +0000</time>
      </trkpt>
      <trkpt lat="44.32415" lon="1.09906">
        <ele>148</ele>
        <time>2012-03-11 10:58:10 +0000</time>
      </trkpt>
      <trkpt lat="44.32407" lon="1.0993">
        <ele>154</ele>
        <time>2012-03-11 10:58:14 +0000</time>
      </trkpt>
      <trkpt lat="44.32401" lon="1.09945">
        <ele>152</ele>
        <time>2012-03-11 10:58:17 +0000</time>
      </trkpt>
      <trkpt lat="44.32389" lon="1.09966">
        <ele>158</ele>
        <time>2012-03-11 10:58:21 +0000</time>
      </trkpt>
      <trkpt lat="44.32383" lon="1.09979">
        <ele>152</ele>
        <time>2012-03-11 10:58:24 +0000</time>
      </trkpt>
      <trkpt lat="44.32372" lon="1.09997">
        <ele>150</ele>
        <time>2012-03-11 10:58:27 +0000</time>
      </trkpt>
      <trkpt lat="44.3236" lon="1.1002">
        <ele>157</ele>
        <time>2012-03-11 10:58:31 +0000</time>
      </trkpt>
      <trkpt lat="44.32354" lon="1.10039">
        <ele>158</ele>
        <time>2012-03-11 10:58:34 +0000</time>
      </trkpt>
      <trkpt lat="44.32351" lon="1.10063">
        <ele>154</ele>
        <time>2012-03-11 10:58:38 +0000</time>
      </trkpt>
      <trkpt lat="44.32348" lon="1.10087">
        <ele>153</ele>
        <time>2012-03-11 10:58:42 +0000</time>
      </trkpt>
      <trkpt lat="44.32347" lon="1.10112">
        <ele>153</ele>
        <time>2012-03-11 10:58:46 +0000</time>
      </trkpt>
      <trkpt lat="44.32347" lon="1.10142">
        <ele>152</ele>
        <time>2012-03-11 10:58:50 +0000</time>
      </trkpt>
      <trkpt lat="44.32347" lon="1.10162">
        <ele>158</ele>
        <time>2012-03-11 10:58:53 +0000</time>
      </trkpt>
      <trkpt lat="44.32347" lon="1.10185">
        <ele>150</ele>
        <time>2012-03-11 10:58:57 +0000</time>
      </trkpt>
      <trkpt lat="44.32345" lon="1.1021">
        <ele>155</ele>
        <time>2012-03-11 10:59:01 +0000</time>
      </trkpt>
      <trkpt lat="44.32346" lon="1.10236">
        <ele>151</ele>
        <time>2012-03-11 10:59:05 +0000</time>
      </trkpt>
      <trkpt lat="44.32344" lon="1.10255">
        <ele>157</ele>
        <time>2012-03-11 10:59:08 +0000</time>
      </trkpt>
      <trkpt lat="44.32343" lon="1.10281">
        <ele>160</ele>
        <time>2012-03-11 10:59:12 +0000</time>
      </trkpt>
      <trkpt lat="44.32343" lon="1.10308">
        <ele>159</ele>
        <time>2012-03-11 10:59:16 +0000</time>
      </trkpt>
      <trkpt lat="44.32342" lon="1.1033">
        <ele>153</ele>
        <time>2012-03-11 10:59:20 +0000</time>
      </trkpt>
      <trkpt lat="44.32342" lon="1.10339">
        <ele>159</ele>
        <time>2012-03-11 10:59:23 +0000</time>
      </trkpt>
      <trkpt lat="44.32343" lon="1.10352">
        <ele>160</ele>
        <time>2012-03-11 10:59:26 +0000</time>
      </trkpt>
      <trkpt lat="44.32346" lon="1.10361">
        <ele>157</ele>
        <time>2012-03-11 10:59:30 +0000</time>
      </trkpt>
      <trkpt lat="44.32355" lon="1.10369">
        <ele>158</ele>
        <time>2012-03-11 10:59:33 +0000</time>
      </trkpt>
      <trkpt lat="44.32363" lon="1.10374">
        <ele>159</ele>
        <time>2012-03-11 10:59:37 +0000</time>
      </trkpt>
      <trkpt lat="44.32377" lon="1.10376">
        <ele>156</ele>
        <time>2012-03-11 10:59:41 +0000</time>
      </trkpt>
      <trkpt lat="44.32387" lon="1.10373">
        <ele>155</ele>
        <time>2012-03-11 10:59:45 +0000</time>
      </trkpt>
      <trkpt lat="44.32396" lon="1.10369">
        <ele>164</ele>
        <time>2012-03-11 10:59:48 +0000</time>
      </trkpt>
      <trkpt lat="44.32405" lon="1.10362">
        <ele>164</ele>
        <time>2012-03-11 10:59:52 +0000</time>
      </trkpt>
      <trkpt lat="44.32414" lon="1.10361">
        <ele>164</ele>
        <time>2012-03-11 10:59:56 +0000</time>
      </trkpt>
      <trkpt lat="44.32425" lon="1.10362">
        <ele>158</ele>
        <time>2012-03-11 11:00:00 +0000</time>
      </trkpt>
      <trkpt lat="44.32434" lon="1.1036">
        <ele>160</ele>
        <time>2012-03-11 11:00:03 +0000</time>
      </trkpt>
      <trkpt lat="44.32443" lon="1.10364">
        <ele>164</ele>
        <time>2012-03-11 11:00:07 +0000</time>
      </trkpt>
      <trkpt lat="44.32449" lon="1.10374">
        <ele>163</ele>
        <time>2012-03-11 11:00:11 +0000</time>
      </trkpt>
      <trkpt lat="44.32453" lon="1.10381">
        <ele>162</ele>
        <time>2012-03-11 11:00:14 +0000</time>
      </trkpt>
      <trkpt lat="44.32455" lon="1.10387">
        <ele>163</ele>
        <time>2012-03-11 11:00:17 +0000</time>
      </trkpt>
      <trkpt lat="44.32457" lon="1.10393">
        <ele>165</ele>
        <time>2012-03-11 11:00:20 +0000</time>
      </trkpt>
      <trkpt lat="44.32458" lon="1.10401">
        <ele>165</ele>
        <time>2012-03-11 11:00:23 +0000</time>
      </trkpt>
      <trkpt lat="44.32459" lon="1.10412">
        <ele>166</ele>
        <time>2012-03-11 11:00:27 +0000</time>
      </trkpt>
      <trkpt lat="44.32459" lon="1.10419">
        <ele>163</ele>
        <time>2012-03-11 11:00:30 +0000</time>
      </trkpt>
      <trkpt lat="44.3246" lon="1.10428">
        <ele>164</ele>
        <time>2012-03-11 11:00:34 +0000</time>
      </trkpt>
      <trkpt lat="44.32462" lon="1.10437">
        <ele>165</ele>
        <time>2012-03-11 11:00:38 +0000</time>
      </trkpt>
      <trkpt lat="44.32465" lon="1.10446">
        <ele>165</ele>
        <time>2012-03-11 11:00:42 +0000</time>
      </trkpt>
      <trkpt lat="44.32468" lon="1.10455">
        <ele>164</ele>
        <time>2012-03-11 11:00:46 +0000</time>
      </trkpt>
      <trkpt lat="44.3247" lon="1.10462">
        <ele>163</ele>
        <time>2012-03-11 11:00:49 +0000</time>
      </trkpt>
      <trkpt lat="44.32471" lon="1.1047">
        <ele>160</ele>
        <time>2012-03-11 11:00:52 +0000</time>
      </trkpt>
      <trkpt lat="44.32472" lon="1.10474">
        <ele>166</ele>
        <time>2012-03-11 11:00:55 +0000</time>
      </trkpt>
      <trkpt lat="44.32473" lon="1.10485">
        <ele>166</ele>
        <time>2012-03-11 11:00:59 +0000</time>
      </trkpt>
      <trkpt lat="44.32473" lon="1.10494">
        <ele>161</ele>
        <time>2012-03-11 11:01:03 +0000</time>
      </trkpt>
      <trkpt lat="44.32473" lon="1.10503">
        <ele>167</ele>
        <time>2012-03-11 11:01:06 +0000</time>
      </trkpt>
      <trkpt lat="44.32471" lon="1.10516">
        <ele>169</ele>
        <time>2012-03-11 11:01:10 +0000</time>
      </trkpt>
      <trkpt lat="44.3247" lon="1.10525">
        <ele>168</ele>
        <time>2012-03-11 11:01:14 +0000</time>
      </trkpt>
      <trkpt lat="44.32469" lon="1.10536">
        <ele>168</ele>
        <time>2012-03-11 11:01:17 +0000</time>
      </trkpt>
      <trkpt lat="44.32467" lon="1.10549">
        <ele>166</ele>
        <time>2012-03-11 11:01:21 +0000</time>
      </trkpt>
      <trkpt lat="44.32467" lon="1.1056">
        <ele>165</ele>
        <time>2012-03-11 11:01:24 +0000</time>
      </trkpt>
      <trkpt lat="44.32465" lon="1.10576">
        <ele>165</ele>
        <time>2012-03-11 11:01:28 +0000</time>
      </trkpt>
      <trkpt lat="44.32463" lon="1.10593">
        <ele>164</ele>
        <time>2012-03-11 11:01:32 +0000</time>
      </trkpt>
      <trkpt lat="44.32461" lon="1.10606">
        <ele>163</ele>
        <time>2012-03-11 11:01:36 +0000</time>
      </trkpt>
      <trkpt lat="44.32458" lon="1.10622">
        <ele>163</ele>
        <time>2012-03-11 11:01:40 +0000</time>
      </trkpt>
      <trkpt lat="44.32455" lon="1.10638">
        <ele>163</ele>
        <time>2012-03-11 11:01:44 +0000</time>
      </trkpt>
      <trkpt lat="44.32452" lon="1.10656">
        <ele>168</ele>
        <time>2012-03-11 11:01:48 +0000</time>
      </trkpt>
      <trkpt lat="44.32449" lon="1.10669">
        <ele>167</ele>
        <time>2012-03-11 11:01:51 +0000</time>
      </trkpt>
      <trkpt lat="44.32445" lon="1.10686">
        <ele>164</ele>
        <time>2012-03-11 11:01:55 +0000</time>
      </trkpt>
      <trkpt lat="44.32442" lon="1.10704">
        <ele>167</ele>
        <time>2012-03-11 11:01:59 +0000</time>
      </trkpt>
      <trkpt lat="44.3244" lon="1.10721">
        <ele>162</ele>
        <time>2012-03-11 11:02:03 +0000</time>
      </trkpt>
      <trkpt lat="44.32439" lon="1.10734">
        <ele>168</ele>
        <time>2012-03-11 11:02:06 +0000</time>
      </trkpt>
      <trkpt lat="44.32442" lon="1.10751">
        <ele>165</ele>
        <time>2012-03-11 11:02:10 +0000</time>
      </trkpt>
      <trkpt lat="44.32445" lon="1.10767">
        <ele>162</ele>
        <time>2012-03-11 11:02:14 +0000</time>
      </trkpt>
      <trkpt lat="44.32449" lon="1.1078">
        <ele>169</ele>
        <time>2012-03-11 11:02:18 +0000</time>
      </trkpt>
      <trkpt lat="44.32454" lon="1.10793">
        <ele>167</ele>
        <time>2012-03-11 11:02:21 +0000</time>
      </trkpt>
      <trkpt lat="44.32458" lon="1.10803">
        <ele>168</ele>
        <time>2012-03-11 11:02:24 +0000</time>
      </trkpt>
      <trkpt lat="44.32462" lon="1.10816">
        <ele>170</ele>
        <time>2012-03-11 11:02:28 +0000</time>
      </trkpt>
      <trkpt lat="44.32464" lon="1.10824">
        <ele>168</ele>
        <time>2012-03-11 11:02:31 +0000</time>
      </trkpt>
      <trkpt lat="44.32468" lon="1.10837">
        <ele>160</ele>
        <time>2012-03-11 11:02:34 +0000</time>
      </trkpt>
      <trkpt lat="44.32473" lon="1.10848">
        <ele>163</ele>
        <time>2012-03-11 11:02:38 +0000</time>
      </trkpt>
      <trkpt lat="44.32477" lon="1.10856">
        <ele>166</ele>
        <time>2012-03-11 11:02:41 +0000</time>
      </trkpt>
      <trkpt lat="44.32481" lon="1.10871">
        <ele>166</ele>
        <time>2012-03-11 11:02:45 +0000</time>
      </trkpt>
      <trkpt lat="44.32486" lon="1.10884">
        <ele>168</ele>
        <time>2012-03-11 11:02:49 +0000</time>
      </trkpt>
      <trkpt lat="44.32492" lon="1.10896">
        <ele>167</ele>
        <time>2012-03-11 11:02:53 +0000</time>
      </trkpt>
      <trkpt lat="44.32497" lon="1.10904">
        <ele>168</ele>
        <time>2012-03-11 11:02:56 +0000</time>
      </trkpt>
      <trkpt lat="44.32502" lon="1.10911">
        <ele>168</ele>
        <time>2012-03-11 11:02:59 +0000</time>
      </trkpt>
      <trkpt lat="44.3251" lon="1.10921">
        <ele>169</ele>
        <time>2012-03-11 11:03:03 +0000</time>
      </trkpt>
      <trkpt lat="44.32516" lon="1.10934">
        <ele>167</ele>
        <time>2012-03-11 11:03:07 +0000</time>
      </trkpt>
      <trkpt lat="44.3252" lon="1.10947">
        <ele>169</ele>
        <time>2012-03-11 11:03:11 +0000</time>
      </trkpt>
      <trkpt lat="44.32523" lon="1.10959">
        <ele>168</ele>
        <time>2012-03-11 11:03:14 +0000</time>
      </trkpt>
      <trkpt lat="44.32526" lon="1.10976">
        <ele>171</ele>
        <time>2012-03-11 11:03:18 +0000</time>
      </trkpt>
      <trkpt lat="44.32529" lon="1.1099">
        <ele>169</ele>
        <time>2012-03-11 11:03:21 +0000</time>
      </trkpt>
      <trkpt lat="44.32531" lon="1.11008">
        <ele>169</ele>
        <time>2012-03-11 11:03:25 +0000</time>
      </trkpt>
      <trkpt lat="44.32534" lon="1.11024">
        <ele>168</ele>
        <time>2012-03-11 11:03:29 +0000</time>
      </trkpt>
      <trkpt lat="44.32537" lon="1.11042">
        <ele>168</ele>
        <time>2012-03-11 11:03:33 +0000</time>
      </trkpt>
      <trkpt lat="44.3254" lon="1.11063">
        <ele>171</ele>
        <time>2012-03-11 11:03:37 +0000</time>
      </trkpt>
      <trkpt lat="44.32542" lon="1.1108">
        <ele>170</ele>
        <time>2012-03-11 11:03:41 +0000</time>
      </trkpt>
      <trkpt lat="44.32543" lon="1.11097">
        <ele>167</ele>
        <time>2012-03-11 11:03:45 +0000</time>
      </trkpt>
      <trkpt lat="44.32545" lon="1.11115">
        <ele>169</ele>
        <time>2012-03-11 11:03:49 +0000</time>
      </trkpt>
      <trkpt lat="44.32548" lon="1.1113">
        <ele>168</ele>
        <time>2012-03-11 11:03:52 +0000</time>
      </trkpt>
      <trkpt lat="44.32552" lon="1.11149">
        <ele>169</ele>
        <time>2012-03-11 11:03:56 +0000</time>
      </trkpt>
      <trkpt lat="44.32554" lon="1.11162">
        <ele>170</ele>
        <time>2012-03-11 11:03:59 +0000</time>
      </trkpt>
      <trkpt lat="44.32558" lon="1.11177">
        <ele>169</ele>
        <time>2012-03-11 11:04:03 +0000</time>
      </trkpt>
      <trkpt lat="44.32563" lon="1.11195">
        <ele>172</ele>
        <time>2012-03-11 11:04:07 +0000</time>
      </trkpt>
      <trkpt lat="44.32565" lon="1.11206">
        <ele>170</ele>
        <time>2012-03-11 11:04:10 +0000</time>
      </trkpt>
      <trkpt lat="44.32568" lon="1.11218">
        <ele>171</ele>
        <time>2012-03-11 11:04:13 +0000</time>
      </trkpt>
      <trkpt lat="44.32571" lon="1.11235">
        <ele>171</ele>
        <time>2012-03-11 11:04:17 +0000</time>
      </trkpt>
      <trkpt lat="44.32573" lon="1.11251">
        <ele>171</ele>
        <time>2012-03-11 11:04:21 +0000</time>
      </trkpt>
      <trkpt lat="44.32575" lon="1.11265">
        <ele>171</ele>
        <time>2012-03-11 11:04:24 +0000</time>
      </trkpt>
      <trkpt lat="44.32575" lon="1.11278">
        <ele>172</ele>
        <time>2012-03-11 11:04:27 +0000</time>
      </trkpt>
      <trkpt lat="44.32576" lon="1.11296">
        <ele>173</ele>
        <time>2012-03-11 11:04:31 +0000</time>
      </trkpt>
      <trkpt lat="44.32578" lon="1.11311">
        <ele>172</ele>
        <time>2012-03-11 11:04:35 +0000</time>
      </trkpt>
      <trkpt lat="44.3258" lon="1.11327">
        <ele>173</ele>
        <time>2012-03-11 11:04:39 +0000</time>
      </trkpt>
      <trkpt lat="44.32581" lon="1.1134">
        <ele>172</ele>
        <time>2012-03-11 11:04:42 +0000</time>
      </trkpt>
      <trkpt lat="44.32583" lon="1.11358">
        <ele>171</ele>
        <time>2012-03-11 11:04:46 +0000</time>
      </trkpt>
      <trkpt lat="44.32586" lon="1.11376">
        <ele>170</ele>
        <time>2012-03-11 11:04:50 +0000</time>
      </trkpt>
      <trkpt lat="44.32586" lon="1.11392">
        <ele>171</ele>
        <time>2012-03-11 11:04:53 +0000</time>
      </trkpt>
      <trkpt lat="44.32585" lon="1.11413">
        <ele>169</ele>
        <time>2012-03-11 11:04:57 +0000</time>
      </trkpt>
      <trkpt lat="44.32579" lon="1.11434">
        <ele>170</ele>
        <time>2012-03-11 11:05:01 +0000</time>
      </trkpt>
      <trkpt lat="44.32572" lon="1.11452">
        <ele>170</ele>
        <time>2012-03-11 11:05:04 +0000</time>
      </trkpt>
      <trkpt lat="44.32566" lon="1.11471">
        <ele>170</ele>
        <time>2012-03-11 11:05:07 +0000</time>
      </trkpt>
      <trkpt lat="44.32559" lon="1.115">
        <ele>173</ele>
        <time>2012-03-11 11:05:11 +0000</time>
      </trkpt>
      <trkpt lat="44.32553" lon="1.11523">
        <ele>172</ele>
        <time>2012-03-11 11:05:14 +0000</time>
      </trkpt>
      <trkpt lat="44.32544" lon="1.11543">
        <ele>173</ele>
        <time>2012-03-11 11:05:18 +0000</time>
      </trkpt>
      <trkpt lat="44.32536" lon="1.11563">
        <ele>169</ele>
        <time>2012-03-11 11:05:22 +0000</time>
      </trkpt>
      <trkpt lat="44.32528" lon="1.11579">
        <ele>171</ele>
        <time>2012-03-11 11:05:26 +0000</time>
      </trkpt>
      <trkpt lat="44.32522" lon="1.11595">
        <ele>173</ele>
        <time>2012-03-11 11:05:30 +0000</time>
      </trkpt>
      <trkpt lat="44.32515" lon="1.1161">
        <ele>170</ele>
        <time>2012-03-11 11:05:34 +0000</time>
      </trkpt>
      <trkpt lat="44.3251" lon="1.11623">
        <ele>170</ele>
        <time>2012-03-11 11:05:38 +0000</time>
      </trkpt>
      <trkpt lat="44.32506" lon="1.11636">
        <ele>175</ele>
        <time>2012-03-11 11:05:42 +0000</time>
      </trkpt>
      <trkpt lat="44.32503" lon="1.11645">
        <ele>178</ele>
        <time>2012-03-11 11:05:45 +0000</time>
      </trkpt>
      <trkpt lat="44.32501" lon="1.11659">
        <ele>179</ele>
        <time>2012-03-11 11:05:49 +0000</time>
      </trkpt>
      <trkpt lat="44.32499" lon="1.11668">
        <ele>176</ele>
        <time>2012-03-11 11:05:52 +0000</time>
      </trkpt>
      <trkpt lat="44.32497" lon="1.11686">
        <ele>176</ele>
        <time>2012-03-11 11:05:56 +0000</time>
      </trkpt>
      <trkpt lat="44.32495" lon="1.11697">
        <ele>181</ele>
        <time>2012-03-11 11:05:59 +0000</time>
      </trkpt>
      <trkpt lat="44.32493" lon="1.11712">
        <ele>177</ele>
        <time>2012-03-11 11:06:03 +0000</time>
      </trkpt>
      <trkpt lat="44.32492" lon="1.11724">
        <ele>177</ele>
        <time>2012-03-11 11:06:07 +0000</time>
      </trkpt>
      <trkpt lat="44.3249" lon="1.11735">
        <ele>178</ele>
        <time>2012-03-11 11:06:10 +0000</time>
      </trkpt>
      <trkpt lat="44.32488" lon="1.11744">
        <ele>177</ele>
        <time>2012-03-11 11:06:13 +0000</time>
      </trkpt>
      <trkpt lat="44.32486" lon="1.11756">
        <ele>178</ele>
        <time>2012-03-11 11:06:17 +0000</time>
      </trkpt>
      <trkpt lat="44.32485" lon="1.11764">
        <ele>177</ele>
        <time>2012-03-11 11:06:20 +0000</time>
      </trkpt>
      <trkpt lat="44.32484" lon="1.1177">
        <ele>175</ele>
        <time>2012-03-11 11:06:23 +0000</time>
      </trkpt>
      <trkpt lat="44.32483" lon="1.11782">
        <ele>175</ele>
        <time>2012-03-11 11:06:27 +0000</time>
      </trkpt>
      <trkpt lat="44.32482" lon="1.11792">
        <ele>176</ele>
        <time>2012-03-11 11:06:30 +0000</time>
      </trkpt>
      <trkpt lat="44.32482" lon="1.11804">
        <ele>176</ele>
        <time>2012-03-11 11:06:34 +0000</time>
      </trkpt>
      <trkpt lat="44.32483" lon="1.11815">
        <ele>177</ele>
        <time>2012-03-11 11:06:38 +0000</time>
      </trkpt>
      <trkpt lat="44.32484" lon="1.11823">
        <ele>178</ele>
        <time>2012-03-11 11:06:41 +0000</time>
      </trkpt>
      <trkpt lat="44.32484" lon="1.11834">
        <ele>177</ele>
        <time>2012-03-11 11:06:45 +0000</time>
      </trkpt>
      <trkpt lat="44.32486" lon="1.11843">
        <ele>180</ele>
        <time>2012-03-11 11:06:48 +0000</time>
      </trkpt>
      <trkpt lat="44.32486" lon="1.11855">
        <ele>180</ele>
        <time>2012-03-11 11:06:52 +0000</time>
      </trkpt>
      <trkpt lat="44.32486" lon="1.11867">
        <ele>179</ele>
        <time>2012-03-11 11:06:56 +0000</time>
      </trkpt>
      <trkpt lat="44.32485" lon="1.11875">
        <ele>177</ele>
        <time>2012-03-11 11:06:59 +0000</time>
      </trkpt>
      <trkpt lat="44.32484" lon="1.11887">
        <ele>179</ele>
        <time>2012-03-11 11:07:03 +0000</time>
      </trkpt>
      <trkpt lat="44.32483" lon="1.11895">
        <ele>180</ele>
        <time>2012-03-11 11:07:06 +0000</time>
      </trkpt>
      <trkpt lat="44.3248" lon="1.11904">
        <ele>183</ele>
        <time>2012-03-11 11:07:10 +0000</time>
      </trkpt>
      <trkpt lat="44.32478" lon="1.11912">
        <ele>185</ele>
        <time>2012-03-11 11:07:14 +0000</time>
      </trkpt>
      <trkpt lat="44.32473" lon="1.11921">
        <ele>190</ele>
        <time>2012-03-11 11:07:18 +0000</time>
      </trkpt>
      <trkpt lat="44.3247" lon="1.11929">
        <ele>193</ele>
        <time>2012-03-11 11:07:22 +0000</time>
      </trkpt>
      <trkpt lat="44.3247" lon="1.11931">
        <ele>188</ele>
        <time>2012-03-11 11:07:25 +0000</time>
      </trkpt>
      <trkpt lat="44.3247" lon="1.11931">
        <ele>182</ele>
        <time>2012-03-11 11:07:29 +0000</time>
      </trkpt>
      <trkpt lat="44.3247" lon="1.11931">
        <ele>188</ele>
        <time>2012-03-11 11:07:33 +0000</time>
      </trkpt>
      <trkpt lat="44.3247" lon="1.11931">
        <ele>186</ele>
        <time>2012-03-11 11:07:37 +0000</time>
      </trkpt>
      <trkpt lat="44.3247" lon="1.11931">
        <ele>193</ele>
        <time>2012-03-11 11:07:41 +0000</time>
      </trkpt>
      <trkpt lat="44.3247" lon="1.11931">
        <ele>177</ele>
        <time>2012-03-11 11:07:44 +0000</time>
      </trkpt>
      <trkpt lat="44.3247" lon="1.11931">
        <ele>178</ele>
        <time>2012-03-11 11:07:48 +0000</time>
      </trkpt>
      <trkpt lat="44.3247" lon="1.11931">
        <ele>186</ele>
        <time>2012-03-11 11:07:52 +0000</time>
      </trkpt>
      <trkpt lat="44.32468" lon="1.11933">
        <ele>192</ele>
        <time>2012-03-11 11:07:55 +0000</time>
      </trkpt>
      <trkpt lat="44.32465" lon="1.1194">
        <ele>185</ele>
        <time>2012-03-11 11:07:58 +0000</time>
      </trkpt>
      <trkpt lat="44.32462" lon="1.1195">
        <ele>192</ele>
        <time>2012-03-11 11:08:02 +0000</time>
      </trkpt>
      <trkpt lat="44.32458" lon="1.11959">
        <ele>195</ele>
        <time>2012-03-11 11:08:06 +0000</time>
      </trkpt>
      <trkpt lat="44.32457" lon="1.11968">
        <ele>193</ele>
        <time>2012-03-11 11:08:10 +0000</time>
      </trkpt>
      <trkpt lat="44.32455" lon="1.11976">
        <ele>193</ele>
        <time>2012-03-11 11:08:13 +0000</time>
      </trkpt>
      <trkpt lat="44.32452" lon="1.11985">
        <ele>195</ele>
        <time>2012-03-11 11:08:17 +0000</time>
      </trkpt>
      <trkpt lat="44.32449" lon="1.11992">
        <ele>193</ele>
        <time>2012-03-11 11:08:20 +0000</time>
      </trkpt>
      <trkpt lat="44.32448" lon="1.12001">
        <ele>191</ele>
        <time>2012-03-11 11:08:23 +0000</time>
      </trkpt>
      <trkpt lat="44.32447" lon="1.12006">
        <ele>195</ele>
        <time>2012-03-11 11:08:26 +0000</time>
      </trkpt>
      <trkpt lat="44.32446" lon="1.12015">
        <ele>197</ele>
        <time>2012-03-11 11:08:30 +0000</time>
      </trkpt>
      <trkpt lat="44.32446" lon="1.12021">
        <ele>197</ele>
        <time>2012-03-11 11:08:34 +0000</time>
      </trkpt>
      <trkpt lat="44.32446" lon="1.12028">
        <ele>196</ele>
        <time>2012-03-11 11:08:38 +0000</time>
      </trkpt>
      <trkpt lat="44.32446" lon="1.12032">
        <ele>196</ele>
        <time>2012-03-11 11:08:41 +0000</time>
      </trkpt>
      <trkpt lat="44.32447" lon="1.12039">
        <ele>197</ele>
        <time>2012-03-11 11:08:45 +0000</time>
      </trkpt>
      <trkpt lat="44.32447" lon="1.12047">
        <ele>198</ele>
        <time>2012-03-11 11:08:49 +0000</time>
      </trkpt>
      <trkpt lat="44.32449" lon="1.12053">
        <ele>199</ele>
        <time>2012-03-11 11:08:52 +0000</time>
      </trkpt>
      <trkpt lat="44.32451" lon="1.12058">
        <ele>198</ele>
        <time>2012-03-11 11:08:56 +0000</time>
      </trkpt>
      <trkpt lat="44.32453" lon="1.12063">
        <ele>199</ele>
        <time>2012-03-11 11:08:59 +0000</time>
      </trkpt>
      <trkpt lat="44.32456" lon="1.12069">
        <ele>199</ele>
        <time>2012-03-11 11:09:03 +0000</time>
      </trkpt>
      <trkpt lat="44.32458" lon="1.12072">
        <ele>199</ele>
        <time>2012-03-11 11:09:06 +0000</time>
      </trkpt>
      <trkpt lat="44.32458" lon="1.12077">
        <ele>201</ele>
        <time>2012-03-11 11:09:10 +0000</time>
      </trkpt>
      <trkpt lat="44.3246" lon="1.12082">
        <ele>200</ele>
        <time>2012-03-11 11:09:14 +0000</time>
      </trkpt>
      <trkpt lat="44.32463" lon="1.12088">
        <ele>202</ele>
        <time>2012-03-11 11:09:18 +0000</time>
      </trkpt>
      <trkpt lat="44.32466" lon="1.12093">
        <ele>201</ele>
        <time>2012-03-11 11:09:21 +0000</time>
      </trkpt>
      <trkpt lat="44.32468" lon="1.12096">
        <ele>203</ele>
        <time>2012-03-11 11:09:24 +0000</time>
      </trkpt>
      <trkpt lat="44.3247" lon="1.12101">
        <ele>203</ele>
        <time>2012-03-11 11:09:28 +0000</time>
      </trkpt>
      <trkpt lat="44.32473" lon="1.12106">
        <ele>206</ele>
        <time>2012-03-11 11:09:32 +0000</time>
      </trkpt>
      <trkpt lat="44.32476" lon="1.12111">
        <ele>208</ele>
        <time>2012-03-11 11:09:36 +0000</time>
      </trkpt>
      <trkpt lat="44.32478" lon="1.12115">
        <ele>208</ele>
        <time>2012-03-11 11:09:40 +0000</time>
      </trkpt>
      <trkpt lat="44.32481" lon="1.12121">
        <ele>208</ele>
        <time>2012-03-11 11:09:44 +0000</time>
      </trkpt>
      <trkpt lat="44.32485" lon="1.12125">
        <ele>205</ele>
        <time>2012-03-11 11:09:48 +0000</time>
      </trkpt>
      <trkpt lat="44.32488" lon="1.12129">
        <ele>207</ele>
        <time>2012-03-11 11:09:52 +0000</time>
      </trkpt>
      <trkpt lat="44.32491" lon="1.12132">
        <ele>210</ele>
        <time>2012-03-11 11:09:55 +0000</time>
      </trkpt>
      <trkpt lat="44.32494" lon="1.12136">
        <ele>212</ele>
        <time>2012-03-11 11:09:59 +0000</time>
      </trkpt>
      <trkpt lat="44.32495" lon="1.12141">
        <ele>211</ele>
        <time>2012-03-11 11:10:03 +0000</time>
      </trkpt>
      <trkpt lat="44.32497" lon="1.12144">
        <ele>210</ele>
        <time>2012-03-11 11:10:06 +0000</time>
      </trkpt>
      <trkpt lat="44.325" lon="1.12146">
        <ele>210</ele>
        <time>2012-03-11 11:10:09 +0000</time>
      </trkpt>
      <trkpt lat="44.325" lon="1.12146">
        <ele>211</ele>
        <time>2012-03-11 11:10:12 +0000</time>
      </trkpt>
      <trkpt lat="44.325" lon="1.12146">
        <ele>209</ele>
        <time>2012-03-11 11:10:16 +0000</time>
      </trkpt>
      <trkpt lat="44.325" lon="1.12147">
        <ele>211</ele>
        <time>2012-03-11 11:10:19 +0000</time>
      </trkpt>
      <trkpt lat="44.32502" lon="1.12151">
        <ele>210</ele>
        <time>2012-03-11 11:10:23 +0000</time>
      </trkpt>
      <trkpt lat="44.32506" lon="1.12155">
        <ele>208</ele>
        <time>2012-03-11 11:10:27 +0000</time>
      </trkpt>
      <trkpt lat="44.32508" lon="1.12158">
        <ele>210</ele>
        <time>2012-03-11 11:10:31 +0000</time>
      </trkpt>
      <trkpt lat="44.3251" lon="1.12162">
        <ele>212</ele>
        <time>2012-03-11 11:10:35 +0000</time>
      </trkpt>
      <trkpt lat="44.3251" lon="1.12164">
        <ele>211</ele>
        <time>2012-03-11 11:10:38 +0000</time>
      </trkpt>
      <trkpt lat="44.32512" lon="1.12168">
        <ele>213</ele>
        <time>2012-03-11 11:10:42 +0000</time>
      </trkpt>
      <trkpt lat="44.32513" lon="1.12171">
        <ele>213</ele>
        <time>2012-03-11 11:10:45 +0000</time>
      </trkpt>
      <trkpt lat="44.32515" lon="1.12174">
        <ele>214</ele>
        <time>2012-03-11 11:10:48 +0000</time>
      </trkpt>
      <trkpt lat="44.32518" lon="1.12178">
        <ele>215</ele>
        <time>2012-03-11 11:10:52 +0000</time>
      </trkpt>
      <trkpt lat="44.32519" lon="1.12181">
        <ele>216</ele>
        <time>2012-03-11 11:10:55 +0000</time>
      </trkpt>
      <trkpt lat="44.32519" lon="1.12186">
        <ele>217</ele>
        <time>2012-03-11 11:10:59 +0000</time>
      </trkpt>
      <trkpt lat="44.32519" lon="1.12191">
        <ele>215</ele>
        <time>2012-03-11 11:11:03 +0000</time>
      </trkpt>
      <trkpt lat="44.3252" lon="1.12195">
        <ele>214</ele>
        <time>2012-03-11 11:11:06 +0000</time>
      </trkpt>
      <trkpt lat="44.3252" lon="1.12199">
        <ele>214</ele>
        <time>2012-03-11 11:11:10 +0000</time>
      </trkpt>
      <trkpt lat="44.3252" lon="1.12205">
        <ele>215</ele>
        <time>2012-03-11 11:11:14 +0000</time>
      </trkpt>
      <trkpt lat="44.32519" lon="1.12208">
        <ele>215</ele>
        <time>2012-03-11 11:11:17 +0000</time>
      </trkpt>
      <trkpt lat="44.32519" lon="1.12213">
        <ele>218</ele>
        <time>2012-03-11 11:11:21 +0000</time>
      </trkpt>
      <trkpt lat="44.32518" lon="1.12216">
        <ele>218</ele>
        <time>2012-03-11 11:11:24 +0000</time>
      </trkpt>
      <trkpt lat="44.32517" lon="1.1222">
        <ele>218</ele>
        <time>2012-03-11 11:11:27 +0000</time>
      </trkpt>
      <trkpt lat="44.32516" lon="1.12224">
        <ele>219</ele>
        <time>2012-03-11 11:11:31 +0000</time>
      </trkpt>
      <trkpt lat="44.32516" lon="1.12226">
        <ele>219</ele>
        <time>2012-03-11 11:11:34 +0000</time>
      </trkpt>
      <trkpt lat="44.32514" lon="1.12231">
        <ele>218</ele>
        <time>2012-03-11 11:11:38 +0000</time>
      </trkpt>
      <trkpt lat="44.32513" lon="1.12235">
        <ele>220</ele>
        <time>2012-03-11 11:11:42 +0000</time>
      </trkpt>
      <trkpt lat="44.32512" lon="1.12238">
        <ele>220</ele>
        <time>2012-03-11 11:11:45 +0000</time>
      </trkpt>
      <trkpt lat="44.32511" lon="1.12241">
        <ele>220</ele>
        <time>2012-03-11 11:11:49 +0000</time>
      </trkpt>
      <trkpt lat="44.32511" lon="1.12244">
        <ele>222</ele>
        <time>2012-03-11 11:11:52 +0000</time>
      </trkpt>
      <trkpt lat="44.32511" lon="1.12244">
        <ele>224</ele>
        <time>2012-03-11 11:11:56 +0000</time>
      </trkpt>
      <trkpt lat="44.32511" lon="1.12244">
        <ele>224</ele>
        <time>2012-03-11 11:11:59 +0000</time>
      </trkpt>
      <trkpt lat="44.32511" lon="1.12244">
        <ele>225</ele>
        <time>2012-03-11 11:12:03 +0000</time>
      </trkpt>
      <trkpt lat="44.32511" lon="1.12244">
        <ele>222</ele>
        <time>2012-03-11 11:12:06 +0000</time>
      </trkpt>
      <trkpt lat="44.32511" lon="1.12244">
        <ele>221</ele>
        <time>2012-03-11 11:12:09 +0000</time>
      </trkpt>
      <trkpt lat="44.32511" lon="1.12244">
        <ele>220</ele>
        <time>2012-03-11 11:12:13 +0000</time>
      </trkpt>
      <trkpt lat="44.32511" lon="1.12246">
        <ele>229</ele>
        <time>2012-03-11 11:12:16 +0000</time>
      </trkpt>
      <trkpt lat="44.32511" lon="1.12248">
        <ele>223</ele>
        <time>2012-03-11 11:12:20 +0000</time>
      </trkpt>
      <trkpt lat="44.3251" lon="1.1225">
        <ele>224</ele>
        <time>2012-03-11 11:12:24 +0000</time>
      </trkpt>
      <trkpt lat="44.32508" lon="1.12255">
        <ele>224</ele>
        <time>2012-03-11 11:12:28 +0000</time>
      </trkpt>
      <trkpt lat="44.32508" lon="1.1226">
        <ele>226</ele>
        <time>2012-03-11 11:12:32 +0000</time>
      </trkpt>
      <trkpt lat="44.32508" lon="1.12264">
        <ele>227</ele>
        <time>2012-03-11 11:12:35 +0000</time>
      </trkpt>
      <trkpt lat="44.32507" lon="1.12268">
        <ele>225</ele>
        <time>2012-03-11 11:12:39 +0000</time>
      </trkpt>
      <trkpt lat="44.32505" lon="1.12272">
        <ele>225</ele>
        <time>2012-03-11 11:12:42 +0000</time>
      </trkpt>
      <trkpt lat="44.32505" lon="1.12275">
        <ele>224</ele>
        <time>2012-03-11 11:12:45 +0000</time>
      </trkpt>
      <trkpt lat="44.32505" lon="1.12281">
        <ele>224</ele>
        <time>2012-03-11 11:12:49 +0000</time>
      </trkpt>
      <trkpt lat="44.32505" lon="1.12285">
        <ele>226</ele>
        <time>2012-03-11 11:12:53 +0000</time>
      </trkpt>
      <trkpt lat="44.32504" lon="1.12288">
        <ele>228</ele>
        <time>2012-03-11 11:12:56 +0000</time>
      </trkpt>
      <trkpt lat="44.32504" lon="1.1229">
        <ele>226</ele>
        <time>2012-03-11 11:12:59 +0000</time>
      </trkpt>
      <trkpt lat="44.32504" lon="1.1229">
        <ele>226</ele>
        <time>2012-03-11 11:13:03 +0000</time>
      </trkpt>
      <trkpt lat="44.32504" lon="1.1229">
        <ele>226</ele>
        <time>2012-03-11 11:13:07 +0000</time>
      </trkpt>
      <trkpt lat="44.32504" lon="1.1229">
        <ele>227</ele>
        <time>2012-03-11 11:13:10 +0000</time>
      </trkpt>
      <trkpt lat="44.32504" lon="1.1229">
        <ele>230</ele>
        <time>2012-03-11 11:13:13 +0000</time>
      </trkpt>
      <trkpt lat="44.32504" lon="1.1229">
        <ele>230</ele>
        <time>2012-03-11 11:13:14 +0000</time>
      </trkpt>
    </trkseg>
  </trk>
</gpx>